<?xml version="1.0" encoding="UTF-8" standalone="no" ?>
<gpx xmlns="http://www.topografix.com/GPX/1/1" xmlns:xsi="http://www.w3.org/2001/XMLSchema-instance" xsi:schemaLocation="http://www.topografix.com/GPX/1/1 http://www.topografix.com/GPX/1/1/gpx.xsd" version="1.1" creator="VisuGPX - https://www.visugpx.com">
  <metadata>
    <name>Sortie du 6 mars 2014</name>
    <desc><![CDATA[Départ Wittenheim vers Ensisheim - Ungersheim - Soultz et retour par Staffelfelden et Pulversheim]]></desc>
  </metadata>
  <trk>
    <name><![CDATA[Sortie du 6 mars 2014_1]]></name>
    <trkseg>
      <trkpt lat="47.81421" lon="7.33334">
        <ele>231.1</ele>
        <time>2014-03-06T13:07:37Z</time>
      </trkpt>
      <trkpt lat="47.81424" lon="7.33335">
        <ele>231.7</ele>
        <time>2014-03-06T13:07:39Z</time>
      </trkpt>
      <trkpt lat="47.81426" lon="7.33335">
        <ele>231.4</ele>
        <time>2014-03-06T13:08:01Z</time>
      </trkpt>
      <trkpt lat="47.81427" lon="7.33338">
        <ele>231.5</ele>
        <time>2014-03-06T13:08:03Z</time>
      </trkpt>
      <trkpt lat="47.81428" lon="7.33345">
        <ele>231.8</ele>
        <time>2014-03-06T13:08:05Z</time>
      </trkpt>
      <trkpt lat="47.81428" lon="7.3336">
        <ele>231.3</ele>
        <time>2014-03-06T13:08:09Z</time>
      </trkpt>
      <trkpt lat="47.81428" lon="7.33367">
        <ele>230.5</ele>
        <time>2014-03-06T13:08:11Z</time>
      </trkpt>
      <trkpt lat="47.81432" lon="7.33372">
        <ele>230.7</ele>
        <time>2014-03-06T13:08:13Z</time>
      </trkpt>
      <trkpt lat="47.81438" lon="7.33374">
        <ele>231.1</ele>
        <time>2014-03-06T13:08:15Z</time>
      </trkpt>
      <trkpt lat="47.81446" lon="7.33376">
        <ele>231</ele>
        <time>2014-03-06T13:08:17Z</time>
      </trkpt>
      <trkpt lat="47.81454" lon="7.33376">
        <ele>230.8</ele>
        <time>2014-03-06T13:08:19Z</time>
      </trkpt>
      <trkpt lat="47.81461" lon="7.33377">
        <ele>231.1</ele>
        <time>2014-03-06T13:08:21Z</time>
      </trkpt>
      <trkpt lat="47.81468" lon="7.33377">
        <ele>230.9</ele>
        <time>2014-03-06T13:08:23Z</time>
      </trkpt>
      <trkpt lat="47.81475" lon="7.33378">
        <ele>231.3</ele>
        <time>2014-03-06T13:08:25Z</time>
      </trkpt>
      <trkpt lat="47.81481" lon="7.33378">
        <ele>231.3</ele>
        <time>2014-03-06T13:08:27Z</time>
      </trkpt>
      <trkpt lat="47.81487" lon="7.33379">
        <ele>231.1</ele>
        <time>2014-03-06T13:08:30Z</time>
      </trkpt>
      <trkpt lat="47.81493" lon="7.33379">
        <ele>231.5</ele>
        <time>2014-03-06T13:08:36Z</time>
      </trkpt>
      <trkpt lat="47.81499" lon="7.3338">
        <ele>230.3</ele>
        <time>2014-03-06T13:08:38Z</time>
      </trkpt>
      <trkpt lat="47.81506" lon="7.33381">
        <ele>231.2</ele>
        <time>2014-03-06T13:08:40Z</time>
      </trkpt>
      <trkpt lat="47.81513" lon="7.33381">
        <ele>230.5</ele>
        <time>2014-03-06T13:08:42Z</time>
      </trkpt>
      <trkpt lat="47.81521" lon="7.33382">
        <ele>231.1</ele>
        <time>2014-03-06T13:08:44Z</time>
      </trkpt>
      <trkpt lat="47.81529" lon="7.33382">
        <ele>231.1</ele>
        <time>2014-03-06T13:08:46Z</time>
      </trkpt>
      <trkpt lat="47.81537" lon="7.33382">
        <ele>231.3</ele>
        <time>2014-03-06T13:08:48Z</time>
      </trkpt>
      <trkpt lat="47.81546" lon="7.33382">
        <ele>231.2</ele>
        <time>2014-03-06T13:08:50Z</time>
      </trkpt>
      <trkpt lat="47.81554" lon="7.33383">
        <ele>232.2</ele>
        <time>2014-03-06T13:08:52Z</time>
      </trkpt>
      <trkpt lat="47.81563" lon="7.33384">
        <ele>232.6</ele>
        <time>2014-03-06T13:08:54Z</time>
      </trkpt>
      <trkpt lat="47.81572" lon="7.33385">
        <ele>232.2</ele>
        <time>2014-03-06T13:08:56Z</time>
      </trkpt>
      <trkpt lat="47.8158" lon="7.33386">
        <ele>231.4</ele>
        <time>2014-03-06T13:08:58Z</time>
      </trkpt>
      <trkpt lat="47.81589" lon="7.33387">
        <ele>231.2</ele>
        <time>2014-03-06T13:09:00Z</time>
      </trkpt>
      <trkpt lat="47.81595" lon="7.33388">
        <ele>231.5</ele>
        <time>2014-03-06T13:09:02Z</time>
      </trkpt>
      <trkpt lat="47.81602" lon="7.33388">
        <ele>229.5</ele>
        <time>2014-03-06T13:09:04Z</time>
      </trkpt>
      <trkpt lat="47.8161" lon="7.33388">
        <ele>230.7</ele>
        <time>2014-03-06T13:09:06Z</time>
      </trkpt>
      <trkpt lat="47.81618" lon="7.33388">
        <ele>230.4</ele>
        <time>2014-03-06T13:09:08Z</time>
      </trkpt>
      <trkpt lat="47.81626" lon="7.33389">
        <ele>230.9</ele>
        <time>2014-03-06T13:09:10Z</time>
      </trkpt>
      <trkpt lat="47.81635" lon="7.3339">
        <ele>231</ele>
        <time>2014-03-06T13:09:12Z</time>
      </trkpt>
      <trkpt lat="47.81642" lon="7.33391">
        <ele>231.8</ele>
        <time>2014-03-06T13:09:14Z</time>
      </trkpt>
      <trkpt lat="47.8165" lon="7.33391">
        <ele>232.1</ele>
        <time>2014-03-06T13:09:16Z</time>
      </trkpt>
      <trkpt lat="47.81659" lon="7.33392">
        <ele>232.1</ele>
        <time>2014-03-06T13:09:18Z</time>
      </trkpt>
      <trkpt lat="47.81667" lon="7.33393">
        <ele>231.7</ele>
        <time>2014-03-06T13:09:20Z</time>
      </trkpt>
      <trkpt lat="47.81676" lon="7.33393">
        <ele>230.7</ele>
        <time>2014-03-06T13:09:22Z</time>
      </trkpt>
      <trkpt lat="47.81685" lon="7.33394">
        <ele>231.2</ele>
        <time>2014-03-06T13:09:24Z</time>
      </trkpt>
      <trkpt lat="47.81694" lon="7.33394">
        <ele>230.7</ele>
        <time>2014-03-06T13:09:26Z</time>
      </trkpt>
      <trkpt lat="47.81703" lon="7.33396">
        <ele>230.8</ele>
        <time>2014-03-06T13:09:28Z</time>
      </trkpt>
      <trkpt lat="47.81712" lon="7.33398">
        <ele>230.8</ele>
        <time>2014-03-06T13:09:30Z</time>
      </trkpt>
      <trkpt lat="47.81722" lon="7.33399">
        <ele>233</ele>
        <time>2014-03-06T13:09:32Z</time>
      </trkpt>
      <trkpt lat="47.81731" lon="7.334">
        <ele>231.5</ele>
        <time>2014-03-06T13:09:34Z</time>
      </trkpt>
      <trkpt lat="47.81739" lon="7.33401">
        <ele>230.9</ele>
        <time>2014-03-06T13:09:36Z</time>
      </trkpt>
      <trkpt lat="47.81748" lon="7.33403">
        <ele>231.5</ele>
        <time>2014-03-06T13:09:38Z</time>
      </trkpt>
      <trkpt lat="47.81757" lon="7.33403">
        <ele>231</ele>
        <time>2014-03-06T13:09:40Z</time>
      </trkpt>
      <trkpt lat="47.81767" lon="7.33404">
        <ele>229.6</ele>
        <time>2014-03-06T13:09:41Z</time>
      </trkpt>
      <trkpt lat="47.81776" lon="7.33405">
        <ele>230.2</ele>
        <time>2014-03-06T13:09:44Z</time>
      </trkpt>
      <trkpt lat="47.81785" lon="7.33406">
        <ele>230.1</ele>
        <time>2014-03-06T13:09:46Z</time>
      </trkpt>
      <trkpt lat="47.81794" lon="7.33407">
        <ele>229.8</ele>
        <time>2014-03-06T13:09:48Z</time>
      </trkpt>
      <trkpt lat="47.81802" lon="7.33408">
        <ele>230.2</ele>
        <time>2014-03-06T13:09:50Z</time>
      </trkpt>
      <trkpt lat="47.81811" lon="7.33408">
        <ele>229.2</ele>
        <time>2014-03-06T13:09:52Z</time>
      </trkpt>
      <trkpt lat="47.8182" lon="7.33409">
        <ele>229.2</ele>
        <time>2014-03-06T13:09:54Z</time>
      </trkpt>
      <trkpt lat="47.81828" lon="7.3341">
        <ele>229.8</ele>
        <time>2014-03-06T13:09:56Z</time>
      </trkpt>
      <trkpt lat="47.81835" lon="7.33411">
        <ele>229.5</ele>
        <time>2014-03-06T13:09:58Z</time>
      </trkpt>
      <trkpt lat="47.81843" lon="7.33411">
        <ele>227.1</ele>
        <time>2014-03-06T13:10:00Z</time>
      </trkpt>
      <trkpt lat="47.81851" lon="7.33412">
        <ele>229.1</ele>
        <time>2014-03-06T13:10:02Z</time>
      </trkpt>
      <trkpt lat="47.8186" lon="7.33413">
        <ele>229.7</ele>
        <time>2014-03-06T13:10:04Z</time>
      </trkpt>
      <trkpt lat="47.81868" lon="7.33413">
        <ele>229.6</ele>
        <time>2014-03-06T13:10:06Z</time>
      </trkpt>
      <trkpt lat="47.81877" lon="7.33414">
        <ele>229.7</ele>
        <time>2014-03-06T13:10:08Z</time>
      </trkpt>
      <trkpt lat="47.81885" lon="7.33414">
        <ele>229.5</ele>
        <time>2014-03-06T13:10:10Z</time>
      </trkpt>
      <trkpt lat="47.81894" lon="7.33415">
        <ele>229.5</ele>
        <time>2014-03-06T13:10:12Z</time>
      </trkpt>
      <trkpt lat="47.81902" lon="7.33416">
        <ele>229.4</ele>
        <time>2014-03-06T13:10:14Z</time>
      </trkpt>
      <trkpt lat="47.81912" lon="7.33416">
        <ele>230.6</ele>
        <time>2014-03-06T13:10:16Z</time>
      </trkpt>
      <trkpt lat="47.8192" lon="7.33416">
        <ele>230.6</ele>
        <time>2014-03-06T13:10:18Z</time>
      </trkpt>
      <trkpt lat="47.81928" lon="7.33417">
        <ele>230.3</ele>
        <time>2014-03-06T13:10:20Z</time>
      </trkpt>
      <trkpt lat="47.81935" lon="7.33414">
        <ele>230</ele>
        <time>2014-03-06T13:10:22Z</time>
      </trkpt>
      <trkpt lat="47.8194" lon="7.33405">
        <ele>229.4</ele>
        <time>2014-03-06T13:10:24Z</time>
      </trkpt>
      <trkpt lat="47.81942" lon="7.33393">
        <ele>229</ele>
        <time>2014-03-06T13:10:26Z</time>
      </trkpt>
      <trkpt lat="47.81944" lon="7.3338">
        <ele>229.2</ele>
        <time>2014-03-06T13:10:28Z</time>
      </trkpt>
      <trkpt lat="47.81944" lon="7.33367">
        <ele>228.7</ele>
        <time>2014-03-06T13:10:30Z</time>
      </trkpt>
      <trkpt lat="47.81945" lon="7.33354">
        <ele>229.1</ele>
        <time>2014-03-06T13:10:32Z</time>
      </trkpt>
      <trkpt lat="47.81945" lon="7.3334">
        <ele>229.9</ele>
        <time>2014-03-06T13:10:34Z</time>
      </trkpt>
      <trkpt lat="47.81947" lon="7.33326">
        <ele>229.8</ele>
        <time>2014-03-06T13:10:36Z</time>
      </trkpt>
      <trkpt lat="47.81947" lon="7.33313">
        <ele>229.2</ele>
        <time>2014-03-06T13:10:38Z</time>
      </trkpt>
      <trkpt lat="47.81948" lon="7.33301">
        <ele>229.3</ele>
        <time>2014-03-06T13:10:40Z</time>
      </trkpt>
      <trkpt lat="47.81948" lon="7.33288">
        <ele>229.1</ele>
        <time>2014-03-06T13:10:42Z</time>
      </trkpt>
      <trkpt lat="47.81949" lon="7.33275">
        <ele>229.7</ele>
        <time>2014-03-06T13:10:44Z</time>
      </trkpt>
      <trkpt lat="47.81951" lon="7.33252">
        <ele>229.4</ele>
        <time>2014-03-06T13:10:48Z</time>
      </trkpt>
      <trkpt lat="47.81957" lon="7.33248">
        <ele>229.5</ele>
        <time>2014-03-06T13:10:50Z</time>
      </trkpt>
      <trkpt lat="47.81964" lon="7.33248">
        <ele>229.7</ele>
        <time>2014-03-06T13:10:52Z</time>
      </trkpt>
      <trkpt lat="47.81971" lon="7.33247">
        <ele>229.3</ele>
        <time>2014-03-06T13:10:54Z</time>
      </trkpt>
      <trkpt lat="47.81979" lon="7.33248">
        <ele>229.4</ele>
        <time>2014-03-06T13:10:56Z</time>
      </trkpt>
      <trkpt lat="47.81987" lon="7.33249">
        <ele>229.3</ele>
        <time>2014-03-06T13:10:58Z</time>
      </trkpt>
      <trkpt lat="47.81996" lon="7.33249">
        <ele>229</ele>
        <time>2014-03-06T13:11:00Z</time>
      </trkpt>
      <trkpt lat="47.82004" lon="7.33249">
        <ele>229.2</ele>
        <time>2014-03-06T13:11:02Z</time>
      </trkpt>
      <trkpt lat="47.82013" lon="7.33249">
        <ele>229.8</ele>
        <time>2014-03-06T13:11:04Z</time>
      </trkpt>
      <trkpt lat="47.82021" lon="7.33249">
        <ele>229.5</ele>
        <time>2014-03-06T13:11:06Z</time>
      </trkpt>
      <trkpt lat="47.82029" lon="7.3325">
        <ele>229.8</ele>
        <time>2014-03-06T13:11:08Z</time>
      </trkpt>
      <trkpt lat="47.82038" lon="7.3325">
        <ele>229.8</ele>
        <time>2014-03-06T13:11:10Z</time>
      </trkpt>
      <trkpt lat="47.82047" lon="7.33251">
        <ele>229.2</ele>
        <time>2014-03-06T13:11:12Z</time>
      </trkpt>
      <trkpt lat="47.82055" lon="7.33253">
        <ele>229.2</ele>
        <time>2014-03-06T13:11:14Z</time>
      </trkpt>
      <trkpt lat="47.82064" lon="7.33254">
        <ele>228.4</ele>
        <time>2014-03-06T13:11:16Z</time>
      </trkpt>
      <trkpt lat="47.82072" lon="7.33255">
        <ele>228.8</ele>
        <time>2014-03-06T13:11:18Z</time>
      </trkpt>
      <trkpt lat="47.82081" lon="7.33255">
        <ele>229.5</ele>
        <time>2014-03-06T13:11:20Z</time>
      </trkpt>
      <trkpt lat="47.8209" lon="7.33256">
        <ele>229.8</ele>
        <time>2014-03-06T13:11:22Z</time>
      </trkpt>
      <trkpt lat="47.82097" lon="7.33257">
        <ele>229.8</ele>
        <time>2014-03-06T13:11:24Z</time>
      </trkpt>
      <trkpt lat="47.82102" lon="7.33257">
        <ele>229</ele>
        <time>2014-03-06T13:11:26Z</time>
      </trkpt>
      <trkpt lat="47.82108" lon="7.33258">
        <ele>229.7</ele>
        <time>2014-03-06T13:11:28Z</time>
      </trkpt>
      <trkpt lat="47.82114" lon="7.33258">
        <ele>229.1</ele>
        <time>2014-03-06T13:11:30Z</time>
      </trkpt>
      <trkpt lat="47.82122" lon="7.33258">
        <ele>229.2</ele>
        <time>2014-03-06T13:11:32Z</time>
      </trkpt>
      <trkpt lat="47.82129" lon="7.33259">
        <ele>230.1</ele>
        <time>2014-03-06T13:11:34Z</time>
      </trkpt>
      <trkpt lat="47.82136" lon="7.3326">
        <ele>229.4</ele>
        <time>2014-03-06T13:11:36Z</time>
      </trkpt>
      <trkpt lat="47.82144" lon="7.3326">
        <ele>229.6</ele>
        <time>2014-03-06T13:11:38Z</time>
      </trkpt>
      <trkpt lat="47.82152" lon="7.33261">
        <ele>229.9</ele>
        <time>2014-03-06T13:11:40Z</time>
      </trkpt>
      <trkpt lat="47.8216" lon="7.33261">
        <ele>229.4</ele>
        <time>2014-03-06T13:11:42Z</time>
      </trkpt>
      <trkpt lat="47.82169" lon="7.33262">
        <ele>229.3</ele>
        <time>2014-03-06T13:11:44Z</time>
      </trkpt>
      <trkpt lat="47.82177" lon="7.33263">
        <ele>229.4</ele>
        <time>2014-03-06T13:11:46Z</time>
      </trkpt>
      <trkpt lat="47.82185" lon="7.33263">
        <ele>229.8</ele>
        <time>2014-03-06T13:11:48Z</time>
      </trkpt>
      <trkpt lat="47.82192" lon="7.33264">
        <ele>229.3</ele>
        <time>2014-03-06T13:11:50Z</time>
      </trkpt>
      <trkpt lat="47.822" lon="7.33263">
        <ele>229.8</ele>
        <time>2014-03-06T13:11:52Z</time>
      </trkpt>
      <trkpt lat="47.82208" lon="7.33263">
        <ele>230.5</ele>
        <time>2014-03-06T13:11:54Z</time>
      </trkpt>
      <trkpt lat="47.82216" lon="7.33263">
        <ele>230.2</ele>
        <time>2014-03-06T13:11:56Z</time>
      </trkpt>
      <trkpt lat="47.82224" lon="7.33264">
        <ele>229.1</ele>
        <time>2014-03-06T13:11:58Z</time>
      </trkpt>
      <trkpt lat="47.82233" lon="7.33265">
        <ele>229.9</ele>
        <time>2014-03-06T13:12:00Z</time>
      </trkpt>
      <trkpt lat="47.82241" lon="7.33268">
        <ele>229.4</ele>
        <time>2014-03-06T13:12:02Z</time>
      </trkpt>
      <trkpt lat="47.8225" lon="7.33269">
        <ele>229.4</ele>
        <time>2014-03-06T13:12:04Z</time>
      </trkpt>
      <trkpt lat="47.82259" lon="7.3327">
        <ele>228.8</ele>
        <time>2014-03-06T13:12:06Z</time>
      </trkpt>
      <trkpt lat="47.82267" lon="7.3327">
        <ele>228.9</ele>
        <time>2014-03-06T13:12:08Z</time>
      </trkpt>
      <trkpt lat="47.82276" lon="7.33271">
        <ele>228.7</ele>
        <time>2014-03-06T13:12:10Z</time>
      </trkpt>
      <trkpt lat="47.82285" lon="7.33271">
        <ele>229.4</ele>
        <time>2014-03-06T13:12:12Z</time>
      </trkpt>
      <trkpt lat="47.82293" lon="7.33272">
        <ele>229.9</ele>
        <time>2014-03-06T13:12:14Z</time>
      </trkpt>
      <trkpt lat="47.82302" lon="7.33273">
        <ele>230.8</ele>
        <time>2014-03-06T13:12:16Z</time>
      </trkpt>
      <trkpt lat="47.82311" lon="7.33273">
        <ele>230.5</ele>
        <time>2014-03-06T13:12:18Z</time>
      </trkpt>
      <trkpt lat="47.8232" lon="7.33274">
        <ele>230.2</ele>
        <time>2014-03-06T13:12:20Z</time>
      </trkpt>
      <trkpt lat="47.82328" lon="7.33275">
        <ele>229.3</ele>
        <time>2014-03-06T13:12:22Z</time>
      </trkpt>
      <trkpt lat="47.82335" lon="7.33275">
        <ele>229.8</ele>
        <time>2014-03-06T13:12:24Z</time>
      </trkpt>
      <trkpt lat="47.82344" lon="7.33276">
        <ele>229.5</ele>
        <time>2014-03-06T13:12:28Z</time>
      </trkpt>
      <trkpt lat="47.82348" lon="7.33277">
        <ele>229.1</ele>
        <time>2014-03-06T13:12:30Z</time>
      </trkpt>
      <trkpt lat="47.82353" lon="7.33277">
        <ele>229.8</ele>
        <time>2014-03-06T13:12:32Z</time>
      </trkpt>
      <trkpt lat="47.82359" lon="7.33277">
        <ele>232.9</ele>
        <time>2014-03-06T13:12:34Z</time>
      </trkpt>
      <trkpt lat="47.82366" lon="7.33278">
        <ele>230.9</ele>
        <time>2014-03-06T13:12:36Z</time>
      </trkpt>
      <trkpt lat="47.82373" lon="7.33277">
        <ele>230.4</ele>
        <time>2014-03-06T13:12:38Z</time>
      </trkpt>
      <trkpt lat="47.82381" lon="7.33278">
        <ele>230.1</ele>
        <time>2014-03-06T13:12:40Z</time>
      </trkpt>
      <trkpt lat="47.8239" lon="7.33277">
        <ele>229.9</ele>
        <time>2014-03-06T13:12:42Z</time>
      </trkpt>
      <trkpt lat="47.82398" lon="7.33277">
        <ele>230</ele>
        <time>2014-03-06T13:12:44Z</time>
      </trkpt>
      <trkpt lat="47.82407" lon="7.33278">
        <ele>229.4</ele>
        <time>2014-03-06T13:12:46Z</time>
      </trkpt>
      <trkpt lat="47.82415" lon="7.33279">
        <ele>229.4</ele>
        <time>2014-03-06T13:12:48Z</time>
      </trkpt>
      <trkpt lat="47.82425" lon="7.3328">
        <ele>229.4</ele>
        <time>2014-03-06T13:12:50Z</time>
      </trkpt>
      <trkpt lat="47.82434" lon="7.33281">
        <ele>229.7</ele>
        <time>2014-03-06T13:12:52Z</time>
      </trkpt>
      <trkpt lat="47.82442" lon="7.33281">
        <ele>230.3</ele>
        <time>2014-03-06T13:12:54Z</time>
      </trkpt>
      <trkpt lat="47.82449" lon="7.33282">
        <ele>229.5</ele>
        <time>2014-03-06T13:12:56Z</time>
      </trkpt>
      <trkpt lat="47.82456" lon="7.33282">
        <ele>229.8</ele>
        <time>2014-03-06T13:12:58Z</time>
      </trkpt>
      <trkpt lat="47.82463" lon="7.33282">
        <ele>230.5</ele>
        <time>2014-03-06T13:13:00Z</time>
      </trkpt>
      <trkpt lat="47.8248" lon="7.33282">
        <ele>230.4</ele>
        <time>2014-03-06T13:13:04Z</time>
      </trkpt>
      <trkpt lat="47.82488" lon="7.3328">
        <ele>229.9</ele>
        <time>2014-03-06T13:13:06Z</time>
      </trkpt>
      <trkpt lat="47.82494" lon="7.33272">
        <ele>229.5</ele>
        <time>2014-03-06T13:13:08Z</time>
      </trkpt>
      <trkpt lat="47.82499" lon="7.33262">
        <ele>229.7</ele>
        <time>2014-03-06T13:13:10Z</time>
      </trkpt>
      <trkpt lat="47.82501" lon="7.33251">
        <ele>229.6</ele>
        <time>2014-03-06T13:13:12Z</time>
      </trkpt>
      <trkpt lat="47.82503" lon="7.33241">
        <ele>229.1</ele>
        <time>2014-03-06T13:13:14Z</time>
      </trkpt>
      <trkpt lat="47.82509" lon="7.33237">
        <ele>229.4</ele>
        <time>2014-03-06T13:13:16Z</time>
      </trkpt>
      <trkpt lat="47.82515" lon="7.33236">
        <ele>229.7</ele>
        <time>2014-03-06T13:13:18Z</time>
      </trkpt>
      <trkpt lat="47.82522" lon="7.33236">
        <ele>229</ele>
        <time>2014-03-06T13:13:20Z</time>
      </trkpt>
      <trkpt lat="47.8253" lon="7.33236">
        <ele>229.1</ele>
        <time>2014-03-06T13:13:22Z</time>
      </trkpt>
      <trkpt lat="47.82537" lon="7.33237">
        <ele>229.4</ele>
        <time>2014-03-06T13:13:24Z</time>
      </trkpt>
      <trkpt lat="47.82545" lon="7.33237">
        <ele>228.9</ele>
        <time>2014-03-06T13:13:26Z</time>
      </trkpt>
      <trkpt lat="47.82552" lon="7.33238">
        <ele>228.9</ele>
        <time>2014-03-06T13:13:28Z</time>
      </trkpt>
      <trkpt lat="47.8256" lon="7.33238">
        <ele>228.9</ele>
        <time>2014-03-06T13:13:30Z</time>
      </trkpt>
      <trkpt lat="47.82568" lon="7.33239">
        <ele>229.3</ele>
        <time>2014-03-06T13:13:32Z</time>
      </trkpt>
      <trkpt lat="47.82575" lon="7.33239">
        <ele>228.8</ele>
        <time>2014-03-06T13:13:34Z</time>
      </trkpt>
      <trkpt lat="47.82581" lon="7.33241">
        <ele>229.3</ele>
        <time>2014-03-06T13:13:36Z</time>
      </trkpt>
      <trkpt lat="47.82587" lon="7.33243">
        <ele>228.8</ele>
        <time>2014-03-06T13:13:38Z</time>
      </trkpt>
      <trkpt lat="47.82593" lon="7.33244">
        <ele>229.2</ele>
        <time>2014-03-06T13:13:40Z</time>
      </trkpt>
      <trkpt lat="47.826" lon="7.33244">
        <ele>229.5</ele>
        <time>2014-03-06T13:13:42Z</time>
      </trkpt>
      <trkpt lat="47.82608" lon="7.33244">
        <ele>229.5</ele>
        <time>2014-03-06T13:13:44Z</time>
      </trkpt>
      <trkpt lat="47.82615" lon="7.33246">
        <ele>229.5</ele>
        <time>2014-03-06T13:13:46Z</time>
      </trkpt>
      <trkpt lat="47.82622" lon="7.33246">
        <ele>228.7</ele>
        <time>2014-03-06T13:13:48Z</time>
      </trkpt>
      <trkpt lat="47.82629" lon="7.33239">
        <ele>229</ele>
        <time>2014-03-06T13:13:50Z</time>
      </trkpt>
      <trkpt lat="47.82631" lon="7.33227">
        <ele>229.5</ele>
        <time>2014-03-06T13:13:52Z</time>
      </trkpt>
      <trkpt lat="47.82632" lon="7.33215">
        <ele>229.4</ele>
        <time>2014-03-06T13:13:54Z</time>
      </trkpt>
      <trkpt lat="47.82632" lon="7.33202">
        <ele>228.3</ele>
        <time>2014-03-06T13:13:56Z</time>
      </trkpt>
      <trkpt lat="47.82633" lon="7.3318">
        <ele>229</ele>
        <time>2014-03-06T13:14:00Z</time>
      </trkpt>
      <trkpt lat="47.82634" lon="7.33171">
        <ele>229.6</ele>
        <time>2014-03-06T13:14:02Z</time>
      </trkpt>
      <trkpt lat="47.82635" lon="7.33162">
        <ele>229.5</ele>
        <time>2014-03-06T13:14:04Z</time>
      </trkpt>
      <trkpt lat="47.82638" lon="7.33154">
        <ele>229.4</ele>
        <time>2014-03-06T13:14:06Z</time>
      </trkpt>
      <trkpt lat="47.82643" lon="7.3315">
        <ele>229.3</ele>
        <time>2014-03-06T13:14:08Z</time>
      </trkpt>
      <trkpt lat="47.8265" lon="7.3315">
        <ele>229.7</ele>
        <time>2014-03-06T13:14:10Z</time>
      </trkpt>
      <trkpt lat="47.82658" lon="7.3315">
        <ele>229.3</ele>
        <time>2014-03-06T13:14:12Z</time>
      </trkpt>
      <trkpt lat="47.82666" lon="7.33151">
        <ele>229.4</ele>
        <time>2014-03-06T13:14:14Z</time>
      </trkpt>
      <trkpt lat="47.82675" lon="7.33151">
        <ele>229.4</ele>
        <time>2014-03-06T13:14:16Z</time>
      </trkpt>
      <trkpt lat="47.82683" lon="7.33152">
        <ele>229.6</ele>
        <time>2014-03-06T13:14:18Z</time>
      </trkpt>
      <trkpt lat="47.82692" lon="7.33152">
        <ele>229.8</ele>
        <time>2014-03-06T13:14:20Z</time>
      </trkpt>
      <trkpt lat="47.82702" lon="7.33153">
        <ele>229.7</ele>
        <time>2014-03-06T13:14:22Z</time>
      </trkpt>
      <trkpt lat="47.82711" lon="7.33153">
        <ele>229.6</ele>
        <time>2014-03-06T13:14:24Z</time>
      </trkpt>
      <trkpt lat="47.8272" lon="7.33154">
        <ele>229.1</ele>
        <time>2014-03-06T13:14:26Z</time>
      </trkpt>
      <trkpt lat="47.82729" lon="7.33155">
        <ele>228.9</ele>
        <time>2014-03-06T13:14:28Z</time>
      </trkpt>
      <trkpt lat="47.82737" lon="7.33155">
        <ele>229.5</ele>
        <time>2014-03-06T13:14:30Z</time>
      </trkpt>
      <trkpt lat="47.82745" lon="7.33156">
        <ele>229.5</ele>
        <time>2014-03-06T13:14:32Z</time>
      </trkpt>
      <trkpt lat="47.82754" lon="7.33156">
        <ele>229.6</ele>
        <time>2014-03-06T13:14:34Z</time>
      </trkpt>
      <trkpt lat="47.82763" lon="7.33157">
        <ele>230.2</ele>
        <time>2014-03-06T13:14:36Z</time>
      </trkpt>
      <trkpt lat="47.82773" lon="7.33158">
        <ele>229.9</ele>
        <time>2014-03-06T13:14:38Z</time>
      </trkpt>
      <trkpt lat="47.82781" lon="7.33159">
        <ele>229.6</ele>
        <time>2014-03-06T13:14:40Z</time>
      </trkpt>
      <trkpt lat="47.8279" lon="7.3316">
        <ele>230.1</ele>
        <time>2014-03-06T13:14:42Z</time>
      </trkpt>
      <trkpt lat="47.82798" lon="7.3316">
        <ele>230.1</ele>
        <time>2014-03-06T13:14:44Z</time>
      </trkpt>
      <trkpt lat="47.82806" lon="7.33161">
        <ele>230.2</ele>
        <time>2014-03-06T13:14:46Z</time>
      </trkpt>
      <trkpt lat="47.82821" lon="7.33157">
        <ele>229.6</ele>
        <time>2014-03-06T13:14:50Z</time>
      </trkpt>
      <trkpt lat="47.82826" lon="7.33152">
        <ele>229.8</ele>
        <time>2014-03-06T13:14:52Z</time>
      </trkpt>
      <trkpt lat="47.8283" lon="7.33146">
        <ele>229.4</ele>
        <time>2014-03-06T13:14:54Z</time>
      </trkpt>
      <trkpt lat="47.82834" lon="7.33141">
        <ele>230.3</ele>
        <time>2014-03-06T13:14:56Z</time>
      </trkpt>
      <trkpt lat="47.82838" lon="7.33136">
        <ele>230.4</ele>
        <time>2014-03-06T13:14:58Z</time>
      </trkpt>
      <trkpt lat="47.8284" lon="7.33134">
        <ele>229.9</ele>
        <time>2014-03-06T13:14:59Z</time>
      </trkpt>
      <trkpt lat="47.82842" lon="7.3313">
        <ele>229.7</ele>
        <time>2014-03-06T13:15:04Z</time>
      </trkpt>
      <trkpt lat="47.82843" lon="7.33123">
        <ele>229.7</ele>
        <time>2014-03-06T13:15:06Z</time>
      </trkpt>
      <trkpt lat="47.82846" lon="7.33115">
        <ele>229.3</ele>
        <time>2014-03-06T13:15:08Z</time>
      </trkpt>
      <trkpt lat="47.82851" lon="7.33109">
        <ele>229.7</ele>
        <time>2014-03-06T13:15:10Z</time>
      </trkpt>
      <trkpt lat="47.82858" lon="7.33106">
        <ele>230.1</ele>
        <time>2014-03-06T13:15:12Z</time>
      </trkpt>
      <trkpt lat="47.82863" lon="7.331">
        <ele>230.8</ele>
        <time>2014-03-06T13:15:14Z</time>
      </trkpt>
      <trkpt lat="47.82867" lon="7.3309">
        <ele>230.7</ele>
        <time>2014-03-06T13:15:16Z</time>
      </trkpt>
      <trkpt lat="47.8287" lon="7.3308">
        <ele>230.4</ele>
        <time>2014-03-06T13:15:18Z</time>
      </trkpt>
      <trkpt lat="47.82872" lon="7.33068">
        <ele>230.3</ele>
        <time>2014-03-06T13:15:20Z</time>
      </trkpt>
      <trkpt lat="47.82875" lon="7.33057">
        <ele>230.2</ele>
        <time>2014-03-06T13:15:22Z</time>
      </trkpt>
      <trkpt lat="47.82877" lon="7.33045">
        <ele>230.6</ele>
        <time>2014-03-06T13:15:24Z</time>
      </trkpt>
      <trkpt lat="47.8288" lon="7.33033">
        <ele>229.7</ele>
        <time>2014-03-06T13:15:26Z</time>
      </trkpt>
      <trkpt lat="47.82882" lon="7.33021">
        <ele>229.8</ele>
        <time>2014-03-06T13:15:28Z</time>
      </trkpt>
      <trkpt lat="47.82885" lon="7.33009">
        <ele>229.5</ele>
        <time>2014-03-06T13:15:30Z</time>
      </trkpt>
      <trkpt lat="47.82887" lon="7.32997">
        <ele>228.9</ele>
        <time>2014-03-06T13:15:32Z</time>
      </trkpt>
      <trkpt lat="47.8289" lon="7.32985">
        <ele>230.1</ele>
        <time>2014-03-06T13:15:34Z</time>
      </trkpt>
      <trkpt lat="47.82892" lon="7.32973">
        <ele>230.3</ele>
        <time>2014-03-06T13:15:36Z</time>
      </trkpt>
      <trkpt lat="47.82895" lon="7.32961">
        <ele>231.3</ele>
        <time>2014-03-06T13:15:38Z</time>
      </trkpt>
      <trkpt lat="47.82899" lon="7.32949">
        <ele>231.2</ele>
        <time>2014-03-06T13:15:40Z</time>
      </trkpt>
      <trkpt lat="47.82903" lon="7.32937">
        <ele>231.7</ele>
        <time>2014-03-06T13:15:42Z</time>
      </trkpt>
      <trkpt lat="47.82908" lon="7.32925">
        <ele>231.5</ele>
        <time>2014-03-06T13:15:44Z</time>
      </trkpt>
      <trkpt lat="47.82914" lon="7.32912">
        <ele>231.2</ele>
        <time>2014-03-06T13:15:46Z</time>
      </trkpt>
      <trkpt lat="47.8292" lon="7.32901">
        <ele>231.7</ele>
        <time>2014-03-06T13:15:48Z</time>
      </trkpt>
      <trkpt lat="47.82927" lon="7.3289">
        <ele>230.6</ele>
        <time>2014-03-06T13:15:50Z</time>
      </trkpt>
      <trkpt lat="47.82933" lon="7.3288">
        <ele>231.3</ele>
        <time>2014-03-06T13:15:52Z</time>
      </trkpt>
      <trkpt lat="47.82939" lon="7.32871">
        <ele>231</ele>
        <time>2014-03-06T13:15:54Z</time>
      </trkpt>
      <trkpt lat="47.82945" lon="7.32861">
        <ele>231.7</ele>
        <time>2014-03-06T13:15:56Z</time>
      </trkpt>
      <trkpt lat="47.82952" lon="7.32851">
        <ele>231.8</ele>
        <time>2014-03-06T13:15:58Z</time>
      </trkpt>
      <trkpt lat="47.82958" lon="7.32841">
        <ele>230.5</ele>
        <time>2014-03-06T13:16:00Z</time>
      </trkpt>
      <trkpt lat="47.82965" lon="7.32832">
        <ele>230.9</ele>
        <time>2014-03-06T13:16:02Z</time>
      </trkpt>
      <trkpt lat="47.82971" lon="7.32822">
        <ele>232</ele>
        <time>2014-03-06T13:16:04Z</time>
      </trkpt>
      <trkpt lat="47.82978" lon="7.32812">
        <ele>231.5</ele>
        <time>2014-03-06T13:16:06Z</time>
      </trkpt>
      <trkpt lat="47.82984" lon="7.32801">
        <ele>232.3</ele>
        <time>2014-03-06T13:16:08Z</time>
      </trkpt>
      <trkpt lat="47.82991" lon="7.32792">
        <ele>232.2</ele>
        <time>2014-03-06T13:16:10Z</time>
      </trkpt>
      <trkpt lat="47.82998" lon="7.32782">
        <ele>232.6</ele>
        <time>2014-03-06T13:16:12Z</time>
      </trkpt>
      <trkpt lat="47.83005" lon="7.32771">
        <ele>232.1</ele>
        <time>2014-03-06T13:16:14Z</time>
      </trkpt>
      <trkpt lat="47.83012" lon="7.32761">
        <ele>232.1</ele>
        <time>2014-03-06T13:16:16Z</time>
      </trkpt>
      <trkpt lat="47.83018" lon="7.32752">
        <ele>231.7</ele>
        <time>2014-03-06T13:16:18Z</time>
      </trkpt>
      <trkpt lat="47.83024" lon="7.32743">
        <ele>230.6</ele>
        <time>2014-03-06T13:16:20Z</time>
      </trkpt>
      <trkpt lat="47.83031" lon="7.32733">
        <ele>230.2</ele>
        <time>2014-03-06T13:16:22Z</time>
      </trkpt>
      <trkpt lat="47.83038" lon="7.32722">
        <ele>230.3</ele>
        <time>2014-03-06T13:16:24Z</time>
      </trkpt>
      <trkpt lat="47.83045" lon="7.32712">
        <ele>229.4</ele>
        <time>2014-03-06T13:16:26Z</time>
      </trkpt>
      <trkpt lat="47.83052" lon="7.32701">
        <ele>229.4</ele>
        <time>2014-03-06T13:16:28Z</time>
      </trkpt>
      <trkpt lat="47.83059" lon="7.3269">
        <ele>229.4</ele>
        <time>2014-03-06T13:16:30Z</time>
      </trkpt>
      <trkpt lat="47.83065" lon="7.32679">
        <ele>229.3</ele>
        <time>2014-03-06T13:16:32Z</time>
      </trkpt>
      <trkpt lat="47.83072" lon="7.32668">
        <ele>229</ele>
        <time>2014-03-06T13:16:34Z</time>
      </trkpt>
      <trkpt lat="47.83078" lon="7.32657">
        <ele>228.8</ele>
        <time>2014-03-06T13:16:35Z</time>
      </trkpt>
      <trkpt lat="47.83083" lon="7.32644">
        <ele>228.3</ele>
        <time>2014-03-06T13:16:38Z</time>
      </trkpt>
      <trkpt lat="47.83088" lon="7.32631">
        <ele>228.3</ele>
        <time>2014-03-06T13:16:40Z</time>
      </trkpt>
      <trkpt lat="47.83091" lon="7.32617">
        <ele>228.4</ele>
        <time>2014-03-06T13:16:42Z</time>
      </trkpt>
      <trkpt lat="47.83094" lon="7.32604">
        <ele>228.7</ele>
        <time>2014-03-06T13:16:44Z</time>
      </trkpt>
      <trkpt lat="47.83095" lon="7.3259">
        <ele>228.8</ele>
        <time>2014-03-06T13:16:46Z</time>
      </trkpt>
      <trkpt lat="47.83096" lon="7.32576">
        <ele>229</ele>
        <time>2014-03-06T13:16:48Z</time>
      </trkpt>
      <trkpt lat="47.83096" lon="7.32561">
        <ele>229</ele>
        <time>2014-03-06T13:16:50Z</time>
      </trkpt>
      <trkpt lat="47.83096" lon="7.32486">
        <ele>229.3</ele>
        <time>2014-03-06T13:17:00Z</time>
      </trkpt>
      <trkpt lat="47.83095" lon="7.32456">
        <ele>228.8</ele>
        <time>2014-03-06T13:17:04Z</time>
      </trkpt>
      <trkpt lat="47.83095" lon="7.3244">
        <ele>228.9</ele>
        <time>2014-03-06T13:17:06Z</time>
      </trkpt>
      <trkpt lat="47.83094" lon="7.32425">
        <ele>229.9</ele>
        <time>2014-03-06T13:17:08Z</time>
      </trkpt>
      <trkpt lat="47.83094" lon="7.32409">
        <ele>229.6</ele>
        <time>2014-03-06T13:17:10Z</time>
      </trkpt>
      <trkpt lat="47.83094" lon="7.32394">
        <ele>229.6</ele>
        <time>2014-03-06T13:17:12Z</time>
      </trkpt>
      <trkpt lat="47.83093" lon="7.32378">
        <ele>229.6</ele>
        <time>2014-03-06T13:17:14Z</time>
      </trkpt>
      <trkpt lat="47.83093" lon="7.32362">
        <ele>229.5</ele>
        <time>2014-03-06T13:17:16Z</time>
      </trkpt>
      <trkpt lat="47.83093" lon="7.32345">
        <ele>229.1</ele>
        <time>2014-03-06T13:17:18Z</time>
      </trkpt>
      <trkpt lat="47.83092" lon="7.32329">
        <ele>229.6</ele>
        <time>2014-03-06T13:17:20Z</time>
      </trkpt>
      <trkpt lat="47.83092" lon="7.32314">
        <ele>229.7</ele>
        <time>2014-03-06T13:17:22Z</time>
      </trkpt>
      <trkpt lat="47.83091" lon="7.32206">
        <ele>229</ele>
        <time>2014-03-06T13:17:36Z</time>
      </trkpt>
      <trkpt lat="47.83091" lon="7.3216">
        <ele>228.6</ele>
        <time>2014-03-06T13:17:42Z</time>
      </trkpt>
      <trkpt lat="47.8309" lon="7.32118">
        <ele>228.8</ele>
        <time>2014-03-06T13:17:48Z</time>
      </trkpt>
      <trkpt lat="47.8309" lon="7.32102">
        <ele>229.5</ele>
        <time>2014-03-06T13:17:50Z</time>
      </trkpt>
      <trkpt lat="47.83089" lon="7.32088">
        <ele>229.3</ele>
        <time>2014-03-06T13:17:52Z</time>
      </trkpt>
      <trkpt lat="47.8309" lon="7.32074">
        <ele>229.1</ele>
        <time>2014-03-06T13:17:54Z</time>
      </trkpt>
      <trkpt lat="47.83089" lon="7.32061">
        <ele>229</ele>
        <time>2014-03-06T13:17:56Z</time>
      </trkpt>
      <trkpt lat="47.8309" lon="7.32048">
        <ele>229.3</ele>
        <time>2014-03-06T13:17:58Z</time>
      </trkpt>
      <trkpt lat="47.8309" lon="7.32035">
        <ele>228.4</ele>
        <time>2014-03-06T13:18:00Z</time>
      </trkpt>
      <trkpt lat="47.83091" lon="7.32021">
        <ele>228.4</ele>
        <time>2014-03-06T13:18:02Z</time>
      </trkpt>
      <trkpt lat="47.8309" lon="7.32005">
        <ele>227.8</ele>
        <time>2014-03-06T13:18:04Z</time>
      </trkpt>
      <trkpt lat="47.83089" lon="7.31989">
        <ele>227.9</ele>
        <time>2014-03-06T13:18:06Z</time>
      </trkpt>
      <trkpt lat="47.83089" lon="7.31974">
        <ele>228.5</ele>
        <time>2014-03-06T13:18:08Z</time>
      </trkpt>
      <trkpt lat="47.83088" lon="7.31946">
        <ele>229.2</ele>
        <time>2014-03-06T13:18:12Z</time>
      </trkpt>
      <trkpt lat="47.83088" lon="7.31932">
        <ele>229</ele>
        <time>2014-03-06T13:18:14Z</time>
      </trkpt>
      <trkpt lat="47.83087" lon="7.31918">
        <ele>228.6</ele>
        <time>2014-03-06T13:18:16Z</time>
      </trkpt>
      <trkpt lat="47.83087" lon="7.31904">
        <ele>227.8</ele>
        <time>2014-03-06T13:18:18Z</time>
      </trkpt>
      <trkpt lat="47.83087" lon="7.31876">
        <ele>228.3</ele>
        <time>2014-03-06T13:18:22Z</time>
      </trkpt>
      <trkpt lat="47.83088" lon="7.31847">
        <ele>229.4</ele>
        <time>2014-03-06T13:18:26Z</time>
      </trkpt>
      <trkpt lat="47.83088" lon="7.31833">
        <ele>230.3</ele>
        <time>2014-03-06T13:18:28Z</time>
      </trkpt>
      <trkpt lat="47.83087" lon="7.3182">
        <ele>229.5</ele>
        <time>2014-03-06T13:18:30Z</time>
      </trkpt>
      <trkpt lat="47.83087" lon="7.31809">
        <ele>229.5</ele>
        <time>2014-03-06T13:18:32Z</time>
      </trkpt>
      <trkpt lat="47.83086" lon="7.31787">
        <ele>230.1</ele>
        <time>2014-03-06T13:18:36Z</time>
      </trkpt>
      <trkpt lat="47.83086" lon="7.31775">
        <ele>230</ele>
        <time>2014-03-06T13:18:38Z</time>
      </trkpt>
      <trkpt lat="47.83085" lon="7.31763">
        <ele>229.4</ele>
        <time>2014-03-06T13:18:40Z</time>
      </trkpt>
      <trkpt lat="47.83085" lon="7.31722">
        <ele>230.3</ele>
        <time>2014-03-06T13:18:46Z</time>
      </trkpt>
      <trkpt lat="47.83084" lon="7.31708">
        <ele>230.4</ele>
        <time>2014-03-06T13:18:48Z</time>
      </trkpt>
      <trkpt lat="47.83083" lon="7.31695">
        <ele>230</ele>
        <time>2014-03-06T13:18:50Z</time>
      </trkpt>
      <trkpt lat="47.83083" lon="7.31656">
        <ele>230.6</ele>
        <time>2014-03-06T13:18:56Z</time>
      </trkpt>
      <trkpt lat="47.83083" lon="7.31628">
        <ele>230.6</ele>
        <time>2014-03-06T13:19:00Z</time>
      </trkpt>
      <trkpt lat="47.83082" lon="7.316">
        <ele>231.2</ele>
        <time>2014-03-06T13:19:04Z</time>
      </trkpt>
      <trkpt lat="47.83082" lon="7.31585">
        <ele>231.4</ele>
        <time>2014-03-06T13:19:06Z</time>
      </trkpt>
      <trkpt lat="47.83081" lon="7.31529">
        <ele>231.4</ele>
        <time>2014-03-06T13:19:14Z</time>
      </trkpt>
      <trkpt lat="47.83082" lon="7.31516">
        <ele>232.3</ele>
        <time>2014-03-06T13:19:16Z</time>
      </trkpt>
      <trkpt lat="47.83082" lon="7.31491">
        <ele>232.3</ele>
        <time>2014-03-06T13:19:20Z</time>
      </trkpt>
      <trkpt lat="47.83083" lon="7.31477">
        <ele>231.8</ele>
        <time>2014-03-06T13:19:22Z</time>
      </trkpt>
      <trkpt lat="47.83082" lon="7.31446">
        <ele>233.6</ele>
        <time>2014-03-06T13:19:26Z</time>
      </trkpt>
      <trkpt lat="47.83081" lon="7.3143">
        <ele>233</ele>
        <time>2014-03-06T13:19:28Z</time>
      </trkpt>
      <trkpt lat="47.8308" lon="7.31414">
        <ele>231.3</ele>
        <time>2014-03-06T13:19:30Z</time>
      </trkpt>
      <trkpt lat="47.8308" lon="7.31384">
        <ele>231.2</ele>
        <time>2014-03-06T13:19:34Z</time>
      </trkpt>
      <trkpt lat="47.8308" lon="7.31342">
        <ele>231.7</ele>
        <time>2014-03-06T13:19:40Z</time>
      </trkpt>
      <trkpt lat="47.83081" lon="7.31327">
        <ele>232.7</ele>
        <time>2014-03-06T13:19:42Z</time>
      </trkpt>
      <trkpt lat="47.83083" lon="7.31311">
        <ele>232.5</ele>
        <time>2014-03-06T13:19:44Z</time>
      </trkpt>
      <trkpt lat="47.83085" lon="7.31295">
        <ele>231.8</ele>
        <time>2014-03-06T13:19:46Z</time>
      </trkpt>
      <trkpt lat="47.83087" lon="7.3128">
        <ele>231.4</ele>
        <time>2014-03-06T13:19:48Z</time>
      </trkpt>
      <trkpt lat="47.8309" lon="7.31264">
        <ele>231.8</ele>
        <time>2014-03-06T13:19:50Z</time>
      </trkpt>
      <trkpt lat="47.83093" lon="7.31249">
        <ele>231.2</ele>
        <time>2014-03-06T13:19:52Z</time>
      </trkpt>
      <trkpt lat="47.83096" lon="7.31235">
        <ele>230.8</ele>
        <time>2014-03-06T13:19:54Z</time>
      </trkpt>
      <trkpt lat="47.83098" lon="7.31221">
        <ele>231.2</ele>
        <time>2014-03-06T13:19:56Z</time>
      </trkpt>
      <trkpt lat="47.83101" lon="7.31206">
        <ele>231</ele>
        <time>2014-03-06T13:19:58Z</time>
      </trkpt>
      <trkpt lat="47.83104" lon="7.31191">
        <ele>230.2</ele>
        <time>2014-03-06T13:20:00Z</time>
      </trkpt>
      <trkpt lat="47.83106" lon="7.31175">
        <ele>230.4</ele>
        <time>2014-03-06T13:20:02Z</time>
      </trkpt>
      <trkpt lat="47.83109" lon="7.31159">
        <ele>231.4</ele>
        <time>2014-03-06T13:20:04Z</time>
      </trkpt>
      <trkpt lat="47.83111" lon="7.31143">
        <ele>231.1</ele>
        <time>2014-03-06T13:20:06Z</time>
      </trkpt>
      <trkpt lat="47.83113" lon="7.31129">
        <ele>230.4</ele>
        <time>2014-03-06T13:20:07Z</time>
      </trkpt>
      <trkpt lat="47.83115" lon="7.31117">
        <ele>230.3</ele>
        <time>2014-03-06T13:20:10Z</time>
      </trkpt>
      <trkpt lat="47.83117" lon="7.31104">
        <ele>230.7</ele>
        <time>2014-03-06T13:20:12Z</time>
      </trkpt>
      <trkpt lat="47.8312" lon="7.31091">
        <ele>230.8</ele>
        <time>2014-03-06T13:20:14Z</time>
      </trkpt>
      <trkpt lat="47.83122" lon="7.31078">
        <ele>231.6</ele>
        <time>2014-03-06T13:20:16Z</time>
      </trkpt>
      <trkpt lat="47.83124" lon="7.31064">
        <ele>232.4</ele>
        <time>2014-03-06T13:20:18Z</time>
      </trkpt>
      <trkpt lat="47.83126" lon="7.31051">
        <ele>232</ele>
        <time>2014-03-06T13:20:20Z</time>
      </trkpt>
      <trkpt lat="47.83128" lon="7.31038">
        <ele>232.3</ele>
        <time>2014-03-06T13:20:22Z</time>
      </trkpt>
      <trkpt lat="47.8313" lon="7.31025">
        <ele>233.5</ele>
        <time>2014-03-06T13:20:24Z</time>
      </trkpt>
      <trkpt lat="47.83133" lon="7.31013">
        <ele>233.2</ele>
        <time>2014-03-06T13:20:26Z</time>
      </trkpt>
      <trkpt lat="47.83135" lon="7.31001">
        <ele>233.5</ele>
        <time>2014-03-06T13:20:28Z</time>
      </trkpt>
      <trkpt lat="47.83138" lon="7.3099">
        <ele>233.7</ele>
        <time>2014-03-06T13:20:30Z</time>
      </trkpt>
      <trkpt lat="47.83141" lon="7.30978">
        <ele>233.5</ele>
        <time>2014-03-06T13:20:32Z</time>
      </trkpt>
      <trkpt lat="47.83144" lon="7.30967">
        <ele>232.9</ele>
        <time>2014-03-06T13:20:34Z</time>
      </trkpt>
      <trkpt lat="47.83148" lon="7.30956">
        <ele>234</ele>
        <time>2014-03-06T13:20:36Z</time>
      </trkpt>
      <trkpt lat="47.83152" lon="7.30945">
        <ele>233.8</ele>
        <time>2014-03-06T13:20:38Z</time>
      </trkpt>
      <trkpt lat="47.83156" lon="7.30934">
        <ele>234.4</ele>
        <time>2014-03-06T13:20:40Z</time>
      </trkpt>
      <trkpt lat="47.83161" lon="7.30924">
        <ele>234.2</ele>
        <time>2014-03-06T13:20:42Z</time>
      </trkpt>
      <trkpt lat="47.83166" lon="7.30915">
        <ele>234.6</ele>
        <time>2014-03-06T13:20:44Z</time>
      </trkpt>
      <trkpt lat="47.83172" lon="7.30905">
        <ele>234.5</ele>
        <time>2014-03-06T13:20:46Z</time>
      </trkpt>
      <trkpt lat="47.83177" lon="7.30897">
        <ele>234.9</ele>
        <time>2014-03-06T13:20:48Z</time>
      </trkpt>
      <trkpt lat="47.83183" lon="7.30889">
        <ele>234.7</ele>
        <time>2014-03-06T13:20:50Z</time>
      </trkpt>
      <trkpt lat="47.83189" lon="7.3088">
        <ele>234.7</ele>
        <time>2014-03-06T13:20:52Z</time>
      </trkpt>
      <trkpt lat="47.83194" lon="7.30873">
        <ele>234.6</ele>
        <time>2014-03-06T13:20:54Z</time>
      </trkpt>
      <trkpt lat="47.832" lon="7.30865">
        <ele>234.8</ele>
        <time>2014-03-06T13:20:56Z</time>
      </trkpt>
      <trkpt lat="47.83206" lon="7.30857">
        <ele>235.1</ele>
        <time>2014-03-06T13:20:58Z</time>
      </trkpt>
      <trkpt lat="47.83212" lon="7.30849">
        <ele>235.1</ele>
        <time>2014-03-06T13:21:00Z</time>
      </trkpt>
      <trkpt lat="47.83218" lon="7.30842">
        <ele>235.3</ele>
        <time>2014-03-06T13:21:02Z</time>
      </trkpt>
      <trkpt lat="47.83223" lon="7.30835">
        <ele>235.6</ele>
        <time>2014-03-06T13:21:04Z</time>
      </trkpt>
      <trkpt lat="47.83229" lon="7.30826">
        <ele>235.8</ele>
        <time>2014-03-06T13:21:06Z</time>
      </trkpt>
      <trkpt lat="47.83233" lon="7.30816">
        <ele>236.4</ele>
        <time>2014-03-06T13:21:08Z</time>
      </trkpt>
      <trkpt lat="47.83239" lon="7.30808">
        <ele>235.5</ele>
        <time>2014-03-06T13:21:10Z</time>
      </trkpt>
      <trkpt lat="47.83245" lon="7.30801">
        <ele>235.7</ele>
        <time>2014-03-06T13:21:12Z</time>
      </trkpt>
      <trkpt lat="47.83251" lon="7.30795">
        <ele>235.5</ele>
        <time>2014-03-06T13:21:14Z</time>
      </trkpt>
      <trkpt lat="47.83254" lon="7.30793">
        <ele>235.2</ele>
        <time>2014-03-06T13:21:16Z</time>
      </trkpt>
      <trkpt lat="47.83271" lon="7.30787">
        <ele>234.9</ele>
        <time>2014-03-06T13:22:01Z</time>
      </trkpt>
      <trkpt lat="47.83273" lon="7.30788">
        <ele>235.5</ele>
        <time>2014-03-06T13:22:03Z</time>
      </trkpt>
      <trkpt lat="47.83276" lon="7.30792">
        <ele>234.7</ele>
        <time>2014-03-06T13:22:05Z</time>
      </trkpt>
      <trkpt lat="47.83279" lon="7.30796">
        <ele>234.7</ele>
        <time>2014-03-06T13:22:07Z</time>
      </trkpt>
      <trkpt lat="47.83283" lon="7.30796">
        <ele>235.5</ele>
        <time>2014-03-06T13:22:09Z</time>
      </trkpt>
      <trkpt lat="47.83286" lon="7.3079">
        <ele>235.7</ele>
        <time>2014-03-06T13:22:11Z</time>
      </trkpt>
      <trkpt lat="47.83289" lon="7.30783">
        <ele>235.9</ele>
        <time>2014-03-06T13:22:13Z</time>
      </trkpt>
      <trkpt lat="47.83293" lon="7.30775">
        <ele>235.9</ele>
        <time>2014-03-06T13:22:15Z</time>
      </trkpt>
      <trkpt lat="47.83297" lon="7.30766">
        <ele>235.6</ele>
        <time>2014-03-06T13:22:17Z</time>
      </trkpt>
      <trkpt lat="47.83302" lon="7.30757">
        <ele>235.6</ele>
        <time>2014-03-06T13:22:19Z</time>
      </trkpt>
      <trkpt lat="47.83306" lon="7.30748">
        <ele>235.4</ele>
        <time>2014-03-06T13:22:21Z</time>
      </trkpt>
      <trkpt lat="47.8331" lon="7.30737">
        <ele>236.1</ele>
        <time>2014-03-06T13:22:23Z</time>
      </trkpt>
      <trkpt lat="47.83314" lon="7.30726">
        <ele>235.6</ele>
        <time>2014-03-06T13:22:25Z</time>
      </trkpt>
      <trkpt lat="47.83318" lon="7.30715">
        <ele>235.8</ele>
        <time>2014-03-06T13:22:27Z</time>
      </trkpt>
      <trkpt lat="47.83321" lon="7.30704">
        <ele>235.6</ele>
        <time>2014-03-06T13:22:29Z</time>
      </trkpt>
      <trkpt lat="47.83326" lon="7.30692">
        <ele>235.4</ele>
        <time>2014-03-06T13:22:31Z</time>
      </trkpt>
      <trkpt lat="47.8333" lon="7.3068">
        <ele>235.5</ele>
        <time>2014-03-06T13:22:33Z</time>
      </trkpt>
      <trkpt lat="47.83334" lon="7.30668">
        <ele>235.9</ele>
        <time>2014-03-06T13:22:35Z</time>
      </trkpt>
      <trkpt lat="47.83339" lon="7.30656">
        <ele>237.2</ele>
        <time>2014-03-06T13:22:37Z</time>
      </trkpt>
      <trkpt lat="47.83342" lon="7.30645">
        <ele>237.3</ele>
        <time>2014-03-06T13:22:39Z</time>
      </trkpt>
      <trkpt lat="47.83346" lon="7.30635">
        <ele>236.5</ele>
        <time>2014-03-06T13:22:41Z</time>
      </trkpt>
      <trkpt lat="47.8335" lon="7.30625">
        <ele>236.4</ele>
        <time>2014-03-06T13:22:43Z</time>
      </trkpt>
      <trkpt lat="47.83353" lon="7.30615">
        <ele>235.5</ele>
        <time>2014-03-06T13:22:45Z</time>
      </trkpt>
      <trkpt lat="47.83357" lon="7.30605">
        <ele>235.8</ele>
        <time>2014-03-06T13:22:47Z</time>
      </trkpt>
      <trkpt lat="47.8336" lon="7.30595">
        <ele>235.8</ele>
        <time>2014-03-06T13:22:49Z</time>
      </trkpt>
      <trkpt lat="47.83365" lon="7.30584">
        <ele>235.3</ele>
        <time>2014-03-06T13:22:51Z</time>
      </trkpt>
      <trkpt lat="47.83368" lon="7.30572">
        <ele>235.8</ele>
        <time>2014-03-06T13:22:53Z</time>
      </trkpt>
      <trkpt lat="47.83372" lon="7.30561">
        <ele>235.1</ele>
        <time>2014-03-06T13:22:55Z</time>
      </trkpt>
      <trkpt lat="47.83376" lon="7.30551">
        <ele>235.8</ele>
        <time>2014-03-06T13:22:57Z</time>
      </trkpt>
      <trkpt lat="47.83379" lon="7.3054">
        <ele>235.7</ele>
        <time>2014-03-06T13:22:59Z</time>
      </trkpt>
      <trkpt lat="47.83383" lon="7.30531">
        <ele>235.9</ele>
        <time>2014-03-06T13:23:01Z</time>
      </trkpt>
      <trkpt lat="47.83386" lon="7.30522">
        <ele>236.9</ele>
        <time>2014-03-06T13:23:03Z</time>
      </trkpt>
      <trkpt lat="47.83389" lon="7.30512">
        <ele>236.7</ele>
        <time>2014-03-06T13:23:05Z</time>
      </trkpt>
      <trkpt lat="47.83393" lon="7.30502">
        <ele>236.6</ele>
        <time>2014-03-06T13:23:07Z</time>
      </trkpt>
      <trkpt lat="47.83397" lon="7.30492">
        <ele>236.3</ele>
        <time>2014-03-06T13:23:09Z</time>
      </trkpt>
      <trkpt lat="47.83401" lon="7.3048">
        <ele>235.6</ele>
        <time>2014-03-06T13:23:11Z</time>
      </trkpt>
      <trkpt lat="47.83406" lon="7.30469">
        <ele>235.1</ele>
        <time>2014-03-06T13:23:13Z</time>
      </trkpt>
      <trkpt lat="47.8341" lon="7.30457">
        <ele>235.2</ele>
        <time>2014-03-06T13:23:15Z</time>
      </trkpt>
      <trkpt lat="47.83414" lon="7.30446">
        <ele>235.2</ele>
        <time>2014-03-06T13:23:17Z</time>
      </trkpt>
      <trkpt lat="47.83418" lon="7.30436">
        <ele>236.1</ele>
        <time>2014-03-06T13:23:19Z</time>
      </trkpt>
      <trkpt lat="47.83422" lon="7.30426">
        <ele>236.6</ele>
        <time>2014-03-06T13:23:21Z</time>
      </trkpt>
      <trkpt lat="47.83426" lon="7.30415">
        <ele>235.7</ele>
        <time>2014-03-06T13:23:23Z</time>
      </trkpt>
      <trkpt lat="47.8343" lon="7.30403">
        <ele>235.7</ele>
        <time>2014-03-06T13:23:25Z</time>
      </trkpt>
      <trkpt lat="47.83434" lon="7.30391">
        <ele>235.6</ele>
        <time>2014-03-06T13:23:27Z</time>
      </trkpt>
      <trkpt lat="47.83439" lon="7.30379">
        <ele>236.2</ele>
        <time>2014-03-06T13:23:29Z</time>
      </trkpt>
      <trkpt lat="47.83443" lon="7.30367">
        <ele>236.3</ele>
        <time>2014-03-06T13:23:31Z</time>
      </trkpt>
      <trkpt lat="47.83447" lon="7.30356">
        <ele>235.4</ele>
        <time>2014-03-06T13:23:33Z</time>
      </trkpt>
      <trkpt lat="47.83452" lon="7.30345">
        <ele>236.3</ele>
        <time>2014-03-06T13:23:35Z</time>
      </trkpt>
      <trkpt lat="47.83456" lon="7.30334">
        <ele>237</ele>
        <time>2014-03-06T13:23:37Z</time>
      </trkpt>
      <trkpt lat="47.8346" lon="7.30322">
        <ele>237.6</ele>
        <time>2014-03-06T13:23:39Z</time>
      </trkpt>
      <trkpt lat="47.83464" lon="7.3031">
        <ele>236.1</ele>
        <time>2014-03-06T13:23:41Z</time>
      </trkpt>
      <trkpt lat="47.83468" lon="7.30299">
        <ele>236.7</ele>
        <time>2014-03-06T13:23:43Z</time>
      </trkpt>
      <trkpt lat="47.83472" lon="7.30289">
        <ele>236</ele>
        <time>2014-03-06T13:23:45Z</time>
      </trkpt>
      <trkpt lat="47.83476" lon="7.30282">
        <ele>236.4</ele>
        <time>2014-03-06T13:23:47Z</time>
      </trkpt>
      <trkpt lat="47.83479" lon="7.30278">
        <ele>236.3</ele>
        <time>2014-03-06T13:23:49Z</time>
      </trkpt>
      <trkpt lat="47.83481" lon="7.30275">
        <ele>236.6</ele>
        <time>2014-03-06T13:23:51Z</time>
      </trkpt>
      <trkpt lat="47.83483" lon="7.30272">
        <ele>236.7</ele>
        <time>2014-03-06T13:23:53Z</time>
      </trkpt>
      <trkpt lat="47.83486" lon="7.30268">
        <ele>237</ele>
        <time>2014-03-06T13:24:02Z</time>
      </trkpt>
      <trkpt lat="47.83489" lon="7.30263">
        <ele>237.5</ele>
        <time>2014-03-06T13:24:04Z</time>
      </trkpt>
      <trkpt lat="47.83493" lon="7.30257">
        <ele>236.1</ele>
        <time>2014-03-06T13:24:06Z</time>
      </trkpt>
      <trkpt lat="47.83498" lon="7.3025">
        <ele>237.3</ele>
        <time>2014-03-06T13:24:08Z</time>
      </trkpt>
      <trkpt lat="47.83504" lon="7.30245">
        <ele>236.7</ele>
        <time>2014-03-06T13:24:10Z</time>
      </trkpt>
      <trkpt lat="47.83511" lon="7.30239">
        <ele>237.2</ele>
        <time>2014-03-06T13:24:12Z</time>
      </trkpt>
      <trkpt lat="47.83519" lon="7.30232">
        <ele>232.4</ele>
        <time>2014-03-06T13:24:14Z</time>
      </trkpt>
      <trkpt lat="47.83526" lon="7.30226">
        <ele>235.9</ele>
        <time>2014-03-06T13:24:16Z</time>
      </trkpt>
      <trkpt lat="47.83534" lon="7.30219">
        <ele>235.5</ele>
        <time>2014-03-06T13:24:18Z</time>
      </trkpt>
      <trkpt lat="47.83542" lon="7.30212">
        <ele>236.3</ele>
        <time>2014-03-06T13:24:20Z</time>
      </trkpt>
      <trkpt lat="47.8355" lon="7.30204">
        <ele>234.8</ele>
        <time>2014-03-06T13:24:22Z</time>
      </trkpt>
      <trkpt lat="47.83557" lon="7.30196">
        <ele>235.9</ele>
        <time>2014-03-06T13:24:24Z</time>
      </trkpt>
      <trkpt lat="47.83564" lon="7.30185">
        <ele>237.7</ele>
        <time>2014-03-06T13:24:26Z</time>
      </trkpt>
      <trkpt lat="47.83569" lon="7.30173">
        <ele>237.3</ele>
        <time>2014-03-06T13:24:28Z</time>
      </trkpt>
      <trkpt lat="47.83573" lon="7.30162">
        <ele>235.9</ele>
        <time>2014-03-06T13:24:30Z</time>
      </trkpt>
      <trkpt lat="47.83577" lon="7.30153">
        <ele>235.8</ele>
        <time>2014-03-06T13:24:32Z</time>
      </trkpt>
      <trkpt lat="47.8358" lon="7.30147">
        <ele>236</ele>
        <time>2014-03-06T13:24:34Z</time>
      </trkpt>
      <trkpt lat="47.83583" lon="7.3014">
        <ele>236.7</ele>
        <time>2014-03-06T13:24:36Z</time>
      </trkpt>
      <trkpt lat="47.83589" lon="7.30135">
        <ele>236.2</ele>
        <time>2014-03-06T13:24:38Z</time>
      </trkpt>
      <trkpt lat="47.83597" lon="7.30134">
        <ele>235.1</ele>
        <time>2014-03-06T13:24:40Z</time>
      </trkpt>
      <trkpt lat="47.83606" lon="7.30133">
        <ele>235.7</ele>
        <time>2014-03-06T13:24:42Z</time>
      </trkpt>
      <trkpt lat="47.83614" lon="7.30133">
        <ele>235.8</ele>
        <time>2014-03-06T13:24:44Z</time>
      </trkpt>
      <trkpt lat="47.83623" lon="7.30132">
        <ele>235.5</ele>
        <time>2014-03-06T13:24:46Z</time>
      </trkpt>
      <trkpt lat="47.83632" lon="7.30131">
        <ele>235.6</ele>
        <time>2014-03-06T13:24:48Z</time>
      </trkpt>
      <trkpt lat="47.83641" lon="7.3013">
        <ele>235.2</ele>
        <time>2014-03-06T13:24:50Z</time>
      </trkpt>
      <trkpt lat="47.83651" lon="7.30129">
        <ele>235.4</ele>
        <time>2014-03-06T13:24:52Z</time>
      </trkpt>
      <trkpt lat="47.83661" lon="7.30128">
        <ele>234.9</ele>
        <time>2014-03-06T13:24:54Z</time>
      </trkpt>
      <trkpt lat="47.8367" lon="7.30127">
        <ele>234.3</ele>
        <time>2014-03-06T13:24:56Z</time>
      </trkpt>
      <trkpt lat="47.8368" lon="7.30126">
        <ele>234.6</ele>
        <time>2014-03-06T13:24:58Z</time>
      </trkpt>
      <trkpt lat="47.83689" lon="7.30125">
        <ele>235.2</ele>
        <time>2014-03-06T13:25:00Z</time>
      </trkpt>
      <trkpt lat="47.83699" lon="7.30124">
        <ele>235.5</ele>
        <time>2014-03-06T13:25:02Z</time>
      </trkpt>
      <trkpt lat="47.83709" lon="7.30123">
        <ele>234.3</ele>
        <time>2014-03-06T13:25:04Z</time>
      </trkpt>
      <trkpt lat="47.83719" lon="7.30124">
        <ele>235.8</ele>
        <time>2014-03-06T13:25:06Z</time>
      </trkpt>
      <trkpt lat="47.83729" lon="7.30128">
        <ele>236</ele>
        <time>2014-03-06T13:25:08Z</time>
      </trkpt>
      <trkpt lat="47.83738" lon="7.30134">
        <ele>234.7</ele>
        <time>2014-03-06T13:25:10Z</time>
      </trkpt>
      <trkpt lat="47.83747" lon="7.30138">
        <ele>235.3</ele>
        <time>2014-03-06T13:25:12Z</time>
      </trkpt>
      <trkpt lat="47.83756" lon="7.30143">
        <ele>234.4</ele>
        <time>2014-03-06T13:25:14Z</time>
      </trkpt>
      <trkpt lat="47.83765" lon="7.30147">
        <ele>235.3</ele>
        <time>2014-03-06T13:25:16Z</time>
      </trkpt>
      <trkpt lat="47.83774" lon="7.30152">
        <ele>234.8</ele>
        <time>2014-03-06T13:25:18Z</time>
      </trkpt>
      <trkpt lat="47.83783" lon="7.30156">
        <ele>235.1</ele>
        <time>2014-03-06T13:25:20Z</time>
      </trkpt>
      <trkpt lat="47.83791" lon="7.3016">
        <ele>235.7</ele>
        <time>2014-03-06T13:25:22Z</time>
      </trkpt>
      <trkpt lat="47.838" lon="7.30164">
        <ele>235</ele>
        <time>2014-03-06T13:25:24Z</time>
      </trkpt>
      <trkpt lat="47.83809" lon="7.30167">
        <ele>235.1</ele>
        <time>2014-03-06T13:25:26Z</time>
      </trkpt>
      <trkpt lat="47.83818" lon="7.3017">
        <ele>235.1</ele>
        <time>2014-03-06T13:25:28Z</time>
      </trkpt>
      <trkpt lat="47.83828" lon="7.30171">
        <ele>235.5</ele>
        <time>2014-03-06T13:25:30Z</time>
      </trkpt>
      <trkpt lat="47.83838" lon="7.3017">
        <ele>235.3</ele>
        <time>2014-03-06T13:25:32Z</time>
      </trkpt>
      <trkpt lat="47.83847" lon="7.30169">
        <ele>234.5</ele>
        <time>2014-03-06T13:25:34Z</time>
      </trkpt>
      <trkpt lat="47.83865" lon="7.30169">
        <ele>234.7</ele>
        <time>2014-03-06T13:25:38Z</time>
      </trkpt>
      <trkpt lat="47.83873" lon="7.30168">
        <ele>235.1</ele>
        <time>2014-03-06T13:25:40Z</time>
      </trkpt>
      <trkpt lat="47.83886" lon="7.30167">
        <ele>234.4</ele>
        <time>2014-03-06T13:25:44Z</time>
      </trkpt>
      <trkpt lat="47.83889" lon="7.30159">
        <ele>234.6</ele>
        <time>2014-03-06T13:25:46Z</time>
      </trkpt>
      <trkpt lat="47.83891" lon="7.30149">
        <ele>234.7</ele>
        <time>2014-03-06T13:25:48Z</time>
      </trkpt>
      <trkpt lat="47.8389" lon="7.30137">
        <ele>234.4</ele>
        <time>2014-03-06T13:25:50Z</time>
      </trkpt>
      <trkpt lat="47.8389" lon="7.30124">
        <ele>234.2</ele>
        <time>2014-03-06T13:25:52Z</time>
      </trkpt>
      <trkpt lat="47.83888" lon="7.3011">
        <ele>234.6</ele>
        <time>2014-03-06T13:25:54Z</time>
      </trkpt>
      <trkpt lat="47.83894" lon="7.30091">
        <ele>234.7</ele>
        <time>2014-03-06T13:25:58Z</time>
      </trkpt>
      <trkpt lat="47.83902" lon="7.30093">
        <ele>234.9</ele>
        <time>2014-03-06T13:26:00Z</time>
      </trkpt>
      <trkpt lat="47.83909" lon="7.30097">
        <ele>234.4</ele>
        <time>2014-03-06T13:26:02Z</time>
      </trkpt>
      <trkpt lat="47.83916" lon="7.30103">
        <ele>234.9</ele>
        <time>2014-03-06T13:26:04Z</time>
      </trkpt>
      <trkpt lat="47.83923" lon="7.30109">
        <ele>234.7</ele>
        <time>2014-03-06T13:26:06Z</time>
      </trkpt>
      <trkpt lat="47.8393" lon="7.30116">
        <ele>234.1</ele>
        <time>2014-03-06T13:26:08Z</time>
      </trkpt>
      <trkpt lat="47.83937" lon="7.30123">
        <ele>234.4</ele>
        <time>2014-03-06T13:26:10Z</time>
      </trkpt>
      <trkpt lat="47.83944" lon="7.30129">
        <ele>234.4</ele>
        <time>2014-03-06T13:26:12Z</time>
      </trkpt>
      <trkpt lat="47.83951" lon="7.30135">
        <ele>234.4</ele>
        <time>2014-03-06T13:26:14Z</time>
      </trkpt>
      <trkpt lat="47.83958" lon="7.30141">
        <ele>234.8</ele>
        <time>2014-03-06T13:26:16Z</time>
      </trkpt>
      <trkpt lat="47.83966" lon="7.30147">
        <ele>234.6</ele>
        <time>2014-03-06T13:26:18Z</time>
      </trkpt>
      <trkpt lat="47.83973" lon="7.30153">
        <ele>235.2</ele>
        <time>2014-03-06T13:26:20Z</time>
      </trkpt>
      <trkpt lat="47.8398" lon="7.3016">
        <ele>234.3</ele>
        <time>2014-03-06T13:26:22Z</time>
      </trkpt>
      <trkpt lat="47.83987" lon="7.30166">
        <ele>234.6</ele>
        <time>2014-03-06T13:26:24Z</time>
      </trkpt>
      <trkpt lat="47.83995" lon="7.30172">
        <ele>234.2</ele>
        <time>2014-03-06T13:26:26Z</time>
      </trkpt>
      <trkpt lat="47.84002" lon="7.30178">
        <ele>234.6</ele>
        <time>2014-03-06T13:26:28Z</time>
      </trkpt>
      <trkpt lat="47.8401" lon="7.30184">
        <ele>234.8</ele>
        <time>2014-03-06T13:26:30Z</time>
      </trkpt>
      <trkpt lat="47.84019" lon="7.30184">
        <ele>235.5</ele>
        <time>2014-03-06T13:26:32Z</time>
      </trkpt>
      <trkpt lat="47.84025" lon="7.30177">
        <ele>235.8</ele>
        <time>2014-03-06T13:26:34Z</time>
      </trkpt>
      <trkpt lat="47.84031" lon="7.30166">
        <ele>235.7</ele>
        <time>2014-03-06T13:26:36Z</time>
      </trkpt>
      <trkpt lat="47.84036" lon="7.30155">
        <ele>235.1</ele>
        <time>2014-03-06T13:26:38Z</time>
      </trkpt>
      <trkpt lat="47.84041" lon="7.30143">
        <ele>235.5</ele>
        <time>2014-03-06T13:26:40Z</time>
      </trkpt>
      <trkpt lat="47.84045" lon="7.30132">
        <ele>235.1</ele>
        <time>2014-03-06T13:26:42Z</time>
      </trkpt>
      <trkpt lat="47.8405" lon="7.30121">
        <ele>234.6</ele>
        <time>2014-03-06T13:26:44Z</time>
      </trkpt>
      <trkpt lat="47.84056" lon="7.30106">
        <ele>235</ele>
        <time>2014-03-06T13:26:47Z</time>
      </trkpt>
      <trkpt lat="47.84061" lon="7.30095">
        <ele>234.9</ele>
        <time>2014-03-06T13:26:49Z</time>
      </trkpt>
      <trkpt lat="47.84066" lon="7.30083">
        <ele>234.3</ele>
        <time>2014-03-06T13:26:51Z</time>
      </trkpt>
      <trkpt lat="47.84071" lon="7.30071">
        <ele>234.6</ele>
        <time>2014-03-06T13:26:53Z</time>
      </trkpt>
      <trkpt lat="47.84076" lon="7.30058">
        <ele>234.2</ele>
        <time>2014-03-06T13:26:55Z</time>
      </trkpt>
      <trkpt lat="47.84081" lon="7.30045">
        <ele>235.1</ele>
        <time>2014-03-06T13:26:57Z</time>
      </trkpt>
      <trkpt lat="47.84087" lon="7.30032">
        <ele>235.2</ele>
        <time>2014-03-06T13:26:59Z</time>
      </trkpt>
      <trkpt lat="47.84092" lon="7.3002">
        <ele>235.2</ele>
        <time>2014-03-06T13:27:01Z</time>
      </trkpt>
      <trkpt lat="47.84096" lon="7.30008">
        <ele>235</ele>
        <time>2014-03-06T13:27:03Z</time>
      </trkpt>
      <trkpt lat="47.84101" lon="7.29997">
        <ele>234.2</ele>
        <time>2014-03-06T13:27:05Z</time>
      </trkpt>
      <trkpt lat="47.84106" lon="7.29985">
        <ele>234.1</ele>
        <time>2014-03-06T13:27:07Z</time>
      </trkpt>
      <trkpt lat="47.84111" lon="7.29973">
        <ele>233.8</ele>
        <time>2014-03-06T13:27:09Z</time>
      </trkpt>
      <trkpt lat="47.84116" lon="7.2996">
        <ele>233.8</ele>
        <time>2014-03-06T13:27:11Z</time>
      </trkpt>
      <trkpt lat="47.84121" lon="7.29948">
        <ele>234.5</ele>
        <time>2014-03-06T13:27:13Z</time>
      </trkpt>
      <trkpt lat="47.84126" lon="7.29936">
        <ele>235.2</ele>
        <time>2014-03-06T13:27:15Z</time>
      </trkpt>
      <trkpt lat="47.84131" lon="7.29924">
        <ele>234.5</ele>
        <time>2014-03-06T13:27:17Z</time>
      </trkpt>
      <trkpt lat="47.84136" lon="7.29913">
        <ele>233.8</ele>
        <time>2014-03-06T13:27:19Z</time>
      </trkpt>
      <trkpt lat="47.8414" lon="7.29903">
        <ele>234.3</ele>
        <time>2014-03-06T13:27:21Z</time>
      </trkpt>
      <trkpt lat="47.84144" lon="7.29893">
        <ele>233.6</ele>
        <time>2014-03-06T13:27:23Z</time>
      </trkpt>
      <trkpt lat="47.84148" lon="7.29881">
        <ele>234.6</ele>
        <time>2014-03-06T13:27:25Z</time>
      </trkpt>
      <trkpt lat="47.84153" lon="7.29871">
        <ele>234.1</ele>
        <time>2014-03-06T13:27:27Z</time>
      </trkpt>
      <trkpt lat="47.84158" lon="7.29861">
        <ele>233.9</ele>
        <time>2014-03-06T13:27:29Z</time>
      </trkpt>
      <trkpt lat="47.84164" lon="7.29852">
        <ele>234</ele>
        <time>2014-03-06T13:27:31Z</time>
      </trkpt>
      <trkpt lat="47.84172" lon="7.29851">
        <ele>233.4</ele>
        <time>2014-03-06T13:27:33Z</time>
      </trkpt>
      <trkpt lat="47.84178" lon="7.29855">
        <ele>232</ele>
        <time>2014-03-06T13:27:35Z</time>
      </trkpt>
      <trkpt lat="47.84184" lon="7.29859">
        <ele>232.4</ele>
        <time>2014-03-06T13:27:37Z</time>
      </trkpt>
      <trkpt lat="47.84189" lon="7.29863">
        <ele>233.9</ele>
        <time>2014-03-06T13:27:39Z</time>
      </trkpt>
      <trkpt lat="47.84196" lon="7.29868">
        <ele>232.9</ele>
        <time>2014-03-06T13:27:41Z</time>
      </trkpt>
      <trkpt lat="47.84203" lon="7.29872">
        <ele>232.5</ele>
        <time>2014-03-06T13:27:43Z</time>
      </trkpt>
      <trkpt lat="47.8421" lon="7.29878">
        <ele>232.3</ele>
        <time>2014-03-06T13:27:45Z</time>
      </trkpt>
      <trkpt lat="47.84217" lon="7.29885">
        <ele>232.3</ele>
        <time>2014-03-06T13:27:47Z</time>
      </trkpt>
      <trkpt lat="47.84224" lon="7.29892">
        <ele>232.2</ele>
        <time>2014-03-06T13:27:49Z</time>
      </trkpt>
      <trkpt lat="47.84231" lon="7.29899">
        <ele>232.8</ele>
        <time>2014-03-06T13:27:51Z</time>
      </trkpt>
      <trkpt lat="47.84237" lon="7.29907">
        <ele>232.6</ele>
        <time>2014-03-06T13:27:53Z</time>
      </trkpt>
      <trkpt lat="47.84244" lon="7.29915">
        <ele>232.1</ele>
        <time>2014-03-06T13:27:55Z</time>
      </trkpt>
      <trkpt lat="47.8425" lon="7.29922">
        <ele>232</ele>
        <time>2014-03-06T13:27:57Z</time>
      </trkpt>
      <trkpt lat="47.84258" lon="7.29929">
        <ele>232.2</ele>
        <time>2014-03-06T13:27:59Z</time>
      </trkpt>
      <trkpt lat="47.84264" lon="7.29936">
        <ele>232.4</ele>
        <time>2014-03-06T13:28:01Z</time>
      </trkpt>
      <trkpt lat="47.84272" lon="7.29942">
        <ele>232.1</ele>
        <time>2014-03-06T13:28:03Z</time>
      </trkpt>
      <trkpt lat="47.8428" lon="7.29948">
        <ele>232</ele>
        <time>2014-03-06T13:28:05Z</time>
      </trkpt>
      <trkpt lat="47.84288" lon="7.29953">
        <ele>232.1</ele>
        <time>2014-03-06T13:28:07Z</time>
      </trkpt>
      <trkpt lat="47.84296" lon="7.29958">
        <ele>232</ele>
        <time>2014-03-06T13:28:09Z</time>
      </trkpt>
      <trkpt lat="47.84305" lon="7.29964">
        <ele>232.1</ele>
        <time>2014-03-06T13:28:11Z</time>
      </trkpt>
      <trkpt lat="47.84313" lon="7.29969">
        <ele>232.7</ele>
        <time>2014-03-06T13:28:13Z</time>
      </trkpt>
      <trkpt lat="47.84321" lon="7.29975">
        <ele>231.9</ele>
        <time>2014-03-06T13:28:15Z</time>
      </trkpt>
      <trkpt lat="47.84329" lon="7.29983">
        <ele>232.3</ele>
        <time>2014-03-06T13:28:17Z</time>
      </trkpt>
      <trkpt lat="47.84335" lon="7.29992">
        <ele>232.5</ele>
        <time>2014-03-06T13:28:19Z</time>
      </trkpt>
      <trkpt lat="47.8434" lon="7.30003">
        <ele>232.5</ele>
        <time>2014-03-06T13:28:21Z</time>
      </trkpt>
      <trkpt lat="47.84344" lon="7.30015">
        <ele>232</ele>
        <time>2014-03-06T13:28:23Z</time>
      </trkpt>
      <trkpt lat="47.84347" lon="7.30028">
        <ele>232</ele>
        <time>2014-03-06T13:28:25Z</time>
      </trkpt>
      <trkpt lat="47.84351" lon="7.3004">
        <ele>231.7</ele>
        <time>2014-03-06T13:28:27Z</time>
      </trkpt>
      <trkpt lat="47.84355" lon="7.3005">
        <ele>231.7</ele>
        <time>2014-03-06T13:28:29Z</time>
      </trkpt>
      <trkpt lat="47.8436" lon="7.3006">
        <ele>231.6</ele>
        <time>2014-03-06T13:28:31Z</time>
      </trkpt>
      <trkpt lat="47.84366" lon="7.30068">
        <ele>231.1</ele>
        <time>2014-03-06T13:28:33Z</time>
      </trkpt>
      <trkpt lat="47.84371" lon="7.30076">
        <ele>231.4</ele>
        <time>2014-03-06T13:28:35Z</time>
      </trkpt>
      <trkpt lat="47.84377" lon="7.30083">
        <ele>231.3</ele>
        <time>2014-03-06T13:28:37Z</time>
      </trkpt>
      <trkpt lat="47.84383" lon="7.30089">
        <ele>231</ele>
        <time>2014-03-06T13:28:39Z</time>
      </trkpt>
      <trkpt lat="47.84388" lon="7.30095">
        <ele>231.9</ele>
        <time>2014-03-06T13:28:41Z</time>
      </trkpt>
      <trkpt lat="47.84395" lon="7.30101">
        <ele>231.3</ele>
        <time>2014-03-06T13:28:43Z</time>
      </trkpt>
      <trkpt lat="47.84401" lon="7.30107">
        <ele>232.2</ele>
        <time>2014-03-06T13:28:45Z</time>
      </trkpt>
      <trkpt lat="47.84407" lon="7.30113">
        <ele>232.3</ele>
        <time>2014-03-06T13:28:47Z</time>
      </trkpt>
      <trkpt lat="47.84413" lon="7.3012">
        <ele>232.5</ele>
        <time>2014-03-06T13:28:49Z</time>
      </trkpt>
      <trkpt lat="47.8442" lon="7.30126">
        <ele>232.4</ele>
        <time>2014-03-06T13:28:51Z</time>
      </trkpt>
      <trkpt lat="47.84427" lon="7.30132">
        <ele>232.8</ele>
        <time>2014-03-06T13:28:53Z</time>
      </trkpt>
      <trkpt lat="47.84433" lon="7.30137">
        <ele>232.2</ele>
        <time>2014-03-06T13:28:55Z</time>
      </trkpt>
      <trkpt lat="47.8444" lon="7.30142">
        <ele>231.9</ele>
        <time>2014-03-06T13:28:57Z</time>
      </trkpt>
      <trkpt lat="47.84446" lon="7.30146">
        <ele>232.3</ele>
        <time>2014-03-06T13:28:59Z</time>
      </trkpt>
      <trkpt lat="47.84453" lon="7.3015">
        <ele>232.4</ele>
        <time>2014-03-06T13:29:01Z</time>
      </trkpt>
      <trkpt lat="47.8446" lon="7.30153">
        <ele>232.1</ele>
        <time>2014-03-06T13:29:03Z</time>
      </trkpt>
      <trkpt lat="47.84467" lon="7.30157">
        <ele>232</ele>
        <time>2014-03-06T13:29:05Z</time>
      </trkpt>
      <trkpt lat="47.84474" lon="7.3016">
        <ele>232.5</ele>
        <time>2014-03-06T13:29:07Z</time>
      </trkpt>
      <trkpt lat="47.8448" lon="7.30163">
        <ele>232.4</ele>
        <time>2014-03-06T13:29:09Z</time>
      </trkpt>
      <trkpt lat="47.84485" lon="7.30165">
        <ele>232.8</ele>
        <time>2014-03-06T13:29:11Z</time>
      </trkpt>
      <trkpt lat="47.8449" lon="7.30168">
        <ele>232.9</ele>
        <time>2014-03-06T13:29:12Z</time>
      </trkpt>
      <trkpt lat="47.84496" lon="7.3017">
        <ele>232.1</ele>
        <time>2014-03-06T13:29:15Z</time>
      </trkpt>
      <trkpt lat="47.84502" lon="7.30173">
        <ele>233.1</ele>
        <time>2014-03-06T13:29:17Z</time>
      </trkpt>
      <trkpt lat="47.84509" lon="7.30176">
        <ele>232.7</ele>
        <time>2014-03-06T13:29:19Z</time>
      </trkpt>
      <trkpt lat="47.84515" lon="7.30179">
        <ele>233.1</ele>
        <time>2014-03-06T13:29:21Z</time>
      </trkpt>
      <trkpt lat="47.84521" lon="7.30182">
        <ele>232.4</ele>
        <time>2014-03-06T13:29:23Z</time>
      </trkpt>
      <trkpt lat="47.84528" lon="7.30185">
        <ele>231.6</ele>
        <time>2014-03-06T13:29:25Z</time>
      </trkpt>
      <trkpt lat="47.84535" lon="7.30188">
        <ele>231.8</ele>
        <time>2014-03-06T13:29:27Z</time>
      </trkpt>
      <trkpt lat="47.84541" lon="7.30191">
        <ele>232.4</ele>
        <time>2014-03-06T13:29:29Z</time>
      </trkpt>
      <trkpt lat="47.84548" lon="7.30194">
        <ele>232.5</ele>
        <time>2014-03-06T13:29:31Z</time>
      </trkpt>
      <trkpt lat="47.84555" lon="7.30198">
        <ele>232.4</ele>
        <time>2014-03-06T13:29:33Z</time>
      </trkpt>
      <trkpt lat="47.84561" lon="7.30201">
        <ele>232.3</ele>
        <time>2014-03-06T13:29:35Z</time>
      </trkpt>
      <trkpt lat="47.84568" lon="7.30205">
        <ele>232.8</ele>
        <time>2014-03-06T13:29:37Z</time>
      </trkpt>
      <trkpt lat="47.84575" lon="7.30209">
        <ele>232.5</ele>
        <time>2014-03-06T13:29:39Z</time>
      </trkpt>
      <trkpt lat="47.84581" lon="7.30214">
        <ele>232.1</ele>
        <time>2014-03-06T13:29:41Z</time>
      </trkpt>
      <trkpt lat="47.84587" lon="7.30219">
        <ele>231.7</ele>
        <time>2014-03-06T13:29:43Z</time>
      </trkpt>
      <trkpt lat="47.84593" lon="7.30225">
        <ele>231.6</ele>
        <time>2014-03-06T13:29:45Z</time>
      </trkpt>
      <trkpt lat="47.84599" lon="7.3023">
        <ele>231.8</ele>
        <time>2014-03-06T13:29:47Z</time>
      </trkpt>
      <trkpt lat="47.84605" lon="7.30236">
        <ele>232.2</ele>
        <time>2014-03-06T13:29:49Z</time>
      </trkpt>
      <trkpt lat="47.84612" lon="7.30242">
        <ele>232.5</ele>
        <time>2014-03-06T13:29:51Z</time>
      </trkpt>
      <trkpt lat="47.84617" lon="7.30247">
        <ele>232</ele>
        <time>2014-03-06T13:29:53Z</time>
      </trkpt>
      <trkpt lat="47.84621" lon="7.3025">
        <ele>232.6</ele>
        <time>2014-03-06T13:29:55Z</time>
      </trkpt>
      <trkpt lat="47.84625" lon="7.30256">
        <ele>232.6</ele>
        <time>2014-03-06T13:29:57Z</time>
      </trkpt>
      <trkpt lat="47.84628" lon="7.30263">
        <ele>233.2</ele>
        <time>2014-03-06T13:29:59Z</time>
      </trkpt>
      <trkpt lat="47.84631" lon="7.30272">
        <ele>234</ele>
        <time>2014-03-06T13:30:01Z</time>
      </trkpt>
      <trkpt lat="47.84634" lon="7.30281">
        <ele>232.9</ele>
        <time>2014-03-06T13:30:03Z</time>
      </trkpt>
      <trkpt lat="47.84638" lon="7.3029">
        <ele>233</ele>
        <time>2014-03-06T13:30:05Z</time>
      </trkpt>
      <trkpt lat="47.84642" lon="7.30299">
        <ele>232.8</ele>
        <time>2014-03-06T13:30:07Z</time>
      </trkpt>
      <trkpt lat="47.84646" lon="7.30309">
        <ele>232.4</ele>
        <time>2014-03-06T13:30:09Z</time>
      </trkpt>
      <trkpt lat="47.84649" lon="7.30319">
        <ele>232.9</ele>
        <time>2014-03-06T13:30:11Z</time>
      </trkpt>
      <trkpt lat="47.84652" lon="7.30328">
        <ele>233</ele>
        <time>2014-03-06T13:30:13Z</time>
      </trkpt>
      <trkpt lat="47.84656" lon="7.30337">
        <ele>232.7</ele>
        <time>2014-03-06T13:30:15Z</time>
      </trkpt>
      <trkpt lat="47.8466" lon="7.30347">
        <ele>232.5</ele>
        <time>2014-03-06T13:30:17Z</time>
      </trkpt>
      <trkpt lat="47.84663" lon="7.30357">
        <ele>232.6</ele>
        <time>2014-03-06T13:30:19Z</time>
      </trkpt>
      <trkpt lat="47.84667" lon="7.30367">
        <ele>232.5</ele>
        <time>2014-03-06T13:30:21Z</time>
      </trkpt>
      <trkpt lat="47.84671" lon="7.30377">
        <ele>233.2</ele>
        <time>2014-03-06T13:30:23Z</time>
      </trkpt>
      <trkpt lat="47.84675" lon="7.30388">
        <ele>232.8</ele>
        <time>2014-03-06T13:30:25Z</time>
      </trkpt>
      <trkpt lat="47.84679" lon="7.30398">
        <ele>233</ele>
        <time>2014-03-06T13:30:27Z</time>
      </trkpt>
      <trkpt lat="47.84682" lon="7.30409">
        <ele>233.7</ele>
        <time>2014-03-06T13:30:29Z</time>
      </trkpt>
      <trkpt lat="47.84686" lon="7.30418">
        <ele>233.9</ele>
        <time>2014-03-06T13:30:31Z</time>
      </trkpt>
      <trkpt lat="47.84688" lon="7.30426">
        <ele>233.4</ele>
        <time>2014-03-06T13:30:33Z</time>
      </trkpt>
      <trkpt lat="47.84692" lon="7.30435">
        <ele>233.2</ele>
        <time>2014-03-06T13:30:35Z</time>
      </trkpt>
      <trkpt lat="47.84695" lon="7.30445">
        <ele>233.1</ele>
        <time>2014-03-06T13:30:37Z</time>
      </trkpt>
      <trkpt lat="47.84699" lon="7.30456">
        <ele>232.3</ele>
        <time>2014-03-06T13:30:39Z</time>
      </trkpt>
      <trkpt lat="47.84703" lon="7.30466">
        <ele>232.8</ele>
        <time>2014-03-06T13:30:41Z</time>
      </trkpt>
      <trkpt lat="47.84707" lon="7.30477">
        <ele>232.6</ele>
        <time>2014-03-06T13:30:43Z</time>
      </trkpt>
      <trkpt lat="47.8471" lon="7.30488">
        <ele>232.9</ele>
        <time>2014-03-06T13:30:45Z</time>
      </trkpt>
      <trkpt lat="47.84714" lon="7.30498">
        <ele>232.7</ele>
        <time>2014-03-06T13:30:47Z</time>
      </trkpt>
      <trkpt lat="47.84718" lon="7.30509">
        <ele>232.7</ele>
        <time>2014-03-06T13:30:49Z</time>
      </trkpt>
      <trkpt lat="47.84722" lon="7.3052">
        <ele>232.5</ele>
        <time>2014-03-06T13:30:51Z</time>
      </trkpt>
      <trkpt lat="47.84726" lon="7.30531">
        <ele>232.3</ele>
        <time>2014-03-06T13:30:53Z</time>
      </trkpt>
      <trkpt lat="47.8473" lon="7.3054">
        <ele>232.4</ele>
        <time>2014-03-06T13:30:55Z</time>
      </trkpt>
      <trkpt lat="47.84733" lon="7.3055">
        <ele>232.1</ele>
        <time>2014-03-06T13:30:57Z</time>
      </trkpt>
      <trkpt lat="47.84737" lon="7.3056">
        <ele>232</ele>
        <time>2014-03-06T13:30:59Z</time>
      </trkpt>
      <trkpt lat="47.84741" lon="7.30571">
        <ele>232.3</ele>
        <time>2014-03-06T13:31:01Z</time>
      </trkpt>
      <trkpt lat="47.84745" lon="7.30582">
        <ele>232.3</ele>
        <time>2014-03-06T13:31:03Z</time>
      </trkpt>
      <trkpt lat="47.84749" lon="7.30593">
        <ele>231.9</ele>
        <time>2014-03-06T13:31:05Z</time>
      </trkpt>
      <trkpt lat="47.84754" lon="7.30604">
        <ele>232.3</ele>
        <time>2014-03-06T13:31:07Z</time>
      </trkpt>
      <trkpt lat="47.84759" lon="7.30616">
        <ele>232.7</ele>
        <time>2014-03-06T13:31:09Z</time>
      </trkpt>
      <trkpt lat="47.84763" lon="7.30628">
        <ele>232.3</ele>
        <time>2014-03-06T13:31:11Z</time>
      </trkpt>
      <trkpt lat="47.84766" lon="7.30639">
        <ele>232.9</ele>
        <time>2014-03-06T13:31:13Z</time>
      </trkpt>
      <trkpt lat="47.84771" lon="7.30649">
        <ele>232.4</ele>
        <time>2014-03-06T13:31:15Z</time>
      </trkpt>
      <trkpt lat="47.84774" lon="7.3066">
        <ele>231.9</ele>
        <time>2014-03-06T13:31:17Z</time>
      </trkpt>
      <trkpt lat="47.84779" lon="7.30671">
        <ele>232</ele>
        <time>2014-03-06T13:31:19Z</time>
      </trkpt>
      <trkpt lat="47.84783" lon="7.30683">
        <ele>232.4</ele>
        <time>2014-03-06T13:31:21Z</time>
      </trkpt>
      <trkpt lat="47.84787" lon="7.30695">
        <ele>231.7</ele>
        <time>2014-03-06T13:31:23Z</time>
      </trkpt>
      <trkpt lat="47.84791" lon="7.30706">
        <ele>232.1</ele>
        <time>2014-03-06T13:31:25Z</time>
      </trkpt>
      <trkpt lat="47.84795" lon="7.30718">
        <ele>231.5</ele>
        <time>2014-03-06T13:31:27Z</time>
      </trkpt>
      <trkpt lat="47.848" lon="7.3073">
        <ele>231.2</ele>
        <time>2014-03-06T13:31:29Z</time>
      </trkpt>
      <trkpt lat="47.84804" lon="7.30741">
        <ele>231.3</ele>
        <time>2014-03-06T13:31:31Z</time>
      </trkpt>
      <trkpt lat="47.84808" lon="7.30753">
        <ele>231</ele>
        <time>2014-03-06T13:31:33Z</time>
      </trkpt>
      <trkpt lat="47.84813" lon="7.30765">
        <ele>231.2</ele>
        <time>2014-03-06T13:31:35Z</time>
      </trkpt>
      <trkpt lat="47.84816" lon="7.30775">
        <ele>231.4</ele>
        <time>2014-03-06T13:31:37Z</time>
      </trkpt>
      <trkpt lat="47.84819" lon="7.30784">
        <ele>231.5</ele>
        <time>2014-03-06T13:31:39Z</time>
      </trkpt>
      <trkpt lat="47.84824" lon="7.30795">
        <ele>231.4</ele>
        <time>2014-03-06T13:31:41Z</time>
      </trkpt>
      <trkpt lat="47.84828" lon="7.30806">
        <ele>232</ele>
        <time>2014-03-06T13:31:43Z</time>
      </trkpt>
      <trkpt lat="47.84832" lon="7.30818">
        <ele>232.4</ele>
        <time>2014-03-06T13:31:45Z</time>
      </trkpt>
      <trkpt lat="47.84836" lon="7.30829">
        <ele>231.5</ele>
        <time>2014-03-06T13:31:47Z</time>
      </trkpt>
      <trkpt lat="47.8484" lon="7.30841">
        <ele>231.1</ele>
        <time>2014-03-06T13:31:49Z</time>
      </trkpt>
      <trkpt lat="47.84844" lon="7.30853">
        <ele>232</ele>
        <time>2014-03-06T13:31:51Z</time>
      </trkpt>
      <trkpt lat="47.84849" lon="7.30865">
        <ele>231.4</ele>
        <time>2014-03-06T13:31:53Z</time>
      </trkpt>
      <trkpt lat="47.84853" lon="7.30877">
        <ele>231</ele>
        <time>2014-03-06T13:31:55Z</time>
      </trkpt>
      <trkpt lat="47.84857" lon="7.30888">
        <ele>231.3</ele>
        <time>2014-03-06T13:31:57Z</time>
      </trkpt>
      <trkpt lat="47.8486" lon="7.30898">
        <ele>231.4</ele>
        <time>2014-03-06T13:31:59Z</time>
      </trkpt>
      <trkpt lat="47.84864" lon="7.30908">
        <ele>231</ele>
        <time>2014-03-06T13:32:01Z</time>
      </trkpt>
      <trkpt lat="47.84868" lon="7.30919">
        <ele>231.3</ele>
        <time>2014-03-06T13:32:03Z</time>
      </trkpt>
      <trkpt lat="47.84872" lon="7.3093">
        <ele>231</ele>
        <time>2014-03-06T13:32:05Z</time>
      </trkpt>
      <trkpt lat="47.84876" lon="7.30942">
        <ele>230.1</ele>
        <time>2014-03-06T13:32:07Z</time>
      </trkpt>
      <trkpt lat="47.8488" lon="7.30953">
        <ele>230.6</ele>
        <time>2014-03-06T13:32:09Z</time>
      </trkpt>
      <trkpt lat="47.84885" lon="7.30965">
        <ele>231.1</ele>
        <time>2014-03-06T13:32:11Z</time>
      </trkpt>
      <trkpt lat="47.84889" lon="7.30977">
        <ele>231.3</ele>
        <time>2014-03-06T13:32:13Z</time>
      </trkpt>
      <trkpt lat="47.84893" lon="7.3099">
        <ele>230.7</ele>
        <time>2014-03-06T13:32:15Z</time>
      </trkpt>
      <trkpt lat="47.84898" lon="7.31001">
        <ele>230</ele>
        <time>2014-03-06T13:32:17Z</time>
      </trkpt>
      <trkpt lat="47.84901" lon="7.31012">
        <ele>230</ele>
        <time>2014-03-06T13:32:19Z</time>
      </trkpt>
      <trkpt lat="47.84905" lon="7.31022">
        <ele>229.9</ele>
        <time>2014-03-06T13:32:21Z</time>
      </trkpt>
      <trkpt lat="47.84909" lon="7.31031">
        <ele>229.6</ele>
        <time>2014-03-06T13:32:23Z</time>
      </trkpt>
      <trkpt lat="47.84913" lon="7.31042">
        <ele>229.9</ele>
        <time>2014-03-06T13:32:25Z</time>
      </trkpt>
      <trkpt lat="47.84917" lon="7.31052">
        <ele>230.6</ele>
        <time>2014-03-06T13:32:27Z</time>
      </trkpt>
      <trkpt lat="47.84921" lon="7.31063">
        <ele>229.9</ele>
        <time>2014-03-06T13:32:29Z</time>
      </trkpt>
      <trkpt lat="47.84925" lon="7.31075">
        <ele>230.5</ele>
        <time>2014-03-06T13:32:31Z</time>
      </trkpt>
      <trkpt lat="47.84929" lon="7.31087">
        <ele>230.6</ele>
        <time>2014-03-06T13:32:33Z</time>
      </trkpt>
      <trkpt lat="47.84933" lon="7.31099">
        <ele>229.3</ele>
        <time>2014-03-06T13:32:34Z</time>
      </trkpt>
      <trkpt lat="47.84938" lon="7.31111">
        <ele>229.9</ele>
        <time>2014-03-06T13:32:37Z</time>
      </trkpt>
      <trkpt lat="47.84942" lon="7.31123">
        <ele>229.6</ele>
        <time>2014-03-06T13:32:39Z</time>
      </trkpt>
      <trkpt lat="47.84946" lon="7.31134">
        <ele>229.7</ele>
        <time>2014-03-06T13:32:41Z</time>
      </trkpt>
      <trkpt lat="47.8495" lon="7.31145">
        <ele>230.2</ele>
        <time>2014-03-06T13:32:43Z</time>
      </trkpt>
      <trkpt lat="47.84954" lon="7.31155">
        <ele>230.6</ele>
        <time>2014-03-06T13:32:45Z</time>
      </trkpt>
      <trkpt lat="47.84958" lon="7.31166">
        <ele>230.8</ele>
        <time>2014-03-06T13:32:47Z</time>
      </trkpt>
      <trkpt lat="47.84962" lon="7.31177">
        <ele>230.6</ele>
        <time>2014-03-06T13:32:49Z</time>
      </trkpt>
      <trkpt lat="47.84966" lon="7.31188">
        <ele>230.1</ele>
        <time>2014-03-06T13:32:51Z</time>
      </trkpt>
      <trkpt lat="47.8497" lon="7.312">
        <ele>229.8</ele>
        <time>2014-03-06T13:32:53Z</time>
      </trkpt>
      <trkpt lat="47.84974" lon="7.31211">
        <ele>229.8</ele>
        <time>2014-03-06T13:32:55Z</time>
      </trkpt>
      <trkpt lat="47.84979" lon="7.31223">
        <ele>230</ele>
        <time>2014-03-06T13:32:57Z</time>
      </trkpt>
      <trkpt lat="47.84983" lon="7.31235">
        <ele>229.7</ele>
        <time>2014-03-06T13:32:59Z</time>
      </trkpt>
      <trkpt lat="47.84987" lon="7.31247">
        <ele>230.1</ele>
        <time>2014-03-06T13:33:01Z</time>
      </trkpt>
      <trkpt lat="47.84992" lon="7.31259">
        <ele>229.6</ele>
        <time>2014-03-06T13:33:03Z</time>
      </trkpt>
      <trkpt lat="47.84996" lon="7.31271">
        <ele>228.8</ele>
        <time>2014-03-06T13:33:05Z</time>
      </trkpt>
      <trkpt lat="47.85" lon="7.31283">
        <ele>228.3</ele>
        <time>2014-03-06T13:33:07Z</time>
      </trkpt>
      <trkpt lat="47.85004" lon="7.31295">
        <ele>228.4</ele>
        <time>2014-03-06T13:33:09Z</time>
      </trkpt>
      <trkpt lat="47.85009" lon="7.31306">
        <ele>228.5</ele>
        <time>2014-03-06T13:33:11Z</time>
      </trkpt>
      <trkpt lat="47.85013" lon="7.31317">
        <ele>229.3</ele>
        <time>2014-03-06T13:33:13Z</time>
      </trkpt>
      <trkpt lat="47.85017" lon="7.31329">
        <ele>229.9</ele>
        <time>2014-03-06T13:33:15Z</time>
      </trkpt>
      <trkpt lat="47.85021" lon="7.31342">
        <ele>229.5</ele>
        <time>2014-03-06T13:33:17Z</time>
      </trkpt>
      <trkpt lat="47.85025" lon="7.31354">
        <ele>229.8</ele>
        <time>2014-03-06T13:33:19Z</time>
      </trkpt>
      <trkpt lat="47.8503" lon="7.31366">
        <ele>230</ele>
        <time>2014-03-06T13:33:21Z</time>
      </trkpt>
      <trkpt lat="47.85034" lon="7.31378">
        <ele>229.7</ele>
        <time>2014-03-06T13:33:23Z</time>
      </trkpt>
      <trkpt lat="47.85039" lon="7.3139">
        <ele>229.3</ele>
        <time>2014-03-06T13:33:25Z</time>
      </trkpt>
      <trkpt lat="47.85043" lon="7.31401">
        <ele>228.6</ele>
        <time>2014-03-06T13:33:27Z</time>
      </trkpt>
      <trkpt lat="47.85046" lon="7.3141">
        <ele>228.4</ele>
        <time>2014-03-06T13:33:29Z</time>
      </trkpt>
      <trkpt lat="47.8505" lon="7.3142">
        <ele>228.6</ele>
        <time>2014-03-06T13:33:31Z</time>
      </trkpt>
      <trkpt lat="47.85054" lon="7.3143">
        <ele>229.2</ele>
        <time>2014-03-06T13:33:33Z</time>
      </trkpt>
      <trkpt lat="47.85058" lon="7.31441">
        <ele>229.5</ele>
        <time>2014-03-06T13:33:35Z</time>
      </trkpt>
      <trkpt lat="47.85062" lon="7.31451">
        <ele>229.5</ele>
        <time>2014-03-06T13:33:37Z</time>
      </trkpt>
      <trkpt lat="47.85067" lon="7.31463">
        <ele>229.4</ele>
        <time>2014-03-06T13:33:39Z</time>
      </trkpt>
      <trkpt lat="47.85071" lon="7.31474">
        <ele>228.5</ele>
        <time>2014-03-06T13:33:41Z</time>
      </trkpt>
      <trkpt lat="47.85075" lon="7.31485">
        <ele>228.8</ele>
        <time>2014-03-06T13:33:43Z</time>
      </trkpt>
      <trkpt lat="47.8508" lon="7.31496">
        <ele>228.8</ele>
        <time>2014-03-06T13:33:45Z</time>
      </trkpt>
      <trkpt lat="47.85084" lon="7.31508">
        <ele>229.6</ele>
        <time>2014-03-06T13:33:47Z</time>
      </trkpt>
      <trkpt lat="47.85088" lon="7.3152">
        <ele>229.8</ele>
        <time>2014-03-06T13:33:49Z</time>
      </trkpt>
      <trkpt lat="47.85093" lon="7.31532">
        <ele>228.8</ele>
        <time>2014-03-06T13:33:51Z</time>
      </trkpt>
      <trkpt lat="47.85098" lon="7.31545">
        <ele>229.2</ele>
        <time>2014-03-06T13:33:53Z</time>
      </trkpt>
      <trkpt lat="47.85103" lon="7.31556">
        <ele>228</ele>
        <time>2014-03-06T13:33:55Z</time>
      </trkpt>
      <trkpt lat="47.85107" lon="7.31567">
        <ele>228.7</ele>
        <time>2014-03-06T13:33:57Z</time>
      </trkpt>
      <trkpt lat="47.85111" lon="7.31578">
        <ele>228.6</ele>
        <time>2014-03-06T13:33:59Z</time>
      </trkpt>
      <trkpt lat="47.85115" lon="7.31588">
        <ele>228.5</ele>
        <time>2014-03-06T13:34:01Z</time>
      </trkpt>
      <trkpt lat="47.85119" lon="7.31599">
        <ele>228.3</ele>
        <time>2014-03-06T13:34:03Z</time>
      </trkpt>
      <trkpt lat="47.85123" lon="7.31611">
        <ele>228.2</ele>
        <time>2014-03-06T13:34:05Z</time>
      </trkpt>
      <trkpt lat="47.85127" lon="7.31622">
        <ele>228.8</ele>
        <time>2014-03-06T13:34:07Z</time>
      </trkpt>
      <trkpt lat="47.85131" lon="7.31634">
        <ele>229</ele>
        <time>2014-03-06T13:34:09Z</time>
      </trkpt>
      <trkpt lat="47.85135" lon="7.31646">
        <ele>227.9</ele>
        <time>2014-03-06T13:34:11Z</time>
      </trkpt>
      <trkpt lat="47.8514" lon="7.31659">
        <ele>228.3</ele>
        <time>2014-03-06T13:34:13Z</time>
      </trkpt>
      <trkpt lat="47.85144" lon="7.31671">
        <ele>228</ele>
        <time>2014-03-06T13:34:15Z</time>
      </trkpt>
      <trkpt lat="47.85149" lon="7.31683">
        <ele>227.1</ele>
        <time>2014-03-06T13:34:17Z</time>
      </trkpt>
      <trkpt lat="47.85153" lon="7.31695">
        <ele>227.3</ele>
        <time>2014-03-06T13:34:19Z</time>
      </trkpt>
      <trkpt lat="47.85157" lon="7.31705">
        <ele>227.9</ele>
        <time>2014-03-06T13:34:21Z</time>
      </trkpt>
      <trkpt lat="47.85161" lon="7.31715">
        <ele>228.3</ele>
        <time>2014-03-06T13:34:23Z</time>
      </trkpt>
      <trkpt lat="47.85166" lon="7.31726">
        <ele>228</ele>
        <time>2014-03-06T13:34:25Z</time>
      </trkpt>
      <trkpt lat="47.85171" lon="7.31737">
        <ele>227.7</ele>
        <time>2014-03-06T13:34:27Z</time>
      </trkpt>
      <trkpt lat="47.85176" lon="7.31749">
        <ele>227.8</ele>
        <time>2014-03-06T13:34:29Z</time>
      </trkpt>
      <trkpt lat="47.8518" lon="7.31761">
        <ele>228.2</ele>
        <time>2014-03-06T13:34:31Z</time>
      </trkpt>
      <trkpt lat="47.85185" lon="7.31773">
        <ele>227.6</ele>
        <time>2014-03-06T13:34:33Z</time>
      </trkpt>
      <trkpt lat="47.85189" lon="7.31784">
        <ele>227.2</ele>
        <time>2014-03-06T13:34:35Z</time>
      </trkpt>
      <trkpt lat="47.85193" lon="7.31795">
        <ele>227.7</ele>
        <time>2014-03-06T13:34:37Z</time>
      </trkpt>
      <trkpt lat="47.85197" lon="7.31806">
        <ele>228.2</ele>
        <time>2014-03-06T13:34:39Z</time>
      </trkpt>
      <trkpt lat="47.85201" lon="7.31815">
        <ele>228.1</ele>
        <time>2014-03-06T13:34:41Z</time>
      </trkpt>
      <trkpt lat="47.85204" lon="7.31825">
        <ele>228.1</ele>
        <time>2014-03-06T13:34:43Z</time>
      </trkpt>
      <trkpt lat="47.85209" lon="7.31833">
        <ele>227.2</ele>
        <time>2014-03-06T13:34:45Z</time>
      </trkpt>
      <trkpt lat="47.85212" lon="7.31842">
        <ele>227.8</ele>
        <time>2014-03-06T13:34:47Z</time>
      </trkpt>
      <trkpt lat="47.85216" lon="7.31852">
        <ele>228</ele>
        <time>2014-03-06T13:34:49Z</time>
      </trkpt>
      <trkpt lat="47.8522" lon="7.31862">
        <ele>228</ele>
        <time>2014-03-06T13:34:51Z</time>
      </trkpt>
      <trkpt lat="47.85224" lon="7.31873">
        <ele>227.5</ele>
        <time>2014-03-06T13:34:53Z</time>
      </trkpt>
      <trkpt lat="47.85228" lon="7.31884">
        <ele>227.9</ele>
        <time>2014-03-06T13:34:55Z</time>
      </trkpt>
      <trkpt lat="47.85233" lon="7.31895">
        <ele>227.9</ele>
        <time>2014-03-06T13:34:57Z</time>
      </trkpt>
      <trkpt lat="47.85237" lon="7.31907">
        <ele>227.8</ele>
        <time>2014-03-06T13:34:59Z</time>
      </trkpt>
      <trkpt lat="47.85241" lon="7.3192">
        <ele>228</ele>
        <time>2014-03-06T13:35:01Z</time>
      </trkpt>
      <trkpt lat="47.85246" lon="7.31932">
        <ele>227.8</ele>
        <time>2014-03-06T13:35:03Z</time>
      </trkpt>
      <trkpt lat="47.8525" lon="7.31944">
        <ele>228.2</ele>
        <time>2014-03-06T13:35:05Z</time>
      </trkpt>
      <trkpt lat="47.85254" lon="7.31957">
        <ele>227</ele>
        <time>2014-03-06T13:35:07Z</time>
      </trkpt>
      <trkpt lat="47.85259" lon="7.31969">
        <ele>227.4</ele>
        <time>2014-03-06T13:35:09Z</time>
      </trkpt>
      <trkpt lat="47.85263" lon="7.31982">
        <ele>226.8</ele>
        <time>2014-03-06T13:35:11Z</time>
      </trkpt>
      <trkpt lat="47.85268" lon="7.31994">
        <ele>227.5</ele>
        <time>2014-03-06T13:35:13Z</time>
      </trkpt>
      <trkpt lat="47.85273" lon="7.32006">
        <ele>227.1</ele>
        <time>2014-03-06T13:35:15Z</time>
      </trkpt>
      <trkpt lat="47.85277" lon="7.32018">
        <ele>227</ele>
        <time>2014-03-06T13:35:17Z</time>
      </trkpt>
      <trkpt lat="47.85281" lon="7.32029">
        <ele>227.7</ele>
        <time>2014-03-06T13:35:19Z</time>
      </trkpt>
      <trkpt lat="47.85285" lon="7.3204">
        <ele>227</ele>
        <time>2014-03-06T13:35:21Z</time>
      </trkpt>
      <trkpt lat="47.85288" lon="7.3205">
        <ele>227</ele>
        <time>2014-03-06T13:35:23Z</time>
      </trkpt>
      <trkpt lat="47.85292" lon="7.32059">
        <ele>227.1</ele>
        <time>2014-03-06T13:35:25Z</time>
      </trkpt>
      <trkpt lat="47.85295" lon="7.32067">
        <ele>227.4</ele>
        <time>2014-03-06T13:35:27Z</time>
      </trkpt>
      <trkpt lat="47.85297" lon="7.32075">
        <ele>228.1</ele>
        <time>2014-03-06T13:35:29Z</time>
      </trkpt>
      <trkpt lat="47.85301" lon="7.32085">
        <ele>227.5</ele>
        <time>2014-03-06T13:35:31Z</time>
      </trkpt>
      <trkpt lat="47.85305" lon="7.32095">
        <ele>227.3</ele>
        <time>2014-03-06T13:35:33Z</time>
      </trkpt>
      <trkpt lat="47.85309" lon="7.32106">
        <ele>227.3</ele>
        <time>2014-03-06T13:35:35Z</time>
      </trkpt>
      <trkpt lat="47.85313" lon="7.32118">
        <ele>228.2</ele>
        <time>2014-03-06T13:35:37Z</time>
      </trkpt>
      <trkpt lat="47.85317" lon="7.32129">
        <ele>228.6</ele>
        <time>2014-03-06T13:35:39Z</time>
      </trkpt>
      <trkpt lat="47.85321" lon="7.32141">
        <ele>228.5</ele>
        <time>2014-03-06T13:35:41Z</time>
      </trkpt>
      <trkpt lat="47.85325" lon="7.32153">
        <ele>228.9</ele>
        <time>2014-03-06T13:35:43Z</time>
      </trkpt>
      <trkpt lat="47.8533" lon="7.32165">
        <ele>228.8</ele>
        <time>2014-03-06T13:35:45Z</time>
      </trkpt>
      <trkpt lat="47.85334" lon="7.32177">
        <ele>228</ele>
        <time>2014-03-06T13:35:47Z</time>
      </trkpt>
      <trkpt lat="47.85338" lon="7.32189">
        <ele>228.1</ele>
        <time>2014-03-06T13:35:49Z</time>
      </trkpt>
      <trkpt lat="47.85342" lon="7.32201">
        <ele>227.4</ele>
        <time>2014-03-06T13:35:51Z</time>
      </trkpt>
      <trkpt lat="47.85347" lon="7.32214">
        <ele>227.5</ele>
        <time>2014-03-06T13:35:53Z</time>
      </trkpt>
      <trkpt lat="47.85352" lon="7.32227">
        <ele>226.9</ele>
        <time>2014-03-06T13:35:55Z</time>
      </trkpt>
      <trkpt lat="47.85357" lon="7.3224">
        <ele>227.3</ele>
        <time>2014-03-06T13:35:57Z</time>
      </trkpt>
      <trkpt lat="47.85362" lon="7.32254">
        <ele>227.5</ele>
        <time>2014-03-06T13:35:59Z</time>
      </trkpt>
      <trkpt lat="47.85367" lon="7.32267">
        <ele>227.6</ele>
        <time>2014-03-06T13:36:01Z</time>
      </trkpt>
      <trkpt lat="47.85371" lon="7.3228">
        <ele>227.1</ele>
        <time>2014-03-06T13:36:03Z</time>
      </trkpt>
      <trkpt lat="47.85376" lon="7.32291">
        <ele>227.4</ele>
        <time>2014-03-06T13:36:05Z</time>
      </trkpt>
      <trkpt lat="47.8538" lon="7.32303">
        <ele>226.7</ele>
        <time>2014-03-06T13:36:07Z</time>
      </trkpt>
      <trkpt lat="47.85384" lon="7.32314">
        <ele>227.6</ele>
        <time>2014-03-06T13:36:09Z</time>
      </trkpt>
      <trkpt lat="47.85389" lon="7.32327">
        <ele>227.2</ele>
        <time>2014-03-06T13:36:11Z</time>
      </trkpt>
      <trkpt lat="47.85394" lon="7.3234">
        <ele>226.6</ele>
        <time>2014-03-06T13:36:13Z</time>
      </trkpt>
      <trkpt lat="47.85399" lon="7.32353">
        <ele>227</ele>
        <time>2014-03-06T13:36:15Z</time>
      </trkpt>
      <trkpt lat="47.85404" lon="7.32367">
        <ele>227.1</ele>
        <time>2014-03-06T13:36:17Z</time>
      </trkpt>
      <trkpt lat="47.85409" lon="7.3238">
        <ele>227</ele>
        <time>2014-03-06T13:36:19Z</time>
      </trkpt>
      <trkpt lat="47.85415" lon="7.32394">
        <ele>226.9</ele>
        <time>2014-03-06T13:36:21Z</time>
      </trkpt>
      <trkpt lat="47.8542" lon="7.32408">
        <ele>226.9</ele>
        <time>2014-03-06T13:36:23Z</time>
      </trkpt>
      <trkpt lat="47.85424" lon="7.32422">
        <ele>225.8</ele>
        <time>2014-03-06T13:36:25Z</time>
      </trkpt>
      <trkpt lat="47.85429" lon="7.32434">
        <ele>225.6</ele>
        <time>2014-03-06T13:36:27Z</time>
      </trkpt>
      <trkpt lat="47.85433" lon="7.32446">
        <ele>225.7</ele>
        <time>2014-03-06T13:36:29Z</time>
      </trkpt>
      <trkpt lat="47.85437" lon="7.32458">
        <ele>226.3</ele>
        <time>2014-03-06T13:36:31Z</time>
      </trkpt>
      <trkpt lat="47.85442" lon="7.3247">
        <ele>226.6</ele>
        <time>2014-03-06T13:36:33Z</time>
      </trkpt>
      <trkpt lat="47.85447" lon="7.32484">
        <ele>226.7</ele>
        <time>2014-03-06T13:36:35Z</time>
      </trkpt>
      <trkpt lat="47.85452" lon="7.32498">
        <ele>226.1</ele>
        <time>2014-03-06T13:36:37Z</time>
      </trkpt>
      <trkpt lat="47.85457" lon="7.32511">
        <ele>225.7</ele>
        <time>2014-03-06T13:36:39Z</time>
      </trkpt>
      <trkpt lat="47.85462" lon="7.32524">
        <ele>225.8</ele>
        <time>2014-03-06T13:36:41Z</time>
      </trkpt>
      <trkpt lat="47.85466" lon="7.32536">
        <ele>225.3</ele>
        <time>2014-03-06T13:36:43Z</time>
      </trkpt>
      <trkpt lat="47.85471" lon="7.32548">
        <ele>225.5</ele>
        <time>2014-03-06T13:36:45Z</time>
      </trkpt>
      <trkpt lat="47.85475" lon="7.32559">
        <ele>225.1</ele>
        <time>2014-03-06T13:36:47Z</time>
      </trkpt>
      <trkpt lat="47.85479" lon="7.32569">
        <ele>224.9</ele>
        <time>2014-03-06T13:36:49Z</time>
      </trkpt>
      <trkpt lat="47.85483" lon="7.3258">
        <ele>225.8</ele>
        <time>2014-03-06T13:36:51Z</time>
      </trkpt>
      <trkpt lat="47.85488" lon="7.32592">
        <ele>225.4</ele>
        <time>2014-03-06T13:36:53Z</time>
      </trkpt>
      <trkpt lat="47.85492" lon="7.32605">
        <ele>225.1</ele>
        <time>2014-03-06T13:36:55Z</time>
      </trkpt>
      <trkpt lat="47.85497" lon="7.32618">
        <ele>225.4</ele>
        <time>2014-03-06T13:36:57Z</time>
      </trkpt>
      <trkpt lat="47.85502" lon="7.32633">
        <ele>226</ele>
        <time>2014-03-06T13:36:59Z</time>
      </trkpt>
      <trkpt lat="47.85506" lon="7.32646">
        <ele>225.4</ele>
        <time>2014-03-06T13:37:01Z</time>
      </trkpt>
      <trkpt lat="47.85511" lon="7.32659">
        <ele>225.6</ele>
        <time>2014-03-06T13:37:03Z</time>
      </trkpt>
      <trkpt lat="47.85515" lon="7.32671">
        <ele>225.3</ele>
        <time>2014-03-06T13:37:05Z</time>
      </trkpt>
      <trkpt lat="47.85521" lon="7.32682">
        <ele>225.4</ele>
        <time>2014-03-06T13:37:07Z</time>
      </trkpt>
      <trkpt lat="47.85526" lon="7.32694">
        <ele>227.1</ele>
        <time>2014-03-06T13:37:09Z</time>
      </trkpt>
      <trkpt lat="47.85531" lon="7.32706">
        <ele>226</ele>
        <time>2014-03-06T13:37:11Z</time>
      </trkpt>
      <trkpt lat="47.85537" lon="7.32719">
        <ele>224.9</ele>
        <time>2014-03-06T13:37:13Z</time>
      </trkpt>
      <trkpt lat="47.85542" lon="7.32733">
        <ele>224.5</ele>
        <time>2014-03-06T13:37:15Z</time>
      </trkpt>
      <trkpt lat="47.85547" lon="7.32746">
        <ele>225</ele>
        <time>2014-03-06T13:37:17Z</time>
      </trkpt>
      <trkpt lat="47.85552" lon="7.32758">
        <ele>224.5</ele>
        <time>2014-03-06T13:37:19Z</time>
      </trkpt>
      <trkpt lat="47.85556" lon="7.3277">
        <ele>223.8</ele>
        <time>2014-03-06T13:37:21Z</time>
      </trkpt>
      <trkpt lat="47.8556" lon="7.32781">
        <ele>224.7</ele>
        <time>2014-03-06T13:37:23Z</time>
      </trkpt>
      <trkpt lat="47.85565" lon="7.32791">
        <ele>224.1</ele>
        <time>2014-03-06T13:37:25Z</time>
      </trkpt>
      <trkpt lat="47.8557" lon="7.32803">
        <ele>224.3</ele>
        <time>2014-03-06T13:37:27Z</time>
      </trkpt>
      <trkpt lat="47.85575" lon="7.32815">
        <ele>224</ele>
        <time>2014-03-06T13:37:29Z</time>
      </trkpt>
      <trkpt lat="47.8558" lon="7.32828">
        <ele>224.2</ele>
        <time>2014-03-06T13:37:31Z</time>
      </trkpt>
      <trkpt lat="47.85585" lon="7.32841">
        <ele>224.2</ele>
        <time>2014-03-06T13:37:33Z</time>
      </trkpt>
      <trkpt lat="47.85591" lon="7.32855">
        <ele>224.5</ele>
        <time>2014-03-06T13:37:35Z</time>
      </trkpt>
      <trkpt lat="47.85595" lon="7.32869">
        <ele>223.9</ele>
        <time>2014-03-06T13:37:37Z</time>
      </trkpt>
      <trkpt lat="47.85599" lon="7.32883">
        <ele>224.3</ele>
        <time>2014-03-06T13:37:39Z</time>
      </trkpt>
      <trkpt lat="47.85603" lon="7.32896">
        <ele>223.8</ele>
        <time>2014-03-06T13:37:41Z</time>
      </trkpt>
      <trkpt lat="47.85607" lon="7.32908">
        <ele>223.7</ele>
        <time>2014-03-06T13:37:43Z</time>
      </trkpt>
      <trkpt lat="47.85611" lon="7.32921">
        <ele>224</ele>
        <time>2014-03-06T13:37:45Z</time>
      </trkpt>
      <trkpt lat="47.85615" lon="7.32934">
        <ele>224.2</ele>
        <time>2014-03-06T13:37:47Z</time>
      </trkpt>
      <trkpt lat="47.8562" lon="7.32946">
        <ele>224.2</ele>
        <time>2014-03-06T13:37:49Z</time>
      </trkpt>
      <trkpt lat="47.85624" lon="7.32959">
        <ele>223.4</ele>
        <time>2014-03-06T13:37:51Z</time>
      </trkpt>
      <trkpt lat="47.85628" lon="7.32971">
        <ele>223.5</ele>
        <time>2014-03-06T13:37:53Z</time>
      </trkpt>
      <trkpt lat="47.85632" lon="7.32983">
        <ele>224</ele>
        <time>2014-03-06T13:37:55Z</time>
      </trkpt>
      <trkpt lat="47.85637" lon="7.32995">
        <ele>223.5</ele>
        <time>2014-03-06T13:37:57Z</time>
      </trkpt>
      <trkpt lat="47.8564" lon="7.33007">
        <ele>223.7</ele>
        <time>2014-03-06T13:37:59Z</time>
      </trkpt>
      <trkpt lat="47.85645" lon="7.33019">
        <ele>222.4</ele>
        <time>2014-03-06T13:38:01Z</time>
      </trkpt>
      <trkpt lat="47.85649" lon="7.33032">
        <ele>222.8</ele>
        <time>2014-03-06T13:38:03Z</time>
      </trkpt>
      <trkpt lat="47.85654" lon="7.33045">
        <ele>222.7</ele>
        <time>2014-03-06T13:38:05Z</time>
      </trkpt>
      <trkpt lat="47.85658" lon="7.33057">
        <ele>222.4</ele>
        <time>2014-03-06T13:38:07Z</time>
      </trkpt>
      <trkpt lat="47.85663" lon="7.3307">
        <ele>222.5</ele>
        <time>2014-03-06T13:38:09Z</time>
      </trkpt>
      <trkpt lat="47.85667" lon="7.33083">
        <ele>222.1</ele>
        <time>2014-03-06T13:38:11Z</time>
      </trkpt>
      <trkpt lat="47.85672" lon="7.33096">
        <ele>221.6</ele>
        <time>2014-03-06T13:38:13Z</time>
      </trkpt>
      <trkpt lat="47.85677" lon="7.33108">
        <ele>222.6</ele>
        <time>2014-03-06T13:38:15Z</time>
      </trkpt>
      <trkpt lat="47.85681" lon="7.33119">
        <ele>222.5</ele>
        <time>2014-03-06T13:38:17Z</time>
      </trkpt>
      <trkpt lat="47.85685" lon="7.3313">
        <ele>222.1</ele>
        <time>2014-03-06T13:38:19Z</time>
      </trkpt>
      <trkpt lat="47.85688" lon="7.33139">
        <ele>222.1</ele>
        <time>2014-03-06T13:38:21Z</time>
      </trkpt>
      <trkpt lat="47.85693" lon="7.33147">
        <ele>222.3</ele>
        <time>2014-03-06T13:38:23Z</time>
      </trkpt>
      <trkpt lat="47.857" lon="7.3315">
        <ele>222.7</ele>
        <time>2014-03-06T13:38:25Z</time>
      </trkpt>
      <trkpt lat="47.85707" lon="7.33148">
        <ele>222.8</ele>
        <time>2014-03-06T13:38:27Z</time>
      </trkpt>
      <trkpt lat="47.85715" lon="7.33145">
        <ele>222.4</ele>
        <time>2014-03-06T13:38:29Z</time>
      </trkpt>
      <trkpt lat="47.85724" lon="7.33144">
        <ele>222.4</ele>
        <time>2014-03-06T13:38:31Z</time>
      </trkpt>
      <trkpt lat="47.85732" lon="7.33143">
        <ele>222.7</ele>
        <time>2014-03-06T13:38:33Z</time>
      </trkpt>
      <trkpt lat="47.85741" lon="7.33143">
        <ele>222.4</ele>
        <time>2014-03-06T13:38:35Z</time>
      </trkpt>
      <trkpt lat="47.85759" lon="7.33143">
        <ele>222.3</ele>
        <time>2014-03-06T13:38:39Z</time>
      </trkpt>
      <trkpt lat="47.85767" lon="7.33144">
        <ele>222.5</ele>
        <time>2014-03-06T13:38:41Z</time>
      </trkpt>
      <trkpt lat="47.85776" lon="7.33144">
        <ele>222.2</ele>
        <time>2014-03-06T13:38:43Z</time>
      </trkpt>
      <trkpt lat="47.85785" lon="7.33145">
        <ele>222.1</ele>
        <time>2014-03-06T13:38:45Z</time>
      </trkpt>
      <trkpt lat="47.85793" lon="7.33145">
        <ele>223.8</ele>
        <time>2014-03-06T13:38:47Z</time>
      </trkpt>
      <trkpt lat="47.85802" lon="7.33145">
        <ele>224.3</ele>
        <time>2014-03-06T13:38:49Z</time>
      </trkpt>
      <trkpt lat="47.85811" lon="7.33146">
        <ele>223.4</ele>
        <time>2014-03-06T13:38:51Z</time>
      </trkpt>
      <trkpt lat="47.8582" lon="7.33146">
        <ele>223.9</ele>
        <time>2014-03-06T13:38:53Z</time>
      </trkpt>
      <trkpt lat="47.85828" lon="7.33146">
        <ele>223.7</ele>
        <time>2014-03-06T13:38:55Z</time>
      </trkpt>
      <trkpt lat="47.85837" lon="7.33147">
        <ele>223.6</ele>
        <time>2014-03-06T13:38:57Z</time>
      </trkpt>
      <trkpt lat="47.85845" lon="7.33147">
        <ele>223.8</ele>
        <time>2014-03-06T13:38:59Z</time>
      </trkpt>
      <trkpt lat="47.85854" lon="7.33147">
        <ele>223.3</ele>
        <time>2014-03-06T13:39:01Z</time>
      </trkpt>
      <trkpt lat="47.85862" lon="7.33147">
        <ele>223</ele>
        <time>2014-03-06T13:39:03Z</time>
      </trkpt>
      <trkpt lat="47.8588" lon="7.33148">
        <ele>222.4</ele>
        <time>2014-03-06T13:39:07Z</time>
      </trkpt>
      <trkpt lat="47.85889" lon="7.3315">
        <ele>222.5</ele>
        <time>2014-03-06T13:39:09Z</time>
      </trkpt>
      <trkpt lat="47.85897" lon="7.33152">
        <ele>222.9</ele>
        <time>2014-03-06T13:39:11Z</time>
      </trkpt>
      <trkpt lat="47.85907" lon="7.33154">
        <ele>221.9</ele>
        <time>2014-03-06T13:39:13Z</time>
      </trkpt>
      <trkpt lat="47.85917" lon="7.33154">
        <ele>221.4</ele>
        <time>2014-03-06T13:39:15Z</time>
      </trkpt>
      <trkpt lat="47.85927" lon="7.33154">
        <ele>221.4</ele>
        <time>2014-03-06T13:39:17Z</time>
      </trkpt>
      <trkpt lat="47.85936" lon="7.33154">
        <ele>221.1</ele>
        <time>2014-03-06T13:39:19Z</time>
      </trkpt>
      <trkpt lat="47.85946" lon="7.33153">
        <ele>221.9</ele>
        <time>2014-03-06T13:39:21Z</time>
      </trkpt>
      <trkpt lat="47.85955" lon="7.33153">
        <ele>220.5</ele>
        <time>2014-03-06T13:39:23Z</time>
      </trkpt>
      <trkpt lat="47.85964" lon="7.33153">
        <ele>220.6</ele>
        <time>2014-03-06T13:39:25Z</time>
      </trkpt>
      <trkpt lat="47.85973" lon="7.33154">
        <ele>220.8</ele>
        <time>2014-03-06T13:39:27Z</time>
      </trkpt>
      <trkpt lat="47.85981" lon="7.33157">
        <ele>220.8</ele>
        <time>2014-03-06T13:39:29Z</time>
      </trkpt>
      <trkpt lat="47.85989" lon="7.3316">
        <ele>221.3</ele>
        <time>2014-03-06T13:39:31Z</time>
      </trkpt>
      <trkpt lat="47.85997" lon="7.33163">
        <ele>221.4</ele>
        <time>2014-03-06T13:39:33Z</time>
      </trkpt>
      <trkpt lat="47.86004" lon="7.33167">
        <ele>221.3</ele>
        <time>2014-03-06T13:39:35Z</time>
      </trkpt>
      <trkpt lat="47.86011" lon="7.33169">
        <ele>220.7</ele>
        <time>2014-03-06T13:39:37Z</time>
      </trkpt>
      <trkpt lat="47.86018" lon="7.33173">
        <ele>221</ele>
        <time>2014-03-06T13:39:39Z</time>
      </trkpt>
      <trkpt lat="47.86026" lon="7.33177">
        <ele>220.7</ele>
        <time>2014-03-06T13:39:41Z</time>
      </trkpt>
      <trkpt lat="47.86034" lon="7.33182">
        <ele>220.4</ele>
        <time>2014-03-06T13:39:43Z</time>
      </trkpt>
      <trkpt lat="47.86041" lon="7.33187">
        <ele>220.6</ele>
        <time>2014-03-06T13:39:45Z</time>
      </trkpt>
      <trkpt lat="47.86049" lon="7.33194">
        <ele>221.1</ele>
        <time>2014-03-06T13:39:47Z</time>
      </trkpt>
      <trkpt lat="47.86057" lon="7.33201">
        <ele>221.2</ele>
        <time>2014-03-06T13:39:49Z</time>
      </trkpt>
      <trkpt lat="47.86064" lon="7.33209">
        <ele>221.1</ele>
        <time>2014-03-06T13:39:51Z</time>
      </trkpt>
      <trkpt lat="47.86072" lon="7.33217">
        <ele>221.2</ele>
        <time>2014-03-06T13:39:53Z</time>
      </trkpt>
      <trkpt lat="47.86079" lon="7.33226">
        <ele>219.8</ele>
        <time>2014-03-06T13:39:55Z</time>
      </trkpt>
      <trkpt lat="47.86086" lon="7.33235">
        <ele>220.4</ele>
        <time>2014-03-06T13:39:57Z</time>
      </trkpt>
      <trkpt lat="47.86092" lon="7.33244">
        <ele>221</ele>
        <time>2014-03-06T13:39:59Z</time>
      </trkpt>
      <trkpt lat="47.86098" lon="7.33252">
        <ele>222.7</ele>
        <time>2014-03-06T13:40:01Z</time>
      </trkpt>
      <trkpt lat="47.86103" lon="7.3326">
        <ele>222.3</ele>
        <time>2014-03-06T13:40:03Z</time>
      </trkpt>
      <trkpt lat="47.86109" lon="7.33268">
        <ele>221.3</ele>
        <time>2014-03-06T13:40:05Z</time>
      </trkpt>
      <trkpt lat="47.86115" lon="7.33276">
        <ele>221.3</ele>
        <time>2014-03-06T13:40:07Z</time>
      </trkpt>
      <trkpt lat="47.8612" lon="7.33285">
        <ele>221.2</ele>
        <time>2014-03-06T13:40:09Z</time>
      </trkpt>
      <trkpt lat="47.86126" lon="7.33295">
        <ele>221</ele>
        <time>2014-03-06T13:40:11Z</time>
      </trkpt>
      <trkpt lat="47.86133" lon="7.33305">
        <ele>221.1</ele>
        <time>2014-03-06T13:40:13Z</time>
      </trkpt>
      <trkpt lat="47.8614" lon="7.33315">
        <ele>221.1</ele>
        <time>2014-03-06T13:40:15Z</time>
      </trkpt>
      <trkpt lat="47.86146" lon="7.33325">
        <ele>221</ele>
        <time>2014-03-06T13:40:17Z</time>
      </trkpt>
      <trkpt lat="47.86153" lon="7.33335">
        <ele>221.1</ele>
        <time>2014-03-06T13:40:19Z</time>
      </trkpt>
      <trkpt lat="47.86158" lon="7.33347">
        <ele>221.4</ele>
        <time>2014-03-06T13:40:21Z</time>
      </trkpt>
      <trkpt lat="47.86163" lon="7.33359">
        <ele>220.7</ele>
        <time>2014-03-06T13:40:23Z</time>
      </trkpt>
      <trkpt lat="47.86168" lon="7.3337">
        <ele>220.8</ele>
        <time>2014-03-06T13:40:25Z</time>
      </trkpt>
      <trkpt lat="47.86173" lon="7.33379">
        <ele>220.5</ele>
        <time>2014-03-06T13:40:27Z</time>
      </trkpt>
      <trkpt lat="47.86177" lon="7.33387">
        <ele>220.7</ele>
        <time>2014-03-06T13:40:29Z</time>
      </trkpt>
      <trkpt lat="47.86181" lon="7.33395">
        <ele>221.2</ele>
        <time>2014-03-06T13:40:31Z</time>
      </trkpt>
      <trkpt lat="47.86184" lon="7.33402">
        <ele>221</ele>
        <time>2014-03-06T13:40:33Z</time>
      </trkpt>
      <trkpt lat="47.86189" lon="7.3341">
        <ele>220.3</ele>
        <time>2014-03-06T13:40:35Z</time>
      </trkpt>
      <trkpt lat="47.86192" lon="7.33417">
        <ele>220.8</ele>
        <time>2014-03-06T13:40:37Z</time>
      </trkpt>
      <trkpt lat="47.86196" lon="7.33426">
        <ele>220.6</ele>
        <time>2014-03-06T13:40:39Z</time>
      </trkpt>
      <trkpt lat="47.862" lon="7.33434">
        <ele>220.5</ele>
        <time>2014-03-06T13:40:41Z</time>
      </trkpt>
      <trkpt lat="47.86205" lon="7.33442">
        <ele>221.2</ele>
        <time>2014-03-06T13:40:43Z</time>
      </trkpt>
      <trkpt lat="47.8621" lon="7.33451">
        <ele>220.9</ele>
        <time>2014-03-06T13:40:45Z</time>
      </trkpt>
      <trkpt lat="47.86214" lon="7.3346">
        <ele>220.5</ele>
        <time>2014-03-06T13:40:47Z</time>
      </trkpt>
      <trkpt lat="47.86219" lon="7.3347">
        <ele>221.2</ele>
        <time>2014-03-06T13:40:49Z</time>
      </trkpt>
      <trkpt lat="47.86225" lon="7.3348">
        <ele>221.3</ele>
        <time>2014-03-06T13:40:51Z</time>
      </trkpt>
      <trkpt lat="47.86231" lon="7.33491">
        <ele>220.6</ele>
        <time>2014-03-06T13:40:53Z</time>
      </trkpt>
      <trkpt lat="47.86236" lon="7.33502">
        <ele>220.5</ele>
        <time>2014-03-06T13:40:55Z</time>
      </trkpt>
      <trkpt lat="47.86242" lon="7.33514">
        <ele>221.1</ele>
        <time>2014-03-06T13:40:57Z</time>
      </trkpt>
      <trkpt lat="47.86248" lon="7.33525">
        <ele>220.7</ele>
        <time>2014-03-06T13:40:59Z</time>
      </trkpt>
      <trkpt lat="47.86253" lon="7.33536">
        <ele>219.7</ele>
        <time>2014-03-06T13:41:01Z</time>
      </trkpt>
      <trkpt lat="47.86259" lon="7.33546">
        <ele>219.9</ele>
        <time>2014-03-06T13:41:03Z</time>
      </trkpt>
      <trkpt lat="47.86265" lon="7.33557">
        <ele>220.1</ele>
        <time>2014-03-06T13:41:05Z</time>
      </trkpt>
      <trkpt lat="47.86271" lon="7.33568">
        <ele>219.4</ele>
        <time>2014-03-06T13:41:07Z</time>
      </trkpt>
      <trkpt lat="47.86277" lon="7.3358">
        <ele>219.3</ele>
        <time>2014-03-06T13:41:09Z</time>
      </trkpt>
      <trkpt lat="47.86283" lon="7.33591">
        <ele>219.2</ele>
        <time>2014-03-06T13:41:11Z</time>
      </trkpt>
      <trkpt lat="47.86289" lon="7.33603">
        <ele>219.4</ele>
        <time>2014-03-06T13:41:13Z</time>
      </trkpt>
      <trkpt lat="47.86294" lon="7.33614">
        <ele>219</ele>
        <time>2014-03-06T13:41:15Z</time>
      </trkpt>
      <trkpt lat="47.863" lon="7.33626">
        <ele>219.4</ele>
        <time>2014-03-06T13:41:17Z</time>
      </trkpt>
      <trkpt lat="47.86305" lon="7.33639">
        <ele>220.2</ele>
        <time>2014-03-06T13:41:19Z</time>
      </trkpt>
      <trkpt lat="47.86309" lon="7.33653">
        <ele>219.9</ele>
        <time>2014-03-06T13:41:21Z</time>
      </trkpt>
      <trkpt lat="47.86314" lon="7.33668">
        <ele>220</ele>
        <time>2014-03-06T13:41:23Z</time>
      </trkpt>
      <trkpt lat="47.86318" lon="7.33682">
        <ele>220.5</ele>
        <time>2014-03-06T13:41:25Z</time>
      </trkpt>
      <trkpt lat="47.86322" lon="7.33696">
        <ele>219.2</ele>
        <time>2014-03-06T13:41:27Z</time>
      </trkpt>
      <trkpt lat="47.86326" lon="7.33711">
        <ele>219.7</ele>
        <time>2014-03-06T13:41:29Z</time>
      </trkpt>
      <trkpt lat="47.8633" lon="7.33725">
        <ele>219.7</ele>
        <time>2014-03-06T13:41:31Z</time>
      </trkpt>
      <trkpt lat="47.86334" lon="7.33739">
        <ele>219.8</ele>
        <time>2014-03-06T13:41:33Z</time>
      </trkpt>
      <trkpt lat="47.86338" lon="7.33753">
        <ele>220.2</ele>
        <time>2014-03-06T13:41:35Z</time>
      </trkpt>
      <trkpt lat="47.86342" lon="7.33767">
        <ele>220.1</ele>
        <time>2014-03-06T13:41:37Z</time>
      </trkpt>
      <trkpt lat="47.86346" lon="7.33781">
        <ele>219.8</ele>
        <time>2014-03-06T13:41:39Z</time>
      </trkpt>
      <trkpt lat="47.86351" lon="7.33795">
        <ele>219.5</ele>
        <time>2014-03-06T13:41:41Z</time>
      </trkpt>
      <trkpt lat="47.86355" lon="7.33809">
        <ele>220.3</ele>
        <time>2014-03-06T13:41:43Z</time>
      </trkpt>
      <trkpt lat="47.86359" lon="7.33823">
        <ele>219.3</ele>
        <time>2014-03-06T13:41:45Z</time>
      </trkpt>
      <trkpt lat="47.86363" lon="7.33836">
        <ele>219.8</ele>
        <time>2014-03-06T13:41:47Z</time>
      </trkpt>
      <trkpt lat="47.86367" lon="7.3385">
        <ele>219.6</ele>
        <time>2014-03-06T13:41:49Z</time>
      </trkpt>
      <trkpt lat="47.86371" lon="7.33864">
        <ele>219.6</ele>
        <time>2014-03-06T13:41:51Z</time>
      </trkpt>
      <trkpt lat="47.86375" lon="7.33877">
        <ele>219.3</ele>
        <time>2014-03-06T13:41:53Z</time>
      </trkpt>
      <trkpt lat="47.86378" lon="7.3389">
        <ele>219.3</ele>
        <time>2014-03-06T13:41:55Z</time>
      </trkpt>
      <trkpt lat="47.86382" lon="7.33903">
        <ele>219.1</ele>
        <time>2014-03-06T13:41:57Z</time>
      </trkpt>
      <trkpt lat="47.86386" lon="7.33915">
        <ele>219.5</ele>
        <time>2014-03-06T13:41:59Z</time>
      </trkpt>
      <trkpt lat="47.86389" lon="7.33926">
        <ele>220.2</ele>
        <time>2014-03-06T13:42:01Z</time>
      </trkpt>
      <trkpt lat="47.86392" lon="7.33938">
        <ele>220.5</ele>
        <time>2014-03-06T13:42:03Z</time>
      </trkpt>
      <trkpt lat="47.86395" lon="7.33949">
        <ele>220.1</ele>
        <time>2014-03-06T13:42:05Z</time>
      </trkpt>
      <trkpt lat="47.86399" lon="7.33961">
        <ele>219.5</ele>
        <time>2014-03-06T13:42:07Z</time>
      </trkpt>
      <trkpt lat="47.86404" lon="7.33972">
        <ele>219</ele>
        <time>2014-03-06T13:42:09Z</time>
      </trkpt>
      <trkpt lat="47.86409" lon="7.33981">
        <ele>219.5</ele>
        <time>2014-03-06T13:42:11Z</time>
      </trkpt>
      <trkpt lat="47.86416" lon="7.33989">
        <ele>219.8</ele>
        <time>2014-03-06T13:42:13Z</time>
      </trkpt>
      <trkpt lat="47.86424" lon="7.33996">
        <ele>220.1</ele>
        <time>2014-03-06T13:42:15Z</time>
      </trkpt>
      <trkpt lat="47.86431" lon="7.34002">
        <ele>219.9</ele>
        <time>2014-03-06T13:42:17Z</time>
      </trkpt>
      <trkpt lat="47.86438" lon="7.34007">
        <ele>220.4</ele>
        <time>2014-03-06T13:42:19Z</time>
      </trkpt>
      <trkpt lat="47.86445" lon="7.34014">
        <ele>220.2</ele>
        <time>2014-03-06T13:42:21Z</time>
      </trkpt>
      <trkpt lat="47.86452" lon="7.3402">
        <ele>217.6</ele>
        <time>2014-03-06T13:42:23Z</time>
      </trkpt>
      <trkpt lat="47.86458" lon="7.34027">
        <ele>218.2</ele>
        <time>2014-03-06T13:42:25Z</time>
      </trkpt>
      <trkpt lat="47.86464" lon="7.34034">
        <ele>218.9</ele>
        <time>2014-03-06T13:42:27Z</time>
      </trkpt>
      <trkpt lat="47.8647" lon="7.3404">
        <ele>220.1</ele>
        <time>2014-03-06T13:42:29Z</time>
      </trkpt>
      <trkpt lat="47.86477" lon="7.34046">
        <ele>220.3</ele>
        <time>2014-03-06T13:42:31Z</time>
      </trkpt>
      <trkpt lat="47.86483" lon="7.34052">
        <ele>221</ele>
        <time>2014-03-06T13:42:33Z</time>
      </trkpt>
      <trkpt lat="47.86491" lon="7.34057">
        <ele>220.7</ele>
        <time>2014-03-06T13:42:35Z</time>
      </trkpt>
      <trkpt lat="47.86498" lon="7.34061">
        <ele>221.1</ele>
        <time>2014-03-06T13:42:37Z</time>
      </trkpt>
      <trkpt lat="47.86506" lon="7.34065">
        <ele>220.5</ele>
        <time>2014-03-06T13:42:39Z</time>
      </trkpt>
      <trkpt lat="47.86513" lon="7.3407">
        <ele>220.2</ele>
        <time>2014-03-06T13:42:41Z</time>
      </trkpt>
      <trkpt lat="47.8652" lon="7.34074">
        <ele>220.4</ele>
        <time>2014-03-06T13:42:43Z</time>
      </trkpt>
      <trkpt lat="47.86528" lon="7.34078">
        <ele>221</ele>
        <time>2014-03-06T13:42:45Z</time>
      </trkpt>
      <trkpt lat="47.86535" lon="7.34081">
        <ele>220.8</ele>
        <time>2014-03-06T13:42:47Z</time>
      </trkpt>
      <trkpt lat="47.86543" lon="7.34084">
        <ele>220.3</ele>
        <time>2014-03-06T13:42:49Z</time>
      </trkpt>
      <trkpt lat="47.86551" lon="7.34087">
        <ele>220.7</ele>
        <time>2014-03-06T13:42:51Z</time>
      </trkpt>
      <trkpt lat="47.86558" lon="7.3409">
        <ele>220.5</ele>
        <time>2014-03-06T13:42:53Z</time>
      </trkpt>
      <trkpt lat="47.86565" lon="7.34094">
        <ele>220.2</ele>
        <time>2014-03-06T13:42:55Z</time>
      </trkpt>
      <trkpt lat="47.86573" lon="7.34098">
        <ele>220.2</ele>
        <time>2014-03-06T13:42:57Z</time>
      </trkpt>
      <trkpt lat="47.86579" lon="7.34101">
        <ele>221.6</ele>
        <time>2014-03-06T13:42:59Z</time>
      </trkpt>
      <trkpt lat="47.86584" lon="7.34098">
        <ele>221.6</ele>
        <time>2014-03-06T13:43:01Z</time>
      </trkpt>
      <trkpt lat="47.86586" lon="7.3409">
        <ele>221.6</ele>
        <time>2014-03-06T13:43:03Z</time>
      </trkpt>
      <trkpt lat="47.86588" lon="7.3408">
        <ele>221.7</ele>
        <time>2014-03-06T13:43:05Z</time>
      </trkpt>
      <trkpt lat="47.8659" lon="7.3407">
        <ele>221.3</ele>
        <time>2014-03-06T13:43:07Z</time>
      </trkpt>
      <trkpt lat="47.86593" lon="7.34059">
        <ele>221.7</ele>
        <time>2014-03-06T13:43:09Z</time>
      </trkpt>
      <trkpt lat="47.86595" lon="7.34048">
        <ele>222</ele>
        <time>2014-03-06T13:43:11Z</time>
      </trkpt>
      <trkpt lat="47.86598" lon="7.34036">
        <ele>221.6</ele>
        <time>2014-03-06T13:43:13Z</time>
      </trkpt>
      <trkpt lat="47.866" lon="7.34024">
        <ele>221.2</ele>
        <time>2014-03-06T13:43:15Z</time>
      </trkpt>
      <trkpt lat="47.86602" lon="7.34013">
        <ele>220.9</ele>
        <time>2014-03-06T13:43:17Z</time>
      </trkpt>
      <trkpt lat="47.86605" lon="7.34002">
        <ele>221.4</ele>
        <time>2014-03-06T13:43:19Z</time>
      </trkpt>
      <trkpt lat="47.86608" lon="7.33992">
        <ele>221.5</ele>
        <time>2014-03-06T13:43:21Z</time>
      </trkpt>
      <trkpt lat="47.86611" lon="7.33982">
        <ele>221.8</ele>
        <time>2014-03-06T13:43:23Z</time>
      </trkpt>
      <trkpt lat="47.86615" lon="7.33972">
        <ele>221.4</ele>
        <time>2014-03-06T13:43:25Z</time>
      </trkpt>
      <trkpt lat="47.8662" lon="7.33961">
        <ele>221.6</ele>
        <time>2014-03-06T13:43:27Z</time>
      </trkpt>
      <trkpt lat="47.86625" lon="7.3395">
        <ele>221.6</ele>
        <time>2014-03-06T13:43:29Z</time>
      </trkpt>
      <trkpt lat="47.8663" lon="7.33939">
        <ele>222.1</ele>
        <time>2014-03-06T13:43:31Z</time>
      </trkpt>
      <trkpt lat="47.86636" lon="7.33927">
        <ele>221.1</ele>
        <time>2014-03-06T13:43:33Z</time>
      </trkpt>
      <trkpt lat="47.86641" lon="7.33916">
        <ele>221.5</ele>
        <time>2014-03-06T13:43:35Z</time>
      </trkpt>
      <trkpt lat="47.86647" lon="7.33905">
        <ele>221.5</ele>
        <time>2014-03-06T13:43:37Z</time>
      </trkpt>
      <trkpt lat="47.86654" lon="7.33894">
        <ele>221.3</ele>
        <time>2014-03-06T13:43:39Z</time>
      </trkpt>
      <trkpt lat="47.86662" lon="7.33885">
        <ele>221.3</ele>
        <time>2014-03-06T13:43:41Z</time>
      </trkpt>
      <trkpt lat="47.86668" lon="7.33876">
        <ele>221.2</ele>
        <time>2014-03-06T13:43:43Z</time>
      </trkpt>
      <trkpt lat="47.86675" lon="7.33868">
        <ele>221.5</ele>
        <time>2014-03-06T13:43:45Z</time>
      </trkpt>
      <trkpt lat="47.86682" lon="7.3386">
        <ele>221.2</ele>
        <time>2014-03-06T13:43:47Z</time>
      </trkpt>
      <trkpt lat="47.86689" lon="7.33852">
        <ele>222</ele>
        <time>2014-03-06T13:43:49Z</time>
      </trkpt>
      <trkpt lat="47.86696" lon="7.33844">
        <ele>221.7</ele>
        <time>2014-03-06T13:43:51Z</time>
      </trkpt>
      <trkpt lat="47.86703" lon="7.33836">
        <ele>222.1</ele>
        <time>2014-03-06T13:43:53Z</time>
      </trkpt>
      <trkpt lat="47.8671" lon="7.33829">
        <ele>221.9</ele>
        <time>2014-03-06T13:43:55Z</time>
      </trkpt>
      <trkpt lat="47.86716" lon="7.33824">
        <ele>221.9</ele>
        <time>2014-03-06T13:43:57Z</time>
      </trkpt>
      <trkpt lat="47.86721" lon="7.33817">
        <ele>221.7</ele>
        <time>2014-03-06T13:43:59Z</time>
      </trkpt>
      <trkpt lat="47.86727" lon="7.33812">
        <ele>221.7</ele>
        <time>2014-03-06T13:44:01Z</time>
      </trkpt>
      <trkpt lat="47.86733" lon="7.33807">
        <ele>220.8</ele>
        <time>2014-03-06T13:44:03Z</time>
      </trkpt>
      <trkpt lat="47.86737" lon="7.33802">
        <ele>221.1</ele>
        <time>2014-03-06T13:44:05Z</time>
      </trkpt>
      <trkpt lat="47.86742" lon="7.33797">
        <ele>221.3</ele>
        <time>2014-03-06T13:44:07Z</time>
      </trkpt>
      <trkpt lat="47.86747" lon="7.33794">
        <ele>221.2</ele>
        <time>2014-03-06T13:44:09Z</time>
      </trkpt>
      <trkpt lat="47.86753" lon="7.3379">
        <ele>220.7</ele>
        <time>2014-03-06T13:44:11Z</time>
      </trkpt>
      <trkpt lat="47.86758" lon="7.33783">
        <ele>221.5</ele>
        <time>2014-03-06T13:44:13Z</time>
      </trkpt>
      <trkpt lat="47.86762" lon="7.33774">
        <ele>221.3</ele>
        <time>2014-03-06T13:44:15Z</time>
      </trkpt>
      <trkpt lat="47.86766" lon="7.33763">
        <ele>221.8</ele>
        <time>2014-03-06T13:44:17Z</time>
      </trkpt>
      <trkpt lat="47.8677" lon="7.33753">
        <ele>221.7</ele>
        <time>2014-03-06T13:44:19Z</time>
      </trkpt>
      <trkpt lat="47.86773" lon="7.33742">
        <ele>221.3</ele>
        <time>2014-03-06T13:44:21Z</time>
      </trkpt>
      <trkpt lat="47.86777" lon="7.33731">
        <ele>223.9</ele>
        <time>2014-03-06T13:44:23Z</time>
      </trkpt>
      <trkpt lat="47.8678" lon="7.33721">
        <ele>223.2</ele>
        <time>2014-03-06T13:44:25Z</time>
      </trkpt>
      <trkpt lat="47.86784" lon="7.33711">
        <ele>224.6</ele>
        <time>2014-03-06T13:44:27Z</time>
      </trkpt>
      <trkpt lat="47.86788" lon="7.33701">
        <ele>223.2</ele>
        <time>2014-03-06T13:44:29Z</time>
      </trkpt>
      <trkpt lat="47.86792" lon="7.33691">
        <ele>218.6</ele>
        <time>2014-03-06T13:44:31Z</time>
      </trkpt>
      <trkpt lat="47.86796" lon="7.33682">
        <ele>220.6</ele>
        <time>2014-03-06T13:44:33Z</time>
      </trkpt>
      <trkpt lat="47.86799" lon="7.33674">
        <ele>221.6</ele>
        <time>2014-03-06T13:44:35Z</time>
      </trkpt>
      <trkpt lat="47.86802" lon="7.33666">
        <ele>222.2</ele>
        <time>2014-03-06T13:44:37Z</time>
      </trkpt>
      <trkpt lat="47.86806" lon="7.33657">
        <ele>221.8</ele>
        <time>2014-03-06T13:44:39Z</time>
      </trkpt>
      <trkpt lat="47.8681" lon="7.33647">
        <ele>222.2</ele>
        <time>2014-03-06T13:44:41Z</time>
      </trkpt>
      <trkpt lat="47.86814" lon="7.33637">
        <ele>222.6</ele>
        <time>2014-03-06T13:44:43Z</time>
      </trkpt>
      <trkpt lat="47.86818" lon="7.33628">
        <ele>223</ele>
        <time>2014-03-06T13:44:45Z</time>
      </trkpt>
      <trkpt lat="47.86822" lon="7.33618">
        <ele>222.4</ele>
        <time>2014-03-06T13:44:47Z</time>
      </trkpt>
      <trkpt lat="47.86826" lon="7.3361">
        <ele>222.2</ele>
        <time>2014-03-06T13:44:49Z</time>
      </trkpt>
      <trkpt lat="47.86831" lon="7.33601">
        <ele>222.1</ele>
        <time>2014-03-06T13:44:51Z</time>
      </trkpt>
      <trkpt lat="47.86835" lon="7.33592">
        <ele>222.2</ele>
        <time>2014-03-06T13:44:53Z</time>
      </trkpt>
      <trkpt lat="47.8684" lon="7.33582">
        <ele>221.6</ele>
        <time>2014-03-06T13:44:55Z</time>
      </trkpt>
      <trkpt lat="47.86845" lon="7.33573">
        <ele>221.4</ele>
        <time>2014-03-06T13:44:57Z</time>
      </trkpt>
      <trkpt lat="47.86851" lon="7.33563">
        <ele>221.9</ele>
        <time>2014-03-06T13:44:59Z</time>
      </trkpt>
      <trkpt lat="47.86857" lon="7.33554">
        <ele>221.7</ele>
        <time>2014-03-06T13:45:01Z</time>
      </trkpt>
      <trkpt lat="47.86864" lon="7.33544">
        <ele>221.2</ele>
        <time>2014-03-06T13:45:03Z</time>
      </trkpt>
      <trkpt lat="47.86871" lon="7.33535">
        <ele>221.7</ele>
        <time>2014-03-06T13:45:05Z</time>
      </trkpt>
      <trkpt lat="47.86878" lon="7.33526">
        <ele>222</ele>
        <time>2014-03-06T13:45:07Z</time>
      </trkpt>
      <trkpt lat="47.86884" lon="7.33518">
        <ele>222.2</ele>
        <time>2014-03-06T13:45:09Z</time>
      </trkpt>
      <trkpt lat="47.8689" lon="7.3351">
        <ele>221.8</ele>
        <time>2014-03-06T13:45:11Z</time>
      </trkpt>
      <trkpt lat="47.86895" lon="7.33504">
        <ele>221.5</ele>
        <time>2014-03-06T13:45:13Z</time>
      </trkpt>
      <trkpt lat="47.86902" lon="7.33497">
        <ele>221</ele>
        <time>2014-03-06T13:45:15Z</time>
      </trkpt>
      <trkpt lat="47.86908" lon="7.33491">
        <ele>220.9</ele>
        <time>2014-03-06T13:45:17Z</time>
      </trkpt>
      <trkpt lat="47.86916" lon="7.33485">
        <ele>220.7</ele>
        <time>2014-03-06T13:45:19Z</time>
      </trkpt>
      <trkpt lat="47.86923" lon="7.33478">
        <ele>221.1</ele>
        <time>2014-03-06T13:45:21Z</time>
      </trkpt>
      <trkpt lat="47.86932" lon="7.33472">
        <ele>221.1</ele>
        <time>2014-03-06T13:45:23Z</time>
      </trkpt>
      <trkpt lat="47.8694" lon="7.33466">
        <ele>221.9</ele>
        <time>2014-03-06T13:45:25Z</time>
      </trkpt>
      <trkpt lat="47.8695" lon="7.33461">
        <ele>221.3</ele>
        <time>2014-03-06T13:45:27Z</time>
      </trkpt>
      <trkpt lat="47.86958" lon="7.33456">
        <ele>221</ele>
        <time>2014-03-06T13:45:29Z</time>
      </trkpt>
      <trkpt lat="47.86968" lon="7.33451">
        <ele>220.9</ele>
        <time>2014-03-06T13:45:31Z</time>
      </trkpt>
      <trkpt lat="47.86977" lon="7.33446">
        <ele>221.3</ele>
        <time>2014-03-06T13:45:33Z</time>
      </trkpt>
      <trkpt lat="47.86986" lon="7.33442">
        <ele>221</ele>
        <time>2014-03-06T13:45:35Z</time>
      </trkpt>
      <trkpt lat="47.86995" lon="7.33437">
        <ele>221.3</ele>
        <time>2014-03-06T13:45:37Z</time>
      </trkpt>
      <trkpt lat="47.87004" lon="7.33432">
        <ele>221.8</ele>
        <time>2014-03-06T13:45:39Z</time>
      </trkpt>
      <trkpt lat="47.87013" lon="7.33428">
        <ele>221.3</ele>
        <time>2014-03-06T13:45:41Z</time>
      </trkpt>
      <trkpt lat="47.87021" lon="7.33424">
        <ele>221.1</ele>
        <time>2014-03-06T13:45:42Z</time>
      </trkpt>
      <trkpt lat="47.87028" lon="7.3342">
        <ele>221.5</ele>
        <time>2014-03-06T13:45:45Z</time>
      </trkpt>
      <trkpt lat="47.87034" lon="7.33417">
        <ele>220.8</ele>
        <time>2014-03-06T13:45:47Z</time>
      </trkpt>
      <trkpt lat="47.87038" lon="7.33415">
        <ele>221</ele>
        <time>2014-03-06T13:45:49Z</time>
      </trkpt>
      <trkpt lat="47.87038" lon="7.33398">
        <ele>221.6</ele>
        <time>2014-03-06T13:47:00Z</time>
      </trkpt>
      <trkpt lat="47.87042" lon="7.33397">
        <ele>221.3</ele>
        <time>2014-03-06T13:47:02Z</time>
      </trkpt>
      <trkpt lat="47.87047" lon="7.33395">
        <ele>221.3</ele>
        <time>2014-03-06T13:47:04Z</time>
      </trkpt>
      <trkpt lat="47.87053" lon="7.33392">
        <ele>221.4</ele>
        <time>2014-03-06T13:47:06Z</time>
      </trkpt>
      <trkpt lat="47.8706" lon="7.33389">
        <ele>221.3</ele>
        <time>2014-03-06T13:47:08Z</time>
      </trkpt>
      <trkpt lat="47.87068" lon="7.33386">
        <ele>221.1</ele>
        <time>2014-03-06T13:47:10Z</time>
      </trkpt>
      <trkpt lat="47.87075" lon="7.33383">
        <ele>220.5</ele>
        <time>2014-03-06T13:47:12Z</time>
      </trkpt>
      <trkpt lat="47.87083" lon="7.33379">
        <ele>220.5</ele>
        <time>2014-03-06T13:47:14Z</time>
      </trkpt>
      <trkpt lat="47.87092" lon="7.33375">
        <ele>221</ele>
        <time>2014-03-06T13:47:16Z</time>
      </trkpt>
      <trkpt lat="47.87099" lon="7.3337">
        <ele>221.1</ele>
        <time>2014-03-06T13:47:18Z</time>
      </trkpt>
      <trkpt lat="47.87107" lon="7.33366">
        <ele>220.8</ele>
        <time>2014-03-06T13:47:20Z</time>
      </trkpt>
      <trkpt lat="47.87113" lon="7.3336">
        <ele>221</ele>
        <time>2014-03-06T13:47:22Z</time>
      </trkpt>
      <trkpt lat="47.87119" lon="7.33356">
        <ele>221</ele>
        <time>2014-03-06T13:47:24Z</time>
      </trkpt>
      <trkpt lat="47.87122" lon="7.33356">
        <ele>221.9</ele>
        <time>2014-03-06T13:47:26Z</time>
      </trkpt>
      <trkpt lat="47.87127" lon="7.33352">
        <ele>221.6</ele>
        <time>2014-03-06T13:47:28Z</time>
      </trkpt>
      <trkpt lat="47.87131" lon="7.33347">
        <ele>221.4</ele>
        <time>2014-03-06T13:47:30Z</time>
      </trkpt>
      <trkpt lat="47.87134" lon="7.33344">
        <ele>221.2</ele>
        <time>2014-03-06T13:47:32Z</time>
      </trkpt>
      <trkpt lat="47.87136" lon="7.33341">
        <ele>221.1</ele>
        <time>2014-03-06T13:47:34Z</time>
      </trkpt>
      <trkpt lat="47.8714" lon="7.33336">
        <ele>221.3</ele>
        <time>2014-03-06T13:47:36Z</time>
      </trkpt>
      <trkpt lat="47.87145" lon="7.3333">
        <ele>220.9</ele>
        <time>2014-03-06T13:47:38Z</time>
      </trkpt>
      <trkpt lat="47.87151" lon="7.33322">
        <ele>220.6</ele>
        <time>2014-03-06T13:47:40Z</time>
      </trkpt>
      <trkpt lat="47.87157" lon="7.33314">
        <ele>220.7</ele>
        <time>2014-03-06T13:47:42Z</time>
      </trkpt>
      <trkpt lat="47.87164" lon="7.33305">
        <ele>220.7</ele>
        <time>2014-03-06T13:47:44Z</time>
      </trkpt>
      <trkpt lat="47.87171" lon="7.33294">
        <ele>221.2</ele>
        <time>2014-03-06T13:47:46Z</time>
      </trkpt>
      <trkpt lat="47.87178" lon="7.33283">
        <ele>220.7</ele>
        <time>2014-03-06T13:47:48Z</time>
      </trkpt>
      <trkpt lat="47.87184" lon="7.33272">
        <ele>221.3</ele>
        <time>2014-03-06T13:47:50Z</time>
      </trkpt>
      <trkpt lat="47.8719" lon="7.33261">
        <ele>222.4</ele>
        <time>2014-03-06T13:47:52Z</time>
      </trkpt>
      <trkpt lat="47.87196" lon="7.33251">
        <ele>221.5</ele>
        <time>2014-03-06T13:47:54Z</time>
      </trkpt>
      <trkpt lat="47.87201" lon="7.3324">
        <ele>221.4</ele>
        <time>2014-03-06T13:47:56Z</time>
      </trkpt>
      <trkpt lat="47.87207" lon="7.33229">
        <ele>221.3</ele>
        <time>2014-03-06T13:47:58Z</time>
      </trkpt>
      <trkpt lat="47.87214" lon="7.33218">
        <ele>221.2</ele>
        <time>2014-03-06T13:48:00Z</time>
      </trkpt>
      <trkpt lat="47.8722" lon="7.33206">
        <ele>220.5</ele>
        <time>2014-03-06T13:48:02Z</time>
      </trkpt>
      <trkpt lat="47.87226" lon="7.33195">
        <ele>220.7</ele>
        <time>2014-03-06T13:48:04Z</time>
      </trkpt>
      <trkpt lat="47.87231" lon="7.33185">
        <ele>221</ele>
        <time>2014-03-06T13:48:06Z</time>
      </trkpt>
      <trkpt lat="47.87237" lon="7.33175">
        <ele>221.1</ele>
        <time>2014-03-06T13:48:08Z</time>
      </trkpt>
      <trkpt lat="47.87243" lon="7.33164">
        <ele>220.5</ele>
        <time>2014-03-06T13:48:10Z</time>
      </trkpt>
      <trkpt lat="47.87249" lon="7.33152">
        <ele>221.2</ele>
        <time>2014-03-06T13:48:12Z</time>
      </trkpt>
      <trkpt lat="47.87255" lon="7.3314">
        <ele>220.9</ele>
        <time>2014-03-06T13:48:14Z</time>
      </trkpt>
      <trkpt lat="47.87262" lon="7.33128">
        <ele>220.9</ele>
        <time>2014-03-06T13:48:16Z</time>
      </trkpt>
      <trkpt lat="47.87268" lon="7.33116">
        <ele>221</ele>
        <time>2014-03-06T13:48:18Z</time>
      </trkpt>
      <trkpt lat="47.87275" lon="7.33104">
        <ele>221.1</ele>
        <time>2014-03-06T13:48:20Z</time>
      </trkpt>
      <trkpt lat="47.8728" lon="7.33092">
        <ele>220.6</ele>
        <time>2014-03-06T13:48:22Z</time>
      </trkpt>
      <trkpt lat="47.87285" lon="7.33082">
        <ele>220.4</ele>
        <time>2014-03-06T13:48:24Z</time>
      </trkpt>
      <trkpt lat="47.87291" lon="7.33072">
        <ele>220.6</ele>
        <time>2014-03-06T13:48:26Z</time>
      </trkpt>
      <trkpt lat="47.87295" lon="7.33063">
        <ele>221.1</ele>
        <time>2014-03-06T13:48:28Z</time>
      </trkpt>
      <trkpt lat="47.873" lon="7.33053">
        <ele>221</ele>
        <time>2014-03-06T13:48:30Z</time>
      </trkpt>
      <trkpt lat="47.87305" lon="7.33043">
        <ele>220.7</ele>
        <time>2014-03-06T13:48:32Z</time>
      </trkpt>
      <trkpt lat="47.8731" lon="7.33033">
        <ele>220.7</ele>
        <time>2014-03-06T13:48:34Z</time>
      </trkpt>
      <trkpt lat="47.87314" lon="7.33024">
        <ele>221.2</ele>
        <time>2014-03-06T13:48:36Z</time>
      </trkpt>
      <trkpt lat="47.87317" lon="7.33015">
        <ele>220.9</ele>
        <time>2014-03-06T13:48:38Z</time>
      </trkpt>
      <trkpt lat="47.8732" lon="7.33011">
        <ele>220.9</ele>
        <time>2014-03-06T13:48:40Z</time>
      </trkpt>
      <trkpt lat="47.87323" lon="7.33007">
        <ele>221</ele>
        <time>2014-03-06T13:48:42Z</time>
      </trkpt>
      <trkpt lat="47.87326" lon="7.33001">
        <ele>221</ele>
        <time>2014-03-06T13:48:44Z</time>
      </trkpt>
      <trkpt lat="47.87328" lon="7.32995">
        <ele>221.1</ele>
        <time>2014-03-06T13:48:46Z</time>
      </trkpt>
      <trkpt lat="47.8733" lon="7.32989">
        <ele>220.3</ele>
        <time>2014-03-06T13:48:48Z</time>
      </trkpt>
      <trkpt lat="47.87334" lon="7.32986">
        <ele>220.8</ele>
        <time>2014-03-06T13:48:50Z</time>
      </trkpt>
      <trkpt lat="47.87337" lon="7.32979">
        <ele>220.5</ele>
        <time>2014-03-06T13:48:52Z</time>
      </trkpt>
      <trkpt lat="47.87341" lon="7.32971">
        <ele>220.8</ele>
        <time>2014-03-06T13:48:54Z</time>
      </trkpt>
      <trkpt lat="47.87346" lon="7.32961">
        <ele>220.3</ele>
        <time>2014-03-06T13:48:56Z</time>
      </trkpt>
      <trkpt lat="47.87351" lon="7.32952">
        <ele>220.6</ele>
        <time>2014-03-06T13:48:58Z</time>
      </trkpt>
      <trkpt lat="47.87356" lon="7.32941">
        <ele>219.9</ele>
        <time>2014-03-06T13:49:00Z</time>
      </trkpt>
      <trkpt lat="47.87361" lon="7.3293">
        <ele>220.4</ele>
        <time>2014-03-06T13:49:02Z</time>
      </trkpt>
      <trkpt lat="47.87367" lon="7.32918">
        <ele>220.8</ele>
        <time>2014-03-06T13:49:04Z</time>
      </trkpt>
      <trkpt lat="47.87372" lon="7.32907">
        <ele>220.3</ele>
        <time>2014-03-06T13:49:06Z</time>
      </trkpt>
      <trkpt lat="47.87378" lon="7.32895">
        <ele>220.8</ele>
        <time>2014-03-06T13:49:08Z</time>
      </trkpt>
      <trkpt lat="47.87383" lon="7.32884">
        <ele>221.3</ele>
        <time>2014-03-06T13:49:10Z</time>
      </trkpt>
      <trkpt lat="47.87388" lon="7.32872">
        <ele>222.2</ele>
        <time>2014-03-06T13:49:12Z</time>
      </trkpt>
      <trkpt lat="47.87393" lon="7.3286">
        <ele>222.6</ele>
        <time>2014-03-06T13:49:14Z</time>
      </trkpt>
      <trkpt lat="47.87397" lon="7.32848">
        <ele>221.7</ele>
        <time>2014-03-06T13:49:16Z</time>
      </trkpt>
      <trkpt lat="47.87402" lon="7.32835">
        <ele>220.7</ele>
        <time>2014-03-06T13:49:18Z</time>
      </trkpt>
      <trkpt lat="47.87405" lon="7.32822">
        <ele>220.7</ele>
        <time>2014-03-06T13:49:20Z</time>
      </trkpt>
      <trkpt lat="47.87409" lon="7.32809">
        <ele>221.6</ele>
        <time>2014-03-06T13:49:22Z</time>
      </trkpt>
      <trkpt lat="47.87412" lon="7.32795">
        <ele>222.1</ele>
        <time>2014-03-06T13:49:24Z</time>
      </trkpt>
      <trkpt lat="47.87415" lon="7.32783">
        <ele>222</ele>
        <time>2014-03-06T13:49:26Z</time>
      </trkpt>
      <trkpt lat="47.87418" lon="7.32771">
        <ele>221.2</ele>
        <time>2014-03-06T13:49:28Z</time>
      </trkpt>
      <trkpt lat="47.87421" lon="7.32759">
        <ele>221.4</ele>
        <time>2014-03-06T13:49:30Z</time>
      </trkpt>
      <trkpt lat="47.87425" lon="7.32746">
        <ele>221.7</ele>
        <time>2014-03-06T13:49:32Z</time>
      </trkpt>
      <trkpt lat="47.87428" lon="7.32733">
        <ele>221.8</ele>
        <time>2014-03-06T13:49:34Z</time>
      </trkpt>
      <trkpt lat="47.87431" lon="7.3272">
        <ele>221.6</ele>
        <time>2014-03-06T13:49:36Z</time>
      </trkpt>
      <trkpt lat="47.87434" lon="7.32706">
        <ele>221.7</ele>
        <time>2014-03-06T13:49:38Z</time>
      </trkpt>
      <trkpt lat="47.87437" lon="7.32692">
        <ele>222.1</ele>
        <time>2014-03-06T13:49:40Z</time>
      </trkpt>
      <trkpt lat="47.87441" lon="7.32679">
        <ele>222</ele>
        <time>2014-03-06T13:49:42Z</time>
      </trkpt>
      <trkpt lat="47.87443" lon="7.32668">
        <ele>221.7</ele>
        <time>2014-03-06T13:49:44Z</time>
      </trkpt>
      <trkpt lat="47.87446" lon="7.32657">
        <ele>221.7</ele>
        <time>2014-03-06T13:49:46Z</time>
      </trkpt>
      <trkpt lat="47.87449" lon="7.32647">
        <ele>222.3</ele>
        <time>2014-03-06T13:49:48Z</time>
      </trkpt>
      <trkpt lat="47.87451" lon="7.32638">
        <ele>222.4</ele>
        <time>2014-03-06T13:49:50Z</time>
      </trkpt>
      <trkpt lat="47.87453" lon="7.3263">
        <ele>221.8</ele>
        <time>2014-03-06T13:49:52Z</time>
      </trkpt>
      <trkpt lat="47.87455" lon="7.32623">
        <ele>222.6</ele>
        <time>2014-03-06T13:49:54Z</time>
      </trkpt>
      <trkpt lat="47.87457" lon="7.32614">
        <ele>221.7</ele>
        <time>2014-03-06T13:49:56Z</time>
      </trkpt>
      <trkpt lat="47.87459" lon="7.32605">
        <ele>221.7</ele>
        <time>2014-03-06T13:49:58Z</time>
      </trkpt>
      <trkpt lat="47.87462" lon="7.32596">
        <ele>221.5</ele>
        <time>2014-03-06T13:50:00Z</time>
      </trkpt>
      <trkpt lat="47.87464" lon="7.32586">
        <ele>221.6</ele>
        <time>2014-03-06T13:50:02Z</time>
      </trkpt>
      <trkpt lat="47.87467" lon="7.32575">
        <ele>222</ele>
        <time>2014-03-06T13:50:04Z</time>
      </trkpt>
      <trkpt lat="47.8747" lon="7.32563">
        <ele>221.1</ele>
        <time>2014-03-06T13:50:06Z</time>
      </trkpt>
      <trkpt lat="47.87473" lon="7.32551">
        <ele>221.4</ele>
        <time>2014-03-06T13:50:08Z</time>
      </trkpt>
      <trkpt lat="47.87476" lon="7.32539">
        <ele>221.6</ele>
        <time>2014-03-06T13:50:10Z</time>
      </trkpt>
      <trkpt lat="47.87479" lon="7.32527">
        <ele>221.3</ele>
        <time>2014-03-06T13:50:12Z</time>
      </trkpt>
      <trkpt lat="47.87482" lon="7.32515">
        <ele>221.3</ele>
        <time>2014-03-06T13:50:14Z</time>
      </trkpt>
      <trkpt lat="47.87485" lon="7.32502">
        <ele>222.6</ele>
        <time>2014-03-06T13:50:16Z</time>
      </trkpt>
      <trkpt lat="47.87488" lon="7.32489">
        <ele>222.2</ele>
        <time>2014-03-06T13:50:18Z</time>
      </trkpt>
      <trkpt lat="47.87491" lon="7.32476">
        <ele>222.1</ele>
        <time>2014-03-06T13:50:20Z</time>
      </trkpt>
      <trkpt lat="47.87494" lon="7.32463">
        <ele>221.6</ele>
        <time>2014-03-06T13:50:22Z</time>
      </trkpt>
      <trkpt lat="47.87497" lon="7.32451">
        <ele>222.7</ele>
        <time>2014-03-06T13:50:24Z</time>
      </trkpt>
      <trkpt lat="47.87499" lon="7.32441">
        <ele>223.2</ele>
        <time>2014-03-06T13:50:26Z</time>
      </trkpt>
      <trkpt lat="47.87501" lon="7.32434">
        <ele>225.6</ele>
        <time>2014-03-06T13:50:28Z</time>
      </trkpt>
      <trkpt lat="47.87503" lon="7.32425">
        <ele>224.4</ele>
        <time>2014-03-06T13:50:30Z</time>
      </trkpt>
      <trkpt lat="47.87504" lon="7.32416">
        <ele>222.5</ele>
        <time>2014-03-06T13:50:32Z</time>
      </trkpt>
      <trkpt lat="47.87506" lon="7.32406">
        <ele>222.6</ele>
        <time>2014-03-06T13:50:34Z</time>
      </trkpt>
      <trkpt lat="47.87508" lon="7.32395">
        <ele>222.7</ele>
        <time>2014-03-06T13:50:36Z</time>
      </trkpt>
      <trkpt lat="47.8751" lon="7.32382">
        <ele>222.3</ele>
        <time>2014-03-06T13:50:38Z</time>
      </trkpt>
      <trkpt lat="47.87511" lon="7.32368">
        <ele>222.5</ele>
        <time>2014-03-06T13:50:40Z</time>
      </trkpt>
      <trkpt lat="47.87513" lon="7.32353">
        <ele>223.2</ele>
        <time>2014-03-06T13:50:42Z</time>
      </trkpt>
      <trkpt lat="47.87515" lon="7.32338">
        <ele>223.2</ele>
        <time>2014-03-06T13:50:44Z</time>
      </trkpt>
      <trkpt lat="47.87515" lon="7.32324">
        <ele>223.3</ele>
        <time>2014-03-06T13:50:46Z</time>
      </trkpt>
      <trkpt lat="47.87516" lon="7.3231">
        <ele>223.2</ele>
        <time>2014-03-06T13:50:48Z</time>
      </trkpt>
      <trkpt lat="47.87516" lon="7.32296">
        <ele>222.5</ele>
        <time>2014-03-06T13:50:50Z</time>
      </trkpt>
      <trkpt lat="47.87517" lon="7.32282">
        <ele>222.5</ele>
        <time>2014-03-06T13:50:52Z</time>
      </trkpt>
      <trkpt lat="47.87518" lon="7.3227">
        <ele>221.9</ele>
        <time>2014-03-06T13:50:54Z</time>
      </trkpt>
      <trkpt lat="47.87517" lon="7.32233">
        <ele>222.8</ele>
        <time>2014-03-06T13:51:00Z</time>
      </trkpt>
      <trkpt lat="47.87516" lon="7.3222">
        <ele>223.3</ele>
        <time>2014-03-06T13:51:02Z</time>
      </trkpt>
      <trkpt lat="47.87516" lon="7.32205">
        <ele>223</ele>
        <time>2014-03-06T13:51:04Z</time>
      </trkpt>
      <trkpt lat="47.87515" lon="7.3219">
        <ele>222.6</ele>
        <time>2014-03-06T13:51:06Z</time>
      </trkpt>
      <trkpt lat="47.87513" lon="7.32174">
        <ele>223</ele>
        <time>2014-03-06T13:51:08Z</time>
      </trkpt>
      <trkpt lat="47.87511" lon="7.32158">
        <ele>223</ele>
        <time>2014-03-06T13:51:10Z</time>
      </trkpt>
      <trkpt lat="47.8751" lon="7.32143">
        <ele>222.8</ele>
        <time>2014-03-06T13:51:12Z</time>
      </trkpt>
      <trkpt lat="47.87508" lon="7.32129">
        <ele>222.8</ele>
        <time>2014-03-06T13:51:14Z</time>
      </trkpt>
      <trkpt lat="47.87505" lon="7.32115">
        <ele>223.4</ele>
        <time>2014-03-06T13:51:16Z</time>
      </trkpt>
      <trkpt lat="47.87503" lon="7.32102">
        <ele>222.5</ele>
        <time>2014-03-06T13:51:18Z</time>
      </trkpt>
      <trkpt lat="47.87502" lon="7.3209">
        <ele>222.6</ele>
        <time>2014-03-06T13:51:20Z</time>
      </trkpt>
      <trkpt lat="47.875" lon="7.32079">
        <ele>222.7</ele>
        <time>2014-03-06T13:51:22Z</time>
      </trkpt>
      <trkpt lat="47.87499" lon="7.32068">
        <ele>223.2</ele>
        <time>2014-03-06T13:51:24Z</time>
      </trkpt>
      <trkpt lat="47.87498" lon="7.32059">
        <ele>222.5</ele>
        <time>2014-03-06T13:51:26Z</time>
      </trkpt>
      <trkpt lat="47.87497" lon="7.3205">
        <ele>222.8</ele>
        <time>2014-03-06T13:51:28Z</time>
      </trkpt>
      <trkpt lat="47.87495" lon="7.32042">
        <ele>222.5</ele>
        <time>2014-03-06T13:51:30Z</time>
      </trkpt>
      <trkpt lat="47.87494" lon="7.32034">
        <ele>222.2</ele>
        <time>2014-03-06T13:51:32Z</time>
      </trkpt>
      <trkpt lat="47.87493" lon="7.32028">
        <ele>223.1</ele>
        <time>2014-03-06T13:51:34Z</time>
      </trkpt>
      <trkpt lat="47.87492" lon="7.32022">
        <ele>223</ele>
        <time>2014-03-06T13:51:36Z</time>
      </trkpt>
      <trkpt lat="47.87491" lon="7.32016">
        <ele>222.5</ele>
        <time>2014-03-06T13:51:38Z</time>
      </trkpt>
      <trkpt lat="47.87491" lon="7.32011">
        <ele>222.7</ele>
        <time>2014-03-06T13:51:40Z</time>
      </trkpt>
      <trkpt lat="47.87489" lon="7.32005">
        <ele>222.4</ele>
        <time>2014-03-06T13:51:42Z</time>
      </trkpt>
      <trkpt lat="47.87488" lon="7.31999">
        <ele>222.5</ele>
        <time>2014-03-06T13:51:44Z</time>
      </trkpt>
      <trkpt lat="47.87487" lon="7.31991">
        <ele>223.6</ele>
        <time>2014-03-06T13:51:46Z</time>
      </trkpt>
      <trkpt lat="47.87487" lon="7.31982">
        <ele>223.3</ele>
        <time>2014-03-06T13:51:48Z</time>
      </trkpt>
      <trkpt lat="47.87486" lon="7.31973">
        <ele>223.3</ele>
        <time>2014-03-06T13:51:50Z</time>
      </trkpt>
      <trkpt lat="47.87485" lon="7.31963">
        <ele>222.4</ele>
        <time>2014-03-06T13:51:52Z</time>
      </trkpt>
      <trkpt lat="47.87483" lon="7.31951">
        <ele>222.3</ele>
        <time>2014-03-06T13:51:54Z</time>
      </trkpt>
      <trkpt lat="47.87482" lon="7.31938">
        <ele>222.6</ele>
        <time>2014-03-06T13:51:56Z</time>
      </trkpt>
      <trkpt lat="47.87481" lon="7.31926">
        <ele>223</ele>
        <time>2014-03-06T13:51:58Z</time>
      </trkpt>
      <trkpt lat="47.87481" lon="7.31915">
        <ele>223.5</ele>
        <time>2014-03-06T13:52:00Z</time>
      </trkpt>
      <trkpt lat="47.8748" lon="7.31904">
        <ele>223.5</ele>
        <time>2014-03-06T13:52:02Z</time>
      </trkpt>
      <trkpt lat="47.87479" lon="7.31893">
        <ele>223.5</ele>
        <time>2014-03-06T13:52:04Z</time>
      </trkpt>
      <trkpt lat="47.87479" lon="7.31883">
        <ele>223.1</ele>
        <time>2014-03-06T13:52:06Z</time>
      </trkpt>
      <trkpt lat="47.87478" lon="7.31874">
        <ele>222.6</ele>
        <time>2014-03-06T13:52:08Z</time>
      </trkpt>
      <trkpt lat="47.87477" lon="7.31864">
        <ele>222.8</ele>
        <time>2014-03-06T13:52:10Z</time>
      </trkpt>
      <trkpt lat="47.87476" lon="7.31852">
        <ele>222.5</ele>
        <time>2014-03-06T13:52:12Z</time>
      </trkpt>
      <trkpt lat="47.87476" lon="7.31839">
        <ele>222.9</ele>
        <time>2014-03-06T13:52:14Z</time>
      </trkpt>
      <trkpt lat="47.87475" lon="7.31825">
        <ele>222.5</ele>
        <time>2014-03-06T13:52:16Z</time>
      </trkpt>
      <trkpt lat="47.87475" lon="7.31795">
        <ele>223.7</ele>
        <time>2014-03-06T13:52:20Z</time>
      </trkpt>
      <trkpt lat="47.87476" lon="7.31779">
        <ele>224.1</ele>
        <time>2014-03-06T13:52:22Z</time>
      </trkpt>
      <trkpt lat="47.87477" lon="7.31763">
        <ele>223.3</ele>
        <time>2014-03-06T13:52:24Z</time>
      </trkpt>
      <trkpt lat="47.87478" lon="7.31749">
        <ele>223.5</ele>
        <time>2014-03-06T13:52:26Z</time>
      </trkpt>
      <trkpt lat="47.8748" lon="7.31736">
        <ele>223.9</ele>
        <time>2014-03-06T13:52:28Z</time>
      </trkpt>
      <trkpt lat="47.87482" lon="7.31723">
        <ele>223.1</ele>
        <time>2014-03-06T13:52:30Z</time>
      </trkpt>
      <trkpt lat="47.87484" lon="7.31711">
        <ele>222.9</ele>
        <time>2014-03-06T13:52:32Z</time>
      </trkpt>
      <trkpt lat="47.87486" lon="7.31697">
        <ele>222.8</ele>
        <time>2014-03-06T13:52:34Z</time>
      </trkpt>
      <trkpt lat="47.87489" lon="7.31683">
        <ele>222.1</ele>
        <time>2014-03-06T13:52:36Z</time>
      </trkpt>
      <trkpt lat="47.87492" lon="7.31668">
        <ele>222.4</ele>
        <time>2014-03-06T13:52:38Z</time>
      </trkpt>
      <trkpt lat="47.87497" lon="7.31653">
        <ele>222</ele>
        <time>2014-03-06T13:52:40Z</time>
      </trkpt>
      <trkpt lat="47.87502" lon="7.31639">
        <ele>222.4</ele>
        <time>2014-03-06T13:52:42Z</time>
      </trkpt>
      <trkpt lat="47.87506" lon="7.31624">
        <ele>222.2</ele>
        <time>2014-03-06T13:52:44Z</time>
      </trkpt>
      <trkpt lat="47.8751" lon="7.31611">
        <ele>223.1</ele>
        <time>2014-03-06T13:52:46Z</time>
      </trkpt>
      <trkpt lat="47.87513" lon="7.31597">
        <ele>222.2</ele>
        <time>2014-03-06T13:52:48Z</time>
      </trkpt>
      <trkpt lat="47.87515" lon="7.31585">
        <ele>222.3</ele>
        <time>2014-03-06T13:52:50Z</time>
      </trkpt>
      <trkpt lat="47.87515" lon="7.31573">
        <ele>222.4</ele>
        <time>2014-03-06T13:52:51Z</time>
      </trkpt>
      <trkpt lat="47.87513" lon="7.31561">
        <ele>223.1</ele>
        <time>2014-03-06T13:52:54Z</time>
      </trkpt>
      <trkpt lat="47.87513" lon="7.31548">
        <ele>223.5</ele>
        <time>2014-03-06T13:52:56Z</time>
      </trkpt>
      <trkpt lat="47.87516" lon="7.31535">
        <ele>223.2</ele>
        <time>2014-03-06T13:52:58Z</time>
      </trkpt>
      <trkpt lat="47.87519" lon="7.31521">
        <ele>223.5</ele>
        <time>2014-03-06T13:53:00Z</time>
      </trkpt>
      <trkpt lat="47.87522" lon="7.31506">
        <ele>223.6</ele>
        <time>2014-03-06T13:53:02Z</time>
      </trkpt>
      <trkpt lat="47.87524" lon="7.31492">
        <ele>223.2</ele>
        <time>2014-03-06T13:53:04Z</time>
      </trkpt>
      <trkpt lat="47.87527" lon="7.31478">
        <ele>223.2</ele>
        <time>2014-03-06T13:53:06Z</time>
      </trkpt>
      <trkpt lat="47.8753" lon="7.31463">
        <ele>223</ele>
        <time>2014-03-06T13:53:08Z</time>
      </trkpt>
      <trkpt lat="47.87533" lon="7.31448">
        <ele>222.9</ele>
        <time>2014-03-06T13:53:10Z</time>
      </trkpt>
      <trkpt lat="47.87536" lon="7.31435">
        <ele>223.6</ele>
        <time>2014-03-06T13:53:12Z</time>
      </trkpt>
      <trkpt lat="47.87539" lon="7.31422">
        <ele>224</ele>
        <time>2014-03-06T13:53:14Z</time>
      </trkpt>
      <trkpt lat="47.87541" lon="7.31411">
        <ele>223.4</ele>
        <time>2014-03-06T13:53:16Z</time>
      </trkpt>
      <trkpt lat="47.87543" lon="7.31401">
        <ele>223.4</ele>
        <time>2014-03-06T13:53:18Z</time>
      </trkpt>
      <trkpt lat="47.87544" lon="7.31396">
        <ele>223.2</ele>
        <time>2014-03-06T13:53:20Z</time>
      </trkpt>
      <trkpt lat="47.87545" lon="7.3139">
        <ele>222.8</ele>
        <time>2014-03-06T13:53:22Z</time>
      </trkpt>
      <trkpt lat="47.87546" lon="7.31382">
        <ele>223.1</ele>
        <time>2014-03-06T13:53:24Z</time>
      </trkpt>
      <trkpt lat="47.87548" lon="7.31372">
        <ele>223.2</ele>
        <time>2014-03-06T13:53:26Z</time>
      </trkpt>
      <trkpt lat="47.87549" lon="7.31362">
        <ele>223.2</ele>
        <time>2014-03-06T13:53:28Z</time>
      </trkpt>
      <trkpt lat="47.8755" lon="7.3135">
        <ele>223.5</ele>
        <time>2014-03-06T13:53:30Z</time>
      </trkpt>
      <trkpt lat="47.87552" lon="7.31337">
        <ele>223.6</ele>
        <time>2014-03-06T13:53:32Z</time>
      </trkpt>
      <trkpt lat="47.87552" lon="7.31293">
        <ele>222.6</ele>
        <time>2014-03-06T13:53:38Z</time>
      </trkpt>
      <trkpt lat="47.87552" lon="7.3125">
        <ele>222.8</ele>
        <time>2014-03-06T13:53:44Z</time>
      </trkpt>
      <trkpt lat="47.87553" lon="7.31222">
        <ele>222.3</ele>
        <time>2014-03-06T13:53:48Z</time>
      </trkpt>
      <trkpt lat="47.87552" lon="7.31194">
        <ele>222.6</ele>
        <time>2014-03-06T13:53:52Z</time>
      </trkpt>
      <trkpt lat="47.87552" lon="7.31179">
        <ele>223.6</ele>
        <time>2014-03-06T13:53:54Z</time>
      </trkpt>
      <trkpt lat="47.87551" lon="7.31137">
        <ele>223.6</ele>
        <time>2014-03-06T13:54:00Z</time>
      </trkpt>
      <trkpt lat="47.8755" lon="7.31118">
        <ele>223.5</ele>
        <time>2014-03-06T13:54:06Z</time>
      </trkpt>
      <trkpt lat="47.8755" lon="7.31111">
        <ele>224.3</ele>
        <time>2014-03-06T13:54:08Z</time>
      </trkpt>
      <trkpt lat="47.87549" lon="7.31102">
        <ele>224.2</ele>
        <time>2014-03-06T13:54:10Z</time>
      </trkpt>
      <trkpt lat="47.87549" lon="7.31091">
        <ele>224.1</ele>
        <time>2014-03-06T13:54:12Z</time>
      </trkpt>
      <trkpt lat="47.87548" lon="7.31079">
        <ele>223.3</ele>
        <time>2014-03-06T13:54:14Z</time>
      </trkpt>
      <trkpt lat="47.87548" lon="7.31066">
        <ele>223.5</ele>
        <time>2014-03-06T13:54:16Z</time>
      </trkpt>
      <trkpt lat="47.87547" lon="7.31052">
        <ele>223</ele>
        <time>2014-03-06T13:54:18Z</time>
      </trkpt>
      <trkpt lat="47.87546" lon="7.31039">
        <ele>223.7</ele>
        <time>2014-03-06T13:54:20Z</time>
      </trkpt>
      <trkpt lat="47.87545" lon="7.31024">
        <ele>222.6</ele>
        <time>2014-03-06T13:54:22Z</time>
      </trkpt>
      <trkpt lat="47.87545" lon="7.3101">
        <ele>223.9</ele>
        <time>2014-03-06T13:54:24Z</time>
      </trkpt>
      <trkpt lat="47.87544" lon="7.30994">
        <ele>223.1</ele>
        <time>2014-03-06T13:54:26Z</time>
      </trkpt>
      <trkpt lat="47.87544" lon="7.30979">
        <ele>222.9</ele>
        <time>2014-03-06T13:54:28Z</time>
      </trkpt>
      <trkpt lat="47.87543" lon="7.30963">
        <ele>223.1</ele>
        <time>2014-03-06T13:54:30Z</time>
      </trkpt>
      <trkpt lat="47.87542" lon="7.30946">
        <ele>223.8</ele>
        <time>2014-03-06T13:54:32Z</time>
      </trkpt>
      <trkpt lat="47.87541" lon="7.3093">
        <ele>222.2</ele>
        <time>2014-03-06T13:54:34Z</time>
      </trkpt>
      <trkpt lat="47.8754" lon="7.30914">
        <ele>222.6</ele>
        <time>2014-03-06T13:54:36Z</time>
      </trkpt>
      <trkpt lat="47.8754" lon="7.30898">
        <ele>223.5</ele>
        <time>2014-03-06T13:54:38Z</time>
      </trkpt>
      <trkpt lat="47.87539" lon="7.30884">
        <ele>223.3</ele>
        <time>2014-03-06T13:54:40Z</time>
      </trkpt>
      <trkpt lat="47.87538" lon="7.3087">
        <ele>223.7</ele>
        <time>2014-03-06T13:54:42Z</time>
      </trkpt>
      <trkpt lat="47.87537" lon="7.30857">
        <ele>224</ele>
        <time>2014-03-06T13:54:44Z</time>
      </trkpt>
      <trkpt lat="47.87537" lon="7.30845">
        <ele>224.1</ele>
        <time>2014-03-06T13:54:46Z</time>
      </trkpt>
      <trkpt lat="47.87537" lon="7.30833">
        <ele>224.1</ele>
        <time>2014-03-06T13:54:48Z</time>
      </trkpt>
      <trkpt lat="47.87536" lon="7.30824">
        <ele>225.2</ele>
        <time>2014-03-06T13:54:50Z</time>
      </trkpt>
      <trkpt lat="47.87537" lon="7.30815">
        <ele>225.4</ele>
        <time>2014-03-06T13:54:52Z</time>
      </trkpt>
      <trkpt lat="47.87538" lon="7.30807">
        <ele>225</ele>
        <time>2014-03-06T13:54:54Z</time>
      </trkpt>
      <trkpt lat="47.87538" lon="7.30784">
        <ele>224.8</ele>
        <time>2014-03-06T13:54:58Z</time>
      </trkpt>
      <trkpt lat="47.87537" lon="7.3077">
        <ele>224.3</ele>
        <time>2014-03-06T13:55:00Z</time>
      </trkpt>
      <trkpt lat="47.87537" lon="7.3074">
        <ele>225.5</ele>
        <time>2014-03-06T13:55:04Z</time>
      </trkpt>
      <trkpt lat="47.87536" lon="7.30726">
        <ele>225.3</ele>
        <time>2014-03-06T13:55:06Z</time>
      </trkpt>
      <trkpt lat="47.87536" lon="7.30713">
        <ele>225.1</ele>
        <time>2014-03-06T13:55:08Z</time>
      </trkpt>
      <trkpt lat="47.87535" lon="7.30699">
        <ele>224.6</ele>
        <time>2014-03-06T13:55:10Z</time>
      </trkpt>
      <trkpt lat="47.87534" lon="7.30684">
        <ele>224.3</ele>
        <time>2014-03-06T13:55:12Z</time>
      </trkpt>
      <trkpt lat="47.87534" lon="7.3067">
        <ele>224.8</ele>
        <time>2014-03-06T13:55:14Z</time>
      </trkpt>
      <trkpt lat="47.87533" lon="7.30655">
        <ele>224.1</ele>
        <time>2014-03-06T13:55:16Z</time>
      </trkpt>
      <trkpt lat="47.87532" lon="7.30639">
        <ele>224.6</ele>
        <time>2014-03-06T13:55:18Z</time>
      </trkpt>
      <trkpt lat="47.87531" lon="7.30623">
        <ele>225.1</ele>
        <time>2014-03-06T13:55:20Z</time>
      </trkpt>
      <trkpt lat="47.87531" lon="7.30606">
        <ele>225.7</ele>
        <time>2014-03-06T13:55:22Z</time>
      </trkpt>
      <trkpt lat="47.87529" lon="7.3059">
        <ele>224.8</ele>
        <time>2014-03-06T13:55:24Z</time>
      </trkpt>
      <trkpt lat="47.87529" lon="7.30573">
        <ele>223.6</ele>
        <time>2014-03-06T13:55:26Z</time>
      </trkpt>
      <trkpt lat="47.87528" lon="7.30557">
        <ele>223.8</ele>
        <time>2014-03-06T13:55:28Z</time>
      </trkpt>
      <trkpt lat="47.87526" lon="7.30542">
        <ele>224.9</ele>
        <time>2014-03-06T13:55:30Z</time>
      </trkpt>
      <trkpt lat="47.87524" lon="7.30527">
        <ele>225</ele>
        <time>2014-03-06T13:55:32Z</time>
      </trkpt>
      <trkpt lat="47.87523" lon="7.30511">
        <ele>225.1</ele>
        <time>2014-03-06T13:55:34Z</time>
      </trkpt>
      <trkpt lat="47.87521" lon="7.30495">
        <ele>224.3</ele>
        <time>2014-03-06T13:55:36Z</time>
      </trkpt>
      <trkpt lat="47.8752" lon="7.30477">
        <ele>225.2</ele>
        <time>2014-03-06T13:55:38Z</time>
      </trkpt>
      <trkpt lat="47.87518" lon="7.3046">
        <ele>224.7</ele>
        <time>2014-03-06T13:55:40Z</time>
      </trkpt>
      <trkpt lat="47.87516" lon="7.30444">
        <ele>225.2</ele>
        <time>2014-03-06T13:55:42Z</time>
      </trkpt>
      <trkpt lat="47.87515" lon="7.30429">
        <ele>224.3</ele>
        <time>2014-03-06T13:55:44Z</time>
      </trkpt>
      <trkpt lat="47.87514" lon="7.30416">
        <ele>224.2</ele>
        <time>2014-03-06T13:55:46Z</time>
      </trkpt>
      <trkpt lat="47.87512" lon="7.30403">
        <ele>224.4</ele>
        <time>2014-03-06T13:55:48Z</time>
      </trkpt>
      <trkpt lat="47.8751" lon="7.30392">
        <ele>224.4</ele>
        <time>2014-03-06T13:55:50Z</time>
      </trkpt>
      <trkpt lat="47.87513" lon="7.30384">
        <ele>225</ele>
        <time>2014-03-06T13:55:52Z</time>
      </trkpt>
      <trkpt lat="47.8752" lon="7.30381">
        <ele>224.6</ele>
        <time>2014-03-06T13:55:54Z</time>
      </trkpt>
      <trkpt lat="47.87526" lon="7.30379">
        <ele>224.3</ele>
        <time>2014-03-06T13:55:56Z</time>
      </trkpt>
      <trkpt lat="47.8753" lon="7.3038">
        <ele>223.8</ele>
        <time>2014-03-06T13:55:58Z</time>
      </trkpt>
      <trkpt lat="47.87533" lon="7.30381">
        <ele>223.9</ele>
        <time>2014-03-06T13:56:00Z</time>
      </trkpt>
      <trkpt lat="47.87536" lon="7.30382">
        <ele>224</ele>
        <time>2014-03-06T13:56:02Z</time>
      </trkpt>
      <trkpt lat="47.87539" lon="7.30383">
        <ele>223.5</ele>
        <time>2014-03-06T13:56:10Z</time>
      </trkpt>
      <trkpt lat="47.87544" lon="7.30383">
        <ele>223.7</ele>
        <time>2014-03-06T13:56:12Z</time>
      </trkpt>
      <trkpt lat="47.8755" lon="7.30383">
        <ele>223.5</ele>
        <time>2014-03-06T13:56:14Z</time>
      </trkpt>
      <trkpt lat="47.87559" lon="7.30383">
        <ele>224.1</ele>
        <time>2014-03-06T13:56:16Z</time>
      </trkpt>
      <trkpt lat="47.87568" lon="7.30383">
        <ele>223.6</ele>
        <time>2014-03-06T13:56:18Z</time>
      </trkpt>
      <trkpt lat="47.87577" lon="7.30384">
        <ele>223.5</ele>
        <time>2014-03-06T13:56:20Z</time>
      </trkpt>
      <trkpt lat="47.87585" lon="7.30384">
        <ele>223.5</ele>
        <time>2014-03-06T13:56:22Z</time>
      </trkpt>
      <trkpt lat="47.87595" lon="7.30385">
        <ele>223.6</ele>
        <time>2014-03-06T13:56:24Z</time>
      </trkpt>
      <trkpt lat="47.87605" lon="7.30385">
        <ele>224</ele>
        <time>2014-03-06T13:56:26Z</time>
      </trkpt>
      <trkpt lat="47.87614" lon="7.30386">
        <ele>223.6</ele>
        <time>2014-03-06T13:56:28Z</time>
      </trkpt>
      <trkpt lat="47.87624" lon="7.30386">
        <ele>223.1</ele>
        <time>2014-03-06T13:56:30Z</time>
      </trkpt>
      <trkpt lat="47.87656" lon="7.30386">
        <ele>223.3</ele>
        <time>2014-03-06T13:56:36Z</time>
      </trkpt>
      <trkpt lat="47.87667" lon="7.30387">
        <ele>223</ele>
        <time>2014-03-06T13:56:38Z</time>
      </trkpt>
      <trkpt lat="47.87677" lon="7.30388">
        <ele>222.9</ele>
        <time>2014-03-06T13:56:40Z</time>
      </trkpt>
      <trkpt lat="47.87688" lon="7.30389">
        <ele>223.4</ele>
        <time>2014-03-06T13:56:42Z</time>
      </trkpt>
      <trkpt lat="47.87698" lon="7.3039">
        <ele>224</ele>
        <time>2014-03-06T13:56:44Z</time>
      </trkpt>
      <trkpt lat="47.87708" lon="7.30392">
        <ele>224.5</ele>
        <time>2014-03-06T13:56:46Z</time>
      </trkpt>
      <trkpt lat="47.87716" lon="7.30396">
        <ele>224</ele>
        <time>2014-03-06T13:56:48Z</time>
      </trkpt>
      <trkpt lat="47.87724" lon="7.30403">
        <ele>223.3</ele>
        <time>2014-03-06T13:56:50Z</time>
      </trkpt>
      <trkpt lat="47.87732" lon="7.3041">
        <ele>223.4</ele>
        <time>2014-03-06T13:56:52Z</time>
      </trkpt>
      <trkpt lat="47.87739" lon="7.30416">
        <ele>223.7</ele>
        <time>2014-03-06T13:56:54Z</time>
      </trkpt>
      <trkpt lat="47.87745" lon="7.30423">
        <ele>224.2</ele>
        <time>2014-03-06T13:56:56Z</time>
      </trkpt>
      <trkpt lat="47.87752" lon="7.30426">
        <ele>223.4</ele>
        <time>2014-03-06T13:56:58Z</time>
      </trkpt>
      <trkpt lat="47.87759" lon="7.30426">
        <ele>219.7</ele>
        <time>2014-03-06T13:57:00Z</time>
      </trkpt>
      <trkpt lat="47.87767" lon="7.30426">
        <ele>221.7</ele>
        <time>2014-03-06T13:57:02Z</time>
      </trkpt>
      <trkpt lat="47.87776" lon="7.30426">
        <ele>221.7</ele>
        <time>2014-03-06T13:57:04Z</time>
      </trkpt>
      <trkpt lat="47.87784" lon="7.30427">
        <ele>221.2</ele>
        <time>2014-03-06T13:57:06Z</time>
      </trkpt>
      <trkpt lat="47.87793" lon="7.30426">
        <ele>223</ele>
        <time>2014-03-06T13:57:08Z</time>
      </trkpt>
      <trkpt lat="47.87802" lon="7.30422">
        <ele>222.9</ele>
        <time>2014-03-06T13:57:10Z</time>
      </trkpt>
      <trkpt lat="47.87811" lon="7.30418">
        <ele>224.5</ele>
        <time>2014-03-06T13:57:12Z</time>
      </trkpt>
      <trkpt lat="47.87819" lon="7.30414">
        <ele>220.1</ele>
        <time>2014-03-06T13:57:14Z</time>
      </trkpt>
      <trkpt lat="47.87829" lon="7.30411">
        <ele>221.8</ele>
        <time>2014-03-06T13:57:16Z</time>
      </trkpt>
      <trkpt lat="47.87838" lon="7.30409">
        <ele>222.8</ele>
        <time>2014-03-06T13:57:18Z</time>
      </trkpt>
      <trkpt lat="47.87848" lon="7.30406">
        <ele>223.4</ele>
        <time>2014-03-06T13:57:20Z</time>
      </trkpt>
      <trkpt lat="47.87856" lon="7.30403">
        <ele>222.9</ele>
        <time>2014-03-06T13:57:22Z</time>
      </trkpt>
      <trkpt lat="47.87866" lon="7.30402">
        <ele>223.7</ele>
        <time>2014-03-06T13:57:24Z</time>
      </trkpt>
      <trkpt lat="47.87875" lon="7.30401">
        <ele>223.6</ele>
        <time>2014-03-06T13:57:26Z</time>
      </trkpt>
      <trkpt lat="47.87884" lon="7.30399">
        <ele>224.4</ele>
        <time>2014-03-06T13:57:28Z</time>
      </trkpt>
      <trkpt lat="47.87892" lon="7.30397">
        <ele>223.8</ele>
        <time>2014-03-06T13:57:30Z</time>
      </trkpt>
      <trkpt lat="47.87899" lon="7.30395">
        <ele>222.4</ele>
        <time>2014-03-06T13:57:32Z</time>
      </trkpt>
      <trkpt lat="47.87906" lon="7.30393">
        <ele>222.7</ele>
        <time>2014-03-06T13:57:34Z</time>
      </trkpt>
      <trkpt lat="47.87914" lon="7.30392">
        <ele>223.1</ele>
        <time>2014-03-06T13:57:36Z</time>
      </trkpt>
      <trkpt lat="47.87923" lon="7.30389">
        <ele>223.1</ele>
        <time>2014-03-06T13:57:38Z</time>
      </trkpt>
      <trkpt lat="47.87931" lon="7.30387">
        <ele>223.1</ele>
        <time>2014-03-06T13:57:40Z</time>
      </trkpt>
      <trkpt lat="47.8794" lon="7.30384">
        <ele>222.8</ele>
        <time>2014-03-06T13:57:42Z</time>
      </trkpt>
      <trkpt lat="47.8795" lon="7.30381">
        <ele>222.7</ele>
        <time>2014-03-06T13:57:44Z</time>
      </trkpt>
      <trkpt lat="47.8796" lon="7.30377">
        <ele>222.5</ele>
        <time>2014-03-06T13:57:46Z</time>
      </trkpt>
      <trkpt lat="47.8797" lon="7.30373">
        <ele>223.9</ele>
        <time>2014-03-06T13:57:48Z</time>
      </trkpt>
      <trkpt lat="47.87979" lon="7.30369">
        <ele>223.8</ele>
        <time>2014-03-06T13:57:50Z</time>
      </trkpt>
      <trkpt lat="47.87988" lon="7.30363">
        <ele>223.5</ele>
        <time>2014-03-06T13:57:52Z</time>
      </trkpt>
      <trkpt lat="47.87997" lon="7.30356">
        <ele>223.9</ele>
        <time>2014-03-06T13:57:54Z</time>
      </trkpt>
      <trkpt lat="47.88006" lon="7.30348">
        <ele>223.9</ele>
        <time>2014-03-06T13:57:56Z</time>
      </trkpt>
      <trkpt lat="47.88014" lon="7.30339">
        <ele>224.9</ele>
        <time>2014-03-06T13:57:58Z</time>
      </trkpt>
      <trkpt lat="47.88022" lon="7.3033">
        <ele>224.8</ele>
        <time>2014-03-06T13:58:00Z</time>
      </trkpt>
      <trkpt lat="47.88029" lon="7.30321">
        <ele>223.5</ele>
        <time>2014-03-06T13:58:02Z</time>
      </trkpt>
      <trkpt lat="47.88035" lon="7.30313">
        <ele>223.6</ele>
        <time>2014-03-06T13:58:04Z</time>
      </trkpt>
      <trkpt lat="47.88042" lon="7.30305">
        <ele>223.6</ele>
        <time>2014-03-06T13:58:06Z</time>
      </trkpt>
      <trkpt lat="47.88048" lon="7.30295">
        <ele>222.9</ele>
        <time>2014-03-06T13:58:08Z</time>
      </trkpt>
      <trkpt lat="47.88054" lon="7.30285">
        <ele>223.5</ele>
        <time>2014-03-06T13:58:10Z</time>
      </trkpt>
      <trkpt lat="47.88059" lon="7.30275">
        <ele>223.1</ele>
        <time>2014-03-06T13:58:12Z</time>
      </trkpt>
      <trkpt lat="47.88065" lon="7.30264">
        <ele>224.5</ele>
        <time>2014-03-06T13:58:14Z</time>
      </trkpt>
      <trkpt lat="47.8807" lon="7.30253">
        <ele>224.2</ele>
        <time>2014-03-06T13:58:16Z</time>
      </trkpt>
      <trkpt lat="47.88075" lon="7.30241">
        <ele>224</ele>
        <time>2014-03-06T13:58:18Z</time>
      </trkpt>
      <trkpt lat="47.88079" lon="7.30229">
        <ele>224</ele>
        <time>2014-03-06T13:58:20Z</time>
      </trkpt>
      <trkpt lat="47.88083" lon="7.30216">
        <ele>223.9</ele>
        <time>2014-03-06T13:58:22Z</time>
      </trkpt>
      <trkpt lat="47.88087" lon="7.30203">
        <ele>224.9</ele>
        <time>2014-03-06T13:58:24Z</time>
      </trkpt>
      <trkpt lat="47.88091" lon="7.3019">
        <ele>225.1</ele>
        <time>2014-03-06T13:58:26Z</time>
      </trkpt>
      <trkpt lat="47.88094" lon="7.30179">
        <ele>223.3</ele>
        <time>2014-03-06T13:58:28Z</time>
      </trkpt>
      <trkpt lat="47.88098" lon="7.30168">
        <ele>223.4</ele>
        <time>2014-03-06T13:58:30Z</time>
      </trkpt>
      <trkpt lat="47.88101" lon="7.30156">
        <ele>224.5</ele>
        <time>2014-03-06T13:58:32Z</time>
      </trkpt>
      <trkpt lat="47.88104" lon="7.30144">
        <ele>223.5</ele>
        <time>2014-03-06T13:58:34Z</time>
      </trkpt>
      <trkpt lat="47.88108" lon="7.30133">
        <ele>224.2</ele>
        <time>2014-03-06T13:58:36Z</time>
      </trkpt>
      <trkpt lat="47.88112" lon="7.3012">
        <ele>223.8</ele>
        <time>2014-03-06T13:58:38Z</time>
      </trkpt>
      <trkpt lat="47.88116" lon="7.30108">
        <ele>223.8</ele>
        <time>2014-03-06T13:58:40Z</time>
      </trkpt>
      <trkpt lat="47.8812" lon="7.30096">
        <ele>224</ele>
        <time>2014-03-06T13:58:42Z</time>
      </trkpt>
      <trkpt lat="47.88123" lon="7.30084">
        <ele>225.2</ele>
        <time>2014-03-06T13:58:44Z</time>
      </trkpt>
      <trkpt lat="47.88127" lon="7.30072">
        <ele>224.3</ele>
        <time>2014-03-06T13:58:46Z</time>
      </trkpt>
      <trkpt lat="47.88131" lon="7.3006">
        <ele>224.8</ele>
        <time>2014-03-06T13:58:48Z</time>
      </trkpt>
      <trkpt lat="47.88134" lon="7.30047">
        <ele>224.6</ele>
        <time>2014-03-06T13:58:50Z</time>
      </trkpt>
      <trkpt lat="47.88139" lon="7.30035">
        <ele>224.7</ele>
        <time>2014-03-06T13:58:52Z</time>
      </trkpt>
      <trkpt lat="47.88142" lon="7.30022">
        <ele>224.7</ele>
        <time>2014-03-06T13:58:54Z</time>
      </trkpt>
      <trkpt lat="47.88146" lon="7.30009">
        <ele>224.6</ele>
        <time>2014-03-06T13:58:56Z</time>
      </trkpt>
      <trkpt lat="47.8815" lon="7.29996">
        <ele>224.6</ele>
        <time>2014-03-06T13:58:58Z</time>
      </trkpt>
      <trkpt lat="47.88154" lon="7.29982">
        <ele>223.9</ele>
        <time>2014-03-06T13:59:00Z</time>
      </trkpt>
      <trkpt lat="47.88158" lon="7.2997">
        <ele>224.3</ele>
        <time>2014-03-06T13:59:02Z</time>
      </trkpt>
      <trkpt lat="47.88162" lon="7.29958">
        <ele>224.4</ele>
        <time>2014-03-06T13:59:04Z</time>
      </trkpt>
      <trkpt lat="47.88165" lon="7.29947">
        <ele>224.2</ele>
        <time>2014-03-06T13:59:06Z</time>
      </trkpt>
      <trkpt lat="47.88168" lon="7.29937">
        <ele>223.2</ele>
        <time>2014-03-06T13:59:08Z</time>
      </trkpt>
      <trkpt lat="47.88171" lon="7.29926">
        <ele>223.4</ele>
        <time>2014-03-06T13:59:10Z</time>
      </trkpt>
      <trkpt lat="47.88174" lon="7.29914">
        <ele>223.9</ele>
        <time>2014-03-06T13:59:12Z</time>
      </trkpt>
      <trkpt lat="47.88177" lon="7.29903">
        <ele>223.5</ele>
        <time>2014-03-06T13:59:14Z</time>
      </trkpt>
      <trkpt lat="47.88181" lon="7.29891">
        <ele>223.5</ele>
        <time>2014-03-06T13:59:16Z</time>
      </trkpt>
      <trkpt lat="47.88186" lon="7.29879">
        <ele>223.6</ele>
        <time>2014-03-06T13:59:18Z</time>
      </trkpt>
      <trkpt lat="47.8819" lon="7.29867">
        <ele>223.7</ele>
        <time>2014-03-06T13:59:20Z</time>
      </trkpt>
      <trkpt lat="47.88195" lon="7.29854">
        <ele>224.5</ele>
        <time>2014-03-06T13:59:22Z</time>
      </trkpt>
      <trkpt lat="47.882" lon="7.29842">
        <ele>225</ele>
        <time>2014-03-06T13:59:24Z</time>
      </trkpt>
      <trkpt lat="47.88205" lon="7.2983">
        <ele>224.6</ele>
        <time>2014-03-06T13:59:26Z</time>
      </trkpt>
      <trkpt lat="47.8821" lon="7.29818">
        <ele>224.6</ele>
        <time>2014-03-06T13:59:28Z</time>
      </trkpt>
      <trkpt lat="47.88215" lon="7.29808">
        <ele>224.9</ele>
        <time>2014-03-06T13:59:30Z</time>
      </trkpt>
      <trkpt lat="47.8822" lon="7.29798">
        <ele>225</ele>
        <time>2014-03-06T13:59:32Z</time>
      </trkpt>
      <trkpt lat="47.88225" lon="7.29788">
        <ele>225.5</ele>
        <time>2014-03-06T13:59:34Z</time>
      </trkpt>
      <trkpt lat="47.8823" lon="7.29777">
        <ele>224.1</ele>
        <time>2014-03-06T13:59:36Z</time>
      </trkpt>
      <trkpt lat="47.88235" lon="7.29765">
        <ele>224.1</ele>
        <time>2014-03-06T13:59:38Z</time>
      </trkpt>
      <trkpt lat="47.88241" lon="7.29754">
        <ele>224.5</ele>
        <time>2014-03-06T13:59:40Z</time>
      </trkpt>
      <trkpt lat="47.88246" lon="7.29743">
        <ele>225.1</ele>
        <time>2014-03-06T13:59:42Z</time>
      </trkpt>
      <trkpt lat="47.88252" lon="7.29733">
        <ele>225.7</ele>
        <time>2014-03-06T13:59:44Z</time>
      </trkpt>
      <trkpt lat="47.88257" lon="7.29722">
        <ele>225.2</ele>
        <time>2014-03-06T13:59:46Z</time>
      </trkpt>
      <trkpt lat="47.88262" lon="7.2971">
        <ele>224.2</ele>
        <time>2014-03-06T13:59:48Z</time>
      </trkpt>
      <trkpt lat="47.88268" lon="7.29699">
        <ele>225</ele>
        <time>2014-03-06T13:59:50Z</time>
      </trkpt>
      <trkpt lat="47.88273" lon="7.29687">
        <ele>224.5</ele>
        <time>2014-03-06T13:59:52Z</time>
      </trkpt>
      <trkpt lat="47.88277" lon="7.29675">
        <ele>225.3</ele>
        <time>2014-03-06T13:59:54Z</time>
      </trkpt>
      <trkpt lat="47.88282" lon="7.29662">
        <ele>225.2</ele>
        <time>2014-03-06T13:59:56Z</time>
      </trkpt>
      <trkpt lat="47.88287" lon="7.29649">
        <ele>225.5</ele>
        <time>2014-03-06T13:59:58Z</time>
      </trkpt>
      <trkpt lat="47.8829" lon="7.29637">
        <ele>226</ele>
        <time>2014-03-06T14:00:00Z</time>
      </trkpt>
      <trkpt lat="47.88294" lon="7.29624">
        <ele>226.5</ele>
        <time>2014-03-06T14:00:02Z</time>
      </trkpt>
      <trkpt lat="47.88297" lon="7.29612">
        <ele>226.2</ele>
        <time>2014-03-06T14:00:04Z</time>
      </trkpt>
      <trkpt lat="47.88299" lon="7.29601">
        <ele>226.1</ele>
        <time>2014-03-06T14:00:06Z</time>
      </trkpt>
      <trkpt lat="47.88302" lon="7.2959">
        <ele>225.7</ele>
        <time>2014-03-06T14:00:08Z</time>
      </trkpt>
      <trkpt lat="47.88305" lon="7.29579">
        <ele>226.1</ele>
        <time>2014-03-06T14:00:10Z</time>
      </trkpt>
      <trkpt lat="47.88308" lon="7.29567">
        <ele>225.6</ele>
        <time>2014-03-06T14:00:12Z</time>
      </trkpt>
      <trkpt lat="47.88311" lon="7.29554">
        <ele>225.5</ele>
        <time>2014-03-06T14:00:14Z</time>
      </trkpt>
      <trkpt lat="47.88314" lon="7.29541">
        <ele>226.4</ele>
        <time>2014-03-06T14:00:16Z</time>
      </trkpt>
      <trkpt lat="47.88318" lon="7.29528">
        <ele>226.6</ele>
        <time>2014-03-06T14:00:18Z</time>
      </trkpt>
      <trkpt lat="47.88321" lon="7.29515">
        <ele>227.3</ele>
        <time>2014-03-06T14:00:20Z</time>
      </trkpt>
      <trkpt lat="47.88324" lon="7.29502">
        <ele>226.3</ele>
        <time>2014-03-06T14:00:22Z</time>
      </trkpt>
      <trkpt lat="47.88327" lon="7.29489">
        <ele>225.9</ele>
        <time>2014-03-06T14:00:24Z</time>
      </trkpt>
      <trkpt lat="47.8833" lon="7.29475">
        <ele>226.9</ele>
        <time>2014-03-06T14:00:26Z</time>
      </trkpt>
      <trkpt lat="47.88334" lon="7.29462">
        <ele>226.4</ele>
        <time>2014-03-06T14:00:28Z</time>
      </trkpt>
      <trkpt lat="47.88337" lon="7.29448">
        <ele>226.8</ele>
        <time>2014-03-06T14:00:30Z</time>
      </trkpt>
      <trkpt lat="47.8834" lon="7.29434">
        <ele>226.4</ele>
        <time>2014-03-06T14:00:32Z</time>
      </trkpt>
      <trkpt lat="47.88343" lon="7.29421">
        <ele>226.6</ele>
        <time>2014-03-06T14:00:34Z</time>
      </trkpt>
      <trkpt lat="47.88347" lon="7.29407">
        <ele>226.4</ele>
        <time>2014-03-06T14:00:36Z</time>
      </trkpt>
      <trkpt lat="47.8835" lon="7.29394">
        <ele>226</ele>
        <time>2014-03-06T14:00:38Z</time>
      </trkpt>
      <trkpt lat="47.88353" lon="7.2938">
        <ele>226.3</ele>
        <time>2014-03-06T14:00:40Z</time>
      </trkpt>
      <trkpt lat="47.88356" lon="7.29367">
        <ele>226.5</ele>
        <time>2014-03-06T14:00:42Z</time>
      </trkpt>
      <trkpt lat="47.8836" lon="7.29355">
        <ele>226.1</ele>
        <time>2014-03-06T14:00:44Z</time>
      </trkpt>
      <trkpt lat="47.88362" lon="7.29344">
        <ele>224.8</ele>
        <time>2014-03-06T14:00:46Z</time>
      </trkpt>
      <trkpt lat="47.88365" lon="7.29334">
        <ele>225.6</ele>
        <time>2014-03-06T14:00:48Z</time>
      </trkpt>
      <trkpt lat="47.88368" lon="7.29324">
        <ele>226.3</ele>
        <time>2014-03-06T14:00:50Z</time>
      </trkpt>
      <trkpt lat="47.88371" lon="7.29313">
        <ele>225.6</ele>
        <time>2014-03-06T14:00:52Z</time>
      </trkpt>
      <trkpt lat="47.88374" lon="7.29302">
        <ele>225.5</ele>
        <time>2014-03-06T14:00:54Z</time>
      </trkpt>
      <trkpt lat="47.88377" lon="7.29291">
        <ele>225.3</ele>
        <time>2014-03-06T14:00:56Z</time>
      </trkpt>
      <trkpt lat="47.88381" lon="7.2928">
        <ele>225.1</ele>
        <time>2014-03-06T14:00:58Z</time>
      </trkpt>
      <trkpt lat="47.88385" lon="7.29269">
        <ele>224.8</ele>
        <time>2014-03-06T14:01:00Z</time>
      </trkpt>
      <trkpt lat="47.8839" lon="7.29257">
        <ele>225.3</ele>
        <time>2014-03-06T14:01:02Z</time>
      </trkpt>
      <trkpt lat="47.88395" lon="7.29245">
        <ele>225.7</ele>
        <time>2014-03-06T14:01:04Z</time>
      </trkpt>
      <trkpt lat="47.88399" lon="7.29234">
        <ele>226.6</ele>
        <time>2014-03-06T14:01:06Z</time>
      </trkpt>
      <trkpt lat="47.88403" lon="7.29225">
        <ele>227</ele>
        <time>2014-03-06T14:01:08Z</time>
      </trkpt>
      <trkpt lat="47.88407" lon="7.29216">
        <ele>227.4</ele>
        <time>2014-03-06T14:01:10Z</time>
      </trkpt>
      <trkpt lat="47.88411" lon="7.29207">
        <ele>227.3</ele>
        <time>2014-03-06T14:01:12Z</time>
      </trkpt>
      <trkpt lat="47.88415" lon="7.29197">
        <ele>227.4</ele>
        <time>2014-03-06T14:01:14Z</time>
      </trkpt>
      <trkpt lat="47.88419" lon="7.29188">
        <ele>227.5</ele>
        <time>2014-03-06T14:01:16Z</time>
      </trkpt>
      <trkpt lat="47.88424" lon="7.29178">
        <ele>227.4</ele>
        <time>2014-03-06T14:01:18Z</time>
      </trkpt>
      <trkpt lat="47.88428" lon="7.29168">
        <ele>227</ele>
        <time>2014-03-06T14:01:20Z</time>
      </trkpt>
      <trkpt lat="47.88433" lon="7.29159">
        <ele>227.1</ele>
        <time>2014-03-06T14:01:22Z</time>
      </trkpt>
      <trkpt lat="47.88437" lon="7.29148">
        <ele>226.1</ele>
        <time>2014-03-06T14:01:24Z</time>
      </trkpt>
      <trkpt lat="47.88442" lon="7.29138">
        <ele>225.8</ele>
        <time>2014-03-06T14:01:26Z</time>
      </trkpt>
      <trkpt lat="47.88446" lon="7.29128">
        <ele>226.7</ele>
        <time>2014-03-06T14:01:28Z</time>
      </trkpt>
      <trkpt lat="47.88451" lon="7.29118">
        <ele>226.6</ele>
        <time>2014-03-06T14:01:30Z</time>
      </trkpt>
      <trkpt lat="47.88455" lon="7.29108">
        <ele>227.5</ele>
        <time>2014-03-06T14:01:32Z</time>
      </trkpt>
      <trkpt lat="47.88459" lon="7.29098">
        <ele>226.9</ele>
        <time>2014-03-06T14:01:34Z</time>
      </trkpt>
      <trkpt lat="47.88464" lon="7.29088">
        <ele>227.5</ele>
        <time>2014-03-06T14:01:36Z</time>
      </trkpt>
      <trkpt lat="47.88468" lon="7.29078">
        <ele>227.3</ele>
        <time>2014-03-06T14:01:38Z</time>
      </trkpt>
      <trkpt lat="47.88472" lon="7.29069">
        <ele>228.1</ele>
        <time>2014-03-06T14:01:40Z</time>
      </trkpt>
      <trkpt lat="47.88475" lon="7.29061">
        <ele>228.9</ele>
        <time>2014-03-06T14:01:42Z</time>
      </trkpt>
      <trkpt lat="47.88479" lon="7.29053">
        <ele>228.1</ele>
        <time>2014-03-06T14:01:44Z</time>
      </trkpt>
      <trkpt lat="47.88482" lon="7.29044">
        <ele>228.7</ele>
        <time>2014-03-06T14:01:46Z</time>
      </trkpt>
      <trkpt lat="47.88485" lon="7.29035">
        <ele>228.6</ele>
        <time>2014-03-06T14:01:48Z</time>
      </trkpt>
      <trkpt lat="47.88488" lon="7.29026">
        <ele>228.4</ele>
        <time>2014-03-06T14:01:50Z</time>
      </trkpt>
      <trkpt lat="47.88492" lon="7.29017">
        <ele>228.4</ele>
        <time>2014-03-06T14:01:52Z</time>
      </trkpt>
      <trkpt lat="47.88495" lon="7.29008">
        <ele>227.4</ele>
        <time>2014-03-06T14:01:54Z</time>
      </trkpt>
      <trkpt lat="47.88499" lon="7.28999">
        <ele>227.9</ele>
        <time>2014-03-06T14:01:56Z</time>
      </trkpt>
      <trkpt lat="47.88503" lon="7.2899">
        <ele>227.8</ele>
        <time>2014-03-06T14:01:58Z</time>
      </trkpt>
      <trkpt lat="47.88506" lon="7.28982">
        <ele>228</ele>
        <time>2014-03-06T14:02:00Z</time>
      </trkpt>
      <trkpt lat="47.88509" lon="7.28976">
        <ele>228.3</ele>
        <time>2014-03-06T14:02:02Z</time>
      </trkpt>
      <trkpt lat="47.88511" lon="7.28972">
        <ele>228.7</ele>
        <time>2014-03-06T14:02:04Z</time>
      </trkpt>
      <trkpt lat="47.88513" lon="7.28962">
        <ele>228.7</ele>
        <time>2014-03-06T14:02:40Z</time>
      </trkpt>
      <trkpt lat="47.88514" lon="7.28957">
        <ele>228.6</ele>
        <time>2014-03-06T14:02:42Z</time>
      </trkpt>
      <trkpt lat="47.88516" lon="7.28954">
        <ele>228.2</ele>
        <time>2014-03-06T14:02:44Z</time>
      </trkpt>
      <trkpt lat="47.88518" lon="7.28949">
        <ele>228.4</ele>
        <time>2014-03-06T14:02:46Z</time>
      </trkpt>
      <trkpt lat="47.8852" lon="7.28943">
        <ele>227.9</ele>
        <time>2014-03-06T14:02:48Z</time>
      </trkpt>
      <trkpt lat="47.88524" lon="7.28935">
        <ele>228.3</ele>
        <time>2014-03-06T14:02:50Z</time>
      </trkpt>
      <trkpt lat="47.88527" lon="7.28926">
        <ele>228.7</ele>
        <time>2014-03-06T14:02:52Z</time>
      </trkpt>
      <trkpt lat="47.88532" lon="7.28917">
        <ele>228.8</ele>
        <time>2014-03-06T14:02:54Z</time>
      </trkpt>
      <trkpt lat="47.88536" lon="7.28908">
        <ele>228.9</ele>
        <time>2014-03-06T14:02:56Z</time>
      </trkpt>
      <trkpt lat="47.8854" lon="7.28898">
        <ele>228.6</ele>
        <time>2014-03-06T14:02:58Z</time>
      </trkpt>
      <trkpt lat="47.88545" lon="7.28889">
        <ele>229</ele>
        <time>2014-03-06T14:03:00Z</time>
      </trkpt>
      <trkpt lat="47.88549" lon="7.28879">
        <ele>228.5</ele>
        <time>2014-03-06T14:03:02Z</time>
      </trkpt>
      <trkpt lat="47.88553" lon="7.2887">
        <ele>229</ele>
        <time>2014-03-06T14:03:04Z</time>
      </trkpt>
      <trkpt lat="47.88557" lon="7.28861">
        <ele>229</ele>
        <time>2014-03-06T14:03:06Z</time>
      </trkpt>
      <trkpt lat="47.88562" lon="7.28852">
        <ele>229</ele>
        <time>2014-03-06T14:03:08Z</time>
      </trkpt>
      <trkpt lat="47.88567" lon="7.28843">
        <ele>228.7</ele>
        <time>2014-03-06T14:03:10Z</time>
      </trkpt>
      <trkpt lat="47.88573" lon="7.28834">
        <ele>228.9</ele>
        <time>2014-03-06T14:03:12Z</time>
      </trkpt>
      <trkpt lat="47.88579" lon="7.28825">
        <ele>229.7</ele>
        <time>2014-03-06T14:03:14Z</time>
      </trkpt>
      <trkpt lat="47.88585" lon="7.28818">
        <ele>229.4</ele>
        <time>2014-03-06T14:03:16Z</time>
      </trkpt>
      <trkpt lat="47.88591" lon="7.2881">
        <ele>228.8</ele>
        <time>2014-03-06T14:03:18Z</time>
      </trkpt>
      <trkpt lat="47.88598" lon="7.28802">
        <ele>229.4</ele>
        <time>2014-03-06T14:03:20Z</time>
      </trkpt>
      <trkpt lat="47.88605" lon="7.28795">
        <ele>229.3</ele>
        <time>2014-03-06T14:03:22Z</time>
      </trkpt>
      <trkpt lat="47.88612" lon="7.28789">
        <ele>229.7</ele>
        <time>2014-03-06T14:03:24Z</time>
      </trkpt>
      <trkpt lat="47.88619" lon="7.28783">
        <ele>229.7</ele>
        <time>2014-03-06T14:03:26Z</time>
      </trkpt>
      <trkpt lat="47.88626" lon="7.28777">
        <ele>229.6</ele>
        <time>2014-03-06T14:03:28Z</time>
      </trkpt>
      <trkpt lat="47.88633" lon="7.28771">
        <ele>230</ele>
        <time>2014-03-06T14:03:30Z</time>
      </trkpt>
      <trkpt lat="47.8864" lon="7.28766">
        <ele>230.2</ele>
        <time>2014-03-06T14:03:32Z</time>
      </trkpt>
      <trkpt lat="47.88647" lon="7.28762">
        <ele>229.7</ele>
        <time>2014-03-06T14:03:34Z</time>
      </trkpt>
      <trkpt lat="47.88654" lon="7.28758">
        <ele>230.1</ele>
        <time>2014-03-06T14:03:36Z</time>
      </trkpt>
      <trkpt lat="47.88662" lon="7.28754">
        <ele>230.5</ele>
        <time>2014-03-06T14:03:38Z</time>
      </trkpt>
      <trkpt lat="47.88669" lon="7.2875">
        <ele>230.3</ele>
        <time>2014-03-06T14:03:40Z</time>
      </trkpt>
      <trkpt lat="47.88676" lon="7.28745">
        <ele>229.7</ele>
        <time>2014-03-06T14:03:42Z</time>
      </trkpt>
      <trkpt lat="47.88683" lon="7.28741">
        <ele>229.9</ele>
        <time>2014-03-06T14:03:44Z</time>
      </trkpt>
      <trkpt lat="47.88691" lon="7.28737">
        <ele>229.8</ele>
        <time>2014-03-06T14:03:46Z</time>
      </trkpt>
      <trkpt lat="47.88698" lon="7.28733">
        <ele>230.5</ele>
        <time>2014-03-06T14:03:48Z</time>
      </trkpt>
      <trkpt lat="47.88706" lon="7.28728">
        <ele>230.1</ele>
        <time>2014-03-06T14:03:50Z</time>
      </trkpt>
      <trkpt lat="47.88713" lon="7.28724">
        <ele>230</ele>
        <time>2014-03-06T14:03:52Z</time>
      </trkpt>
      <trkpt lat="47.8872" lon="7.28719">
        <ele>229.7</ele>
        <time>2014-03-06T14:03:54Z</time>
      </trkpt>
      <trkpt lat="47.88728" lon="7.28715">
        <ele>230.1</ele>
        <time>2014-03-06T14:03:56Z</time>
      </trkpt>
      <trkpt lat="47.88736" lon="7.2871">
        <ele>229.9</ele>
        <time>2014-03-06T14:03:58Z</time>
      </trkpt>
      <trkpt lat="47.88743" lon="7.28704">
        <ele>229.9</ele>
        <time>2014-03-06T14:04:00Z</time>
      </trkpt>
      <trkpt lat="47.8875" lon="7.28698">
        <ele>229.9</ele>
        <time>2014-03-06T14:04:02Z</time>
      </trkpt>
      <trkpt lat="47.88757" lon="7.28691">
        <ele>230.1</ele>
        <time>2014-03-06T14:04:04Z</time>
      </trkpt>
      <trkpt lat="47.88763" lon="7.28683">
        <ele>230.4</ele>
        <time>2014-03-06T14:04:06Z</time>
      </trkpt>
      <trkpt lat="47.8877" lon="7.28676">
        <ele>229.5</ele>
        <time>2014-03-06T14:04:08Z</time>
      </trkpt>
      <trkpt lat="47.88776" lon="7.28668">
        <ele>229.6</ele>
        <time>2014-03-06T14:04:10Z</time>
      </trkpt>
      <trkpt lat="47.88781" lon="7.28659">
        <ele>229.5</ele>
        <time>2014-03-06T14:04:12Z</time>
      </trkpt>
      <trkpt lat="47.88787" lon="7.28649">
        <ele>229</ele>
        <time>2014-03-06T14:04:14Z</time>
      </trkpt>
      <trkpt lat="47.88792" lon="7.28638">
        <ele>228.6</ele>
        <time>2014-03-06T14:04:16Z</time>
      </trkpt>
      <trkpt lat="47.88798" lon="7.28625">
        <ele>224.1</ele>
        <time>2014-03-06T14:04:18Z</time>
      </trkpt>
      <trkpt lat="47.88803" lon="7.28611">
        <ele>225.6</ele>
        <time>2014-03-06T14:04:20Z</time>
      </trkpt>
      <trkpt lat="47.88807" lon="7.28594">
        <ele>226.3</ele>
        <time>2014-03-06T14:04:22Z</time>
      </trkpt>
      <trkpt lat="47.88811" lon="7.28577">
        <ele>227.1</ele>
        <time>2014-03-06T14:04:24Z</time>
      </trkpt>
      <trkpt lat="47.88815" lon="7.2856">
        <ele>225.7</ele>
        <time>2014-03-06T14:04:26Z</time>
      </trkpt>
      <trkpt lat="47.88818" lon="7.28544">
        <ele>225.5</ele>
        <time>2014-03-06T14:04:28Z</time>
      </trkpt>
      <trkpt lat="47.8882" lon="7.2853">
        <ele>226.6</ele>
        <time>2014-03-06T14:04:30Z</time>
      </trkpt>
      <trkpt lat="47.88821" lon="7.28518">
        <ele>227.5</ele>
        <time>2014-03-06T14:04:32Z</time>
      </trkpt>
      <trkpt lat="47.88823" lon="7.28508">
        <ele>227.1</ele>
        <time>2014-03-06T14:04:34Z</time>
      </trkpt>
      <trkpt lat="47.88823" lon="7.28499">
        <ele>226.5</ele>
        <time>2014-03-06T14:04:36Z</time>
      </trkpt>
      <trkpt lat="47.88822" lon="7.2846">
        <ele>229.5</ele>
        <time>2014-03-06T14:04:44Z</time>
      </trkpt>
      <trkpt lat="47.88821" lon="7.2845">
        <ele>230.3</ele>
        <time>2014-03-06T14:04:46Z</time>
      </trkpt>
      <trkpt lat="47.8882" lon="7.2844">
        <ele>230.8</ele>
        <time>2014-03-06T14:04:48Z</time>
      </trkpt>
      <trkpt lat="47.88819" lon="7.28431">
        <ele>230.2</ele>
        <time>2014-03-06T14:04:50Z</time>
      </trkpt>
      <trkpt lat="47.88817" lon="7.28422">
        <ele>230.6</ele>
        <time>2014-03-06T14:04:52Z</time>
      </trkpt>
      <trkpt lat="47.88815" lon="7.28413">
        <ele>231.1</ele>
        <time>2014-03-06T14:04:54Z</time>
      </trkpt>
      <trkpt lat="47.88813" lon="7.28404">
        <ele>230.9</ele>
        <time>2014-03-06T14:04:56Z</time>
      </trkpt>
      <trkpt lat="47.8881" lon="7.28394">
        <ele>230.3</ele>
        <time>2014-03-06T14:04:58Z</time>
      </trkpt>
      <trkpt lat="47.88808" lon="7.28384">
        <ele>230.9</ele>
        <time>2014-03-06T14:05:00Z</time>
      </trkpt>
      <trkpt lat="47.88806" lon="7.28374">
        <ele>231.4</ele>
        <time>2014-03-06T14:05:02Z</time>
      </trkpt>
      <trkpt lat="47.88803" lon="7.28364">
        <ele>232.1</ele>
        <time>2014-03-06T14:05:04Z</time>
      </trkpt>
      <trkpt lat="47.88801" lon="7.28354">
        <ele>231.3</ele>
        <time>2014-03-06T14:05:06Z</time>
      </trkpt>
      <trkpt lat="47.88799" lon="7.28343">
        <ele>231.4</ele>
        <time>2014-03-06T14:05:08Z</time>
      </trkpt>
      <trkpt lat="47.88796" lon="7.28333">
        <ele>231.2</ele>
        <time>2014-03-06T14:05:10Z</time>
      </trkpt>
      <trkpt lat="47.88794" lon="7.28323">
        <ele>231</ele>
        <time>2014-03-06T14:05:12Z</time>
      </trkpt>
      <trkpt lat="47.88792" lon="7.28314">
        <ele>231.3</ele>
        <time>2014-03-06T14:05:14Z</time>
      </trkpt>
      <trkpt lat="47.88789" lon="7.28306">
        <ele>231.2</ele>
        <time>2014-03-06T14:05:16Z</time>
      </trkpt>
      <trkpt lat="47.88785" lon="7.28297">
        <ele>231.5</ele>
        <time>2014-03-06T14:05:18Z</time>
      </trkpt>
      <trkpt lat="47.88779" lon="7.28289">
        <ele>231.4</ele>
        <time>2014-03-06T14:05:20Z</time>
      </trkpt>
      <trkpt lat="47.88773" lon="7.28281">
        <ele>231.8</ele>
        <time>2014-03-06T14:05:22Z</time>
      </trkpt>
      <trkpt lat="47.88767" lon="7.28272">
        <ele>231</ele>
        <time>2014-03-06T14:05:24Z</time>
      </trkpt>
      <trkpt lat="47.88762" lon="7.28262">
        <ele>231.1</ele>
        <time>2014-03-06T14:05:26Z</time>
      </trkpt>
      <trkpt lat="47.88758" lon="7.2825">
        <ele>231.7</ele>
        <time>2014-03-06T14:05:28Z</time>
      </trkpt>
      <trkpt lat="47.88755" lon="7.28239">
        <ele>231.7</ele>
        <time>2014-03-06T14:05:30Z</time>
      </trkpt>
      <trkpt lat="47.88753" lon="7.28228">
        <ele>231.6</ele>
        <time>2014-03-06T14:05:32Z</time>
      </trkpt>
      <trkpt lat="47.88751" lon="7.28217">
        <ele>231.6</ele>
        <time>2014-03-06T14:05:34Z</time>
      </trkpt>
      <trkpt lat="47.88748" lon="7.28205">
        <ele>231.3</ele>
        <time>2014-03-06T14:05:36Z</time>
      </trkpt>
      <trkpt lat="47.88746" lon="7.28193">
        <ele>231.4</ele>
        <time>2014-03-06T14:05:38Z</time>
      </trkpt>
      <trkpt lat="47.88744" lon="7.2818">
        <ele>231.8</ele>
        <time>2014-03-06T14:05:40Z</time>
      </trkpt>
      <trkpt lat="47.88742" lon="7.28167">
        <ele>232.1</ele>
        <time>2014-03-06T14:05:42Z</time>
      </trkpt>
      <trkpt lat="47.88741" lon="7.28154">
        <ele>232.3</ele>
        <time>2014-03-06T14:05:44Z</time>
      </trkpt>
      <trkpt lat="47.88738" lon="7.2814">
        <ele>231</ele>
        <time>2014-03-06T14:05:46Z</time>
      </trkpt>
      <trkpt lat="47.88736" lon="7.28127">
        <ele>230.3</ele>
        <time>2014-03-06T14:05:48Z</time>
      </trkpt>
      <trkpt lat="47.88733" lon="7.28114">
        <ele>231.8</ele>
        <time>2014-03-06T14:05:50Z</time>
      </trkpt>
      <trkpt lat="47.8873" lon="7.28102">
        <ele>231.8</ele>
        <time>2014-03-06T14:05:52Z</time>
      </trkpt>
      <trkpt lat="47.88727" lon="7.2809">
        <ele>231.3</ele>
        <time>2014-03-06T14:05:54Z</time>
      </trkpt>
      <trkpt lat="47.88724" lon="7.28079">
        <ele>231.4</ele>
        <time>2014-03-06T14:05:56Z</time>
      </trkpt>
      <trkpt lat="47.88721" lon="7.28068">
        <ele>231</ele>
        <time>2014-03-06T14:05:58Z</time>
      </trkpt>
      <trkpt lat="47.88718" lon="7.28056">
        <ele>231.3</ele>
        <time>2014-03-06T14:06:00Z</time>
      </trkpt>
      <trkpt lat="47.88717" lon="7.28044">
        <ele>230.9</ele>
        <time>2014-03-06T14:06:02Z</time>
      </trkpt>
      <trkpt lat="47.88715" lon="7.28033">
        <ele>231.7</ele>
        <time>2014-03-06T14:06:04Z</time>
      </trkpt>
      <trkpt lat="47.88714" lon="7.28021">
        <ele>231.7</ele>
        <time>2014-03-06T14:06:06Z</time>
      </trkpt>
      <trkpt lat="47.88712" lon="7.28009">
        <ele>231.9</ele>
        <time>2014-03-06T14:06:08Z</time>
      </trkpt>
      <trkpt lat="47.8871" lon="7.27996">
        <ele>231.2</ele>
        <time>2014-03-06T14:06:10Z</time>
      </trkpt>
      <trkpt lat="47.88709" lon="7.27982">
        <ele>231.4</ele>
        <time>2014-03-06T14:06:12Z</time>
      </trkpt>
      <trkpt lat="47.88707" lon="7.27969">
        <ele>232.1</ele>
        <time>2014-03-06T14:06:14Z</time>
      </trkpt>
      <trkpt lat="47.88706" lon="7.27956">
        <ele>232.6</ele>
        <time>2014-03-06T14:06:16Z</time>
      </trkpt>
      <trkpt lat="47.88705" lon="7.27943">
        <ele>233</ele>
        <time>2014-03-06T14:06:18Z</time>
      </trkpt>
      <trkpt lat="47.88703" lon="7.27931">
        <ele>232.9</ele>
        <time>2014-03-06T14:06:20Z</time>
      </trkpt>
      <trkpt lat="47.88701" lon="7.27918">
        <ele>231.8</ele>
        <time>2014-03-06T14:06:22Z</time>
      </trkpt>
      <trkpt lat="47.88698" lon="7.27905">
        <ele>232.5</ele>
        <time>2014-03-06T14:06:24Z</time>
      </trkpt>
      <trkpt lat="47.88695" lon="7.27892">
        <ele>232.3</ele>
        <time>2014-03-06T14:06:26Z</time>
      </trkpt>
      <trkpt lat="47.88692" lon="7.27879">
        <ele>232.7</ele>
        <time>2014-03-06T14:06:28Z</time>
      </trkpt>
      <trkpt lat="47.88688" lon="7.27866">
        <ele>233</ele>
        <time>2014-03-06T14:06:30Z</time>
      </trkpt>
      <trkpt lat="47.88684" lon="7.27853">
        <ele>232.2</ele>
        <time>2014-03-06T14:06:32Z</time>
      </trkpt>
      <trkpt lat="47.8868" lon="7.27839">
        <ele>233.1</ele>
        <time>2014-03-06T14:06:34Z</time>
      </trkpt>
      <trkpt lat="47.88676" lon="7.27825">
        <ele>233</ele>
        <time>2014-03-06T14:06:36Z</time>
      </trkpt>
      <trkpt lat="47.88672" lon="7.27812">
        <ele>232.1</ele>
        <time>2014-03-06T14:06:38Z</time>
      </trkpt>
      <trkpt lat="47.88668" lon="7.278">
        <ele>232.6</ele>
        <time>2014-03-06T14:06:40Z</time>
      </trkpt>
      <trkpt lat="47.88665" lon="7.27789">
        <ele>232.3</ele>
        <time>2014-03-06T14:06:42Z</time>
      </trkpt>
      <trkpt lat="47.88662" lon="7.27779">
        <ele>232.5</ele>
        <time>2014-03-06T14:06:44Z</time>
      </trkpt>
      <trkpt lat="47.88658" lon="7.27767">
        <ele>232.4</ele>
        <time>2014-03-06T14:06:46Z</time>
      </trkpt>
      <trkpt lat="47.88654" lon="7.27755">
        <ele>232.1</ele>
        <time>2014-03-06T14:06:48Z</time>
      </trkpt>
      <trkpt lat="47.8865" lon="7.27743">
        <ele>233.2</ele>
        <time>2014-03-06T14:06:50Z</time>
      </trkpt>
      <trkpt lat="47.88646" lon="7.2773">
        <ele>231.8</ele>
        <time>2014-03-06T14:06:52Z</time>
      </trkpt>
      <trkpt lat="47.88643" lon="7.27718">
        <ele>231.7</ele>
        <time>2014-03-06T14:06:54Z</time>
      </trkpt>
      <trkpt lat="47.88639" lon="7.27705">
        <ele>233.2</ele>
        <time>2014-03-06T14:06:56Z</time>
      </trkpt>
      <trkpt lat="47.88635" lon="7.27692">
        <ele>232.5</ele>
        <time>2014-03-06T14:06:58Z</time>
      </trkpt>
      <trkpt lat="47.88631" lon="7.27679">
        <ele>232.9</ele>
        <time>2014-03-06T14:07:00Z</time>
      </trkpt>
      <trkpt lat="47.88629" lon="7.27666">
        <ele>232.9</ele>
        <time>2014-03-06T14:07:02Z</time>
      </trkpt>
      <trkpt lat="47.88627" lon="7.27654">
        <ele>234.1</ele>
        <time>2014-03-06T14:07:04Z</time>
      </trkpt>
      <trkpt lat="47.88625" lon="7.27644">
        <ele>233.6</ele>
        <time>2014-03-06T14:07:06Z</time>
      </trkpt>
      <trkpt lat="47.88623" lon="7.27633">
        <ele>234</ele>
        <time>2014-03-06T14:07:08Z</time>
      </trkpt>
      <trkpt lat="47.88622" lon="7.27622">
        <ele>233.5</ele>
        <time>2014-03-06T14:07:10Z</time>
      </trkpt>
      <trkpt lat="47.8862" lon="7.2761">
        <ele>234.9</ele>
        <time>2014-03-06T14:07:12Z</time>
      </trkpt>
      <trkpt lat="47.88617" lon="7.27597">
        <ele>234.8</ele>
        <time>2014-03-06T14:07:14Z</time>
      </trkpt>
      <trkpt lat="47.88615" lon="7.27585">
        <ele>235.1</ele>
        <time>2014-03-06T14:07:16Z</time>
      </trkpt>
      <trkpt lat="47.88613" lon="7.27574">
        <ele>234.5</ele>
        <time>2014-03-06T14:07:18Z</time>
      </trkpt>
      <trkpt lat="47.88611" lon="7.27564">
        <ele>235</ele>
        <time>2014-03-06T14:07:20Z</time>
      </trkpt>
      <trkpt lat="47.88609" lon="7.27553">
        <ele>235.3</ele>
        <time>2014-03-06T14:07:22Z</time>
      </trkpt>
      <trkpt lat="47.88607" lon="7.27541">
        <ele>234.7</ele>
        <time>2014-03-06T14:07:24Z</time>
      </trkpt>
      <trkpt lat="47.88604" lon="7.27529">
        <ele>234.6</ele>
        <time>2014-03-06T14:07:26Z</time>
      </trkpt>
      <trkpt lat="47.88602" lon="7.27517">
        <ele>234.5</ele>
        <time>2014-03-06T14:07:28Z</time>
      </trkpt>
      <trkpt lat="47.886" lon="7.27505">
        <ele>235.3</ele>
        <time>2014-03-06T14:07:30Z</time>
      </trkpt>
      <trkpt lat="47.88598" lon="7.27493">
        <ele>235.7</ele>
        <time>2014-03-06T14:07:32Z</time>
      </trkpt>
      <trkpt lat="47.88596" lon="7.27481">
        <ele>236.2</ele>
        <time>2014-03-06T14:07:34Z</time>
      </trkpt>
      <trkpt lat="47.88594" lon="7.27468">
        <ele>235.9</ele>
        <time>2014-03-06T14:07:36Z</time>
      </trkpt>
      <trkpt lat="47.88592" lon="7.27455">
        <ele>235.9</ele>
        <time>2014-03-06T14:07:38Z</time>
      </trkpt>
      <trkpt lat="47.88589" lon="7.27441">
        <ele>235.7</ele>
        <time>2014-03-06T14:07:40Z</time>
      </trkpt>
      <trkpt lat="47.88586" lon="7.27429">
        <ele>236.1</ele>
        <time>2014-03-06T14:07:42Z</time>
      </trkpt>
      <trkpt lat="47.88584" lon="7.27417">
        <ele>236.8</ele>
        <time>2014-03-06T14:07:44Z</time>
      </trkpt>
      <trkpt lat="47.88582" lon="7.27408">
        <ele>236.5</ele>
        <time>2014-03-06T14:07:46Z</time>
      </trkpt>
      <trkpt lat="47.8858" lon="7.27398">
        <ele>236.5</ele>
        <time>2014-03-06T14:07:48Z</time>
      </trkpt>
      <trkpt lat="47.88578" lon="7.27388">
        <ele>236.9</ele>
        <time>2014-03-06T14:07:50Z</time>
      </trkpt>
      <trkpt lat="47.88577" lon="7.27378">
        <ele>237</ele>
        <time>2014-03-06T14:07:52Z</time>
      </trkpt>
      <trkpt lat="47.88575" lon="7.27368">
        <ele>237.1</ele>
        <time>2014-03-06T14:07:54Z</time>
      </trkpt>
      <trkpt lat="47.88573" lon="7.27357">
        <ele>237.2</ele>
        <time>2014-03-06T14:07:56Z</time>
      </trkpt>
      <trkpt lat="47.88571" lon="7.27346">
        <ele>237.3</ele>
        <time>2014-03-06T14:07:58Z</time>
      </trkpt>
      <trkpt lat="47.8857" lon="7.27335">
        <ele>237.7</ele>
        <time>2014-03-06T14:08:00Z</time>
      </trkpt>
      <trkpt lat="47.88568" lon="7.27323">
        <ele>238.1</ele>
        <time>2014-03-06T14:08:02Z</time>
      </trkpt>
      <trkpt lat="47.88566" lon="7.27312">
        <ele>238.8</ele>
        <time>2014-03-06T14:08:04Z</time>
      </trkpt>
      <trkpt lat="47.88565" lon="7.27299">
        <ele>238.7</ele>
        <time>2014-03-06T14:08:06Z</time>
      </trkpt>
      <trkpt lat="47.88563" lon="7.27287">
        <ele>239.2</ele>
        <time>2014-03-06T14:08:08Z</time>
      </trkpt>
      <trkpt lat="47.88562" lon="7.27274">
        <ele>238.7</ele>
        <time>2014-03-06T14:08:10Z</time>
      </trkpt>
      <trkpt lat="47.88561" lon="7.27262">
        <ele>238.7</ele>
        <time>2014-03-06T14:08:12Z</time>
      </trkpt>
      <trkpt lat="47.88559" lon="7.27249">
        <ele>239.7</ele>
        <time>2014-03-06T14:08:14Z</time>
      </trkpt>
      <trkpt lat="47.88559" lon="7.27236">
        <ele>238.9</ele>
        <time>2014-03-06T14:08:16Z</time>
      </trkpt>
      <trkpt lat="47.88557" lon="7.27224">
        <ele>239</ele>
        <time>2014-03-06T14:08:18Z</time>
      </trkpt>
      <trkpt lat="47.88557" lon="7.27214">
        <ele>239.8</ele>
        <time>2014-03-06T14:08:20Z</time>
      </trkpt>
      <trkpt lat="47.88556" lon="7.27204">
        <ele>239.3</ele>
        <time>2014-03-06T14:08:22Z</time>
      </trkpt>
      <trkpt lat="47.88555" lon="7.27193">
        <ele>238.8</ele>
        <time>2014-03-06T14:08:24Z</time>
      </trkpt>
      <trkpt lat="47.88554" lon="7.27182">
        <ele>238.9</ele>
        <time>2014-03-06T14:08:26Z</time>
      </trkpt>
      <trkpt lat="47.88553" lon="7.2717">
        <ele>239.5</ele>
        <time>2014-03-06T14:08:28Z</time>
      </trkpt>
      <trkpt lat="47.88551" lon="7.27157">
        <ele>240.1</ele>
        <time>2014-03-06T14:08:30Z</time>
      </trkpt>
      <trkpt lat="47.8855" lon="7.27144">
        <ele>239</ele>
        <time>2014-03-06T14:08:32Z</time>
      </trkpt>
      <trkpt lat="47.88548" lon="7.27132">
        <ele>238.8</ele>
        <time>2014-03-06T14:08:34Z</time>
      </trkpt>
      <trkpt lat="47.88546" lon="7.27119">
        <ele>239.4</ele>
        <time>2014-03-06T14:08:36Z</time>
      </trkpt>
      <trkpt lat="47.88545" lon="7.27106">
        <ele>239.2</ele>
        <time>2014-03-06T14:08:38Z</time>
      </trkpt>
      <trkpt lat="47.88543" lon="7.27094">
        <ele>239.5</ele>
        <time>2014-03-06T14:08:40Z</time>
      </trkpt>
      <trkpt lat="47.8854" lon="7.27081">
        <ele>239.2</ele>
        <time>2014-03-06T14:08:42Z</time>
      </trkpt>
      <trkpt lat="47.88538" lon="7.2707">
        <ele>239.5</ele>
        <time>2014-03-06T14:08:44Z</time>
      </trkpt>
      <trkpt lat="47.88536" lon="7.2706">
        <ele>239.5</ele>
        <time>2014-03-06T14:08:46Z</time>
      </trkpt>
      <trkpt lat="47.88534" lon="7.27051">
        <ele>239.4</ele>
        <time>2014-03-06T14:08:48Z</time>
      </trkpt>
      <trkpt lat="47.88532" lon="7.27042">
        <ele>240.3</ele>
        <time>2014-03-06T14:08:50Z</time>
      </trkpt>
      <trkpt lat="47.88529" lon="7.27032">
        <ele>241.3</ele>
        <time>2014-03-06T14:08:52Z</time>
      </trkpt>
      <trkpt lat="47.88525" lon="7.27021">
        <ele>240.8</ele>
        <time>2014-03-06T14:08:54Z</time>
      </trkpt>
      <trkpt lat="47.88521" lon="7.27011">
        <ele>241.1</ele>
        <time>2014-03-06T14:08:56Z</time>
      </trkpt>
      <trkpt lat="47.88517" lon="7.27001">
        <ele>241</ele>
        <time>2014-03-06T14:08:58Z</time>
      </trkpt>
      <trkpt lat="47.88513" lon="7.2699">
        <ele>240.6</ele>
        <time>2014-03-06T14:09:00Z</time>
      </trkpt>
      <trkpt lat="47.88509" lon="7.26979">
        <ele>240.5</ele>
        <time>2014-03-06T14:09:02Z</time>
      </trkpt>
      <trkpt lat="47.88504" lon="7.26967">
        <ele>240.7</ele>
        <time>2014-03-06T14:09:04Z</time>
      </trkpt>
      <trkpt lat="47.885" lon="7.26956">
        <ele>241</ele>
        <time>2014-03-06T14:09:06Z</time>
      </trkpt>
      <trkpt lat="47.88495" lon="7.26945">
        <ele>241.3</ele>
        <time>2014-03-06T14:09:08Z</time>
      </trkpt>
      <trkpt lat="47.8849" lon="7.26933">
        <ele>240.5</ele>
        <time>2014-03-06T14:09:10Z</time>
      </trkpt>
      <trkpt lat="47.88485" lon="7.26922">
        <ele>240.4</ele>
        <time>2014-03-06T14:09:12Z</time>
      </trkpt>
      <trkpt lat="47.88481" lon="7.26912">
        <ele>240.4</ele>
        <time>2014-03-06T14:09:14Z</time>
      </trkpt>
      <trkpt lat="47.88478" lon="7.26903">
        <ele>240.5</ele>
        <time>2014-03-06T14:09:16Z</time>
      </trkpt>
      <trkpt lat="47.88474" lon="7.26894">
        <ele>240.5</ele>
        <time>2014-03-06T14:09:18Z</time>
      </trkpt>
      <trkpt lat="47.88471" lon="7.26884">
        <ele>240.5</ele>
        <time>2014-03-06T14:09:20Z</time>
      </trkpt>
      <trkpt lat="47.88466" lon="7.26873">
        <ele>241</ele>
        <time>2014-03-06T14:09:21Z</time>
      </trkpt>
      <trkpt lat="47.88462" lon="7.26861">
        <ele>239.9</ele>
        <time>2014-03-06T14:09:24Z</time>
      </trkpt>
      <trkpt lat="47.88458" lon="7.2685">
        <ele>240.7</ele>
        <time>2014-03-06T14:09:26Z</time>
      </trkpt>
      <trkpt lat="47.88454" lon="7.26838">
        <ele>241.8</ele>
        <time>2014-03-06T14:09:28Z</time>
      </trkpt>
      <trkpt lat="47.88451" lon="7.26825">
        <ele>241.7</ele>
        <time>2014-03-06T14:09:30Z</time>
      </trkpt>
      <trkpt lat="47.88446" lon="7.26813">
        <ele>241.2</ele>
        <time>2014-03-06T14:09:32Z</time>
      </trkpt>
      <trkpt lat="47.88443" lon="7.268">
        <ele>240.7</ele>
        <time>2014-03-06T14:09:34Z</time>
      </trkpt>
      <trkpt lat="47.88438" lon="7.26788">
        <ele>240.9</ele>
        <time>2014-03-06T14:09:36Z</time>
      </trkpt>
      <trkpt lat="47.88434" lon="7.26775">
        <ele>242.3</ele>
        <time>2014-03-06T14:09:38Z</time>
      </trkpt>
      <trkpt lat="47.88431" lon="7.26764">
        <ele>242.6</ele>
        <time>2014-03-06T14:09:40Z</time>
      </trkpt>
      <trkpt lat="47.88428" lon="7.26754">
        <ele>242.8</ele>
        <time>2014-03-06T14:09:42Z</time>
      </trkpt>
      <trkpt lat="47.88424" lon="7.26743">
        <ele>242.8</ele>
        <time>2014-03-06T14:09:44Z</time>
      </trkpt>
      <trkpt lat="47.88421" lon="7.26731">
        <ele>242.1</ele>
        <time>2014-03-06T14:09:46Z</time>
      </trkpt>
      <trkpt lat="47.88417" lon="7.26718">
        <ele>242.1</ele>
        <time>2014-03-06T14:09:48Z</time>
      </trkpt>
      <trkpt lat="47.88414" lon="7.26705">
        <ele>242.4</ele>
        <time>2014-03-06T14:09:50Z</time>
      </trkpt>
      <trkpt lat="47.88411" lon="7.26693">
        <ele>242.5</ele>
        <time>2014-03-06T14:09:52Z</time>
      </trkpt>
      <trkpt lat="47.88409" lon="7.2668">
        <ele>242.8</ele>
        <time>2014-03-06T14:09:54Z</time>
      </trkpt>
      <trkpt lat="47.88407" lon="7.26668">
        <ele>242.5</ele>
        <time>2014-03-06T14:09:56Z</time>
      </trkpt>
      <trkpt lat="47.88406" lon="7.26657">
        <ele>243.2</ele>
        <time>2014-03-06T14:09:58Z</time>
      </trkpt>
      <trkpt lat="47.88404" lon="7.26647">
        <ele>243</ele>
        <time>2014-03-06T14:10:00Z</time>
      </trkpt>
      <trkpt lat="47.88403" lon="7.26638">
        <ele>244.1</ele>
        <time>2014-03-06T14:10:02Z</time>
      </trkpt>
      <trkpt lat="47.88401" lon="7.26628">
        <ele>243.5</ele>
        <time>2014-03-06T14:10:04Z</time>
      </trkpt>
      <trkpt lat="47.884" lon="7.2662">
        <ele>244</ele>
        <time>2014-03-06T14:10:06Z</time>
      </trkpt>
      <trkpt lat="47.88399" lon="7.26612">
        <ele>244.8</ele>
        <time>2014-03-06T14:10:08Z</time>
      </trkpt>
      <trkpt lat="47.88398" lon="7.26604">
        <ele>245.9</ele>
        <time>2014-03-06T14:10:10Z</time>
      </trkpt>
      <trkpt lat="47.88396" lon="7.26595">
        <ele>246.1</ele>
        <time>2014-03-06T14:10:12Z</time>
      </trkpt>
      <trkpt lat="47.88395" lon="7.26587">
        <ele>245.9</ele>
        <time>2014-03-06T14:10:14Z</time>
      </trkpt>
      <trkpt lat="47.88393" lon="7.26578">
        <ele>246</ele>
        <time>2014-03-06T14:10:16Z</time>
      </trkpt>
      <trkpt lat="47.88392" lon="7.2657">
        <ele>246.6</ele>
        <time>2014-03-06T14:10:18Z</time>
      </trkpt>
      <trkpt lat="47.88391" lon="7.26562">
        <ele>246.9</ele>
        <time>2014-03-06T14:10:20Z</time>
      </trkpt>
      <trkpt lat="47.88389" lon="7.26554">
        <ele>247.6</ele>
        <time>2014-03-06T14:10:22Z</time>
      </trkpt>
      <trkpt lat="47.88388" lon="7.26546">
        <ele>248.2</ele>
        <time>2014-03-06T14:10:24Z</time>
      </trkpt>
      <trkpt lat="47.88387" lon="7.26538">
        <ele>248.4</ele>
        <time>2014-03-06T14:10:26Z</time>
      </trkpt>
      <trkpt lat="47.88385" lon="7.2653">
        <ele>248.4</ele>
        <time>2014-03-06T14:10:28Z</time>
      </trkpt>
      <trkpt lat="47.88384" lon="7.26522">
        <ele>249</ele>
        <time>2014-03-06T14:10:30Z</time>
      </trkpt>
      <trkpt lat="47.88383" lon="7.26514">
        <ele>249.2</ele>
        <time>2014-03-06T14:10:32Z</time>
      </trkpt>
      <trkpt lat="47.88382" lon="7.26507">
        <ele>248.6</ele>
        <time>2014-03-06T14:10:34Z</time>
      </trkpt>
      <trkpt lat="47.8838" lon="7.26499">
        <ele>248.7</ele>
        <time>2014-03-06T14:10:36Z</time>
      </trkpt>
      <trkpt lat="47.88379" lon="7.26491">
        <ele>249.4</ele>
        <time>2014-03-06T14:10:38Z</time>
      </trkpt>
      <trkpt lat="47.88378" lon="7.26483">
        <ele>250</ele>
        <time>2014-03-06T14:10:40Z</time>
      </trkpt>
      <trkpt lat="47.88377" lon="7.26476">
        <ele>250.9</ele>
        <time>2014-03-06T14:10:42Z</time>
      </trkpt>
      <trkpt lat="47.88376" lon="7.26468">
        <ele>251.4</ele>
        <time>2014-03-06T14:10:44Z</time>
      </trkpt>
      <trkpt lat="47.88374" lon="7.2646">
        <ele>250.3</ele>
        <time>2014-03-06T14:10:46Z</time>
      </trkpt>
      <trkpt lat="47.88373" lon="7.26451">
        <ele>251</ele>
        <time>2014-03-06T14:10:48Z</time>
      </trkpt>
      <trkpt lat="47.88372" lon="7.26443">
        <ele>251.3</ele>
        <time>2014-03-06T14:10:50Z</time>
      </trkpt>
      <trkpt lat="47.88371" lon="7.26437">
        <ele>251.7</ele>
        <time>2014-03-06T14:10:52Z</time>
      </trkpt>
      <trkpt lat="47.88369" lon="7.2643">
        <ele>251.5</ele>
        <time>2014-03-06T14:10:54Z</time>
      </trkpt>
      <trkpt lat="47.88368" lon="7.26423">
        <ele>251.7</ele>
        <time>2014-03-06T14:10:56Z</time>
      </trkpt>
      <trkpt lat="47.88367" lon="7.26415">
        <ele>251.5</ele>
        <time>2014-03-06T14:10:58Z</time>
      </trkpt>
      <trkpt lat="47.88366" lon="7.26405">
        <ele>251.7</ele>
        <time>2014-03-06T14:11:00Z</time>
      </trkpt>
      <trkpt lat="47.88364" lon="7.26395">
        <ele>252.2</ele>
        <time>2014-03-06T14:11:02Z</time>
      </trkpt>
      <trkpt lat="47.88363" lon="7.26385">
        <ele>252.1</ele>
        <time>2014-03-06T14:11:04Z</time>
      </trkpt>
      <trkpt lat="47.88361" lon="7.26375">
        <ele>251.6</ele>
        <time>2014-03-06T14:11:06Z</time>
      </trkpt>
      <trkpt lat="47.8836" lon="7.26364">
        <ele>250.1</ele>
        <time>2014-03-06T14:11:08Z</time>
      </trkpt>
      <trkpt lat="47.88358" lon="7.26353">
        <ele>249.3</ele>
        <time>2014-03-06T14:11:10Z</time>
      </trkpt>
      <trkpt lat="47.88356" lon="7.2634">
        <ele>249.8</ele>
        <time>2014-03-06T14:11:12Z</time>
      </trkpt>
      <trkpt lat="47.88353" lon="7.26327">
        <ele>248.6</ele>
        <time>2014-03-06T14:11:14Z</time>
      </trkpt>
      <trkpt lat="47.88351" lon="7.26311">
        <ele>248.6</ele>
        <time>2014-03-06T14:11:16Z</time>
      </trkpt>
      <trkpt lat="47.88348" lon="7.26294">
        <ele>248.9</ele>
        <time>2014-03-06T14:11:18Z</time>
      </trkpt>
      <trkpt lat="47.88345" lon="7.26276">
        <ele>248.4</ele>
        <time>2014-03-06T14:11:20Z</time>
      </trkpt>
      <trkpt lat="47.88343" lon="7.26257">
        <ele>247</ele>
        <time>2014-03-06T14:11:22Z</time>
      </trkpt>
      <trkpt lat="47.88339" lon="7.26238">
        <ele>245.9</ele>
        <time>2014-03-06T14:11:24Z</time>
      </trkpt>
      <trkpt lat="47.88337" lon="7.26219">
        <ele>245.8</ele>
        <time>2014-03-06T14:11:26Z</time>
      </trkpt>
      <trkpt lat="47.88334" lon="7.26201">
        <ele>246</ele>
        <time>2014-03-06T14:11:28Z</time>
      </trkpt>
      <trkpt lat="47.88332" lon="7.26184">
        <ele>245.5</ele>
        <time>2014-03-06T14:11:30Z</time>
      </trkpt>
      <trkpt lat="47.88331" lon="7.26169">
        <ele>245.7</ele>
        <time>2014-03-06T14:11:32Z</time>
      </trkpt>
      <trkpt lat="47.88329" lon="7.26155">
        <ele>246</ele>
        <time>2014-03-06T14:11:34Z</time>
      </trkpt>
      <trkpt lat="47.88327" lon="7.26142">
        <ele>246.2</ele>
        <time>2014-03-06T14:11:36Z</time>
      </trkpt>
      <trkpt lat="47.88325" lon="7.2613">
        <ele>245.7</ele>
        <time>2014-03-06T14:11:38Z</time>
      </trkpt>
      <trkpt lat="47.88323" lon="7.26118">
        <ele>246.2</ele>
        <time>2014-03-06T14:11:40Z</time>
      </trkpt>
      <trkpt lat="47.88321" lon="7.26105">
        <ele>246.4</ele>
        <time>2014-03-06T14:11:42Z</time>
      </trkpt>
      <trkpt lat="47.88319" lon="7.26092">
        <ele>246.8</ele>
        <time>2014-03-06T14:11:44Z</time>
      </trkpt>
      <trkpt lat="47.88317" lon="7.26079">
        <ele>246.2</ele>
        <time>2014-03-06T14:11:46Z</time>
      </trkpt>
      <trkpt lat="47.88315" lon="7.26066">
        <ele>247.3</ele>
        <time>2014-03-06T14:11:48Z</time>
      </trkpt>
      <trkpt lat="47.88313" lon="7.26052">
        <ele>247.1</ele>
        <time>2014-03-06T14:11:50Z</time>
      </trkpt>
      <trkpt lat="47.88311" lon="7.26039">
        <ele>247.4</ele>
        <time>2014-03-06T14:11:52Z</time>
      </trkpt>
      <trkpt lat="47.88308" lon="7.26026">
        <ele>247</ele>
        <time>2014-03-06T14:11:54Z</time>
      </trkpt>
      <trkpt lat="47.88306" lon="7.26014">
        <ele>246.9</ele>
        <time>2014-03-06T14:11:56Z</time>
      </trkpt>
      <trkpt lat="47.88305" lon="7.26001">
        <ele>246.9</ele>
        <time>2014-03-06T14:11:58Z</time>
      </trkpt>
      <trkpt lat="47.88303" lon="7.25987">
        <ele>247.3</ele>
        <time>2014-03-06T14:12:00Z</time>
      </trkpt>
      <trkpt lat="47.88302" lon="7.25974">
        <ele>247.8</ele>
        <time>2014-03-06T14:12:02Z</time>
      </trkpt>
      <trkpt lat="47.883" lon="7.25961">
        <ele>247.9</ele>
        <time>2014-03-06T14:12:04Z</time>
      </trkpt>
      <trkpt lat="47.88298" lon="7.25948">
        <ele>247.5</ele>
        <time>2014-03-06T14:12:06Z</time>
      </trkpt>
      <trkpt lat="47.88297" lon="7.25935">
        <ele>248.1</ele>
        <time>2014-03-06T14:12:08Z</time>
      </trkpt>
      <trkpt lat="47.88295" lon="7.25922">
        <ele>247.5</ele>
        <time>2014-03-06T14:12:10Z</time>
      </trkpt>
      <trkpt lat="47.88294" lon="7.25909">
        <ele>247.2</ele>
        <time>2014-03-06T14:12:12Z</time>
      </trkpt>
      <trkpt lat="47.88292" lon="7.25895">
        <ele>246.9</ele>
        <time>2014-03-06T14:12:14Z</time>
      </trkpt>
      <trkpt lat="47.8829" lon="7.25881">
        <ele>247.9</ele>
        <time>2014-03-06T14:12:16Z</time>
      </trkpt>
      <trkpt lat="47.88289" lon="7.25867">
        <ele>248.7</ele>
        <time>2014-03-06T14:12:18Z</time>
      </trkpt>
      <trkpt lat="47.88287" lon="7.25855">
        <ele>249.2</ele>
        <time>2014-03-06T14:12:20Z</time>
      </trkpt>
      <trkpt lat="47.88286" lon="7.25844">
        <ele>248.6</ele>
        <time>2014-03-06T14:12:22Z</time>
      </trkpt>
      <trkpt lat="47.88285" lon="7.25833">
        <ele>248.9</ele>
        <time>2014-03-06T14:12:24Z</time>
      </trkpt>
      <trkpt lat="47.88283" lon="7.25821">
        <ele>249.2</ele>
        <time>2014-03-06T14:12:26Z</time>
      </trkpt>
      <trkpt lat="47.88281" lon="7.25808">
        <ele>249</ele>
        <time>2014-03-06T14:12:28Z</time>
      </trkpt>
      <trkpt lat="47.8828" lon="7.25796">
        <ele>248.8</ele>
        <time>2014-03-06T14:12:30Z</time>
      </trkpt>
      <trkpt lat="47.88279" lon="7.25783">
        <ele>249.1</ele>
        <time>2014-03-06T14:12:32Z</time>
      </trkpt>
      <trkpt lat="47.88277" lon="7.25771">
        <ele>249.6</ele>
        <time>2014-03-06T14:12:34Z</time>
      </trkpt>
      <trkpt lat="47.88275" lon="7.25757">
        <ele>249.7</ele>
        <time>2014-03-06T14:12:36Z</time>
      </trkpt>
      <trkpt lat="47.88273" lon="7.25744">
        <ele>249.4</ele>
        <time>2014-03-06T14:12:38Z</time>
      </trkpt>
      <trkpt lat="47.88272" lon="7.25732">
        <ele>249</ele>
        <time>2014-03-06T14:12:40Z</time>
      </trkpt>
      <trkpt lat="47.8827" lon="7.25719">
        <ele>250.1</ele>
        <time>2014-03-06T14:12:42Z</time>
      </trkpt>
      <trkpt lat="47.88268" lon="7.25705">
        <ele>250.1</ele>
        <time>2014-03-06T14:12:44Z</time>
      </trkpt>
      <trkpt lat="47.88266" lon="7.25692">
        <ele>250</ele>
        <time>2014-03-06T14:12:46Z</time>
      </trkpt>
      <trkpt lat="47.88265" lon="7.25678">
        <ele>249.6</ele>
        <time>2014-03-06T14:12:48Z</time>
      </trkpt>
      <trkpt lat="47.88263" lon="7.25665">
        <ele>249.6</ele>
        <time>2014-03-06T14:12:50Z</time>
      </trkpt>
      <trkpt lat="47.88261" lon="7.25654">
        <ele>250.4</ele>
        <time>2014-03-06T14:12:52Z</time>
      </trkpt>
      <trkpt lat="47.88258" lon="7.25644">
        <ele>249.4</ele>
        <time>2014-03-06T14:12:54Z</time>
      </trkpt>
      <trkpt lat="47.88253" lon="7.25636">
        <ele>249.1</ele>
        <time>2014-03-06T14:12:56Z</time>
      </trkpt>
      <trkpt lat="47.88246" lon="7.2563">
        <ele>249.6</ele>
        <time>2014-03-06T14:12:58Z</time>
      </trkpt>
      <trkpt lat="47.88242" lon="7.25621">
        <ele>250.1</ele>
        <time>2014-03-06T14:13:00Z</time>
      </trkpt>
      <trkpt lat="47.8824" lon="7.25612">
        <ele>248.9</ele>
        <time>2014-03-06T14:13:02Z</time>
      </trkpt>
      <trkpt lat="47.88238" lon="7.25602">
        <ele>249.6</ele>
        <time>2014-03-06T14:13:04Z</time>
      </trkpt>
      <trkpt lat="47.88237" lon="7.25591">
        <ele>249.1</ele>
        <time>2014-03-06T14:13:06Z</time>
      </trkpt>
      <trkpt lat="47.88237" lon="7.2558">
        <ele>250</ele>
        <time>2014-03-06T14:13:08Z</time>
      </trkpt>
      <trkpt lat="47.88236" lon="7.25569">
        <ele>248.9</ele>
        <time>2014-03-06T14:13:10Z</time>
      </trkpt>
      <trkpt lat="47.88235" lon="7.25559">
        <ele>250.2</ele>
        <time>2014-03-06T14:13:12Z</time>
      </trkpt>
      <trkpt lat="47.88234" lon="7.25551">
        <ele>250.5</ele>
        <time>2014-03-06T14:13:14Z</time>
      </trkpt>
      <trkpt lat="47.88232" lon="7.25542">
        <ele>250.7</ele>
        <time>2014-03-06T14:13:16Z</time>
      </trkpt>
      <trkpt lat="47.88232" lon="7.25534">
        <ele>250.6</ele>
        <time>2014-03-06T14:13:18Z</time>
      </trkpt>
      <trkpt lat="47.88232" lon="7.25525">
        <ele>250.8</ele>
        <time>2014-03-06T14:13:20Z</time>
      </trkpt>
      <trkpt lat="47.88231" lon="7.25515">
        <ele>250</ele>
        <time>2014-03-06T14:13:22Z</time>
      </trkpt>
      <trkpt lat="47.88231" lon="7.25505">
        <ele>250</ele>
        <time>2014-03-06T14:13:24Z</time>
      </trkpt>
      <trkpt lat="47.8823" lon="7.25486">
        <ele>250.1</ele>
        <time>2014-03-06T14:13:28Z</time>
      </trkpt>
      <trkpt lat="47.88229" lon="7.25476">
        <ele>250.6</ele>
        <time>2014-03-06T14:13:30Z</time>
      </trkpt>
      <trkpt lat="47.88228" lon="7.25466">
        <ele>250.8</ele>
        <time>2014-03-06T14:13:32Z</time>
      </trkpt>
      <trkpt lat="47.88228" lon="7.25459">
        <ele>250.7</ele>
        <time>2014-03-06T14:13:34Z</time>
      </trkpt>
      <trkpt lat="47.88227" lon="7.25451">
        <ele>251.5</ele>
        <time>2014-03-06T14:13:36Z</time>
      </trkpt>
      <trkpt lat="47.88226" lon="7.25444">
        <ele>251.5</ele>
        <time>2014-03-06T14:13:38Z</time>
      </trkpt>
      <trkpt lat="47.88229" lon="7.25434">
        <ele>251.4</ele>
        <time>2014-03-06T14:24:12Z</time>
      </trkpt>
      <trkpt lat="47.88229" lon="7.25432">
        <ele>251.3</ele>
        <time>2014-03-06T14:24:33Z</time>
      </trkpt>
      <trkpt lat="47.88228" lon="7.25427">
        <ele>251.5</ele>
        <time>2014-03-06T14:24:35Z</time>
      </trkpt>
      <trkpt lat="47.88228" lon="7.2542">
        <ele>251.1</ele>
        <time>2014-03-06T14:24:37Z</time>
      </trkpt>
      <trkpt lat="47.88226" lon="7.25413">
        <ele>250.7</ele>
        <time>2014-03-06T14:24:39Z</time>
      </trkpt>
      <trkpt lat="47.88226" lon="7.25406">
        <ele>250.4</ele>
        <time>2014-03-06T14:24:41Z</time>
      </trkpt>
      <trkpt lat="47.88224" lon="7.25397">
        <ele>249.8</ele>
        <time>2014-03-06T14:24:43Z</time>
      </trkpt>
      <trkpt lat="47.88223" lon="7.25389">
        <ele>250.5</ele>
        <time>2014-03-06T14:24:45Z</time>
      </trkpt>
      <trkpt lat="47.8822" lon="7.2538">
        <ele>251.6</ele>
        <time>2014-03-06T14:24:47Z</time>
      </trkpt>
      <trkpt lat="47.88217" lon="7.25372">
        <ele>251.4</ele>
        <time>2014-03-06T14:24:49Z</time>
      </trkpt>
      <trkpt lat="47.88214" lon="7.25363">
        <ele>250.9</ele>
        <time>2014-03-06T14:24:51Z</time>
      </trkpt>
      <trkpt lat="47.8821" lon="7.25354">
        <ele>251.4</ele>
        <time>2014-03-06T14:24:53Z</time>
      </trkpt>
      <trkpt lat="47.88207" lon="7.25344">
        <ele>251</ele>
        <time>2014-03-06T14:24:55Z</time>
      </trkpt>
      <trkpt lat="47.88204" lon="7.25334">
        <ele>251</ele>
        <time>2014-03-06T14:24:57Z</time>
      </trkpt>
      <trkpt lat="47.882" lon="7.25323">
        <ele>251.2</ele>
        <time>2014-03-06T14:24:59Z</time>
      </trkpt>
      <trkpt lat="47.88197" lon="7.25313">
        <ele>251.7</ele>
        <time>2014-03-06T14:25:01Z</time>
      </trkpt>
      <trkpt lat="47.88193" lon="7.25303">
        <ele>250.8</ele>
        <time>2014-03-06T14:25:03Z</time>
      </trkpt>
      <trkpt lat="47.88189" lon="7.25293">
        <ele>251.1</ele>
        <time>2014-03-06T14:25:05Z</time>
      </trkpt>
      <trkpt lat="47.88184" lon="7.25283">
        <ele>251.3</ele>
        <time>2014-03-06T14:25:07Z</time>
      </trkpt>
      <trkpt lat="47.88178" lon="7.25275">
        <ele>250.7</ele>
        <time>2014-03-06T14:25:09Z</time>
      </trkpt>
      <trkpt lat="47.88171" lon="7.25268">
        <ele>251</ele>
        <time>2014-03-06T14:25:11Z</time>
      </trkpt>
      <trkpt lat="47.88163" lon="7.25262">
        <ele>251.5</ele>
        <time>2014-03-06T14:25:13Z</time>
      </trkpt>
      <trkpt lat="47.88156" lon="7.25256">
        <ele>252.3</ele>
        <time>2014-03-06T14:25:15Z</time>
      </trkpt>
      <trkpt lat="47.88148" lon="7.2525">
        <ele>252.1</ele>
        <time>2014-03-06T14:25:17Z</time>
      </trkpt>
      <trkpt lat="47.8814" lon="7.25244">
        <ele>252</ele>
        <time>2014-03-06T14:25:19Z</time>
      </trkpt>
      <trkpt lat="47.88132" lon="7.25238">
        <ele>251.8</ele>
        <time>2014-03-06T14:25:21Z</time>
      </trkpt>
      <trkpt lat="47.88123" lon="7.25232">
        <ele>252.5</ele>
        <time>2014-03-06T14:25:23Z</time>
      </trkpt>
      <trkpt lat="47.88115" lon="7.25226">
        <ele>252</ele>
        <time>2014-03-06T14:25:25Z</time>
      </trkpt>
      <trkpt lat="47.88106" lon="7.25219">
        <ele>250.6</ele>
        <time>2014-03-06T14:25:27Z</time>
      </trkpt>
      <trkpt lat="47.88097" lon="7.25212">
        <ele>251.3</ele>
        <time>2014-03-06T14:25:29Z</time>
      </trkpt>
      <trkpt lat="47.88089" lon="7.25205">
        <ele>251.3</ele>
        <time>2014-03-06T14:25:31Z</time>
      </trkpt>
      <trkpt lat="47.8808" lon="7.25199">
        <ele>252.1</ele>
        <time>2014-03-06T14:25:33Z</time>
      </trkpt>
      <trkpt lat="47.88071" lon="7.25193">
        <ele>253</ele>
        <time>2014-03-06T14:25:35Z</time>
      </trkpt>
      <trkpt lat="47.88062" lon="7.25188">
        <ele>252.2</ele>
        <time>2014-03-06T14:25:37Z</time>
      </trkpt>
      <trkpt lat="47.88053" lon="7.25182">
        <ele>252.5</ele>
        <time>2014-03-06T14:25:39Z</time>
      </trkpt>
      <trkpt lat="47.88044" lon="7.25176">
        <ele>253.1</ele>
        <time>2014-03-06T14:25:41Z</time>
      </trkpt>
      <trkpt lat="47.88035" lon="7.25171">
        <ele>252.5</ele>
        <time>2014-03-06T14:25:43Z</time>
      </trkpt>
      <trkpt lat="47.88026" lon="7.25166">
        <ele>252.3</ele>
        <time>2014-03-06T14:25:45Z</time>
      </trkpt>
      <trkpt lat="47.88017" lon="7.2516">
        <ele>251.2</ele>
        <time>2014-03-06T14:25:47Z</time>
      </trkpt>
      <trkpt lat="47.88007" lon="7.25154">
        <ele>251.3</ele>
        <time>2014-03-06T14:25:49Z</time>
      </trkpt>
      <trkpt lat="47.87998" lon="7.25148">
        <ele>252.1</ele>
        <time>2014-03-06T14:25:51Z</time>
      </trkpt>
      <trkpt lat="47.87988" lon="7.25143">
        <ele>251.9</ele>
        <time>2014-03-06T14:25:53Z</time>
      </trkpt>
      <trkpt lat="47.87978" lon="7.25137">
        <ele>252.4</ele>
        <time>2014-03-06T14:25:55Z</time>
      </trkpt>
      <trkpt lat="47.87968" lon="7.25131">
        <ele>252.5</ele>
        <time>2014-03-06T14:25:57Z</time>
      </trkpt>
      <trkpt lat="47.87958" lon="7.25126">
        <ele>251.3</ele>
        <time>2014-03-06T14:25:59Z</time>
      </trkpt>
      <trkpt lat="47.87948" lon="7.25121">
        <ele>251.1</ele>
        <time>2014-03-06T14:26:01Z</time>
      </trkpt>
      <trkpt lat="47.87938" lon="7.25117">
        <ele>251.2</ele>
        <time>2014-03-06T14:26:03Z</time>
      </trkpt>
      <trkpt lat="47.87928" lon="7.25112">
        <ele>250.4</ele>
        <time>2014-03-06T14:26:05Z</time>
      </trkpt>
      <trkpt lat="47.87917" lon="7.25106">
        <ele>252.1</ele>
        <time>2014-03-06T14:26:07Z</time>
      </trkpt>
      <trkpt lat="47.87908" lon="7.25099">
        <ele>252.4</ele>
        <time>2014-03-06T14:26:09Z</time>
      </trkpt>
      <trkpt lat="47.87899" lon="7.25093">
        <ele>251.8</ele>
        <time>2014-03-06T14:26:11Z</time>
      </trkpt>
      <trkpt lat="47.87889" lon="7.25087">
        <ele>251.1</ele>
        <time>2014-03-06T14:26:13Z</time>
      </trkpt>
      <trkpt lat="47.87879" lon="7.25081">
        <ele>251.4</ele>
        <time>2014-03-06T14:26:15Z</time>
      </trkpt>
      <trkpt lat="47.8787" lon="7.25076">
        <ele>250.8</ele>
        <time>2014-03-06T14:26:17Z</time>
      </trkpt>
      <trkpt lat="47.87859" lon="7.2507">
        <ele>251.7</ele>
        <time>2014-03-06T14:26:19Z</time>
      </trkpt>
      <trkpt lat="47.87849" lon="7.25065">
        <ele>251.1</ele>
        <time>2014-03-06T14:26:21Z</time>
      </trkpt>
      <trkpt lat="47.8784" lon="7.25059">
        <ele>252.1</ele>
        <time>2014-03-06T14:26:23Z</time>
      </trkpt>
      <trkpt lat="47.87829" lon="7.25054">
        <ele>251.6</ele>
        <time>2014-03-06T14:26:25Z</time>
      </trkpt>
      <trkpt lat="47.8782" lon="7.25049">
        <ele>251.9</ele>
        <time>2014-03-06T14:26:27Z</time>
      </trkpt>
      <trkpt lat="47.8781" lon="7.25043">
        <ele>252.9</ele>
        <time>2014-03-06T14:26:29Z</time>
      </trkpt>
      <trkpt lat="47.878" lon="7.25037">
        <ele>252</ele>
        <time>2014-03-06T14:26:31Z</time>
      </trkpt>
      <trkpt lat="47.87789" lon="7.25032">
        <ele>251.9</ele>
        <time>2014-03-06T14:26:33Z</time>
      </trkpt>
      <trkpt lat="47.87779" lon="7.25026">
        <ele>251.2</ele>
        <time>2014-03-06T14:26:35Z</time>
      </trkpt>
      <trkpt lat="47.87769" lon="7.2502">
        <ele>251</ele>
        <time>2014-03-06T14:26:37Z</time>
      </trkpt>
      <trkpt lat="47.87759" lon="7.25014">
        <ele>251.2</ele>
        <time>2014-03-06T14:26:39Z</time>
      </trkpt>
      <trkpt lat="47.87749" lon="7.25009">
        <ele>252.1</ele>
        <time>2014-03-06T14:26:41Z</time>
      </trkpt>
      <trkpt lat="47.87739" lon="7.25003">
        <ele>252.5</ele>
        <time>2014-03-06T14:26:43Z</time>
      </trkpt>
      <trkpt lat="47.8773" lon="7.24998">
        <ele>253.2</ele>
        <time>2014-03-06T14:26:45Z</time>
      </trkpt>
      <trkpt lat="47.87721" lon="7.24993">
        <ele>253.4</ele>
        <time>2014-03-06T14:26:47Z</time>
      </trkpt>
      <trkpt lat="47.87712" lon="7.24988">
        <ele>253.4</ele>
        <time>2014-03-06T14:26:49Z</time>
      </trkpt>
      <trkpt lat="47.87702" lon="7.24983">
        <ele>252.8</ele>
        <time>2014-03-06T14:26:51Z</time>
      </trkpt>
      <trkpt lat="47.87693" lon="7.24977">
        <ele>253.3</ele>
        <time>2014-03-06T14:26:53Z</time>
      </trkpt>
      <trkpt lat="47.87682" lon="7.24972">
        <ele>253.6</ele>
        <time>2014-03-06T14:26:55Z</time>
      </trkpt>
      <trkpt lat="47.87672" lon="7.24966">
        <ele>254.1</ele>
        <time>2014-03-06T14:26:57Z</time>
      </trkpt>
      <trkpt lat="47.87663" lon="7.2496">
        <ele>253.4</ele>
        <time>2014-03-06T14:26:59Z</time>
      </trkpt>
      <trkpt lat="47.87653" lon="7.24955">
        <ele>253.5</ele>
        <time>2014-03-06T14:27:01Z</time>
      </trkpt>
      <trkpt lat="47.87643" lon="7.24949">
        <ele>252.9</ele>
        <time>2014-03-06T14:27:03Z</time>
      </trkpt>
      <trkpt lat="47.87633" lon="7.24944">
        <ele>253</ele>
        <time>2014-03-06T14:27:05Z</time>
      </trkpt>
      <trkpt lat="47.87623" lon="7.24939">
        <ele>252.3</ele>
        <time>2014-03-06T14:27:07Z</time>
      </trkpt>
      <trkpt lat="47.87612" lon="7.24934">
        <ele>251</ele>
        <time>2014-03-06T14:27:09Z</time>
      </trkpt>
      <trkpt lat="47.87601" lon="7.24929">
        <ele>253</ele>
        <time>2014-03-06T14:27:11Z</time>
      </trkpt>
      <trkpt lat="47.8759" lon="7.24924">
        <ele>252.6</ele>
        <time>2014-03-06T14:27:13Z</time>
      </trkpt>
      <trkpt lat="47.87579" lon="7.24919">
        <ele>253.3</ele>
        <time>2014-03-06T14:27:15Z</time>
      </trkpt>
      <trkpt lat="47.87568" lon="7.24914">
        <ele>252.8</ele>
        <time>2014-03-06T14:27:17Z</time>
      </trkpt>
      <trkpt lat="47.87558" lon="7.24909">
        <ele>253.8</ele>
        <time>2014-03-06T14:27:19Z</time>
      </trkpt>
      <trkpt lat="47.87547" lon="7.24903">
        <ele>253.9</ele>
        <time>2014-03-06T14:27:21Z</time>
      </trkpt>
      <trkpt lat="47.87537" lon="7.24897">
        <ele>253.1</ele>
        <time>2014-03-06T14:27:23Z</time>
      </trkpt>
      <trkpt lat="47.87527" lon="7.24891">
        <ele>254.3</ele>
        <time>2014-03-06T14:27:25Z</time>
      </trkpt>
      <trkpt lat="47.87516" lon="7.24886">
        <ele>253.1</ele>
        <time>2014-03-06T14:27:27Z</time>
      </trkpt>
      <trkpt lat="47.87507" lon="7.2488">
        <ele>253.2</ele>
        <time>2014-03-06T14:27:29Z</time>
      </trkpt>
      <trkpt lat="47.87496" lon="7.24875">
        <ele>252.9</ele>
        <time>2014-03-06T14:27:31Z</time>
      </trkpt>
      <trkpt lat="47.87486" lon="7.24869">
        <ele>252.9</ele>
        <time>2014-03-06T14:27:33Z</time>
      </trkpt>
      <trkpt lat="47.87476" lon="7.24863">
        <ele>251.8</ele>
        <time>2014-03-06T14:27:35Z</time>
      </trkpt>
      <trkpt lat="47.87467" lon="7.24858">
        <ele>252.1</ele>
        <time>2014-03-06T14:27:37Z</time>
      </trkpt>
      <trkpt lat="47.87457" lon="7.24852">
        <ele>252.7</ele>
        <time>2014-03-06T14:27:39Z</time>
      </trkpt>
      <trkpt lat="47.87447" lon="7.24846">
        <ele>253.1</ele>
        <time>2014-03-06T14:27:41Z</time>
      </trkpt>
      <trkpt lat="47.87438" lon="7.24841">
        <ele>253.2</ele>
        <time>2014-03-06T14:27:43Z</time>
      </trkpt>
      <trkpt lat="47.87428" lon="7.24835">
        <ele>253.3</ele>
        <time>2014-03-06T14:27:45Z</time>
      </trkpt>
      <trkpt lat="47.8742" lon="7.24829">
        <ele>253.3</ele>
        <time>2014-03-06T14:27:47Z</time>
      </trkpt>
      <trkpt lat="47.87411" lon="7.24823">
        <ele>253.2</ele>
        <time>2014-03-06T14:27:49Z</time>
      </trkpt>
      <trkpt lat="47.87403" lon="7.24818">
        <ele>253.4</ele>
        <time>2014-03-06T14:27:51Z</time>
      </trkpt>
      <trkpt lat="47.87394" lon="7.24813">
        <ele>252.7</ele>
        <time>2014-03-06T14:27:53Z</time>
      </trkpt>
      <trkpt lat="47.87387" lon="7.24809">
        <ele>253.2</ele>
        <time>2014-03-06T14:27:55Z</time>
      </trkpt>
      <trkpt lat="47.87379" lon="7.24805">
        <ele>253.3</ele>
        <time>2014-03-06T14:27:57Z</time>
      </trkpt>
      <trkpt lat="47.87371" lon="7.24802">
        <ele>253.7</ele>
        <time>2014-03-06T14:27:59Z</time>
      </trkpt>
      <trkpt lat="47.87363" lon="7.24801">
        <ele>253.8</ele>
        <time>2014-03-06T14:28:01Z</time>
      </trkpt>
      <trkpt lat="47.87356" lon="7.24802">
        <ele>253.5</ele>
        <time>2014-03-06T14:28:03Z</time>
      </trkpt>
      <trkpt lat="47.87351" lon="7.24804">
        <ele>253.5</ele>
        <time>2014-03-06T14:28:05Z</time>
      </trkpt>
      <trkpt lat="47.87347" lon="7.24805">
        <ele>254.4</ele>
        <time>2014-03-06T14:28:07Z</time>
      </trkpt>
      <trkpt lat="47.87343" lon="7.24807">
        <ele>254.3</ele>
        <time>2014-03-06T14:28:09Z</time>
      </trkpt>
      <trkpt lat="47.87339" lon="7.24809">
        <ele>253.9</ele>
        <time>2014-03-06T14:28:11Z</time>
      </trkpt>
      <trkpt lat="47.87336" lon="7.2481">
        <ele>254.2</ele>
        <time>2014-03-06T14:28:13Z</time>
      </trkpt>
      <trkpt lat="47.87333" lon="7.24812">
        <ele>253.7</ele>
        <time>2014-03-06T14:28:15Z</time>
      </trkpt>
      <trkpt lat="47.8733" lon="7.24814">
        <ele>254.2</ele>
        <time>2014-03-06T14:28:17Z</time>
      </trkpt>
      <trkpt lat="47.87326" lon="7.24817">
        <ele>253.7</ele>
        <time>2014-03-06T14:28:19Z</time>
      </trkpt>
      <trkpt lat="47.8732" lon="7.24818">
        <ele>253.7</ele>
        <time>2014-03-06T14:28:21Z</time>
      </trkpt>
      <trkpt lat="47.87317" lon="7.24819">
        <ele>253.3</ele>
        <time>2014-03-06T14:28:23Z</time>
      </trkpt>
      <trkpt lat="47.87316" lon="7.24816">
        <ele>253.8</ele>
        <time>2014-03-06T14:28:25Z</time>
      </trkpt>
      <trkpt lat="47.87318" lon="7.24813">
        <ele>253.8</ele>
        <time>2014-03-06T14:28:27Z</time>
      </trkpt>
      <trkpt lat="47.87323" lon="7.24811">
        <ele>253.8</ele>
        <time>2014-03-06T14:28:29Z</time>
      </trkpt>
      <trkpt lat="47.87327" lon="7.24808">
        <ele>253.9</ele>
        <time>2014-03-06T14:28:31Z</time>
      </trkpt>
      <trkpt lat="47.87332" lon="7.24806">
        <ele>253.9</ele>
        <time>2014-03-06T14:28:33Z</time>
      </trkpt>
      <trkpt lat="47.87338" lon="7.24804">
        <ele>254.2</ele>
        <time>2014-03-06T14:28:35Z</time>
      </trkpt>
      <trkpt lat="47.87342" lon="7.24801">
        <ele>254.9</ele>
        <time>2014-03-06T14:28:37Z</time>
      </trkpt>
      <trkpt lat="47.87346" lon="7.248">
        <ele>255.3</ele>
        <time>2014-03-06T14:28:39Z</time>
      </trkpt>
      <trkpt lat="47.87349" lon="7.24796">
        <ele>255.1</ele>
        <time>2014-03-06T14:28:41Z</time>
      </trkpt>
      <trkpt lat="47.87343" lon="7.24792">
        <ele>256.3</ele>
        <time>2014-03-06T14:32:10Z</time>
      </trkpt>
      <trkpt lat="47.87342" lon="7.24788">
        <ele>255.9</ele>
        <time>2014-03-06T14:32:12Z</time>
      </trkpt>
      <trkpt lat="47.87343" lon="7.24773">
        <ele>255.4</ele>
        <time>2014-03-06T14:32:16Z</time>
      </trkpt>
      <trkpt lat="47.87345" lon="7.24766">
        <ele>255.5</ele>
        <time>2014-03-06T14:32:18Z</time>
      </trkpt>
      <trkpt lat="47.87347" lon="7.24761">
        <ele>255.6</ele>
        <time>2014-03-06T14:32:20Z</time>
      </trkpt>
      <trkpt lat="47.87348" lon="7.24758">
        <ele>255.9</ele>
        <time>2014-03-06T14:32:22Z</time>
      </trkpt>
      <trkpt lat="47.87348" lon="7.24756">
        <ele>256.5</ele>
        <time>2014-03-06T14:32:27Z</time>
      </trkpt>
      <trkpt lat="47.87353" lon="7.24748">
        <ele>256.7</ele>
        <time>2014-03-06T14:33:50Z</time>
      </trkpt>
      <trkpt lat="47.87351" lon="7.24746">
        <ele>256.8</ele>
        <time>2014-03-06T14:38:57Z</time>
      </trkpt>
      <trkpt lat="47.87351" lon="7.24747">
        <ele>256.8</ele>
        <time>2014-03-06T14:38:59Z</time>
      </trkpt>
      <trkpt lat="47.8735" lon="7.24748">
        <ele>256.9</ele>
        <time>2014-03-06T14:39:01Z</time>
      </trkpt>
      <trkpt lat="47.87362" lon="7.24735">
        <ele>257.4</ele>
        <time>2014-03-06T14:48:21Z</time>
      </trkpt>
      <trkpt lat="47.87365" lon="7.24732">
        <ele>257.8</ele>
        <time>2014-03-06T14:48:23Z</time>
      </trkpt>
      <trkpt lat="47.87368" lon="7.24726">
        <ele>256.7</ele>
        <time>2014-03-06T14:48:25Z</time>
      </trkpt>
      <trkpt lat="47.87366" lon="7.24718">
        <ele>256.5</ele>
        <time>2014-03-06T14:48:27Z</time>
      </trkpt>
      <trkpt lat="47.87363" lon="7.24709">
        <ele>256.3</ele>
        <time>2014-03-06T14:48:29Z</time>
      </trkpt>
      <trkpt lat="47.87361" lon="7.247">
        <ele>255.8</ele>
        <time>2014-03-06T14:48:31Z</time>
      </trkpt>
      <trkpt lat="47.87363" lon="7.24688">
        <ele>256.2</ele>
        <time>2014-03-06T14:48:33Z</time>
      </trkpt>
      <trkpt lat="47.87365" lon="7.24677">
        <ele>255.5</ele>
        <time>2014-03-06T14:48:35Z</time>
      </trkpt>
      <trkpt lat="47.87368" lon="7.24667">
        <ele>255.2</ele>
        <time>2014-03-06T14:48:37Z</time>
      </trkpt>
      <trkpt lat="47.87373" lon="7.24659">
        <ele>255.3</ele>
        <time>2014-03-06T14:48:39Z</time>
      </trkpt>
      <trkpt lat="47.8738" lon="7.24652">
        <ele>254.8</ele>
        <time>2014-03-06T14:48:41Z</time>
      </trkpt>
      <trkpt lat="47.87385" lon="7.24644">
        <ele>255.8</ele>
        <time>2014-03-06T14:48:43Z</time>
      </trkpt>
      <trkpt lat="47.87388" lon="7.24633">
        <ele>255.1</ele>
        <time>2014-03-06T14:48:45Z</time>
      </trkpt>
      <trkpt lat="47.87387" lon="7.24625">
        <ele>256</ele>
        <time>2014-03-06T14:48:47Z</time>
      </trkpt>
      <trkpt lat="47.87385" lon="7.24621">
        <ele>256.5</ele>
        <time>2014-03-06T14:48:49Z</time>
      </trkpt>
      <trkpt lat="47.87384" lon="7.2462">
        <ele>256.1</ele>
        <time>2014-03-06T14:48:53Z</time>
      </trkpt>
      <trkpt lat="47.87383" lon="7.24617">
        <ele>256.7</ele>
        <time>2014-03-06T14:48:55Z</time>
      </trkpt>
      <trkpt lat="47.8738" lon="7.24613">
        <ele>256.8</ele>
        <time>2014-03-06T14:48:57Z</time>
      </trkpt>
      <trkpt lat="47.87377" lon="7.24608">
        <ele>256.6</ele>
        <time>2014-03-06T14:48:58Z</time>
      </trkpt>
      <trkpt lat="47.87372" lon="7.24602">
        <ele>256.6</ele>
        <time>2014-03-06T14:49:01Z</time>
      </trkpt>
      <trkpt lat="47.87366" lon="7.24597">
        <ele>255.4</ele>
        <time>2014-03-06T14:49:03Z</time>
      </trkpt>
      <trkpt lat="47.87358" lon="7.246">
        <ele>256.9</ele>
        <time>2014-03-06T14:49:05Z</time>
      </trkpt>
      <trkpt lat="47.87351" lon="7.24608">
        <ele>256.3</ele>
        <time>2014-03-06T14:49:07Z</time>
      </trkpt>
      <trkpt lat="47.87342" lon="7.24616">
        <ele>256.6</ele>
        <time>2014-03-06T14:49:09Z</time>
      </trkpt>
      <trkpt lat="47.87333" lon="7.24622">
        <ele>255.8</ele>
        <time>2014-03-06T14:49:11Z</time>
      </trkpt>
      <trkpt lat="47.87323" lon="7.24625">
        <ele>256.1</ele>
        <time>2014-03-06T14:49:13Z</time>
      </trkpt>
      <trkpt lat="47.87312" lon="7.24626">
        <ele>256.2</ele>
        <time>2014-03-06T14:49:15Z</time>
      </trkpt>
      <trkpt lat="47.87303" lon="7.24627">
        <ele>255.9</ele>
        <time>2014-03-06T14:49:17Z</time>
      </trkpt>
      <trkpt lat="47.87294" lon="7.24631">
        <ele>255.4</ele>
        <time>2014-03-06T14:49:19Z</time>
      </trkpt>
      <trkpt lat="47.87285" lon="7.24635">
        <ele>256.2</ele>
        <time>2014-03-06T14:49:21Z</time>
      </trkpt>
      <trkpt lat="47.87275" lon="7.24639">
        <ele>255.2</ele>
        <time>2014-03-06T14:49:23Z</time>
      </trkpt>
      <trkpt lat="47.87265" lon="7.24637">
        <ele>255.4</ele>
        <time>2014-03-06T14:49:25Z</time>
      </trkpt>
      <trkpt lat="47.87256" lon="7.2463">
        <ele>255.3</ele>
        <time>2014-03-06T14:49:27Z</time>
      </trkpt>
      <trkpt lat="47.87247" lon="7.24621">
        <ele>255.3</ele>
        <time>2014-03-06T14:49:29Z</time>
      </trkpt>
      <trkpt lat="47.87227" lon="7.24626">
        <ele>256.4</ele>
        <time>2014-03-06T14:49:33Z</time>
      </trkpt>
      <trkpt lat="47.87216" lon="7.24631">
        <ele>255</ele>
        <time>2014-03-06T14:49:35Z</time>
      </trkpt>
      <trkpt lat="47.87206" lon="7.24636">
        <ele>257.5</ele>
        <time>2014-03-06T14:49:37Z</time>
      </trkpt>
      <trkpt lat="47.87199" lon="7.2464">
        <ele>256</ele>
        <time>2014-03-06T14:49:39Z</time>
      </trkpt>
      <trkpt lat="47.87194" lon="7.24643">
        <ele>254.7</ele>
        <time>2014-03-06T14:49:41Z</time>
      </trkpt>
      <trkpt lat="47.87191" lon="7.24643">
        <ele>254.7</ele>
        <time>2014-03-06T14:49:48Z</time>
      </trkpt>
      <trkpt lat="47.87186" lon="7.24644">
        <ele>255.3</ele>
        <time>2014-03-06T14:49:50Z</time>
      </trkpt>
      <trkpt lat="47.87178" lon="7.24642">
        <ele>255.2</ele>
        <time>2014-03-06T14:49:52Z</time>
      </trkpt>
      <trkpt lat="47.8717" lon="7.24639">
        <ele>254.9</ele>
        <time>2014-03-06T14:49:54Z</time>
      </trkpt>
      <trkpt lat="47.87161" lon="7.24635">
        <ele>255</ele>
        <time>2014-03-06T14:49:56Z</time>
      </trkpt>
      <trkpt lat="47.87152" lon="7.24631">
        <ele>255.4</ele>
        <time>2014-03-06T14:49:58Z</time>
      </trkpt>
      <trkpt lat="47.87142" lon="7.24628">
        <ele>254.6</ele>
        <time>2014-03-06T14:50:00Z</time>
      </trkpt>
      <trkpt lat="47.87132" lon="7.24624">
        <ele>254.8</ele>
        <time>2014-03-06T14:50:02Z</time>
      </trkpt>
      <trkpt lat="47.87121" lon="7.2462">
        <ele>254.4</ele>
        <time>2014-03-06T14:50:04Z</time>
      </trkpt>
      <trkpt lat="47.87109" lon="7.24616">
        <ele>253.9</ele>
        <time>2014-03-06T14:50:06Z</time>
      </trkpt>
      <trkpt lat="47.87098" lon="7.24611">
        <ele>255</ele>
        <time>2014-03-06T14:50:08Z</time>
      </trkpt>
      <trkpt lat="47.87088" lon="7.24608">
        <ele>256</ele>
        <time>2014-03-06T14:50:10Z</time>
      </trkpt>
      <trkpt lat="47.87077" lon="7.24604">
        <ele>254.6</ele>
        <time>2014-03-06T14:50:12Z</time>
      </trkpt>
      <trkpt lat="47.87067" lon="7.246">
        <ele>255.3</ele>
        <time>2014-03-06T14:50:14Z</time>
      </trkpt>
      <trkpt lat="47.87056" lon="7.24598">
        <ele>255.9</ele>
        <time>2014-03-06T14:50:16Z</time>
      </trkpt>
      <trkpt lat="47.87046" lon="7.24596">
        <ele>256.3</ele>
        <time>2014-03-06T14:50:18Z</time>
      </trkpt>
      <trkpt lat="47.87036" lon="7.24593">
        <ele>254.5</ele>
        <time>2014-03-06T14:50:20Z</time>
      </trkpt>
      <trkpt lat="47.87026" lon="7.24589">
        <ele>254.8</ele>
        <time>2014-03-06T14:50:22Z</time>
      </trkpt>
      <trkpt lat="47.87017" lon="7.24586">
        <ele>255.6</ele>
        <time>2014-03-06T14:50:24Z</time>
      </trkpt>
      <trkpt lat="47.87009" lon="7.24583">
        <ele>252.3</ele>
        <time>2014-03-06T14:50:26Z</time>
      </trkpt>
      <trkpt lat="47.87" lon="7.2458">
        <ele>256</ele>
        <time>2014-03-06T14:50:28Z</time>
      </trkpt>
      <trkpt lat="47.86989" lon="7.24577">
        <ele>247.7</ele>
        <time>2014-03-06T14:50:30Z</time>
      </trkpt>
      <trkpt lat="47.86978" lon="7.24573">
        <ele>253.2</ele>
        <time>2014-03-06T14:50:32Z</time>
      </trkpt>
      <trkpt lat="47.86966" lon="7.24569">
        <ele>252</ele>
        <time>2014-03-06T14:50:34Z</time>
      </trkpt>
      <trkpt lat="47.86955" lon="7.24565">
        <ele>253</ele>
        <time>2014-03-06T14:50:36Z</time>
      </trkpt>
      <trkpt lat="47.86944" lon="7.24561">
        <ele>253</ele>
        <time>2014-03-06T14:50:38Z</time>
      </trkpt>
      <trkpt lat="47.86932" lon="7.24558">
        <ele>253.5</ele>
        <time>2014-03-06T14:50:40Z</time>
      </trkpt>
      <trkpt lat="47.86921" lon="7.24554">
        <ele>252.3</ele>
        <time>2014-03-06T14:50:42Z</time>
      </trkpt>
      <trkpt lat="47.8691" lon="7.2455">
        <ele>254.1</ele>
        <time>2014-03-06T14:50:44Z</time>
      </trkpt>
      <trkpt lat="47.86898" lon="7.24546">
        <ele>253.9</ele>
        <time>2014-03-06T14:50:46Z</time>
      </trkpt>
      <trkpt lat="47.86886" lon="7.24542">
        <ele>256.4</ele>
        <time>2014-03-06T14:50:48Z</time>
      </trkpt>
      <trkpt lat="47.86874" lon="7.24537">
        <ele>256.1</ele>
        <time>2014-03-06T14:50:50Z</time>
      </trkpt>
      <trkpt lat="47.86863" lon="7.24534">
        <ele>255.5</ele>
        <time>2014-03-06T14:50:52Z</time>
      </trkpt>
      <trkpt lat="47.86852" lon="7.2453">
        <ele>255</ele>
        <time>2014-03-06T14:50:54Z</time>
      </trkpt>
      <trkpt lat="47.86841" lon="7.24526">
        <ele>253.9</ele>
        <time>2014-03-06T14:50:56Z</time>
      </trkpt>
      <trkpt lat="47.86831" lon="7.24523">
        <ele>254.7</ele>
        <time>2014-03-06T14:50:58Z</time>
      </trkpt>
      <trkpt lat="47.8682" lon="7.24519">
        <ele>255.9</ele>
        <time>2014-03-06T14:51:00Z</time>
      </trkpt>
      <trkpt lat="47.86809" lon="7.24515">
        <ele>255.6</ele>
        <time>2014-03-06T14:51:02Z</time>
      </trkpt>
      <trkpt lat="47.86797" lon="7.24511">
        <ele>254.9</ele>
        <time>2014-03-06T14:51:04Z</time>
      </trkpt>
      <trkpt lat="47.86786" lon="7.24507">
        <ele>253.7</ele>
        <time>2014-03-06T14:51:06Z</time>
      </trkpt>
      <trkpt lat="47.86774" lon="7.24503">
        <ele>253.3</ele>
        <time>2014-03-06T14:51:08Z</time>
      </trkpt>
      <trkpt lat="47.86763" lon="7.24499">
        <ele>253</ele>
        <time>2014-03-06T14:51:10Z</time>
      </trkpt>
      <trkpt lat="47.86752" lon="7.24495">
        <ele>254.7</ele>
        <time>2014-03-06T14:51:12Z</time>
      </trkpt>
      <trkpt lat="47.86741" lon="7.24492">
        <ele>252.2</ele>
        <time>2014-03-06T14:51:14Z</time>
      </trkpt>
      <trkpt lat="47.8673" lon="7.24487">
        <ele>255</ele>
        <time>2014-03-06T14:51:16Z</time>
      </trkpt>
      <trkpt lat="47.86719" lon="7.24483">
        <ele>255.1</ele>
        <time>2014-03-06T14:51:18Z</time>
      </trkpt>
      <trkpt lat="47.86708" lon="7.24479">
        <ele>253.9</ele>
        <time>2014-03-06T14:51:20Z</time>
      </trkpt>
      <trkpt lat="47.86697" lon="7.24475">
        <ele>253.3</ele>
        <time>2014-03-06T14:51:22Z</time>
      </trkpt>
      <trkpt lat="47.86686" lon="7.24472">
        <ele>252.6</ele>
        <time>2014-03-06T14:51:24Z</time>
      </trkpt>
      <trkpt lat="47.86675" lon="7.24468">
        <ele>252.2</ele>
        <time>2014-03-06T14:51:26Z</time>
      </trkpt>
      <trkpt lat="47.86663" lon="7.24464">
        <ele>251.6</ele>
        <time>2014-03-06T14:51:28Z</time>
      </trkpt>
      <trkpt lat="47.86652" lon="7.2446">
        <ele>254</ele>
        <time>2014-03-06T14:51:30Z</time>
      </trkpt>
      <trkpt lat="47.86642" lon="7.24457">
        <ele>252.9</ele>
        <time>2014-03-06T14:51:32Z</time>
      </trkpt>
      <trkpt lat="47.86631" lon="7.24453">
        <ele>252.5</ele>
        <time>2014-03-06T14:51:34Z</time>
      </trkpt>
      <trkpt lat="47.86622" lon="7.2445">
        <ele>251.1</ele>
        <time>2014-03-06T14:51:36Z</time>
      </trkpt>
      <trkpt lat="47.86611" lon="7.24446">
        <ele>253.5</ele>
        <time>2014-03-06T14:51:38Z</time>
      </trkpt>
      <trkpt lat="47.86599" lon="7.24443">
        <ele>254.8</ele>
        <time>2014-03-06T14:51:40Z</time>
      </trkpt>
      <trkpt lat="47.86588" lon="7.24441">
        <ele>255.4</ele>
        <time>2014-03-06T14:51:42Z</time>
      </trkpt>
      <trkpt lat="47.86577" lon="7.24438">
        <ele>254.7</ele>
        <time>2014-03-06T14:51:44Z</time>
      </trkpt>
      <trkpt lat="47.86565" lon="7.24435">
        <ele>253.4</ele>
        <time>2014-03-06T14:51:46Z</time>
      </trkpt>
      <trkpt lat="47.86553" lon="7.24433">
        <ele>252.8</ele>
        <time>2014-03-06T14:51:48Z</time>
      </trkpt>
      <trkpt lat="47.86542" lon="7.2443">
        <ele>252.1</ele>
        <time>2014-03-06T14:51:50Z</time>
      </trkpt>
      <trkpt lat="47.8653" lon="7.24427">
        <ele>250.8</ele>
        <time>2014-03-06T14:51:52Z</time>
      </trkpt>
      <trkpt lat="47.86519" lon="7.24424">
        <ele>252.6</ele>
        <time>2014-03-06T14:51:54Z</time>
      </trkpt>
      <trkpt lat="47.86507" lon="7.24422">
        <ele>252.5</ele>
        <time>2014-03-06T14:51:56Z</time>
      </trkpt>
      <trkpt lat="47.86496" lon="7.24419">
        <ele>251</ele>
        <time>2014-03-06T14:51:58Z</time>
      </trkpt>
      <trkpt lat="47.86484" lon="7.24416">
        <ele>253.4</ele>
        <time>2014-03-06T14:52:00Z</time>
      </trkpt>
      <trkpt lat="47.86472" lon="7.24414">
        <ele>252</ele>
        <time>2014-03-06T14:52:02Z</time>
      </trkpt>
      <trkpt lat="47.86461" lon="7.24411">
        <ele>253</ele>
        <time>2014-03-06T14:52:04Z</time>
      </trkpt>
      <trkpt lat="47.86448" lon="7.24408">
        <ele>251.4</ele>
        <time>2014-03-06T14:52:06Z</time>
      </trkpt>
      <trkpt lat="47.86437" lon="7.24405">
        <ele>252.1</ele>
        <time>2014-03-06T14:52:08Z</time>
      </trkpt>
      <trkpt lat="47.86425" lon="7.24403">
        <ele>251.3</ele>
        <time>2014-03-06T14:52:10Z</time>
      </trkpt>
      <trkpt lat="47.86413" lon="7.244">
        <ele>252.5</ele>
        <time>2014-03-06T14:52:12Z</time>
      </trkpt>
      <trkpt lat="47.86401" lon="7.24397">
        <ele>251.8</ele>
        <time>2014-03-06T14:52:14Z</time>
      </trkpt>
      <trkpt lat="47.8639" lon="7.24394">
        <ele>251.1</ele>
        <time>2014-03-06T14:52:16Z</time>
      </trkpt>
      <trkpt lat="47.86379" lon="7.24392">
        <ele>251.4</ele>
        <time>2014-03-06T14:52:18Z</time>
      </trkpt>
      <trkpt lat="47.86367" lon="7.2439">
        <ele>249.8</ele>
        <time>2014-03-06T14:52:20Z</time>
      </trkpt>
      <trkpt lat="47.86355" lon="7.24387">
        <ele>251.1</ele>
        <time>2014-03-06T14:52:22Z</time>
      </trkpt>
      <trkpt lat="47.86344" lon="7.24385">
        <ele>250.5</ele>
        <time>2014-03-06T14:52:24Z</time>
      </trkpt>
      <trkpt lat="47.86332" lon="7.24382">
        <ele>250.7</ele>
        <time>2014-03-06T14:52:26Z</time>
      </trkpt>
      <trkpt lat="47.86321" lon="7.2438">
        <ele>249.3</ele>
        <time>2014-03-06T14:52:28Z</time>
      </trkpt>
      <trkpt lat="47.8631" lon="7.24377">
        <ele>249</ele>
        <time>2014-03-06T14:52:30Z</time>
      </trkpt>
      <trkpt lat="47.86299" lon="7.24375">
        <ele>250.2</ele>
        <time>2014-03-06T14:52:32Z</time>
      </trkpt>
      <trkpt lat="47.86288" lon="7.24372">
        <ele>251</ele>
        <time>2014-03-06T14:52:34Z</time>
      </trkpt>
      <trkpt lat="47.86277" lon="7.24369">
        <ele>251.4</ele>
        <time>2014-03-06T14:52:36Z</time>
      </trkpt>
      <trkpt lat="47.86265" lon="7.24367">
        <ele>250.5</ele>
        <time>2014-03-06T14:52:38Z</time>
      </trkpt>
      <trkpt lat="47.86254" lon="7.24364">
        <ele>250.2</ele>
        <time>2014-03-06T14:52:40Z</time>
      </trkpt>
      <trkpt lat="47.86243" lon="7.24362">
        <ele>249.9</ele>
        <time>2014-03-06T14:52:42Z</time>
      </trkpt>
      <trkpt lat="47.86231" lon="7.24359">
        <ele>250.7</ele>
        <time>2014-03-06T14:52:44Z</time>
      </trkpt>
      <trkpt lat="47.8622" lon="7.24356">
        <ele>249.2</ele>
        <time>2014-03-06T14:52:46Z</time>
      </trkpt>
      <trkpt lat="47.86208" lon="7.24353">
        <ele>251</ele>
        <time>2014-03-06T14:52:48Z</time>
      </trkpt>
      <trkpt lat="47.86196" lon="7.2435">
        <ele>249.4</ele>
        <time>2014-03-06T14:52:50Z</time>
      </trkpt>
      <trkpt lat="47.86183" lon="7.24348">
        <ele>248.7</ele>
        <time>2014-03-06T14:52:52Z</time>
      </trkpt>
      <trkpt lat="47.86171" lon="7.24345">
        <ele>247.8</ele>
        <time>2014-03-06T14:52:54Z</time>
      </trkpt>
      <trkpt lat="47.86158" lon="7.24342">
        <ele>249.5</ele>
        <time>2014-03-06T14:52:56Z</time>
      </trkpt>
      <trkpt lat="47.86146" lon="7.24339">
        <ele>248</ele>
        <time>2014-03-06T14:52:58Z</time>
      </trkpt>
      <trkpt lat="47.86134" lon="7.24336">
        <ele>248.6</ele>
        <time>2014-03-06T14:53:00Z</time>
      </trkpt>
      <trkpt lat="47.86123" lon="7.24333">
        <ele>248.8</ele>
        <time>2014-03-06T14:53:02Z</time>
      </trkpt>
      <trkpt lat="47.86111" lon="7.2433">
        <ele>249.1</ele>
        <time>2014-03-06T14:53:04Z</time>
      </trkpt>
      <trkpt lat="47.86099" lon="7.24327">
        <ele>248.3</ele>
        <time>2014-03-06T14:53:06Z</time>
      </trkpt>
      <trkpt lat="47.86088" lon="7.24324">
        <ele>246.5</ele>
        <time>2014-03-06T14:53:08Z</time>
      </trkpt>
      <trkpt lat="47.86076" lon="7.24321">
        <ele>247.3</ele>
        <time>2014-03-06T14:53:10Z</time>
      </trkpt>
      <trkpt lat="47.86065" lon="7.24319">
        <ele>247</ele>
        <time>2014-03-06T14:53:12Z</time>
      </trkpt>
      <trkpt lat="47.86054" lon="7.24316">
        <ele>246.6</ele>
        <time>2014-03-06T14:53:14Z</time>
      </trkpt>
      <trkpt lat="47.86042" lon="7.24314">
        <ele>246.1</ele>
        <time>2014-03-06T14:53:16Z</time>
      </trkpt>
      <trkpt lat="47.86031" lon="7.24311">
        <ele>246.5</ele>
        <time>2014-03-06T14:53:18Z</time>
      </trkpt>
      <trkpt lat="47.8602" lon="7.24309">
        <ele>246.3</ele>
        <time>2014-03-06T14:53:20Z</time>
      </trkpt>
      <trkpt lat="47.8601" lon="7.24306">
        <ele>247.6</ele>
        <time>2014-03-06T14:53:22Z</time>
      </trkpt>
      <trkpt lat="47.85999" lon="7.24304">
        <ele>247.7</ele>
        <time>2014-03-06T14:53:24Z</time>
      </trkpt>
      <trkpt lat="47.85989" lon="7.24301">
        <ele>247.6</ele>
        <time>2014-03-06T14:53:26Z</time>
      </trkpt>
      <trkpt lat="47.85979" lon="7.24299">
        <ele>246.9</ele>
        <time>2014-03-06T14:53:28Z</time>
      </trkpt>
      <trkpt lat="47.85969" lon="7.24297">
        <ele>248.2</ele>
        <time>2014-03-06T14:53:30Z</time>
      </trkpt>
      <trkpt lat="47.8596" lon="7.24295">
        <ele>248.2</ele>
        <time>2014-03-06T14:53:32Z</time>
      </trkpt>
      <trkpt lat="47.8595" lon="7.24293">
        <ele>247.3</ele>
        <time>2014-03-06T14:53:34Z</time>
      </trkpt>
      <trkpt lat="47.85941" lon="7.24291">
        <ele>247.5</ele>
        <time>2014-03-06T14:53:36Z</time>
      </trkpt>
      <trkpt lat="47.85932" lon="7.24289">
        <ele>247.2</ele>
        <time>2014-03-06T14:53:38Z</time>
      </trkpt>
      <trkpt lat="47.85923" lon="7.24287">
        <ele>247.5</ele>
        <time>2014-03-06T14:53:40Z</time>
      </trkpt>
      <trkpt lat="47.85915" lon="7.24284">
        <ele>245.5</ele>
        <time>2014-03-06T14:53:42Z</time>
      </trkpt>
      <trkpt lat="47.85906" lon="7.2428">
        <ele>246.2</ele>
        <time>2014-03-06T14:53:44Z</time>
      </trkpt>
      <trkpt lat="47.85896" lon="7.24275">
        <ele>246.5</ele>
        <time>2014-03-06T14:53:46Z</time>
      </trkpt>
      <trkpt lat="47.85886" lon="7.2427">
        <ele>246</ele>
        <time>2014-03-06T14:53:48Z</time>
      </trkpt>
      <trkpt lat="47.85876" lon="7.24266">
        <ele>246.4</ele>
        <time>2014-03-06T14:53:50Z</time>
      </trkpt>
      <trkpt lat="47.85866" lon="7.24264">
        <ele>246.5</ele>
        <time>2014-03-06T14:53:52Z</time>
      </trkpt>
      <trkpt lat="47.85856" lon="7.24261">
        <ele>246.9</ele>
        <time>2014-03-06T14:53:54Z</time>
      </trkpt>
      <trkpt lat="47.85847" lon="7.24259">
        <ele>246.7</ele>
        <time>2014-03-06T14:53:56Z</time>
      </trkpt>
      <trkpt lat="47.85839" lon="7.24257">
        <ele>246.5</ele>
        <time>2014-03-06T14:53:58Z</time>
      </trkpt>
      <trkpt lat="47.85831" lon="7.24256">
        <ele>247.4</ele>
        <time>2014-03-06T14:54:00Z</time>
      </trkpt>
      <trkpt lat="47.85823" lon="7.24254">
        <ele>248.2</ele>
        <time>2014-03-06T14:54:02Z</time>
      </trkpt>
      <trkpt lat="47.85817" lon="7.24252">
        <ele>247.6</ele>
        <time>2014-03-06T14:54:04Z</time>
      </trkpt>
      <trkpt lat="47.8581" lon="7.24251">
        <ele>247.5</ele>
        <time>2014-03-06T14:54:06Z</time>
      </trkpt>
      <trkpt lat="47.85802" lon="7.24249">
        <ele>247.4</ele>
        <time>2014-03-06T14:54:08Z</time>
      </trkpt>
      <trkpt lat="47.85794" lon="7.24247">
        <ele>247.4</ele>
        <time>2014-03-06T14:54:10Z</time>
      </trkpt>
      <trkpt lat="47.85785" lon="7.24245">
        <ele>247.8</ele>
        <time>2014-03-06T14:54:12Z</time>
      </trkpt>
      <trkpt lat="47.85776" lon="7.24243">
        <ele>247.9</ele>
        <time>2014-03-06T14:54:14Z</time>
      </trkpt>
      <trkpt lat="47.85767" lon="7.24241">
        <ele>247.9</ele>
        <time>2014-03-06T14:54:16Z</time>
      </trkpt>
      <trkpt lat="47.85759" lon="7.2424">
        <ele>247.1</ele>
        <time>2014-03-06T14:54:18Z</time>
      </trkpt>
      <trkpt lat="47.85753" lon="7.24238">
        <ele>246.5</ele>
        <time>2014-03-06T14:54:20Z</time>
      </trkpt>
      <trkpt lat="47.85746" lon="7.24235">
        <ele>249.3</ele>
        <time>2014-03-06T14:54:22Z</time>
      </trkpt>
      <trkpt lat="47.85738" lon="7.24232">
        <ele>249.4</ele>
        <time>2014-03-06T14:54:24Z</time>
      </trkpt>
      <trkpt lat="47.8573" lon="7.24229">
        <ele>249.2</ele>
        <time>2014-03-06T14:54:26Z</time>
      </trkpt>
      <trkpt lat="47.85723" lon="7.24227">
        <ele>247.9</ele>
        <time>2014-03-06T14:54:28Z</time>
      </trkpt>
      <trkpt lat="47.85717" lon="7.24224">
        <ele>248.2</ele>
        <time>2014-03-06T14:54:30Z</time>
      </trkpt>
      <trkpt lat="47.85711" lon="7.24221">
        <ele>248</ele>
        <time>2014-03-06T14:54:32Z</time>
      </trkpt>
      <trkpt lat="47.85704" lon="7.24218">
        <ele>247.5</ele>
        <time>2014-03-06T14:54:34Z</time>
      </trkpt>
      <trkpt lat="47.85697" lon="7.24213">
        <ele>247.7</ele>
        <time>2014-03-06T14:54:36Z</time>
      </trkpt>
      <trkpt lat="47.8569" lon="7.24209">
        <ele>248.3</ele>
        <time>2014-03-06T14:54:38Z</time>
      </trkpt>
      <trkpt lat="47.85682" lon="7.24205">
        <ele>247.4</ele>
        <time>2014-03-06T14:54:40Z</time>
      </trkpt>
      <trkpt lat="47.85673" lon="7.242">
        <ele>246.3</ele>
        <time>2014-03-06T14:54:42Z</time>
      </trkpt>
      <trkpt lat="47.85665" lon="7.24195">
        <ele>247.8</ele>
        <time>2014-03-06T14:54:44Z</time>
      </trkpt>
      <trkpt lat="47.85657" lon="7.24189">
        <ele>248.1</ele>
        <time>2014-03-06T14:54:46Z</time>
      </trkpt>
      <trkpt lat="47.85649" lon="7.24183">
        <ele>247.9</ele>
        <time>2014-03-06T14:54:48Z</time>
      </trkpt>
      <trkpt lat="47.85642" lon="7.24175">
        <ele>249.3</ele>
        <time>2014-03-06T14:54:50Z</time>
      </trkpt>
      <trkpt lat="47.85637" lon="7.24169">
        <ele>248.2</ele>
        <time>2014-03-06T14:54:52Z</time>
      </trkpt>
      <trkpt lat="47.85636" lon="7.24168">
        <ele>247.6</ele>
        <time>2014-03-06T14:54:59Z</time>
      </trkpt>
      <trkpt lat="47.85636" lon="7.24171">
        <ele>247.5</ele>
        <time>2014-03-06T14:55:01Z</time>
      </trkpt>
      <trkpt lat="47.85638" lon="7.24173">
        <ele>248.1</ele>
        <time>2014-03-06T14:55:03Z</time>
      </trkpt>
      <trkpt lat="47.85643" lon="7.24177">
        <ele>247.6</ele>
        <time>2014-03-06T14:55:05Z</time>
      </trkpt>
      <trkpt lat="47.85648" lon="7.24182">
        <ele>247.5</ele>
        <time>2014-03-06T14:55:07Z</time>
      </trkpt>
      <trkpt lat="47.85654" lon="7.24187">
        <ele>248.5</ele>
        <time>2014-03-06T14:55:09Z</time>
      </trkpt>
      <trkpt lat="47.85661" lon="7.24193">
        <ele>249.4</ele>
        <time>2014-03-06T14:55:11Z</time>
      </trkpt>
      <trkpt lat="47.85669" lon="7.24196">
        <ele>248.9</ele>
        <time>2014-03-06T14:55:13Z</time>
      </trkpt>
      <trkpt lat="47.85676" lon="7.242">
        <ele>248.1</ele>
        <time>2014-03-06T14:55:15Z</time>
      </trkpt>
      <trkpt lat="47.85684" lon="7.24205">
        <ele>247.6</ele>
        <time>2014-03-06T14:55:17Z</time>
      </trkpt>
      <trkpt lat="47.85691" lon="7.24209">
        <ele>247.7</ele>
        <time>2014-03-06T14:55:19Z</time>
      </trkpt>
      <trkpt lat="47.85699" lon="7.24213">
        <ele>247.7</ele>
        <time>2014-03-06T14:55:21Z</time>
      </trkpt>
      <trkpt lat="47.85707" lon="7.24218">
        <ele>246.4</ele>
        <time>2014-03-06T14:55:23Z</time>
      </trkpt>
      <trkpt lat="47.85715" lon="7.24222">
        <ele>246.4</ele>
        <time>2014-03-06T14:55:25Z</time>
      </trkpt>
      <trkpt lat="47.85724" lon="7.24225">
        <ele>247.2</ele>
        <time>2014-03-06T14:55:27Z</time>
      </trkpt>
      <trkpt lat="47.85732" lon="7.24228">
        <ele>246.8</ele>
        <time>2014-03-06T14:55:29Z</time>
      </trkpt>
      <trkpt lat="47.85741" lon="7.24231">
        <ele>246.3</ele>
        <time>2014-03-06T14:55:31Z</time>
      </trkpt>
      <trkpt lat="47.85749" lon="7.24234">
        <ele>248.3</ele>
        <time>2014-03-06T14:55:33Z</time>
      </trkpt>
      <trkpt lat="47.85759" lon="7.24237">
        <ele>248.7</ele>
        <time>2014-03-06T14:55:35Z</time>
      </trkpt>
      <trkpt lat="47.85769" lon="7.24239">
        <ele>249.2</ele>
        <time>2014-03-06T14:55:37Z</time>
      </trkpt>
      <trkpt lat="47.8578" lon="7.24242">
        <ele>249.8</ele>
        <time>2014-03-06T14:55:39Z</time>
      </trkpt>
      <trkpt lat="47.85791" lon="7.24244">
        <ele>245.8</ele>
        <time>2014-03-06T14:55:41Z</time>
      </trkpt>
      <trkpt lat="47.85801" lon="7.24247">
        <ele>246.1</ele>
        <time>2014-03-06T14:55:43Z</time>
      </trkpt>
      <trkpt lat="47.85812" lon="7.2425">
        <ele>245.9</ele>
        <time>2014-03-06T14:55:45Z</time>
      </trkpt>
      <trkpt lat="47.85821" lon="7.24252">
        <ele>246.1</ele>
        <time>2014-03-06T14:55:47Z</time>
      </trkpt>
      <trkpt lat="47.85831" lon="7.24254">
        <ele>246.6</ele>
        <time>2014-03-06T14:55:49Z</time>
      </trkpt>
      <trkpt lat="47.8584" lon="7.24256">
        <ele>247.2</ele>
        <time>2014-03-06T14:55:51Z</time>
      </trkpt>
      <trkpt lat="47.85849" lon="7.24258">
        <ele>247.1</ele>
        <time>2014-03-06T14:55:53Z</time>
      </trkpt>
      <trkpt lat="47.85858" lon="7.2426">
        <ele>247.6</ele>
        <time>2014-03-06T14:55:55Z</time>
      </trkpt>
      <trkpt lat="47.85867" lon="7.24262">
        <ele>247.5</ele>
        <time>2014-03-06T14:55:57Z</time>
      </trkpt>
      <trkpt lat="47.85876" lon="7.24264">
        <ele>246.2</ele>
        <time>2014-03-06T14:55:59Z</time>
      </trkpt>
      <trkpt lat="47.85884" lon="7.24267">
        <ele>247.3</ele>
        <time>2014-03-06T14:56:01Z</time>
      </trkpt>
      <trkpt lat="47.85892" lon="7.24271">
        <ele>246.7</ele>
        <time>2014-03-06T14:56:03Z</time>
      </trkpt>
      <trkpt lat="47.859" lon="7.24275">
        <ele>246.5</ele>
        <time>2014-03-06T14:56:05Z</time>
      </trkpt>
      <trkpt lat="47.85907" lon="7.24278">
        <ele>247.3</ele>
        <time>2014-03-06T14:56:07Z</time>
      </trkpt>
      <trkpt lat="47.85914" lon="7.24281">
        <ele>246</ele>
        <time>2014-03-06T14:56:09Z</time>
      </trkpt>
      <trkpt lat="47.85922" lon="7.24283">
        <ele>245.1</ele>
        <time>2014-03-06T14:56:11Z</time>
      </trkpt>
      <trkpt lat="47.8593" lon="7.24285">
        <ele>247.2</ele>
        <time>2014-03-06T14:56:13Z</time>
      </trkpt>
      <trkpt lat="47.85938" lon="7.24287">
        <ele>246.9</ele>
        <time>2014-03-06T14:56:15Z</time>
      </trkpt>
      <trkpt lat="47.85945" lon="7.24289">
        <ele>247.9</ele>
        <time>2014-03-06T14:56:17Z</time>
      </trkpt>
      <trkpt lat="47.85952" lon="7.2429">
        <ele>248</ele>
        <time>2014-03-06T14:56:19Z</time>
      </trkpt>
      <trkpt lat="47.85959" lon="7.24292">
        <ele>247.7</ele>
        <time>2014-03-06T14:56:21Z</time>
      </trkpt>
      <trkpt lat="47.85966" lon="7.24294">
        <ele>247.1</ele>
        <time>2014-03-06T14:56:23Z</time>
      </trkpt>
      <trkpt lat="47.85973" lon="7.24295">
        <ele>246.7</ele>
        <time>2014-03-06T14:56:25Z</time>
      </trkpt>
      <trkpt lat="47.8598" lon="7.24297">
        <ele>246.3</ele>
        <time>2014-03-06T14:56:27Z</time>
      </trkpt>
      <trkpt lat="47.85987" lon="7.24298">
        <ele>246.9</ele>
        <time>2014-03-06T14:56:29Z</time>
      </trkpt>
      <trkpt lat="47.85994" lon="7.243">
        <ele>248.1</ele>
        <time>2014-03-06T14:56:31Z</time>
      </trkpt>
      <trkpt lat="47.86002" lon="7.24302">
        <ele>247.7</ele>
        <time>2014-03-06T14:56:33Z</time>
      </trkpt>
      <trkpt lat="47.86009" lon="7.24303">
        <ele>247.7</ele>
        <time>2014-03-06T14:56:35Z</time>
      </trkpt>
      <trkpt lat="47.86016" lon="7.24305">
        <ele>246.8</ele>
        <time>2014-03-06T14:56:37Z</time>
      </trkpt>
      <trkpt lat="47.86023" lon="7.24307">
        <ele>246.7</ele>
        <time>2014-03-06T14:56:39Z</time>
      </trkpt>
      <trkpt lat="47.86031" lon="7.24308">
        <ele>248.1</ele>
        <time>2014-03-06T14:56:41Z</time>
      </trkpt>
      <trkpt lat="47.86037" lon="7.24309">
        <ele>248.4</ele>
        <time>2014-03-06T14:56:42Z</time>
      </trkpt>
      <trkpt lat="47.86044" lon="7.24311">
        <ele>248.2</ele>
        <time>2014-03-06T14:56:45Z</time>
      </trkpt>
      <trkpt lat="47.86051" lon="7.24312">
        <ele>248.8</ele>
        <time>2014-03-06T14:56:47Z</time>
      </trkpt>
      <trkpt lat="47.86058" lon="7.24314">
        <ele>247.9</ele>
        <time>2014-03-06T14:56:49Z</time>
      </trkpt>
      <trkpt lat="47.86065" lon="7.24316">
        <ele>248.5</ele>
        <time>2014-03-06T14:56:51Z</time>
      </trkpt>
      <trkpt lat="47.86071" lon="7.24318">
        <ele>248.5</ele>
        <time>2014-03-06T14:56:53Z</time>
      </trkpt>
      <trkpt lat="47.86076" lon="7.24321">
        <ele>247.4</ele>
        <time>2014-03-06T14:56:55Z</time>
      </trkpt>
      <trkpt lat="47.8608" lon="7.24323">
        <ele>248</ele>
        <time>2014-03-06T14:56:57Z</time>
      </trkpt>
      <trkpt lat="47.86083" lon="7.24324">
        <ele>248</ele>
        <time>2014-03-06T14:56:59Z</time>
      </trkpt>
      <trkpt lat="47.86086" lon="7.24326">
        <ele>247.4</ele>
        <time>2014-03-06T14:57:16Z</time>
      </trkpt>
      <trkpt lat="47.86087" lon="7.24327">
        <ele>247.2</ele>
        <time>2014-03-06T14:57:18Z</time>
      </trkpt>
      <trkpt lat="47.86085" lon="7.24327">
        <ele>247.4</ele>
        <time>2014-03-06T14:59:48Z</time>
      </trkpt>
      <trkpt lat="47.86084" lon="7.24324">
        <ele>247.3</ele>
        <time>2014-03-06T14:59:50Z</time>
      </trkpt>
      <trkpt lat="47.86083" lon="7.24323">
        <ele>247.3</ele>
        <time>2014-03-06T14:59:52Z</time>
      </trkpt>
      <trkpt lat="47.86079" lon="7.24323">
        <ele>247.4</ele>
        <time>2014-03-06T14:59:56Z</time>
      </trkpt>
      <trkpt lat="47.86077" lon="7.24322">
        <ele>246.9</ele>
        <time>2014-03-06T14:59:58Z</time>
      </trkpt>
      <trkpt lat="47.86073" lon="7.24321">
        <ele>247.5</ele>
        <time>2014-03-06T15:00:00Z</time>
      </trkpt>
      <trkpt lat="47.8607" lon="7.24319">
        <ele>247.3</ele>
        <time>2014-03-06T15:00:02Z</time>
      </trkpt>
      <trkpt lat="47.86066" lon="7.24319">
        <ele>247.2</ele>
        <time>2014-03-06T15:00:04Z</time>
      </trkpt>
      <trkpt lat="47.86062" lon="7.24318">
        <ele>246.8</ele>
        <time>2014-03-06T15:00:06Z</time>
      </trkpt>
      <trkpt lat="47.86059" lon="7.24318">
        <ele>247.1</ele>
        <time>2014-03-06T15:00:08Z</time>
      </trkpt>
      <trkpt lat="47.86055" lon="7.24317">
        <ele>247.2</ele>
        <time>2014-03-06T15:00:10Z</time>
      </trkpt>
      <trkpt lat="47.86052" lon="7.24317">
        <ele>247.3</ele>
        <time>2014-03-06T15:00:12Z</time>
      </trkpt>
      <trkpt lat="47.86049" lon="7.24316">
        <ele>246.7</ele>
        <time>2014-03-06T15:00:14Z</time>
      </trkpt>
      <trkpt lat="47.86042" lon="7.24316">
        <ele>246.9</ele>
        <time>2014-03-06T15:00:18Z</time>
      </trkpt>
      <trkpt lat="47.8604" lon="7.24316">
        <ele>247.2</ele>
        <time>2014-03-06T15:00:20Z</time>
      </trkpt>
      <trkpt lat="47.86038" lon="7.24317">
        <ele>247</ele>
        <time>2014-03-06T15:00:28Z</time>
      </trkpt>
      <trkpt lat="47.86036" lon="7.24319">
        <ele>247.8</ele>
        <time>2014-03-06T15:00:32Z</time>
      </trkpt>
      <trkpt lat="47.86035" lon="7.2432">
        <ele>247.7</ele>
        <time>2014-03-06T15:00:34Z</time>
      </trkpt>
      <trkpt lat="47.86034" lon="7.2432">
        <ele>248.3</ele>
        <time>2014-03-06T15:00:36Z</time>
      </trkpt>
      <trkpt lat="47.86032" lon="7.2432">
        <ele>248.7</ele>
        <time>2014-03-06T15:00:46Z</time>
      </trkpt>
      <trkpt lat="47.86033" lon="7.24318">
        <ele>248.5</ele>
        <time>2014-03-06T15:01:28Z</time>
      </trkpt>
      <trkpt lat="47.86031" lon="7.24319">
        <ele>248.9</ele>
        <time>2014-03-06T15:01:30Z</time>
      </trkpt>
      <trkpt lat="47.8603" lon="7.2432">
        <ele>248.3</ele>
        <time>2014-03-06T15:01:32Z</time>
      </trkpt>
      <trkpt lat="47.86029" lon="7.24321">
        <ele>248.7</ele>
        <time>2014-03-06T15:01:34Z</time>
      </trkpt>
      <trkpt lat="47.86028" lon="7.24323">
        <ele>248.3</ele>
        <time>2014-03-06T15:01:36Z</time>
      </trkpt>
      <trkpt lat="47.86027" lon="7.24321">
        <ele>249.4</ele>
        <time>2014-03-06T15:04:10Z</time>
      </trkpt>
      <trkpt lat="47.86028" lon="7.24319">
        <ele>249.2</ele>
        <time>2014-03-06T15:04:12Z</time>
      </trkpt>
      <trkpt lat="47.86031" lon="7.2432">
        <ele>248.7</ele>
        <time>2014-03-06T15:04:16Z</time>
      </trkpt>
      <trkpt lat="47.86033" lon="7.24319">
        <ele>249</ele>
        <time>2014-03-06T15:04:18Z</time>
      </trkpt>
      <trkpt lat="47.86034" lon="7.24318">
        <ele>249.1</ele>
        <time>2014-03-06T15:04:20Z</time>
      </trkpt>
      <trkpt lat="47.86035" lon="7.24317">
        <ele>249.1</ele>
        <time>2014-03-06T15:04:22Z</time>
      </trkpt>
      <trkpt lat="47.86036" lon="7.24316">
        <ele>248.4</ele>
        <time>2014-03-06T15:04:24Z</time>
      </trkpt>
      <trkpt lat="47.86037" lon="7.24314">
        <ele>247.6</ele>
        <time>2014-03-06T15:04:26Z</time>
      </trkpt>
      <trkpt lat="47.86038" lon="7.24312">
        <ele>247.4</ele>
        <time>2014-03-06T15:04:28Z</time>
      </trkpt>
      <trkpt lat="47.86036" lon="7.24312">
        <ele>247.2</ele>
        <time>2014-03-06T15:04:32Z</time>
      </trkpt>
      <trkpt lat="47.86033" lon="7.24311">
        <ele>246.3</ele>
        <time>2014-03-06T15:04:39Z</time>
      </trkpt>
      <trkpt lat="47.86029" lon="7.24311">
        <ele>246.9</ele>
        <time>2014-03-06T15:04:41Z</time>
      </trkpt>
      <trkpt lat="47.86023" lon="7.24309">
        <ele>247.6</ele>
        <time>2014-03-06T15:04:43Z</time>
      </trkpt>
      <trkpt lat="47.86016" lon="7.24307">
        <ele>246.9</ele>
        <time>2014-03-06T15:04:45Z</time>
      </trkpt>
      <trkpt lat="47.86007" lon="7.24306">
        <ele>247.4</ele>
        <time>2014-03-06T15:04:47Z</time>
      </trkpt>
      <trkpt lat="47.85997" lon="7.24304">
        <ele>247.5</ele>
        <time>2014-03-06T15:04:49Z</time>
      </trkpt>
      <trkpt lat="47.85987" lon="7.24302">
        <ele>246.3</ele>
        <time>2014-03-06T15:04:51Z</time>
      </trkpt>
      <trkpt lat="47.85976" lon="7.24299">
        <ele>247.9</ele>
        <time>2014-03-06T15:04:53Z</time>
      </trkpt>
      <trkpt lat="47.85965" lon="7.24297">
        <ele>247.7</ele>
        <time>2014-03-06T15:04:55Z</time>
      </trkpt>
      <trkpt lat="47.85955" lon="7.24295">
        <ele>247.2</ele>
        <time>2014-03-06T15:04:57Z</time>
      </trkpt>
      <trkpt lat="47.85944" lon="7.24292">
        <ele>246</ele>
        <time>2014-03-06T15:04:59Z</time>
      </trkpt>
      <trkpt lat="47.85934" lon="7.2429">
        <ele>246</ele>
        <time>2014-03-06T15:05:01Z</time>
      </trkpt>
      <trkpt lat="47.85923" lon="7.24288">
        <ele>246.6</ele>
        <time>2014-03-06T15:05:03Z</time>
      </trkpt>
      <trkpt lat="47.85912" lon="7.24284">
        <ele>247.8</ele>
        <time>2014-03-06T15:05:05Z</time>
      </trkpt>
      <trkpt lat="47.85901" lon="7.24279">
        <ele>245.2</ele>
        <time>2014-03-06T15:05:07Z</time>
      </trkpt>
      <trkpt lat="47.85889" lon="7.24272">
        <ele>246.2</ele>
        <time>2014-03-06T15:05:09Z</time>
      </trkpt>
      <trkpt lat="47.85877" lon="7.24267">
        <ele>245.4</ele>
        <time>2014-03-06T15:05:11Z</time>
      </trkpt>
      <trkpt lat="47.85865" lon="7.24265">
        <ele>247.3</ele>
        <time>2014-03-06T15:05:13Z</time>
      </trkpt>
      <trkpt lat="47.85853" lon="7.24262">
        <ele>246.6</ele>
        <time>2014-03-06T15:05:15Z</time>
      </trkpt>
      <trkpt lat="47.85841" lon="7.24259">
        <ele>247.9</ele>
        <time>2014-03-06T15:05:17Z</time>
      </trkpt>
      <trkpt lat="47.85829" lon="7.24256">
        <ele>248.1</ele>
        <time>2014-03-06T15:05:19Z</time>
      </trkpt>
      <trkpt lat="47.85817" lon="7.24254">
        <ele>247.3</ele>
        <time>2014-03-06T15:05:21Z</time>
      </trkpt>
      <trkpt lat="47.85804" lon="7.24251">
        <ele>247.7</ele>
        <time>2014-03-06T15:05:23Z</time>
      </trkpt>
      <trkpt lat="47.85792" lon="7.24248">
        <ele>249</ele>
        <time>2014-03-06T15:05:25Z</time>
      </trkpt>
      <trkpt lat="47.85779" lon="7.24245">
        <ele>246.7</ele>
        <time>2014-03-06T15:05:27Z</time>
      </trkpt>
      <trkpt lat="47.85768" lon="7.24242">
        <ele>246.4</ele>
        <time>2014-03-06T15:05:29Z</time>
      </trkpt>
      <trkpt lat="47.85757" lon="7.2424">
        <ele>246.6</ele>
        <time>2014-03-06T15:05:31Z</time>
      </trkpt>
      <trkpt lat="47.85748" lon="7.24236">
        <ele>248.8</ele>
        <time>2014-03-06T15:05:33Z</time>
      </trkpt>
      <trkpt lat="47.85737" lon="7.24232">
        <ele>247.3</ele>
        <time>2014-03-06T15:05:35Z</time>
      </trkpt>
      <trkpt lat="47.85725" lon="7.24228">
        <ele>247.8</ele>
        <time>2014-03-06T15:05:37Z</time>
      </trkpt>
      <trkpt lat="47.85712" lon="7.24223">
        <ele>247.7</ele>
        <time>2014-03-06T15:05:39Z</time>
      </trkpt>
      <trkpt lat="47.857" lon="7.24217">
        <ele>247.2</ele>
        <time>2014-03-06T15:05:41Z</time>
      </trkpt>
      <trkpt lat="47.85689" lon="7.24211">
        <ele>247.8</ele>
        <time>2014-03-06T15:05:43Z</time>
      </trkpt>
      <trkpt lat="47.85679" lon="7.24206">
        <ele>248.3</ele>
        <time>2014-03-06T15:05:45Z</time>
      </trkpt>
      <trkpt lat="47.85668" lon="7.24199">
        <ele>247.6</ele>
        <time>2014-03-06T15:05:47Z</time>
      </trkpt>
      <trkpt lat="47.85658" lon="7.24192">
        <ele>244.9</ele>
        <time>2014-03-06T15:05:49Z</time>
      </trkpt>
      <trkpt lat="47.85648" lon="7.24184">
        <ele>247</ele>
        <time>2014-03-06T15:05:51Z</time>
      </trkpt>
      <trkpt lat="47.85638" lon="7.24174">
        <ele>247.1</ele>
        <time>2014-03-06T15:05:53Z</time>
      </trkpt>
      <trkpt lat="47.8563" lon="7.24163">
        <ele>246.8</ele>
        <time>2014-03-06T15:05:55Z</time>
      </trkpt>
      <trkpt lat="47.85621" lon="7.24153">
        <ele>247.1</ele>
        <time>2014-03-06T15:05:57Z</time>
      </trkpt>
      <trkpt lat="47.85613" lon="7.24142">
        <ele>247</ele>
        <time>2014-03-06T15:05:59Z</time>
      </trkpt>
      <trkpt lat="47.85606" lon="7.24131">
        <ele>247.7</ele>
        <time>2014-03-06T15:06:01Z</time>
      </trkpt>
      <trkpt lat="47.85598" lon="7.2412">
        <ele>248.1</ele>
        <time>2014-03-06T15:06:03Z</time>
      </trkpt>
      <trkpt lat="47.8559" lon="7.24109">
        <ele>246.6</ele>
        <time>2014-03-06T15:06:05Z</time>
      </trkpt>
      <trkpt lat="47.85582" lon="7.24097">
        <ele>247.4</ele>
        <time>2014-03-06T15:06:07Z</time>
      </trkpt>
      <trkpt lat="47.85573" lon="7.24085">
        <ele>246.4</ele>
        <time>2014-03-06T15:06:09Z</time>
      </trkpt>
      <trkpt lat="47.85565" lon="7.24073">
        <ele>246.9</ele>
        <time>2014-03-06T15:06:11Z</time>
      </trkpt>
      <trkpt lat="47.85558" lon="7.24062">
        <ele>247.4</ele>
        <time>2014-03-06T15:06:13Z</time>
      </trkpt>
      <trkpt lat="47.85551" lon="7.24052">
        <ele>249.2</ele>
        <time>2014-03-06T15:06:15Z</time>
      </trkpt>
      <trkpt lat="47.85544" lon="7.24041">
        <ele>248.3</ele>
        <time>2014-03-06T15:06:17Z</time>
      </trkpt>
      <trkpt lat="47.85538" lon="7.24029">
        <ele>249.1</ele>
        <time>2014-03-06T15:06:19Z</time>
      </trkpt>
      <trkpt lat="47.85535" lon="7.24015">
        <ele>247.9</ele>
        <time>2014-03-06T15:06:21Z</time>
      </trkpt>
      <trkpt lat="47.85534" lon="7.24">
        <ele>247.7</ele>
        <time>2014-03-06T15:06:23Z</time>
      </trkpt>
      <trkpt lat="47.85534" lon="7.23985">
        <ele>247.3</ele>
        <time>2014-03-06T15:06:25Z</time>
      </trkpt>
      <trkpt lat="47.85531" lon="7.23973">
        <ele>247.5</ele>
        <time>2014-03-06T15:06:27Z</time>
      </trkpt>
      <trkpt lat="47.85525" lon="7.23966">
        <ele>249.1</ele>
        <time>2014-03-06T15:06:29Z</time>
      </trkpt>
      <trkpt lat="47.85521" lon="7.23964">
        <ele>249.2</ele>
        <time>2014-03-06T15:06:31Z</time>
      </trkpt>
      <trkpt lat="47.8552" lon="7.23963">
        <ele>249.5</ele>
        <time>2014-03-06T15:06:37Z</time>
      </trkpt>
      <trkpt lat="47.85517" lon="7.23962">
        <ele>250</ele>
        <time>2014-03-06T15:06:39Z</time>
      </trkpt>
      <trkpt lat="47.85511" lon="7.23961">
        <ele>250.1</ele>
        <time>2014-03-06T15:06:41Z</time>
      </trkpt>
      <trkpt lat="47.85504" lon="7.23964">
        <ele>250.1</ele>
        <time>2014-03-06T15:06:43Z</time>
      </trkpt>
      <trkpt lat="47.85499" lon="7.23976">
        <ele>248.8</ele>
        <time>2014-03-06T15:06:45Z</time>
      </trkpt>
      <trkpt lat="47.85498" lon="7.23991">
        <ele>248.9</ele>
        <time>2014-03-06T15:06:47Z</time>
      </trkpt>
      <trkpt lat="47.85494" lon="7.24005">
        <ele>248.2</ele>
        <time>2014-03-06T15:06:49Z</time>
      </trkpt>
      <trkpt lat="47.85487" lon="7.24017">
        <ele>248</ele>
        <time>2014-03-06T15:06:51Z</time>
      </trkpt>
      <trkpt lat="47.85478" lon="7.24024">
        <ele>247.9</ele>
        <time>2014-03-06T15:06:53Z</time>
      </trkpt>
      <trkpt lat="47.85467" lon="7.24028">
        <ele>248</ele>
        <time>2014-03-06T15:06:55Z</time>
      </trkpt>
      <trkpt lat="47.85456" lon="7.24031">
        <ele>247.9</ele>
        <time>2014-03-06T15:06:57Z</time>
      </trkpt>
      <trkpt lat="47.85444" lon="7.24034">
        <ele>248.4</ele>
        <time>2014-03-06T15:06:59Z</time>
      </trkpt>
      <trkpt lat="47.85432" lon="7.24036">
        <ele>246.5</ele>
        <time>2014-03-06T15:07:01Z</time>
      </trkpt>
      <trkpt lat="47.85421" lon="7.24039">
        <ele>247.3</ele>
        <time>2014-03-06T15:07:03Z</time>
      </trkpt>
      <trkpt lat="47.8541" lon="7.24041">
        <ele>250.5</ele>
        <time>2014-03-06T15:07:05Z</time>
      </trkpt>
      <trkpt lat="47.85399" lon="7.24044">
        <ele>247.4</ele>
        <time>2014-03-06T15:07:07Z</time>
      </trkpt>
      <trkpt lat="47.85389" lon="7.24045">
        <ele>248.8</ele>
        <time>2014-03-06T15:07:09Z</time>
      </trkpt>
      <trkpt lat="47.85378" lon="7.24046">
        <ele>246.6</ele>
        <time>2014-03-06T15:07:11Z</time>
      </trkpt>
      <trkpt lat="47.85366" lon="7.24047">
        <ele>246.4</ele>
        <time>2014-03-06T15:07:13Z</time>
      </trkpt>
      <trkpt lat="47.85355" lon="7.24047">
        <ele>247.7</ele>
        <time>2014-03-06T15:07:15Z</time>
      </trkpt>
      <trkpt lat="47.85344" lon="7.24046">
        <ele>247.8</ele>
        <time>2014-03-06T15:07:17Z</time>
      </trkpt>
      <trkpt lat="47.85333" lon="7.24046">
        <ele>247.8</ele>
        <time>2014-03-06T15:07:18Z</time>
      </trkpt>
      <trkpt lat="47.85321" lon="7.24044">
        <ele>245.9</ele>
        <time>2014-03-06T15:07:21Z</time>
      </trkpt>
      <trkpt lat="47.8531" lon="7.2404">
        <ele>245</ele>
        <time>2014-03-06T15:07:23Z</time>
      </trkpt>
      <trkpt lat="47.85299" lon="7.24036">
        <ele>245.2</ele>
        <time>2014-03-06T15:07:25Z</time>
      </trkpt>
      <trkpt lat="47.85288" lon="7.24032">
        <ele>246.5</ele>
        <time>2014-03-06T15:07:27Z</time>
      </trkpt>
      <trkpt lat="47.85276" lon="7.24027">
        <ele>247.4</ele>
        <time>2014-03-06T15:07:29Z</time>
      </trkpt>
      <trkpt lat="47.85264" lon="7.24022">
        <ele>248.4</ele>
        <time>2014-03-06T15:07:31Z</time>
      </trkpt>
      <trkpt lat="47.85253" lon="7.24016">
        <ele>246.6</ele>
        <time>2014-03-06T15:07:33Z</time>
      </trkpt>
      <trkpt lat="47.85243" lon="7.24012">
        <ele>248</ele>
        <time>2014-03-06T15:07:35Z</time>
      </trkpt>
      <trkpt lat="47.85233" lon="7.24007">
        <ele>247.6</ele>
        <time>2014-03-06T15:07:37Z</time>
      </trkpt>
      <trkpt lat="47.85222" lon="7.24002">
        <ele>247</ele>
        <time>2014-03-06T15:07:39Z</time>
      </trkpt>
      <trkpt lat="47.85212" lon="7.23997">
        <ele>247.3</ele>
        <time>2014-03-06T15:07:41Z</time>
      </trkpt>
      <trkpt lat="47.85201" lon="7.23992">
        <ele>248.5</ele>
        <time>2014-03-06T15:07:43Z</time>
      </trkpt>
      <trkpt lat="47.85189" lon="7.23987">
        <ele>249.6</ele>
        <time>2014-03-06T15:07:45Z</time>
      </trkpt>
      <trkpt lat="47.85178" lon="7.23981">
        <ele>248.9</ele>
        <time>2014-03-06T15:07:47Z</time>
      </trkpt>
      <trkpt lat="47.85167" lon="7.23976">
        <ele>250.1</ele>
        <time>2014-03-06T15:07:49Z</time>
      </trkpt>
      <trkpt lat="47.85156" lon="7.23971">
        <ele>249.9</ele>
        <time>2014-03-06T15:07:51Z</time>
      </trkpt>
      <trkpt lat="47.85144" lon="7.23966">
        <ele>249.8</ele>
        <time>2014-03-06T15:07:53Z</time>
      </trkpt>
      <trkpt lat="47.85133" lon="7.23961">
        <ele>250.8</ele>
        <time>2014-03-06T15:07:55Z</time>
      </trkpt>
      <trkpt lat="47.85122" lon="7.23957">
        <ele>250.7</ele>
        <time>2014-03-06T15:07:57Z</time>
      </trkpt>
      <trkpt lat="47.85111" lon="7.23952">
        <ele>249</ele>
        <time>2014-03-06T15:07:59Z</time>
      </trkpt>
      <trkpt lat="47.851" lon="7.23948">
        <ele>249.4</ele>
        <time>2014-03-06T15:08:01Z</time>
      </trkpt>
      <trkpt lat="47.85089" lon="7.23943">
        <ele>249</ele>
        <time>2014-03-06T15:08:03Z</time>
      </trkpt>
      <trkpt lat="47.85077" lon="7.23938">
        <ele>249.3</ele>
        <time>2014-03-06T15:08:05Z</time>
      </trkpt>
      <trkpt lat="47.85066" lon="7.23933">
        <ele>247.8</ele>
        <time>2014-03-06T15:08:07Z</time>
      </trkpt>
      <trkpt lat="47.85054" lon="7.23928">
        <ele>247.9</ele>
        <time>2014-03-06T15:08:09Z</time>
      </trkpt>
      <trkpt lat="47.85041" lon="7.23922">
        <ele>247.2</ele>
        <time>2014-03-06T15:08:11Z</time>
      </trkpt>
      <trkpt lat="47.8503" lon="7.23917">
        <ele>249.9</ele>
        <time>2014-03-06T15:08:13Z</time>
      </trkpt>
      <trkpt lat="47.85018" lon="7.23912">
        <ele>248.5</ele>
        <time>2014-03-06T15:08:15Z</time>
      </trkpt>
      <trkpt lat="47.85007" lon="7.23907">
        <ele>250.1</ele>
        <time>2014-03-06T15:08:17Z</time>
      </trkpt>
      <trkpt lat="47.84996" lon="7.23902">
        <ele>250.7</ele>
        <time>2014-03-06T15:08:19Z</time>
      </trkpt>
      <trkpt lat="47.84986" lon="7.23897">
        <ele>249.9</ele>
        <time>2014-03-06T15:08:21Z</time>
      </trkpt>
      <trkpt lat="47.84976" lon="7.23893">
        <ele>246.9</ele>
        <time>2014-03-06T15:08:23Z</time>
      </trkpt>
      <trkpt lat="47.84966" lon="7.23888">
        <ele>248</ele>
        <time>2014-03-06T15:08:25Z</time>
      </trkpt>
      <trkpt lat="47.84956" lon="7.23883">
        <ele>247.6</ele>
        <time>2014-03-06T15:08:27Z</time>
      </trkpt>
      <trkpt lat="47.84945" lon="7.23878">
        <ele>248.5</ele>
        <time>2014-03-06T15:08:29Z</time>
      </trkpt>
      <trkpt lat="47.84935" lon="7.23873">
        <ele>249.9</ele>
        <time>2014-03-06T15:08:31Z</time>
      </trkpt>
      <trkpt lat="47.84924" lon="7.23868">
        <ele>250.8</ele>
        <time>2014-03-06T15:08:33Z</time>
      </trkpt>
      <trkpt lat="47.84914" lon="7.23862">
        <ele>250</ele>
        <time>2014-03-06T15:08:34Z</time>
      </trkpt>
      <trkpt lat="47.84904" lon="7.23857">
        <ele>251.6</ele>
        <time>2014-03-06T15:08:37Z</time>
      </trkpt>
      <trkpt lat="47.84894" lon="7.23851">
        <ele>250.6</ele>
        <time>2014-03-06T15:08:39Z</time>
      </trkpt>
      <trkpt lat="47.84884" lon="7.23845">
        <ele>250</ele>
        <time>2014-03-06T15:08:41Z</time>
      </trkpt>
      <trkpt lat="47.84873" lon="7.23839">
        <ele>250.1</ele>
        <time>2014-03-06T15:08:43Z</time>
      </trkpt>
      <trkpt lat="47.84862" lon="7.23832">
        <ele>248.7</ele>
        <time>2014-03-06T15:08:45Z</time>
      </trkpt>
      <trkpt lat="47.8485" lon="7.23825">
        <ele>247.9</ele>
        <time>2014-03-06T15:08:47Z</time>
      </trkpt>
      <trkpt lat="47.84839" lon="7.23818">
        <ele>250.1</ele>
        <time>2014-03-06T15:08:49Z</time>
      </trkpt>
      <trkpt lat="47.84828" lon="7.23811">
        <ele>250.1</ele>
        <time>2014-03-06T15:08:51Z</time>
      </trkpt>
      <trkpt lat="47.84818" lon="7.23804">
        <ele>249.8</ele>
        <time>2014-03-06T15:08:53Z</time>
      </trkpt>
      <trkpt lat="47.84808" lon="7.23798">
        <ele>249.8</ele>
        <time>2014-03-06T15:08:55Z</time>
      </trkpt>
      <trkpt lat="47.84798" lon="7.23791">
        <ele>248.7</ele>
        <time>2014-03-06T15:08:57Z</time>
      </trkpt>
      <trkpt lat="47.84789" lon="7.23785">
        <ele>254.2</ele>
        <time>2014-03-06T15:08:59Z</time>
      </trkpt>
      <trkpt lat="47.84779" lon="7.23778">
        <ele>253.6</ele>
        <time>2014-03-06T15:09:01Z</time>
      </trkpt>
      <trkpt lat="47.84769" lon="7.23771">
        <ele>254.6</ele>
        <time>2014-03-06T15:09:03Z</time>
      </trkpt>
      <trkpt lat="47.84759" lon="7.23764">
        <ele>253.3</ele>
        <time>2014-03-06T15:09:05Z</time>
      </trkpt>
      <trkpt lat="47.84749" lon="7.23757">
        <ele>252.1</ele>
        <time>2014-03-06T15:09:07Z</time>
      </trkpt>
      <trkpt lat="47.8474" lon="7.2375">
        <ele>252.3</ele>
        <time>2014-03-06T15:09:09Z</time>
      </trkpt>
      <trkpt lat="47.8473" lon="7.23743">
        <ele>252.6</ele>
        <time>2014-03-06T15:09:11Z</time>
      </trkpt>
      <trkpt lat="47.84721" lon="7.23736">
        <ele>251.1</ele>
        <time>2014-03-06T15:09:13Z</time>
      </trkpt>
      <trkpt lat="47.84712" lon="7.2373">
        <ele>250.4</ele>
        <time>2014-03-06T15:09:15Z</time>
      </trkpt>
      <trkpt lat="47.84703" lon="7.23723">
        <ele>251</ele>
        <time>2014-03-06T15:09:17Z</time>
      </trkpt>
      <trkpt lat="47.84695" lon="7.23714">
        <ele>251.6</ele>
        <time>2014-03-06T15:09:19Z</time>
      </trkpt>
      <trkpt lat="47.8469" lon="7.23702">
        <ele>252.5</ele>
        <time>2014-03-06T15:09:21Z</time>
      </trkpt>
      <trkpt lat="47.84686" lon="7.23689">
        <ele>253.4</ele>
        <time>2014-03-06T15:09:23Z</time>
      </trkpt>
      <trkpt lat="47.8468" lon="7.2368">
        <ele>253.5</ele>
        <time>2014-03-06T15:09:25Z</time>
      </trkpt>
      <trkpt lat="47.84675" lon="7.2367">
        <ele>252.5</ele>
        <time>2014-03-06T15:09:27Z</time>
      </trkpt>
      <trkpt lat="47.8467" lon="7.23658">
        <ele>253.3</ele>
        <time>2014-03-06T15:09:29Z</time>
      </trkpt>
      <trkpt lat="47.84664" lon="7.23646">
        <ele>250.5</ele>
        <time>2014-03-06T15:09:31Z</time>
      </trkpt>
      <trkpt lat="47.84657" lon="7.23636">
        <ele>250.7</ele>
        <time>2014-03-06T15:09:33Z</time>
      </trkpt>
      <trkpt lat="47.84649" lon="7.23628">
        <ele>251.7</ele>
        <time>2014-03-06T15:09:35Z</time>
      </trkpt>
      <trkpt lat="47.84642" lon="7.2362">
        <ele>251.6</ele>
        <time>2014-03-06T15:09:37Z</time>
      </trkpt>
      <trkpt lat="47.84634" lon="7.23615">
        <ele>252.6</ele>
        <time>2014-03-06T15:09:39Z</time>
      </trkpt>
      <trkpt lat="47.84626" lon="7.23617">
        <ele>252.4</ele>
        <time>2014-03-06T15:09:41Z</time>
      </trkpt>
      <trkpt lat="47.84619" lon="7.23623">
        <ele>252.2</ele>
        <time>2014-03-06T15:09:43Z</time>
      </trkpt>
      <trkpt lat="47.84613" lon="7.23627">
        <ele>252.3</ele>
        <time>2014-03-06T15:09:45Z</time>
      </trkpt>
      <trkpt lat="47.84605" lon="7.23627">
        <ele>253.9</ele>
        <time>2014-03-06T15:09:47Z</time>
      </trkpt>
      <trkpt lat="47.84599" lon="7.23624">
        <ele>253.3</ele>
        <time>2014-03-06T15:09:49Z</time>
      </trkpt>
      <trkpt lat="47.84592" lon="7.23618">
        <ele>255.4</ele>
        <time>2014-03-06T15:09:51Z</time>
      </trkpt>
      <trkpt lat="47.84586" lon="7.23612">
        <ele>255.2</ele>
        <time>2014-03-06T15:09:53Z</time>
      </trkpt>
      <trkpt lat="47.8458" lon="7.23606">
        <ele>255.6</ele>
        <time>2014-03-06T15:09:55Z</time>
      </trkpt>
      <trkpt lat="47.84574" lon="7.236">
        <ele>257</ele>
        <time>2014-03-06T15:09:57Z</time>
      </trkpt>
      <trkpt lat="47.84567" lon="7.23592">
        <ele>256.8</ele>
        <time>2014-03-06T15:09:59Z</time>
      </trkpt>
      <trkpt lat="47.8456" lon="7.23585">
        <ele>256.9</ele>
        <time>2014-03-06T15:10:01Z</time>
      </trkpt>
      <trkpt lat="47.84552" lon="7.23576">
        <ele>255.6</ele>
        <time>2014-03-06T15:10:03Z</time>
      </trkpt>
      <trkpt lat="47.84543" lon="7.23566">
        <ele>256.6</ele>
        <time>2014-03-06T15:10:05Z</time>
      </trkpt>
      <trkpt lat="47.84535" lon="7.23556">
        <ele>255</ele>
        <time>2014-03-06T15:10:07Z</time>
      </trkpt>
      <trkpt lat="47.84526" lon="7.23546">
        <ele>254.6</ele>
        <time>2014-03-06T15:10:09Z</time>
      </trkpt>
      <trkpt lat="47.84518" lon="7.23537">
        <ele>253.9</ele>
        <time>2014-03-06T15:10:11Z</time>
      </trkpt>
      <trkpt lat="47.8451" lon="7.23528">
        <ele>254.1</ele>
        <time>2014-03-06T15:10:13Z</time>
      </trkpt>
      <trkpt lat="47.84501" lon="7.23519">
        <ele>253.9</ele>
        <time>2014-03-06T15:10:15Z</time>
      </trkpt>
      <trkpt lat="47.84494" lon="7.2351">
        <ele>255.2</ele>
        <time>2014-03-06T15:10:17Z</time>
      </trkpt>
      <trkpt lat="47.84487" lon="7.23502">
        <ele>254.8</ele>
        <time>2014-03-06T15:10:19Z</time>
      </trkpt>
      <trkpt lat="47.8448" lon="7.23495">
        <ele>254</ele>
        <time>2014-03-06T15:10:20Z</time>
      </trkpt>
      <trkpt lat="47.84473" lon="7.23487">
        <ele>254.6</ele>
        <time>2014-03-06T15:10:23Z</time>
      </trkpt>
      <trkpt lat="47.84465" lon="7.23478">
        <ele>254.7</ele>
        <time>2014-03-06T15:10:25Z</time>
      </trkpt>
      <trkpt lat="47.84457" lon="7.23469">
        <ele>252.7</ele>
        <time>2014-03-06T15:10:27Z</time>
      </trkpt>
      <trkpt lat="47.84449" lon="7.23461">
        <ele>254</ele>
        <time>2014-03-06T15:10:29Z</time>
      </trkpt>
      <trkpt lat="47.84441" lon="7.23452">
        <ele>255.3</ele>
        <time>2014-03-06T15:10:31Z</time>
      </trkpt>
      <trkpt lat="47.84433" lon="7.23442">
        <ele>253.4</ele>
        <time>2014-03-06T15:10:33Z</time>
      </trkpt>
      <trkpt lat="47.84424" lon="7.23432">
        <ele>255.6</ele>
        <time>2014-03-06T15:10:35Z</time>
      </trkpt>
      <trkpt lat="47.84415" lon="7.23422">
        <ele>252</ele>
        <time>2014-03-06T15:10:37Z</time>
      </trkpt>
      <trkpt lat="47.84407" lon="7.23412">
        <ele>252.7</ele>
        <time>2014-03-06T15:10:39Z</time>
      </trkpt>
      <trkpt lat="47.84398" lon="7.23403">
        <ele>252.2</ele>
        <time>2014-03-06T15:10:41Z</time>
      </trkpt>
      <trkpt lat="47.8439" lon="7.23394">
        <ele>252.4</ele>
        <time>2014-03-06T15:10:43Z</time>
      </trkpt>
      <trkpt lat="47.84382" lon="7.23384">
        <ele>253.6</ele>
        <time>2014-03-06T15:10:45Z</time>
      </trkpt>
      <trkpt lat="47.84374" lon="7.23375">
        <ele>254.5</ele>
        <time>2014-03-06T15:10:47Z</time>
      </trkpt>
      <trkpt lat="47.84366" lon="7.23366">
        <ele>255</ele>
        <time>2014-03-06T15:10:49Z</time>
      </trkpt>
      <trkpt lat="47.84359" lon="7.23357">
        <ele>255.5</ele>
        <time>2014-03-06T15:10:51Z</time>
      </trkpt>
      <trkpt lat="47.84351" lon="7.23348">
        <ele>254.9</ele>
        <time>2014-03-06T15:10:53Z</time>
      </trkpt>
      <trkpt lat="47.84343" lon="7.2334">
        <ele>256.9</ele>
        <time>2014-03-06T15:10:55Z</time>
      </trkpt>
      <trkpt lat="47.84336" lon="7.23331">
        <ele>257.2</ele>
        <time>2014-03-06T15:10:57Z</time>
      </trkpt>
      <trkpt lat="47.84329" lon="7.23322">
        <ele>255.8</ele>
        <time>2014-03-06T15:10:59Z</time>
      </trkpt>
      <trkpt lat="47.8432" lon="7.23313">
        <ele>253.9</ele>
        <time>2014-03-06T15:11:01Z</time>
      </trkpt>
      <trkpt lat="47.84313" lon="7.23304">
        <ele>255</ele>
        <time>2014-03-06T15:11:03Z</time>
      </trkpt>
      <trkpt lat="47.84305" lon="7.23295">
        <ele>253.8</ele>
        <time>2014-03-06T15:11:05Z</time>
      </trkpt>
      <trkpt lat="47.84297" lon="7.23285">
        <ele>254.5</ele>
        <time>2014-03-06T15:11:07Z</time>
      </trkpt>
      <trkpt lat="47.8429" lon="7.23276">
        <ele>255.4</ele>
        <time>2014-03-06T15:11:09Z</time>
      </trkpt>
      <trkpt lat="47.84282" lon="7.23267">
        <ele>256.8</ele>
        <time>2014-03-06T15:11:11Z</time>
      </trkpt>
      <trkpt lat="47.84275" lon="7.23259">
        <ele>257.6</ele>
        <time>2014-03-06T15:11:13Z</time>
      </trkpt>
      <trkpt lat="47.84269" lon="7.23252">
        <ele>255.7</ele>
        <time>2014-03-06T15:11:15Z</time>
      </trkpt>
      <trkpt lat="47.84262" lon="7.23244">
        <ele>255.2</ele>
        <time>2014-03-06T15:11:17Z</time>
      </trkpt>
      <trkpt lat="47.84255" lon="7.23236">
        <ele>256.7</ele>
        <time>2014-03-06T15:11:19Z</time>
      </trkpt>
      <trkpt lat="47.84248" lon="7.23228">
        <ele>257.3</ele>
        <time>2014-03-06T15:11:21Z</time>
      </trkpt>
      <trkpt lat="47.84242" lon="7.2322">
        <ele>256.9</ele>
        <time>2014-03-06T15:11:23Z</time>
      </trkpt>
      <trkpt lat="47.84235" lon="7.23213">
        <ele>257.9</ele>
        <time>2014-03-06T15:11:25Z</time>
      </trkpt>
      <trkpt lat="47.84229" lon="7.23205">
        <ele>259.9</ele>
        <time>2014-03-06T15:11:27Z</time>
      </trkpt>
      <trkpt lat="47.84222" lon="7.23197">
        <ele>258</ele>
        <time>2014-03-06T15:11:29Z</time>
      </trkpt>
      <trkpt lat="47.84214" lon="7.2319">
        <ele>257</ele>
        <time>2014-03-06T15:11:31Z</time>
      </trkpt>
      <trkpt lat="47.84207" lon="7.23182">
        <ele>257.5</ele>
        <time>2014-03-06T15:11:33Z</time>
      </trkpt>
      <trkpt lat="47.842" lon="7.23173">
        <ele>257.2</ele>
        <time>2014-03-06T15:11:35Z</time>
      </trkpt>
      <trkpt lat="47.84193" lon="7.23165">
        <ele>258.1</ele>
        <time>2014-03-06T15:11:37Z</time>
      </trkpt>
      <trkpt lat="47.84185" lon="7.23156">
        <ele>256.6</ele>
        <time>2014-03-06T15:11:39Z</time>
      </trkpt>
      <trkpt lat="47.84178" lon="7.23148">
        <ele>256.3</ele>
        <time>2014-03-06T15:11:41Z</time>
      </trkpt>
      <trkpt lat="47.84171" lon="7.2314">
        <ele>258.7</ele>
        <time>2014-03-06T15:11:43Z</time>
      </trkpt>
      <trkpt lat="47.84163" lon="7.23131">
        <ele>259</ele>
        <time>2014-03-06T15:11:45Z</time>
      </trkpt>
      <trkpt lat="47.84155" lon="7.23123">
        <ele>258</ele>
        <time>2014-03-06T15:11:47Z</time>
      </trkpt>
      <trkpt lat="47.84148" lon="7.23114">
        <ele>257.9</ele>
        <time>2014-03-06T15:11:49Z</time>
      </trkpt>
      <trkpt lat="47.8414" lon="7.23105">
        <ele>258.3</ele>
        <time>2014-03-06T15:11:51Z</time>
      </trkpt>
      <trkpt lat="47.84133" lon="7.23097">
        <ele>259.3</ele>
        <time>2014-03-06T15:11:53Z</time>
      </trkpt>
      <trkpt lat="47.84126" lon="7.2309">
        <ele>259</ele>
        <time>2014-03-06T15:11:55Z</time>
      </trkpt>
      <trkpt lat="47.84119" lon="7.23083">
        <ele>258.4</ele>
        <time>2014-03-06T15:11:57Z</time>
      </trkpt>
      <trkpt lat="47.84113" lon="7.23075">
        <ele>255.9</ele>
        <time>2014-03-06T15:11:59Z</time>
      </trkpt>
      <trkpt lat="47.84106" lon="7.23067">
        <ele>256</ele>
        <time>2014-03-06T15:12:01Z</time>
      </trkpt>
      <trkpt lat="47.84099" lon="7.23059">
        <ele>256.8</ele>
        <time>2014-03-06T15:12:03Z</time>
      </trkpt>
      <trkpt lat="47.84092" lon="7.2305">
        <ele>257</ele>
        <time>2014-03-06T15:12:05Z</time>
      </trkpt>
      <trkpt lat="47.84085" lon="7.23042">
        <ele>257</ele>
        <time>2014-03-06T15:12:07Z</time>
      </trkpt>
      <trkpt lat="47.84078" lon="7.23034">
        <ele>257.3</ele>
        <time>2014-03-06T15:12:09Z</time>
      </trkpt>
      <trkpt lat="47.8407" lon="7.23026">
        <ele>258.1</ele>
        <time>2014-03-06T15:12:11Z</time>
      </trkpt>
      <trkpt lat="47.84063" lon="7.23018">
        <ele>257.6</ele>
        <time>2014-03-06T15:12:13Z</time>
      </trkpt>
      <trkpt lat="47.84055" lon="7.23009">
        <ele>258.8</ele>
        <time>2014-03-06T15:12:15Z</time>
      </trkpt>
      <trkpt lat="47.84047" lon="7.23">
        <ele>256.7</ele>
        <time>2014-03-06T15:12:17Z</time>
      </trkpt>
      <trkpt lat="47.8404" lon="7.22991">
        <ele>258.1</ele>
        <time>2014-03-06T15:12:19Z</time>
      </trkpt>
      <trkpt lat="47.84032" lon="7.22982">
        <ele>257</ele>
        <time>2014-03-06T15:12:21Z</time>
      </trkpt>
      <trkpt lat="47.84023" lon="7.22972">
        <ele>258.3</ele>
        <time>2014-03-06T15:12:23Z</time>
      </trkpt>
      <trkpt lat="47.84015" lon="7.22963">
        <ele>259</ele>
        <time>2014-03-06T15:12:25Z</time>
      </trkpt>
      <trkpt lat="47.84007" lon="7.22953">
        <ele>258.1</ele>
        <time>2014-03-06T15:12:27Z</time>
      </trkpt>
      <trkpt lat="47.83999" lon="7.22944">
        <ele>258.1</ele>
        <time>2014-03-06T15:12:29Z</time>
      </trkpt>
      <trkpt lat="47.83991" lon="7.22935">
        <ele>257.1</ele>
        <time>2014-03-06T15:12:31Z</time>
      </trkpt>
      <trkpt lat="47.83984" lon="7.22927">
        <ele>257.9</ele>
        <time>2014-03-06T15:12:33Z</time>
      </trkpt>
      <trkpt lat="47.83976" lon="7.22918">
        <ele>259.8</ele>
        <time>2014-03-06T15:12:35Z</time>
      </trkpt>
      <trkpt lat="47.83968" lon="7.22909">
        <ele>259.2</ele>
        <time>2014-03-06T15:12:37Z</time>
      </trkpt>
      <trkpt lat="47.8396" lon="7.229">
        <ele>257.6</ele>
        <time>2014-03-06T15:12:39Z</time>
      </trkpt>
      <trkpt lat="47.83952" lon="7.22891">
        <ele>257.9</ele>
        <time>2014-03-06T15:12:41Z</time>
      </trkpt>
      <trkpt lat="47.83944" lon="7.22881">
        <ele>256.8</ele>
        <time>2014-03-06T15:12:43Z</time>
      </trkpt>
      <trkpt lat="47.83936" lon="7.22872">
        <ele>259.4</ele>
        <time>2014-03-06T15:12:45Z</time>
      </trkpt>
      <trkpt lat="47.83927" lon="7.22862">
        <ele>259.2</ele>
        <time>2014-03-06T15:12:47Z</time>
      </trkpt>
      <trkpt lat="47.83919" lon="7.22852">
        <ele>259.8</ele>
        <time>2014-03-06T15:12:49Z</time>
      </trkpt>
      <trkpt lat="47.83911" lon="7.22843">
        <ele>261.4</ele>
        <time>2014-03-06T15:12:51Z</time>
      </trkpt>
      <trkpt lat="47.83903" lon="7.22834">
        <ele>259.5</ele>
        <time>2014-03-06T15:12:53Z</time>
      </trkpt>
      <trkpt lat="47.83895" lon="7.22824">
        <ele>261</ele>
        <time>2014-03-06T15:12:55Z</time>
      </trkpt>
      <trkpt lat="47.83886" lon="7.22815">
        <ele>261.6</ele>
        <time>2014-03-06T15:12:57Z</time>
      </trkpt>
      <trkpt lat="47.83878" lon="7.22806">
        <ele>261</ele>
        <time>2014-03-06T15:12:59Z</time>
      </trkpt>
      <trkpt lat="47.83871" lon="7.22798">
        <ele>260.7</ele>
        <time>2014-03-06T15:13:01Z</time>
      </trkpt>
      <trkpt lat="47.83864" lon="7.2279">
        <ele>259.1</ele>
        <time>2014-03-06T15:13:03Z</time>
      </trkpt>
      <trkpt lat="47.83857" lon="7.22781">
        <ele>259.6</ele>
        <time>2014-03-06T15:13:05Z</time>
      </trkpt>
      <trkpt lat="47.83849" lon="7.22773">
        <ele>260.5</ele>
        <time>2014-03-06T15:13:07Z</time>
      </trkpt>
      <trkpt lat="47.83842" lon="7.22764">
        <ele>259.9</ele>
        <time>2014-03-06T15:13:09Z</time>
      </trkpt>
      <trkpt lat="47.83835" lon="7.22756">
        <ele>259.3</ele>
        <time>2014-03-06T15:13:11Z</time>
      </trkpt>
      <trkpt lat="47.83828" lon="7.22748">
        <ele>259.7</ele>
        <time>2014-03-06T15:13:13Z</time>
      </trkpt>
      <trkpt lat="47.8382" lon="7.22739">
        <ele>260.4</ele>
        <time>2014-03-06T15:13:15Z</time>
      </trkpt>
      <trkpt lat="47.83814" lon="7.22731">
        <ele>259.5</ele>
        <time>2014-03-06T15:13:17Z</time>
      </trkpt>
      <trkpt lat="47.83807" lon="7.22724">
        <ele>260.9</ele>
        <time>2014-03-06T15:13:19Z</time>
      </trkpt>
      <trkpt lat="47.838" lon="7.22716">
        <ele>259.7</ele>
        <time>2014-03-06T15:13:21Z</time>
      </trkpt>
      <trkpt lat="47.83793" lon="7.22708">
        <ele>260.5</ele>
        <time>2014-03-06T15:13:23Z</time>
      </trkpt>
      <trkpt lat="47.83786" lon="7.227">
        <ele>261.7</ele>
        <time>2014-03-06T15:13:25Z</time>
      </trkpt>
      <trkpt lat="47.8378" lon="7.22693">
        <ele>262</ele>
        <time>2014-03-06T15:13:27Z</time>
      </trkpt>
      <trkpt lat="47.83773" lon="7.22686">
        <ele>261.8</ele>
        <time>2014-03-06T15:13:29Z</time>
      </trkpt>
      <trkpt lat="47.83767" lon="7.22679">
        <ele>262.3</ele>
        <time>2014-03-06T15:13:31Z</time>
      </trkpt>
      <trkpt lat="47.83762" lon="7.22672">
        <ele>263.3</ele>
        <time>2014-03-06T15:13:33Z</time>
      </trkpt>
      <trkpt lat="47.83756" lon="7.22666">
        <ele>262.6</ele>
        <time>2014-03-06T15:13:35Z</time>
      </trkpt>
      <trkpt lat="47.83751" lon="7.2266">
        <ele>261.7</ele>
        <time>2014-03-06T15:13:37Z</time>
      </trkpt>
      <trkpt lat="47.83745" lon="7.22653">
        <ele>262.2</ele>
        <time>2014-03-06T15:13:39Z</time>
      </trkpt>
      <trkpt lat="47.8374" lon="7.22647">
        <ele>263.5</ele>
        <time>2014-03-06T15:13:41Z</time>
      </trkpt>
      <trkpt lat="47.83735" lon="7.22641">
        <ele>264.7</ele>
        <time>2014-03-06T15:13:43Z</time>
      </trkpt>
      <trkpt lat="47.8373" lon="7.22635">
        <ele>264.1</ele>
        <time>2014-03-06T15:13:45Z</time>
      </trkpt>
      <trkpt lat="47.83725" lon="7.22629">
        <ele>264.9</ele>
        <time>2014-03-06T15:13:47Z</time>
      </trkpt>
      <trkpt lat="47.8372" lon="7.22623">
        <ele>265.3</ele>
        <time>2014-03-06T15:13:49Z</time>
      </trkpt>
      <trkpt lat="47.83714" lon="7.22618">
        <ele>265.3</ele>
        <time>2014-03-06T15:13:51Z</time>
      </trkpt>
      <trkpt lat="47.83709" lon="7.22612">
        <ele>264.7</ele>
        <time>2014-03-06T15:13:52Z</time>
      </trkpt>
      <trkpt lat="47.83704" lon="7.22606">
        <ele>264.7</ele>
        <time>2014-03-06T15:13:55Z</time>
      </trkpt>
      <trkpt lat="47.83699" lon="7.226">
        <ele>264.4</ele>
        <time>2014-03-06T15:13:57Z</time>
      </trkpt>
      <trkpt lat="47.83694" lon="7.22593">
        <ele>265.4</ele>
        <time>2014-03-06T15:13:59Z</time>
      </trkpt>
      <trkpt lat="47.83688" lon="7.22587">
        <ele>266.4</ele>
        <time>2014-03-06T15:14:01Z</time>
      </trkpt>
      <trkpt lat="47.83682" lon="7.2258">
        <ele>265.6</ele>
        <time>2014-03-06T15:14:03Z</time>
      </trkpt>
      <trkpt lat="47.83677" lon="7.22573">
        <ele>264.6</ele>
        <time>2014-03-06T15:14:05Z</time>
      </trkpt>
      <trkpt lat="47.8367" lon="7.22567">
        <ele>264.4</ele>
        <time>2014-03-06T15:14:07Z</time>
      </trkpt>
      <trkpt lat="47.83664" lon="7.2256">
        <ele>264.6</ele>
        <time>2014-03-06T15:14:09Z</time>
      </trkpt>
      <trkpt lat="47.83659" lon="7.22554">
        <ele>265.7</ele>
        <time>2014-03-06T15:14:11Z</time>
      </trkpt>
      <trkpt lat="47.83654" lon="7.22547">
        <ele>267.3</ele>
        <time>2014-03-06T15:14:13Z</time>
      </trkpt>
      <trkpt lat="47.83649" lon="7.22542">
        <ele>267.9</ele>
        <time>2014-03-06T15:14:15Z</time>
      </trkpt>
      <trkpt lat="47.83644" lon="7.22537">
        <ele>267.7</ele>
        <time>2014-03-06T15:14:17Z</time>
      </trkpt>
      <trkpt lat="47.8364" lon="7.22532">
        <ele>267.6</ele>
        <time>2014-03-06T15:14:19Z</time>
      </trkpt>
      <trkpt lat="47.83635" lon="7.22526">
        <ele>267.2</ele>
        <time>2014-03-06T15:14:21Z</time>
      </trkpt>
      <trkpt lat="47.83629" lon="7.22519">
        <ele>268.8</ele>
        <time>2014-03-06T15:14:23Z</time>
      </trkpt>
      <trkpt lat="47.83622" lon="7.2251">
        <ele>267</ele>
        <time>2014-03-06T15:14:25Z</time>
      </trkpt>
      <trkpt lat="47.83615" lon="7.22502">
        <ele>267.4</ele>
        <time>2014-03-06T15:14:27Z</time>
      </trkpt>
      <trkpt lat="47.83608" lon="7.22493">
        <ele>267.6</ele>
        <time>2014-03-06T15:14:29Z</time>
      </trkpt>
      <trkpt lat="47.83601" lon="7.22485">
        <ele>267.9</ele>
        <time>2014-03-06T15:14:31Z</time>
      </trkpt>
      <trkpt lat="47.83595" lon="7.22477">
        <ele>268.8</ele>
        <time>2014-03-06T15:14:33Z</time>
      </trkpt>
      <trkpt lat="47.83588" lon="7.22469">
        <ele>269.3</ele>
        <time>2014-03-06T15:14:35Z</time>
      </trkpt>
      <trkpt lat="47.83582" lon="7.22461">
        <ele>268.8</ele>
        <time>2014-03-06T15:14:37Z</time>
      </trkpt>
      <trkpt lat="47.83576" lon="7.22453">
        <ele>268.7</ele>
        <time>2014-03-06T15:14:39Z</time>
      </trkpt>
      <trkpt lat="47.8357" lon="7.22445">
        <ele>267</ele>
        <time>2014-03-06T15:14:41Z</time>
      </trkpt>
      <trkpt lat="47.83564" lon="7.22437">
        <ele>266.5</ele>
        <time>2014-03-06T15:14:43Z</time>
      </trkpt>
      <trkpt lat="47.83558" lon="7.22429">
        <ele>266.2</ele>
        <time>2014-03-06T15:14:45Z</time>
      </trkpt>
      <trkpt lat="47.83551" lon="7.2242">
        <ele>267.3</ele>
        <time>2014-03-06T15:14:47Z</time>
      </trkpt>
      <trkpt lat="47.83545" lon="7.22411">
        <ele>268.4</ele>
        <time>2014-03-06T15:14:49Z</time>
      </trkpt>
      <trkpt lat="47.83538" lon="7.22402">
        <ele>267.7</ele>
        <time>2014-03-06T15:14:51Z</time>
      </trkpt>
      <trkpt lat="47.83532" lon="7.22393">
        <ele>266.5</ele>
        <time>2014-03-06T15:14:53Z</time>
      </trkpt>
      <trkpt lat="47.83526" lon="7.22384">
        <ele>266.7</ele>
        <time>2014-03-06T15:14:55Z</time>
      </trkpt>
      <trkpt lat="47.83521" lon="7.22374">
        <ele>267.7</ele>
        <time>2014-03-06T15:14:57Z</time>
      </trkpt>
      <trkpt lat="47.83515" lon="7.22365">
        <ele>267.9</ele>
        <time>2014-03-06T15:14:59Z</time>
      </trkpt>
      <trkpt lat="47.83511" lon="7.22356">
        <ele>267.1</ele>
        <time>2014-03-06T15:15:01Z</time>
      </trkpt>
      <trkpt lat="47.83511" lon="7.22346">
        <ele>266.4</ele>
        <time>2014-03-06T15:15:03Z</time>
      </trkpt>
      <trkpt lat="47.83512" lon="7.22335">
        <ele>266.5</ele>
        <time>2014-03-06T15:15:05Z</time>
      </trkpt>
      <trkpt lat="47.83517" lon="7.22327">
        <ele>267.6</ele>
        <time>2014-03-06T15:15:07Z</time>
      </trkpt>
      <trkpt lat="47.83524" lon="7.22323">
        <ele>268.6</ele>
        <time>2014-03-06T15:15:09Z</time>
      </trkpt>
      <trkpt lat="47.83532" lon="7.22322">
        <ele>267.5</ele>
        <time>2014-03-06T15:15:11Z</time>
      </trkpt>
      <trkpt lat="47.8354" lon="7.22321">
        <ele>267.3</ele>
        <time>2014-03-06T15:15:13Z</time>
      </trkpt>
      <trkpt lat="47.83556" lon="7.2232">
        <ele>267.7</ele>
        <time>2014-03-06T15:15:17Z</time>
      </trkpt>
      <trkpt lat="47.83565" lon="7.2232">
        <ele>267.3</ele>
        <time>2014-03-06T15:15:19Z</time>
      </trkpt>
      <trkpt lat="47.83573" lon="7.22318">
        <ele>267.2</ele>
        <time>2014-03-06T15:15:21Z</time>
      </trkpt>
      <trkpt lat="47.83581" lon="7.22316">
        <ele>268.3</ele>
        <time>2014-03-06T15:15:23Z</time>
      </trkpt>
      <trkpt lat="47.83588" lon="7.22313">
        <ele>268.6</ele>
        <time>2014-03-06T15:15:25Z</time>
      </trkpt>
      <trkpt lat="47.83596" lon="7.22309">
        <ele>268.2</ele>
        <time>2014-03-06T15:15:27Z</time>
      </trkpt>
      <trkpt lat="47.83604" lon="7.22305">
        <ele>268</ele>
        <time>2014-03-06T15:15:29Z</time>
      </trkpt>
      <trkpt lat="47.83612" lon="7.22301">
        <ele>268.2</ele>
        <time>2014-03-06T15:15:31Z</time>
      </trkpt>
      <trkpt lat="47.83619" lon="7.22297">
        <ele>268.4</ele>
        <time>2014-03-06T15:15:33Z</time>
      </trkpt>
      <trkpt lat="47.83627" lon="7.22293">
        <ele>269</ele>
        <time>2014-03-06T15:15:35Z</time>
      </trkpt>
      <trkpt lat="47.83636" lon="7.22289">
        <ele>268.1</ele>
        <time>2014-03-06T15:15:37Z</time>
      </trkpt>
      <trkpt lat="47.83644" lon="7.22285">
        <ele>268.2</ele>
        <time>2014-03-06T15:15:39Z</time>
      </trkpt>
      <trkpt lat="47.83652" lon="7.22281">
        <ele>269.1</ele>
        <time>2014-03-06T15:15:41Z</time>
      </trkpt>
      <trkpt lat="47.83659" lon="7.22276">
        <ele>268.6</ele>
        <time>2014-03-06T15:15:43Z</time>
      </trkpt>
      <trkpt lat="47.83667" lon="7.22272">
        <ele>267.9</ele>
        <time>2014-03-06T15:15:45Z</time>
      </trkpt>
      <trkpt lat="47.83672" lon="7.22267">
        <ele>267.3</ele>
        <time>2014-03-06T15:15:47Z</time>
      </trkpt>
      <trkpt lat="47.83677" lon="7.22261">
        <ele>267.4</ele>
        <time>2014-03-06T15:15:49Z</time>
      </trkpt>
      <trkpt lat="47.83678" lon="7.22254">
        <ele>266.9</ele>
        <time>2014-03-06T15:15:51Z</time>
      </trkpt>
      <trkpt lat="47.83679" lon="7.22247">
        <ele>267.4</ele>
        <time>2014-03-06T15:15:53Z</time>
      </trkpt>
      <trkpt lat="47.83677" lon="7.22241">
        <ele>267.5</ele>
        <time>2014-03-06T15:15:55Z</time>
      </trkpt>
      <trkpt lat="47.83671" lon="7.22237">
        <ele>268.2</ele>
        <time>2014-03-06T15:15:57Z</time>
      </trkpt>
      <trkpt lat="47.83664" lon="7.22237">
        <ele>268.3</ele>
        <time>2014-03-06T15:15:59Z</time>
      </trkpt>
      <trkpt lat="47.8365" lon="7.22237">
        <ele>268.2</ele>
        <time>2014-03-06T15:16:03Z</time>
      </trkpt>
      <trkpt lat="47.83642" lon="7.22237">
        <ele>267.8</ele>
        <time>2014-03-06T15:16:05Z</time>
      </trkpt>
      <trkpt lat="47.83634" lon="7.22236">
        <ele>267.5</ele>
        <time>2014-03-06T15:16:07Z</time>
      </trkpt>
      <trkpt lat="47.83627" lon="7.22234">
        <ele>267.6</ele>
        <time>2014-03-06T15:16:09Z</time>
      </trkpt>
      <trkpt lat="47.83619" lon="7.22232">
        <ele>267.3</ele>
        <time>2014-03-06T15:16:11Z</time>
      </trkpt>
      <trkpt lat="47.83611" lon="7.2223">
        <ele>269.9</ele>
        <time>2014-03-06T15:16:13Z</time>
      </trkpt>
      <trkpt lat="47.83603" lon="7.22228">
        <ele>269.5</ele>
        <time>2014-03-06T15:16:15Z</time>
      </trkpt>
      <trkpt lat="47.83595" lon="7.22225">
        <ele>268.9</ele>
        <time>2014-03-06T15:16:17Z</time>
      </trkpt>
      <trkpt lat="47.83586" lon="7.22222">
        <ele>269.1</ele>
        <time>2014-03-06T15:16:19Z</time>
      </trkpt>
      <trkpt lat="47.83578" lon="7.22219">
        <ele>269.6</ele>
        <time>2014-03-06T15:16:21Z</time>
      </trkpt>
      <trkpt lat="47.8357" lon="7.22216">
        <ele>270</ele>
        <time>2014-03-06T15:16:23Z</time>
      </trkpt>
      <trkpt lat="47.83561" lon="7.22213">
        <ele>269.4</ele>
        <time>2014-03-06T15:16:25Z</time>
      </trkpt>
      <trkpt lat="47.83553" lon="7.22211">
        <ele>269.2</ele>
        <time>2014-03-06T15:16:27Z</time>
      </trkpt>
      <trkpt lat="47.83545" lon="7.22209">
        <ele>270</ele>
        <time>2014-03-06T15:16:29Z</time>
      </trkpt>
      <trkpt lat="47.83536" lon="7.22208">
        <ele>270.3</ele>
        <time>2014-03-06T15:16:31Z</time>
      </trkpt>
      <trkpt lat="47.83528" lon="7.22207">
        <ele>269.4</ele>
        <time>2014-03-06T15:16:33Z</time>
      </trkpt>
      <trkpt lat="47.83521" lon="7.22207">
        <ele>269.2</ele>
        <time>2014-03-06T15:16:35Z</time>
      </trkpt>
      <trkpt lat="47.83514" lon="7.22206">
        <ele>269.1</ele>
        <time>2014-03-06T15:16:37Z</time>
      </trkpt>
      <trkpt lat="47.83499" lon="7.22207">
        <ele>271.4</ele>
        <time>2014-03-06T15:16:41Z</time>
      </trkpt>
      <trkpt lat="47.83492" lon="7.22207">
        <ele>270</ele>
        <time>2014-03-06T15:16:43Z</time>
      </trkpt>
      <trkpt lat="47.83484" lon="7.22209">
        <ele>270.8</ele>
        <time>2014-03-06T15:16:45Z</time>
      </trkpt>
      <trkpt lat="47.83477" lon="7.2221">
        <ele>270.7</ele>
        <time>2014-03-06T15:16:47Z</time>
      </trkpt>
      <trkpt lat="47.8347" lon="7.22212">
        <ele>272.1</ele>
        <time>2014-03-06T15:16:49Z</time>
      </trkpt>
      <trkpt lat="47.83464" lon="7.22213">
        <ele>273.2</ele>
        <time>2014-03-06T15:16:51Z</time>
      </trkpt>
      <trkpt lat="47.83459" lon="7.22214">
        <ele>273.7</ele>
        <time>2014-03-06T15:16:53Z</time>
      </trkpt>
      <trkpt lat="47.83454" lon="7.22216">
        <ele>272.9</ele>
        <time>2014-03-06T15:16:55Z</time>
      </trkpt>
      <trkpt lat="47.83449" lon="7.22218">
        <ele>273.7</ele>
        <time>2014-03-06T15:16:57Z</time>
      </trkpt>
      <trkpt lat="47.83444" lon="7.2222">
        <ele>274</ele>
        <time>2014-03-06T15:16:59Z</time>
      </trkpt>
      <trkpt lat="47.83438" lon="7.22222">
        <ele>273.6</ele>
        <time>2014-03-06T15:17:01Z</time>
      </trkpt>
      <trkpt lat="47.83432" lon="7.22224">
        <ele>274</ele>
        <time>2014-03-06T15:17:03Z</time>
      </trkpt>
      <trkpt lat="47.83427" lon="7.22226">
        <ele>274.1</ele>
        <time>2014-03-06T15:17:05Z</time>
      </trkpt>
      <trkpt lat="47.83422" lon="7.22229">
        <ele>274.3</ele>
        <time>2014-03-06T15:17:07Z</time>
      </trkpt>
      <trkpt lat="47.83416" lon="7.22232">
        <ele>274.8</ele>
        <time>2014-03-06T15:17:09Z</time>
      </trkpt>
      <trkpt lat="47.83411" lon="7.22235">
        <ele>275.4</ele>
        <time>2014-03-06T15:17:11Z</time>
      </trkpt>
      <trkpt lat="47.83407" lon="7.22239">
        <ele>275.1</ele>
        <time>2014-03-06T15:17:13Z</time>
      </trkpt>
      <trkpt lat="47.83402" lon="7.22244">
        <ele>274.9</ele>
        <time>2014-03-06T15:17:15Z</time>
      </trkpt>
      <trkpt lat="47.83396" lon="7.22248">
        <ele>275.3</ele>
        <time>2014-03-06T15:17:17Z</time>
      </trkpt>
      <trkpt lat="47.83392" lon="7.22252">
        <ele>275.6</ele>
        <time>2014-03-06T15:17:19Z</time>
      </trkpt>
      <trkpt lat="47.83387" lon="7.22256">
        <ele>275.8</ele>
        <time>2014-03-06T15:17:21Z</time>
      </trkpt>
      <trkpt lat="47.83382" lon="7.2226">
        <ele>275.8</ele>
        <time>2014-03-06T15:17:23Z</time>
      </trkpt>
      <trkpt lat="47.83377" lon="7.22265">
        <ele>276.7</ele>
        <time>2014-03-06T15:17:25Z</time>
      </trkpt>
      <trkpt lat="47.83371" lon="7.2227">
        <ele>276.5</ele>
        <time>2014-03-06T15:17:27Z</time>
      </trkpt>
      <trkpt lat="47.83364" lon="7.22275">
        <ele>276.8</ele>
        <time>2014-03-06T15:17:29Z</time>
      </trkpt>
      <trkpt lat="47.83357" lon="7.22281">
        <ele>277</ele>
        <time>2014-03-06T15:17:31Z</time>
      </trkpt>
      <trkpt lat="47.8335" lon="7.22288">
        <ele>276</ele>
        <time>2014-03-06T15:17:33Z</time>
      </trkpt>
      <trkpt lat="47.83342" lon="7.22296">
        <ele>276.3</ele>
        <time>2014-03-06T15:17:35Z</time>
      </trkpt>
      <trkpt lat="47.83335" lon="7.22304">
        <ele>274.8</ele>
        <time>2014-03-06T15:17:37Z</time>
      </trkpt>
      <trkpt lat="47.83327" lon="7.22314">
        <ele>274.6</ele>
        <time>2014-03-06T15:17:39Z</time>
      </trkpt>
      <trkpt lat="47.83318" lon="7.22324">
        <ele>273.6</ele>
        <time>2014-03-06T15:17:41Z</time>
      </trkpt>
      <trkpt lat="47.8331" lon="7.22337">
        <ele>273.8</ele>
        <time>2014-03-06T15:17:43Z</time>
      </trkpt>
      <trkpt lat="47.83301" lon="7.22351">
        <ele>273.4</ele>
        <time>2014-03-06T15:17:45Z</time>
      </trkpt>
      <trkpt lat="47.83292" lon="7.22367">
        <ele>274.1</ele>
        <time>2014-03-06T15:17:47Z</time>
      </trkpt>
      <trkpt lat="47.83284" lon="7.22383">
        <ele>273</ele>
        <time>2014-03-06T15:17:49Z</time>
      </trkpt>
      <trkpt lat="47.83275" lon="7.224">
        <ele>272.5</ele>
        <time>2014-03-06T15:17:51Z</time>
      </trkpt>
      <trkpt lat="47.83266" lon="7.22417">
        <ele>271</ele>
        <time>2014-03-06T15:17:53Z</time>
      </trkpt>
      <trkpt lat="47.83258" lon="7.22434">
        <ele>270.1</ele>
        <time>2014-03-06T15:17:55Z</time>
      </trkpt>
      <trkpt lat="47.83249" lon="7.2245">
        <ele>269.4</ele>
        <time>2014-03-06T15:17:57Z</time>
      </trkpt>
      <trkpt lat="47.83241" lon="7.22465">
        <ele>269.9</ele>
        <time>2014-03-06T15:17:59Z</time>
      </trkpt>
      <trkpt lat="47.83233" lon="7.22479">
        <ele>270.1</ele>
        <time>2014-03-06T15:18:01Z</time>
      </trkpt>
      <trkpt lat="47.83225" lon="7.22491">
        <ele>270.6</ele>
        <time>2014-03-06T15:18:03Z</time>
      </trkpt>
      <trkpt lat="47.83217" lon="7.22501">
        <ele>270.1</ele>
        <time>2014-03-06T15:18:05Z</time>
      </trkpt>
      <trkpt lat="47.8321" lon="7.22511">
        <ele>271.1</ele>
        <time>2014-03-06T15:18:07Z</time>
      </trkpt>
      <trkpt lat="47.83204" lon="7.22519">
        <ele>270.4</ele>
        <time>2014-03-06T15:18:09Z</time>
      </trkpt>
      <trkpt lat="47.83196" lon="7.22528">
        <ele>270.4</ele>
        <time>2014-03-06T15:18:11Z</time>
      </trkpt>
      <trkpt lat="47.83188" lon="7.22537">
        <ele>269.5</ele>
        <time>2014-03-06T15:18:13Z</time>
      </trkpt>
      <trkpt lat="47.83181" lon="7.22545">
        <ele>269.9</ele>
        <time>2014-03-06T15:18:14Z</time>
      </trkpt>
      <trkpt lat="47.83173" lon="7.22553">
        <ele>271.4</ele>
        <time>2014-03-06T15:18:17Z</time>
      </trkpt>
      <trkpt lat="47.83166" lon="7.22558">
        <ele>272.1</ele>
        <time>2014-03-06T15:18:19Z</time>
      </trkpt>
      <trkpt lat="47.83158" lon="7.22566">
        <ele>272.5</ele>
        <time>2014-03-06T15:18:21Z</time>
      </trkpt>
      <trkpt lat="47.83149" lon="7.22574">
        <ele>272.7</ele>
        <time>2014-03-06T15:18:23Z</time>
      </trkpt>
      <trkpt lat="47.8314" lon="7.22581">
        <ele>272.3</ele>
        <time>2014-03-06T15:18:25Z</time>
      </trkpt>
      <trkpt lat="47.8313" lon="7.22589">
        <ele>271.6</ele>
        <time>2014-03-06T15:18:27Z</time>
      </trkpt>
      <trkpt lat="47.8312" lon="7.22596">
        <ele>270.1</ele>
        <time>2014-03-06T15:18:29Z</time>
      </trkpt>
      <trkpt lat="47.83109" lon="7.22604">
        <ele>270.1</ele>
        <time>2014-03-06T15:18:31Z</time>
      </trkpt>
      <trkpt lat="47.83097" lon="7.22613">
        <ele>268.9</ele>
        <time>2014-03-06T15:18:33Z</time>
      </trkpt>
      <trkpt lat="47.83085" lon="7.22623">
        <ele>268.6</ele>
        <time>2014-03-06T15:18:35Z</time>
      </trkpt>
      <trkpt lat="47.83073" lon="7.22633">
        <ele>267.4</ele>
        <time>2014-03-06T15:18:37Z</time>
      </trkpt>
      <trkpt lat="47.83061" lon="7.22646">
        <ele>268.1</ele>
        <time>2014-03-06T15:18:39Z</time>
      </trkpt>
      <trkpt lat="47.83049" lon="7.2266">
        <ele>269.2</ele>
        <time>2014-03-06T15:18:41Z</time>
      </trkpt>
      <trkpt lat="47.83037" lon="7.22674">
        <ele>267.8</ele>
        <time>2014-03-06T15:18:43Z</time>
      </trkpt>
      <trkpt lat="47.83026" lon="7.22686">
        <ele>268.7</ele>
        <time>2014-03-06T15:18:45Z</time>
      </trkpt>
      <trkpt lat="47.83015" lon="7.22698">
        <ele>267.3</ele>
        <time>2014-03-06T15:18:47Z</time>
      </trkpt>
      <trkpt lat="47.83006" lon="7.22709">
        <ele>268.4</ele>
        <time>2014-03-06T15:18:49Z</time>
      </trkpt>
      <trkpt lat="47.82997" lon="7.22719">
        <ele>268.1</ele>
        <time>2014-03-06T15:18:51Z</time>
      </trkpt>
      <trkpt lat="47.82987" lon="7.2273">
        <ele>268.2</ele>
        <time>2014-03-06T15:18:53Z</time>
      </trkpt>
      <trkpt lat="47.82978" lon="7.22739">
        <ele>268.8</ele>
        <time>2014-03-06T15:18:55Z</time>
      </trkpt>
      <trkpt lat="47.82969" lon="7.2275">
        <ele>267</ele>
        <time>2014-03-06T15:18:57Z</time>
      </trkpt>
      <trkpt lat="47.8296" lon="7.2276">
        <ele>267.9</ele>
        <time>2014-03-06T15:18:59Z</time>
      </trkpt>
      <trkpt lat="47.8295" lon="7.22771">
        <ele>268.6</ele>
        <time>2014-03-06T15:19:01Z</time>
      </trkpt>
      <trkpt lat="47.82941" lon="7.22782">
        <ele>268.3</ele>
        <time>2014-03-06T15:19:03Z</time>
      </trkpt>
      <trkpt lat="47.82931" lon="7.22793">
        <ele>267.4</ele>
        <time>2014-03-06T15:19:05Z</time>
      </trkpt>
      <trkpt lat="47.82921" lon="7.22805">
        <ele>268</ele>
        <time>2014-03-06T15:19:07Z</time>
      </trkpt>
      <trkpt lat="47.82911" lon="7.22817">
        <ele>268.9</ele>
        <time>2014-03-06T15:19:09Z</time>
      </trkpt>
      <trkpt lat="47.82901" lon="7.22829">
        <ele>267.6</ele>
        <time>2014-03-06T15:19:11Z</time>
      </trkpt>
      <trkpt lat="47.82892" lon="7.22842">
        <ele>267.2</ele>
        <time>2014-03-06T15:19:13Z</time>
      </trkpt>
      <trkpt lat="47.82883" lon="7.22855">
        <ele>267.5</ele>
        <time>2014-03-06T15:19:15Z</time>
      </trkpt>
      <trkpt lat="47.82875" lon="7.22868">
        <ele>266.9</ele>
        <time>2014-03-06T15:19:17Z</time>
      </trkpt>
      <trkpt lat="47.82867" lon="7.2288">
        <ele>265.9</ele>
        <time>2014-03-06T15:19:19Z</time>
      </trkpt>
      <trkpt lat="47.8286" lon="7.22893">
        <ele>267.5</ele>
        <time>2014-03-06T15:19:21Z</time>
      </trkpt>
      <trkpt lat="47.82852" lon="7.22907">
        <ele>267.1</ele>
        <time>2014-03-06T15:19:23Z</time>
      </trkpt>
      <trkpt lat="47.82844" lon="7.22919">
        <ele>266.8</ele>
        <time>2014-03-06T15:19:25Z</time>
      </trkpt>
      <trkpt lat="47.82838" lon="7.22931">
        <ele>265.2</ele>
        <time>2014-03-06T15:19:27Z</time>
      </trkpt>
      <trkpt lat="47.82832" lon="7.22945">
        <ele>266.7</ele>
        <time>2014-03-06T15:19:29Z</time>
      </trkpt>
      <trkpt lat="47.82827" lon="7.22959">
        <ele>266.8</ele>
        <time>2014-03-06T15:19:31Z</time>
      </trkpt>
      <trkpt lat="47.82822" lon="7.22972">
        <ele>267.2</ele>
        <time>2014-03-06T15:19:33Z</time>
      </trkpt>
      <trkpt lat="47.82816" lon="7.22987">
        <ele>265.7</ele>
        <time>2014-03-06T15:19:35Z</time>
      </trkpt>
      <trkpt lat="47.82811" lon="7.23002">
        <ele>265.4</ele>
        <time>2014-03-06T15:19:37Z</time>
      </trkpt>
      <trkpt lat="47.82805" lon="7.23018">
        <ele>265.7</ele>
        <time>2014-03-06T15:19:39Z</time>
      </trkpt>
      <trkpt lat="47.82799" lon="7.23035">
        <ele>266.1</ele>
        <time>2014-03-06T15:19:41Z</time>
      </trkpt>
      <trkpt lat="47.82794" lon="7.2305">
        <ele>265.4</ele>
        <time>2014-03-06T15:19:43Z</time>
      </trkpt>
      <trkpt lat="47.82789" lon="7.23068">
        <ele>266.1</ele>
        <time>2014-03-06T15:19:45Z</time>
      </trkpt>
      <trkpt lat="47.82784" lon="7.23084">
        <ele>265</ele>
        <time>2014-03-06T15:19:47Z</time>
      </trkpt>
      <trkpt lat="47.82779" lon="7.231">
        <ele>265.8</ele>
        <time>2014-03-06T15:19:49Z</time>
      </trkpt>
      <trkpt lat="47.82774" lon="7.23114">
        <ele>265</ele>
        <time>2014-03-06T15:19:51Z</time>
      </trkpt>
      <trkpt lat="47.82771" lon="7.23126">
        <ele>265.4</ele>
        <time>2014-03-06T15:19:53Z</time>
      </trkpt>
      <trkpt lat="47.82768" lon="7.23141">
        <ele>265.7</ele>
        <time>2014-03-06T15:19:55Z</time>
      </trkpt>
      <trkpt lat="47.82766" lon="7.23155">
        <ele>265.2</ele>
        <time>2014-03-06T15:19:57Z</time>
      </trkpt>
      <trkpt lat="47.82763" lon="7.23171">
        <ele>266</ele>
        <time>2014-03-06T15:19:59Z</time>
      </trkpt>
      <trkpt lat="47.82761" lon="7.23187">
        <ele>264.8</ele>
        <time>2014-03-06T15:20:01Z</time>
      </trkpt>
      <trkpt lat="47.8276" lon="7.23204">
        <ele>265.5</ele>
        <time>2014-03-06T15:20:03Z</time>
      </trkpt>
      <trkpt lat="47.8276" lon="7.23221">
        <ele>265</ele>
        <time>2014-03-06T15:20:05Z</time>
      </trkpt>
      <trkpt lat="47.82761" lon="7.23254">
        <ele>264.8</ele>
        <time>2014-03-06T15:20:09Z</time>
      </trkpt>
      <trkpt lat="47.82762" lon="7.2327">
        <ele>265.7</ele>
        <time>2014-03-06T15:20:11Z</time>
      </trkpt>
      <trkpt lat="47.82765" lon="7.23286">
        <ele>266</ele>
        <time>2014-03-06T15:20:13Z</time>
      </trkpt>
      <trkpt lat="47.82769" lon="7.23302">
        <ele>265.6</ele>
        <time>2014-03-06T15:20:15Z</time>
      </trkpt>
      <trkpt lat="47.82773" lon="7.23317">
        <ele>265.4</ele>
        <time>2014-03-06T15:20:17Z</time>
      </trkpt>
      <trkpt lat="47.82779" lon="7.23331">
        <ele>263.8</ele>
        <time>2014-03-06T15:20:19Z</time>
      </trkpt>
      <trkpt lat="47.82785" lon="7.23344">
        <ele>263</ele>
        <time>2014-03-06T15:20:21Z</time>
      </trkpt>
      <trkpt lat="47.8279" lon="7.23356">
        <ele>263.8</ele>
        <time>2014-03-06T15:20:23Z</time>
      </trkpt>
      <trkpt lat="47.82795" lon="7.23368">
        <ele>265</ele>
        <time>2014-03-06T15:20:25Z</time>
      </trkpt>
      <trkpt lat="47.828" lon="7.23379">
        <ele>264.8</ele>
        <time>2014-03-06T15:20:27Z</time>
      </trkpt>
      <trkpt lat="47.82806" lon="7.2339">
        <ele>265.1</ele>
        <time>2014-03-06T15:20:29Z</time>
      </trkpt>
      <trkpt lat="47.82811" lon="7.23401">
        <ele>264.3</ele>
        <time>2014-03-06T15:20:31Z</time>
      </trkpt>
      <trkpt lat="47.82818" lon="7.23413">
        <ele>264.1</ele>
        <time>2014-03-06T15:20:33Z</time>
      </trkpt>
      <trkpt lat="47.82824" lon="7.23425">
        <ele>263.9</ele>
        <time>2014-03-06T15:20:35Z</time>
      </trkpt>
      <trkpt lat="47.8283" lon="7.23437">
        <ele>265</ele>
        <time>2014-03-06T15:20:37Z</time>
      </trkpt>
      <trkpt lat="47.82836" lon="7.23448">
        <ele>265.3</ele>
        <time>2014-03-06T15:20:39Z</time>
      </trkpt>
      <trkpt lat="47.82842" lon="7.2346">
        <ele>264.6</ele>
        <time>2014-03-06T15:20:41Z</time>
      </trkpt>
      <trkpt lat="47.82847" lon="7.23473">
        <ele>264.5</ele>
        <time>2014-03-06T15:20:43Z</time>
      </trkpt>
      <trkpt lat="47.82853" lon="7.23485">
        <ele>263.1</ele>
        <time>2014-03-06T15:20:45Z</time>
      </trkpt>
      <trkpt lat="47.8286" lon="7.23498">
        <ele>263.8</ele>
        <time>2014-03-06T15:20:47Z</time>
      </trkpt>
      <trkpt lat="47.82866" lon="7.2351">
        <ele>262.6</ele>
        <time>2014-03-06T15:20:49Z</time>
      </trkpt>
      <trkpt lat="47.82872" lon="7.23521">
        <ele>263.4</ele>
        <time>2014-03-06T15:20:51Z</time>
      </trkpt>
      <trkpt lat="47.82878" lon="7.23533">
        <ele>263.7</ele>
        <time>2014-03-06T15:20:53Z</time>
      </trkpt>
      <trkpt lat="47.82883" lon="7.23543">
        <ele>264.1</ele>
        <time>2014-03-06T15:20:55Z</time>
      </trkpt>
      <trkpt lat="47.82888" lon="7.23553">
        <ele>265</ele>
        <time>2014-03-06T15:20:57Z</time>
      </trkpt>
      <trkpt lat="47.82893" lon="7.23564">
        <ele>263.4</ele>
        <time>2014-03-06T15:20:59Z</time>
      </trkpt>
      <trkpt lat="47.82898" lon="7.23574">
        <ele>264.6</ele>
        <time>2014-03-06T15:21:01Z</time>
      </trkpt>
      <trkpt lat="47.82903" lon="7.23584">
        <ele>263.9</ele>
        <time>2014-03-06T15:21:03Z</time>
      </trkpt>
      <trkpt lat="47.82908" lon="7.23595">
        <ele>263.9</ele>
        <time>2014-03-06T15:21:05Z</time>
      </trkpt>
      <trkpt lat="47.82913" lon="7.23605">
        <ele>263.9</ele>
        <time>2014-03-06T15:21:07Z</time>
      </trkpt>
      <trkpt lat="47.82918" lon="7.23615">
        <ele>263.5</ele>
        <time>2014-03-06T15:21:09Z</time>
      </trkpt>
      <trkpt lat="47.82923" lon="7.23626">
        <ele>263.9</ele>
        <time>2014-03-06T15:21:11Z</time>
      </trkpt>
      <trkpt lat="47.82927" lon="7.23636">
        <ele>264.5</ele>
        <time>2014-03-06T15:21:13Z</time>
      </trkpt>
      <trkpt lat="47.82932" lon="7.23646">
        <ele>264.2</ele>
        <time>2014-03-06T15:21:15Z</time>
      </trkpt>
      <trkpt lat="47.82935" lon="7.23655">
        <ele>262.9</ele>
        <time>2014-03-06T15:21:17Z</time>
      </trkpt>
      <trkpt lat="47.82939" lon="7.23665">
        <ele>264.5</ele>
        <time>2014-03-06T15:21:19Z</time>
      </trkpt>
      <trkpt lat="47.82943" lon="7.23675">
        <ele>264.4</ele>
        <time>2014-03-06T15:21:21Z</time>
      </trkpt>
      <trkpt lat="47.82946" lon="7.23686">
        <ele>262.5</ele>
        <time>2014-03-06T15:21:23Z</time>
      </trkpt>
      <trkpt lat="47.82948" lon="7.23697">
        <ele>264.3</ele>
        <time>2014-03-06T15:21:25Z</time>
      </trkpt>
      <trkpt lat="47.8295" lon="7.2371">
        <ele>263.8</ele>
        <time>2014-03-06T15:21:27Z</time>
      </trkpt>
      <trkpt lat="47.82952" lon="7.23723">
        <ele>263.5</ele>
        <time>2014-03-06T15:21:29Z</time>
      </trkpt>
      <trkpt lat="47.82954" lon="7.23737">
        <ele>263.3</ele>
        <time>2014-03-06T15:21:31Z</time>
      </trkpt>
      <trkpt lat="47.82955" lon="7.23752">
        <ele>263.1</ele>
        <time>2014-03-06T15:21:33Z</time>
      </trkpt>
      <trkpt lat="47.82956" lon="7.23767">
        <ele>263.8</ele>
        <time>2014-03-06T15:21:35Z</time>
      </trkpt>
      <trkpt lat="47.82955" lon="7.23799">
        <ele>263.1</ele>
        <time>2014-03-06T15:21:39Z</time>
      </trkpt>
      <trkpt lat="47.82954" lon="7.23816">
        <ele>263.1</ele>
        <time>2014-03-06T15:21:41Z</time>
      </trkpt>
      <trkpt lat="47.82952" lon="7.23832">
        <ele>261.5</ele>
        <time>2014-03-06T15:21:43Z</time>
      </trkpt>
      <trkpt lat="47.82949" lon="7.23849">
        <ele>263.5</ele>
        <time>2014-03-06T15:21:45Z</time>
      </trkpt>
      <trkpt lat="47.82945" lon="7.23864">
        <ele>262.3</ele>
        <time>2014-03-06T15:21:47Z</time>
      </trkpt>
      <trkpt lat="47.82941" lon="7.23879">
        <ele>262.4</ele>
        <time>2014-03-06T15:21:49Z</time>
      </trkpt>
      <trkpt lat="47.82936" lon="7.23894">
        <ele>262.6</ele>
        <time>2014-03-06T15:21:51Z</time>
      </trkpt>
      <trkpt lat="47.8293" lon="7.23909">
        <ele>262.5</ele>
        <time>2014-03-06T15:21:53Z</time>
      </trkpt>
      <trkpt lat="47.82925" lon="7.23923">
        <ele>262.6</ele>
        <time>2014-03-06T15:21:55Z</time>
      </trkpt>
      <trkpt lat="47.82919" lon="7.23937">
        <ele>260.7</ele>
        <time>2014-03-06T15:21:57Z</time>
      </trkpt>
      <trkpt lat="47.82913" lon="7.2395">
        <ele>260.6</ele>
        <time>2014-03-06T15:21:59Z</time>
      </trkpt>
      <trkpt lat="47.82907" lon="7.23964">
        <ele>260.3</ele>
        <time>2014-03-06T15:22:01Z</time>
      </trkpt>
      <trkpt lat="47.82901" lon="7.23977">
        <ele>260.5</ele>
        <time>2014-03-06T15:22:03Z</time>
      </trkpt>
      <trkpt lat="47.82895" lon="7.23992">
        <ele>261.5</ele>
        <time>2014-03-06T15:22:05Z</time>
      </trkpt>
      <trkpt lat="47.82888" lon="7.24007">
        <ele>261.2</ele>
        <time>2014-03-06T15:22:07Z</time>
      </trkpt>
      <trkpt lat="47.82882" lon="7.24022">
        <ele>261.6</ele>
        <time>2014-03-06T15:22:09Z</time>
      </trkpt>
      <trkpt lat="47.82875" lon="7.24037">
        <ele>260.8</ele>
        <time>2014-03-06T15:22:11Z</time>
      </trkpt>
      <trkpt lat="47.82867" lon="7.24051">
        <ele>261.2</ele>
        <time>2014-03-06T15:22:13Z</time>
      </trkpt>
      <trkpt lat="47.8286" lon="7.24063">
        <ele>260.8</ele>
        <time>2014-03-06T15:22:15Z</time>
      </trkpt>
      <trkpt lat="47.82853" lon="7.24076">
        <ele>260.9</ele>
        <time>2014-03-06T15:22:17Z</time>
      </trkpt>
      <trkpt lat="47.82847" lon="7.2409">
        <ele>259.7</ele>
        <time>2014-03-06T15:22:19Z</time>
      </trkpt>
      <trkpt lat="47.82842" lon="7.24106">
        <ele>259.4</ele>
        <time>2014-03-06T15:22:21Z</time>
      </trkpt>
      <trkpt lat="47.82839" lon="7.24122">
        <ele>260.2</ele>
        <time>2014-03-06T15:22:23Z</time>
      </trkpt>
      <trkpt lat="47.82836" lon="7.2414">
        <ele>259.6</ele>
        <time>2014-03-06T15:22:25Z</time>
      </trkpt>
      <trkpt lat="47.82833" lon="7.24158">
        <ele>260.6</ele>
        <time>2014-03-06T15:22:27Z</time>
      </trkpt>
      <trkpt lat="47.82831" lon="7.24177">
        <ele>259.4</ele>
        <time>2014-03-06T15:22:29Z</time>
      </trkpt>
      <trkpt lat="47.8283" lon="7.24195">
        <ele>260.1</ele>
        <time>2014-03-06T15:22:31Z</time>
      </trkpt>
      <trkpt lat="47.8283" lon="7.24212">
        <ele>259.7</ele>
        <time>2014-03-06T15:22:33Z</time>
      </trkpt>
      <trkpt lat="47.82829" lon="7.24228">
        <ele>260.3</ele>
        <time>2014-03-06T15:22:35Z</time>
      </trkpt>
      <trkpt lat="47.8283" lon="7.24243">
        <ele>259.7</ele>
        <time>2014-03-06T15:22:37Z</time>
      </trkpt>
      <trkpt lat="47.82832" lon="7.24258">
        <ele>260.2</ele>
        <time>2014-03-06T15:22:39Z</time>
      </trkpt>
      <trkpt lat="47.82833" lon="7.24272">
        <ele>260.2</ele>
        <time>2014-03-06T15:22:41Z</time>
      </trkpt>
      <trkpt lat="47.82835" lon="7.24286">
        <ele>259.4</ele>
        <time>2014-03-06T15:22:43Z</time>
      </trkpt>
      <trkpt lat="47.82838" lon="7.24302">
        <ele>260</ele>
        <time>2014-03-06T15:22:45Z</time>
      </trkpt>
      <trkpt lat="47.82842" lon="7.24317">
        <ele>259.1</ele>
        <time>2014-03-06T15:22:47Z</time>
      </trkpt>
      <trkpt lat="47.82844" lon="7.24332">
        <ele>258.8</ele>
        <time>2014-03-06T15:22:49Z</time>
      </trkpt>
      <trkpt lat="47.82847" lon="7.24347">
        <ele>260.5</ele>
        <time>2014-03-06T15:22:51Z</time>
      </trkpt>
      <trkpt lat="47.82849" lon="7.24361">
        <ele>260.5</ele>
        <time>2014-03-06T15:22:53Z</time>
      </trkpt>
      <trkpt lat="47.82852" lon="7.24375">
        <ele>260.4</ele>
        <time>2014-03-06T15:22:55Z</time>
      </trkpt>
      <trkpt lat="47.82854" lon="7.24388">
        <ele>260.2</ele>
        <time>2014-03-06T15:22:57Z</time>
      </trkpt>
      <trkpt lat="47.82857" lon="7.24401">
        <ele>260.9</ele>
        <time>2014-03-06T15:22:59Z</time>
      </trkpt>
      <trkpt lat="47.82859" lon="7.24414">
        <ele>260.2</ele>
        <time>2014-03-06T15:23:01Z</time>
      </trkpt>
      <trkpt lat="47.82861" lon="7.24428">
        <ele>259.7</ele>
        <time>2014-03-06T15:23:03Z</time>
      </trkpt>
      <trkpt lat="47.82864" lon="7.24442">
        <ele>258.3</ele>
        <time>2014-03-06T15:23:05Z</time>
      </trkpt>
      <trkpt lat="47.82866" lon="7.24455">
        <ele>259.3</ele>
        <time>2014-03-06T15:23:07Z</time>
      </trkpt>
      <trkpt lat="47.82869" lon="7.24469">
        <ele>259.6</ele>
        <time>2014-03-06T15:23:09Z</time>
      </trkpt>
      <trkpt lat="47.82872" lon="7.24483">
        <ele>260.5</ele>
        <time>2014-03-06T15:23:11Z</time>
      </trkpt>
      <trkpt lat="47.82874" lon="7.24496">
        <ele>259.9</ele>
        <time>2014-03-06T15:23:13Z</time>
      </trkpt>
      <trkpt lat="47.82876" lon="7.24511">
        <ele>260.8</ele>
        <time>2014-03-06T15:23:15Z</time>
      </trkpt>
      <trkpt lat="47.82879" lon="7.24525">
        <ele>260.2</ele>
        <time>2014-03-06T15:23:17Z</time>
      </trkpt>
      <trkpt lat="47.82881" lon="7.24538">
        <ele>259.5</ele>
        <time>2014-03-06T15:23:19Z</time>
      </trkpt>
      <trkpt lat="47.82883" lon="7.24551">
        <ele>259.9</ele>
        <time>2014-03-06T15:23:21Z</time>
      </trkpt>
      <trkpt lat="47.82885" lon="7.24563">
        <ele>259.7</ele>
        <time>2014-03-06T15:23:23Z</time>
      </trkpt>
      <trkpt lat="47.82887" lon="7.24575">
        <ele>260.1</ele>
        <time>2014-03-06T15:23:25Z</time>
      </trkpt>
      <trkpt lat="47.82889" lon="7.24587">
        <ele>260.4</ele>
        <time>2014-03-06T15:23:27Z</time>
      </trkpt>
      <trkpt lat="47.82892" lon="7.246">
        <ele>260</ele>
        <time>2014-03-06T15:23:29Z</time>
      </trkpt>
      <trkpt lat="47.82894" lon="7.24614">
        <ele>259.7</ele>
        <time>2014-03-06T15:23:31Z</time>
      </trkpt>
      <trkpt lat="47.82896" lon="7.24628">
        <ele>260.3</ele>
        <time>2014-03-06T15:23:33Z</time>
      </trkpt>
      <trkpt lat="47.82897" lon="7.24643">
        <ele>259.8</ele>
        <time>2014-03-06T15:23:35Z</time>
      </trkpt>
      <trkpt lat="47.82898" lon="7.24658">
        <ele>260.1</ele>
        <time>2014-03-06T15:23:37Z</time>
      </trkpt>
      <trkpt lat="47.829" lon="7.24673">
        <ele>258.5</ele>
        <time>2014-03-06T15:23:39Z</time>
      </trkpt>
      <trkpt lat="47.829" lon="7.24688">
        <ele>259.7</ele>
        <time>2014-03-06T15:23:41Z</time>
      </trkpt>
      <trkpt lat="47.82901" lon="7.24703">
        <ele>259.2</ele>
        <time>2014-03-06T15:23:43Z</time>
      </trkpt>
      <trkpt lat="47.82901" lon="7.24718">
        <ele>260.6</ele>
        <time>2014-03-06T15:23:45Z</time>
      </trkpt>
      <trkpt lat="47.82901" lon="7.24732">
        <ele>260.1</ele>
        <time>2014-03-06T15:23:47Z</time>
      </trkpt>
      <trkpt lat="47.829" lon="7.24746">
        <ele>259.9</ele>
        <time>2014-03-06T15:23:49Z</time>
      </trkpt>
      <trkpt lat="47.829" lon="7.2476">
        <ele>260.6</ele>
        <time>2014-03-06T15:23:51Z</time>
      </trkpt>
      <trkpt lat="47.829" lon="7.24774">
        <ele>259.3</ele>
        <time>2014-03-06T15:23:53Z</time>
      </trkpt>
      <trkpt lat="47.82899" lon="7.24789">
        <ele>258.9</ele>
        <time>2014-03-06T15:23:55Z</time>
      </trkpt>
      <trkpt lat="47.82898" lon="7.24804">
        <ele>258.4</ele>
        <time>2014-03-06T15:23:57Z</time>
      </trkpt>
      <trkpt lat="47.82896" lon="7.24819">
        <ele>259</ele>
        <time>2014-03-06T15:23:59Z</time>
      </trkpt>
      <trkpt lat="47.82894" lon="7.24834">
        <ele>259.9</ele>
        <time>2014-03-06T15:24:01Z</time>
      </trkpt>
      <trkpt lat="47.82892" lon="7.24849">
        <ele>259.6</ele>
        <time>2014-03-06T15:24:03Z</time>
      </trkpt>
      <trkpt lat="47.8289" lon="7.24865">
        <ele>258.7</ele>
        <time>2014-03-06T15:24:05Z</time>
      </trkpt>
      <trkpt lat="47.82888" lon="7.2488">
        <ele>260</ele>
        <time>2014-03-06T15:24:07Z</time>
      </trkpt>
      <trkpt lat="47.82885" lon="7.24893">
        <ele>259.5</ele>
        <time>2014-03-06T15:24:09Z</time>
      </trkpt>
      <trkpt lat="47.82882" lon="7.24906">
        <ele>259.6</ele>
        <time>2014-03-06T15:24:11Z</time>
      </trkpt>
      <trkpt lat="47.82879" lon="7.24918">
        <ele>259.7</ele>
        <time>2014-03-06T15:24:13Z</time>
      </trkpt>
      <trkpt lat="47.82877" lon="7.2493">
        <ele>260.5</ele>
        <time>2014-03-06T15:24:15Z</time>
      </trkpt>
      <trkpt lat="47.82875" lon="7.24943">
        <ele>261.2</ele>
        <time>2014-03-06T15:24:17Z</time>
      </trkpt>
      <trkpt lat="47.82873" lon="7.24956">
        <ele>260.4</ele>
        <time>2014-03-06T15:24:19Z</time>
      </trkpt>
      <trkpt lat="47.8287" lon="7.24968">
        <ele>260.9</ele>
        <time>2014-03-06T15:24:21Z</time>
      </trkpt>
      <trkpt lat="47.82867" lon="7.24981">
        <ele>260.6</ele>
        <time>2014-03-06T15:24:23Z</time>
      </trkpt>
      <trkpt lat="47.82865" lon="7.24994">
        <ele>260.5</ele>
        <time>2014-03-06T15:24:25Z</time>
      </trkpt>
      <trkpt lat="47.82863" lon="7.25007">
        <ele>260.2</ele>
        <time>2014-03-06T15:24:27Z</time>
      </trkpt>
      <trkpt lat="47.8286" lon="7.2502">
        <ele>260.5</ele>
        <time>2014-03-06T15:24:29Z</time>
      </trkpt>
      <trkpt lat="47.82857" lon="7.25034">
        <ele>260.3</ele>
        <time>2014-03-06T15:24:31Z</time>
      </trkpt>
      <trkpt lat="47.82855" lon="7.25046">
        <ele>260</ele>
        <time>2014-03-06T15:24:33Z</time>
      </trkpt>
      <trkpt lat="47.82853" lon="7.25058">
        <ele>259.9</ele>
        <time>2014-03-06T15:24:35Z</time>
      </trkpt>
      <trkpt lat="47.82851" lon="7.2507">
        <ele>259.4</ele>
        <time>2014-03-06T15:24:37Z</time>
      </trkpt>
      <trkpt lat="47.82848" lon="7.25082">
        <ele>259.8</ele>
        <time>2014-03-06T15:24:39Z</time>
      </trkpt>
      <trkpt lat="47.82842" lon="7.2509">
        <ele>261.2</ele>
        <time>2014-03-06T15:24:41Z</time>
      </trkpt>
      <trkpt lat="47.82834" lon="7.2509">
        <ele>260.9</ele>
        <time>2014-03-06T15:24:43Z</time>
      </trkpt>
      <trkpt lat="47.82826" lon="7.25089">
        <ele>260.7</ele>
        <time>2014-03-06T15:24:45Z</time>
      </trkpt>
      <trkpt lat="47.82817" lon="7.25087">
        <ele>261</ele>
        <time>2014-03-06T15:24:47Z</time>
      </trkpt>
      <trkpt lat="47.82808" lon="7.25084">
        <ele>260.5</ele>
        <time>2014-03-06T15:24:49Z</time>
      </trkpt>
      <trkpt lat="47.82798" lon="7.25082">
        <ele>260.5</ele>
        <time>2014-03-06T15:24:51Z</time>
      </trkpt>
      <trkpt lat="47.8279" lon="7.25079">
        <ele>260.5</ele>
        <time>2014-03-06T15:24:53Z</time>
      </trkpt>
      <trkpt lat="47.82782" lon="7.25077">
        <ele>260.7</ele>
        <time>2014-03-06T15:24:55Z</time>
      </trkpt>
      <trkpt lat="47.82775" lon="7.25075">
        <ele>260.2</ele>
        <time>2014-03-06T15:24:57Z</time>
      </trkpt>
      <trkpt lat="47.82767" lon="7.25073">
        <ele>261.3</ele>
        <time>2014-03-06T15:24:59Z</time>
      </trkpt>
      <trkpt lat="47.82759" lon="7.2507">
        <ele>261.2</ele>
        <time>2014-03-06T15:25:01Z</time>
      </trkpt>
      <trkpt lat="47.8275" lon="7.25067">
        <ele>260.9</ele>
        <time>2014-03-06T15:25:03Z</time>
      </trkpt>
      <trkpt lat="47.82741" lon="7.25064">
        <ele>260.2</ele>
        <time>2014-03-06T15:25:05Z</time>
      </trkpt>
      <trkpt lat="47.82732" lon="7.25061">
        <ele>260.3</ele>
        <time>2014-03-06T15:25:07Z</time>
      </trkpt>
      <trkpt lat="47.82723" lon="7.25059">
        <ele>260.1</ele>
        <time>2014-03-06T15:25:09Z</time>
      </trkpt>
      <trkpt lat="47.82713" lon="7.25057">
        <ele>260.1</ele>
        <time>2014-03-06T15:25:11Z</time>
      </trkpt>
      <trkpt lat="47.82705" lon="7.25052">
        <ele>261.2</ele>
        <time>2014-03-06T15:25:13Z</time>
      </trkpt>
      <trkpt lat="47.82696" lon="7.25047">
        <ele>261.5</ele>
        <time>2014-03-06T15:25:15Z</time>
      </trkpt>
      <trkpt lat="47.82686" lon="7.25043">
        <ele>261.4</ele>
        <time>2014-03-06T15:25:17Z</time>
      </trkpt>
      <trkpt lat="47.82677" lon="7.2504">
        <ele>261.2</ele>
        <time>2014-03-06T15:25:19Z</time>
      </trkpt>
      <trkpt lat="47.82668" lon="7.25037">
        <ele>261.7</ele>
        <time>2014-03-06T15:25:21Z</time>
      </trkpt>
      <trkpt lat="47.8266" lon="7.25035">
        <ele>261.2</ele>
        <time>2014-03-06T15:25:23Z</time>
      </trkpt>
      <trkpt lat="47.82651" lon="7.25034">
        <ele>261.1</ele>
        <time>2014-03-06T15:25:25Z</time>
      </trkpt>
      <trkpt lat="47.82642" lon="7.25032">
        <ele>260.9</ele>
        <time>2014-03-06T15:25:27Z</time>
      </trkpt>
      <trkpt lat="47.82632" lon="7.25031">
        <ele>261.7</ele>
        <time>2014-03-06T15:25:29Z</time>
      </trkpt>
      <trkpt lat="47.82605" lon="7.25032">
        <ele>262</ele>
        <time>2014-03-06T15:25:35Z</time>
      </trkpt>
      <trkpt lat="47.82595" lon="7.25034">
        <ele>262.4</ele>
        <time>2014-03-06T15:25:37Z</time>
      </trkpt>
      <trkpt lat="47.82585" lon="7.25036">
        <ele>261.8</ele>
        <time>2014-03-06T15:25:39Z</time>
      </trkpt>
      <trkpt lat="47.82575" lon="7.25037">
        <ele>262.4</ele>
        <time>2014-03-06T15:25:41Z</time>
      </trkpt>
      <trkpt lat="47.82565" lon="7.25038">
        <ele>261.2</ele>
        <time>2014-03-06T15:25:43Z</time>
      </trkpt>
      <trkpt lat="47.82555" lon="7.25039">
        <ele>262</ele>
        <time>2014-03-06T15:25:45Z</time>
      </trkpt>
      <trkpt lat="47.82544" lon="7.2504">
        <ele>262.2</ele>
        <time>2014-03-06T15:25:47Z</time>
      </trkpt>
      <trkpt lat="47.82534" lon="7.25041">
        <ele>261.9</ele>
        <time>2014-03-06T15:25:49Z</time>
      </trkpt>
      <trkpt lat="47.82524" lon="7.25042">
        <ele>261.1</ele>
        <time>2014-03-06T15:25:51Z</time>
      </trkpt>
      <trkpt lat="47.82513" lon="7.25041">
        <ele>261.1</ele>
        <time>2014-03-06T15:25:53Z</time>
      </trkpt>
      <trkpt lat="47.82504" lon="7.25039">
        <ele>260.8</ele>
        <time>2014-03-06T15:25:55Z</time>
      </trkpt>
      <trkpt lat="47.82494" lon="7.25038">
        <ele>261.1</ele>
        <time>2014-03-06T15:25:57Z</time>
      </trkpt>
      <trkpt lat="47.82484" lon="7.25036">
        <ele>261.6</ele>
        <time>2014-03-06T15:25:59Z</time>
      </trkpt>
      <trkpt lat="47.82475" lon="7.25034">
        <ele>261.9</ele>
        <time>2014-03-06T15:26:01Z</time>
      </trkpt>
      <trkpt lat="47.82466" lon="7.25032">
        <ele>261.2</ele>
        <time>2014-03-06T15:26:03Z</time>
      </trkpt>
      <trkpt lat="47.82456" lon="7.25031">
        <ele>261.5</ele>
        <time>2014-03-06T15:26:05Z</time>
      </trkpt>
      <trkpt lat="47.82447" lon="7.2503">
        <ele>261.8</ele>
        <time>2014-03-06T15:26:07Z</time>
      </trkpt>
      <trkpt lat="47.82438" lon="7.2503">
        <ele>262</ele>
        <time>2014-03-06T15:26:09Z</time>
      </trkpt>
      <trkpt lat="47.82429" lon="7.25032">
        <ele>261.9</ele>
        <time>2014-03-06T15:26:11Z</time>
      </trkpt>
      <trkpt lat="47.8242" lon="7.25035">
        <ele>262</ele>
        <time>2014-03-06T15:26:13Z</time>
      </trkpt>
      <trkpt lat="47.82412" lon="7.25039">
        <ele>262.3</ele>
        <time>2014-03-06T15:26:15Z</time>
      </trkpt>
      <trkpt lat="47.82408" lon="7.25044">
        <ele>263.4</ele>
        <time>2014-03-06T15:26:17Z</time>
      </trkpt>
      <trkpt lat="47.82402" lon="7.25048">
        <ele>262.4</ele>
        <time>2014-03-06T15:26:19Z</time>
      </trkpt>
      <trkpt lat="47.82395" lon="7.25051">
        <ele>263</ele>
        <time>2014-03-06T15:26:21Z</time>
      </trkpt>
      <trkpt lat="47.82388" lon="7.25053">
        <ele>261.9</ele>
        <time>2014-03-06T15:26:23Z</time>
      </trkpt>
      <trkpt lat="47.8238" lon="7.25054">
        <ele>261.4</ele>
        <time>2014-03-06T15:26:25Z</time>
      </trkpt>
      <trkpt lat="47.82372" lon="7.25058">
        <ele>261.7</ele>
        <time>2014-03-06T15:26:27Z</time>
      </trkpt>
      <trkpt lat="47.82363" lon="7.25062">
        <ele>262.2</ele>
        <time>2014-03-06T15:26:29Z</time>
      </trkpt>
      <trkpt lat="47.82354" lon="7.2507">
        <ele>261.5</ele>
        <time>2014-03-06T15:26:31Z</time>
      </trkpt>
      <trkpt lat="47.82349" lon="7.25085">
        <ele>260.6</ele>
        <time>2014-03-06T15:26:33Z</time>
      </trkpt>
      <trkpt lat="47.82348" lon="7.25102">
        <ele>261.6</ele>
        <time>2014-03-06T15:26:35Z</time>
      </trkpt>
      <trkpt lat="47.82349" lon="7.25118">
        <ele>260.6</ele>
        <time>2014-03-06T15:26:37Z</time>
      </trkpt>
      <trkpt lat="47.82348" lon="7.25132">
        <ele>262.2</ele>
        <time>2014-03-06T15:26:39Z</time>
      </trkpt>
      <trkpt lat="47.82348" lon="7.25147">
        <ele>261.8</ele>
        <time>2014-03-06T15:26:41Z</time>
      </trkpt>
      <trkpt lat="47.82349" lon="7.25194">
        <ele>262.2</ele>
        <time>2014-03-06T15:26:47Z</time>
      </trkpt>
      <trkpt lat="47.8235" lon="7.25211">
        <ele>260.4</ele>
        <time>2014-03-06T15:26:49Z</time>
      </trkpt>
      <trkpt lat="47.82352" lon="7.25229">
        <ele>260.2</ele>
        <time>2014-03-06T15:26:51Z</time>
      </trkpt>
      <trkpt lat="47.82353" lon="7.25249">
        <ele>260</ele>
        <time>2014-03-06T15:26:53Z</time>
      </trkpt>
      <trkpt lat="47.82354" lon="7.25268">
        <ele>261.2</ele>
        <time>2014-03-06T15:26:55Z</time>
      </trkpt>
      <trkpt lat="47.82353" lon="7.25305">
        <ele>260.6</ele>
        <time>2014-03-06T15:26:59Z</time>
      </trkpt>
      <trkpt lat="47.82352" lon="7.25322">
        <ele>260.5</ele>
        <time>2014-03-06T15:27:01Z</time>
      </trkpt>
      <trkpt lat="47.8235" lon="7.25338">
        <ele>259.9</ele>
        <time>2014-03-06T15:27:03Z</time>
      </trkpt>
      <trkpt lat="47.82348" lon="7.25354">
        <ele>260.5</ele>
        <time>2014-03-06T15:27:05Z</time>
      </trkpt>
      <trkpt lat="47.82346" lon="7.25371">
        <ele>259.6</ele>
        <time>2014-03-06T15:27:07Z</time>
      </trkpt>
      <trkpt lat="47.82346" lon="7.25388">
        <ele>260.5</ele>
        <time>2014-03-06T15:27:09Z</time>
      </trkpt>
      <trkpt lat="47.82346" lon="7.25405">
        <ele>260.8</ele>
        <time>2014-03-06T15:27:11Z</time>
      </trkpt>
      <trkpt lat="47.82345" lon="7.25439">
        <ele>259.4</ele>
        <time>2014-03-06T15:27:15Z</time>
      </trkpt>
      <trkpt lat="47.82345" lon="7.25456">
        <ele>259.2</ele>
        <time>2014-03-06T15:27:17Z</time>
      </trkpt>
      <trkpt lat="47.82344" lon="7.25472">
        <ele>259.9</ele>
        <time>2014-03-06T15:27:19Z</time>
      </trkpt>
      <trkpt lat="47.82344" lon="7.25489">
        <ele>260.3</ele>
        <time>2014-03-06T15:27:21Z</time>
      </trkpt>
      <trkpt lat="47.82344" lon="7.25506">
        <ele>260</ele>
        <time>2014-03-06T15:27:23Z</time>
      </trkpt>
      <trkpt lat="47.82346" lon="7.25523">
        <ele>259.3</ele>
        <time>2014-03-06T15:27:25Z</time>
      </trkpt>
      <trkpt lat="47.82348" lon="7.25541">
        <ele>259.2</ele>
        <time>2014-03-06T15:27:27Z</time>
      </trkpt>
      <trkpt lat="47.82349" lon="7.25559">
        <ele>259.9</ele>
        <time>2014-03-06T15:27:29Z</time>
      </trkpt>
      <trkpt lat="47.82349" lon="7.25577">
        <ele>260.3</ele>
        <time>2014-03-06T15:27:31Z</time>
      </trkpt>
      <trkpt lat="47.8235" lon="7.25594">
        <ele>259.5</ele>
        <time>2014-03-06T15:27:33Z</time>
      </trkpt>
      <trkpt lat="47.82351" lon="7.2561">
        <ele>258.8</ele>
        <time>2014-03-06T15:27:35Z</time>
      </trkpt>
      <trkpt lat="47.82352" lon="7.25627">
        <ele>259</ele>
        <time>2014-03-06T15:27:37Z</time>
      </trkpt>
      <trkpt lat="47.82355" lon="7.25644">
        <ele>258.8</ele>
        <time>2014-03-06T15:27:39Z</time>
      </trkpt>
      <trkpt lat="47.82359" lon="7.25659">
        <ele>259.1</ele>
        <time>2014-03-06T15:27:41Z</time>
      </trkpt>
      <trkpt lat="47.82364" lon="7.25674">
        <ele>258.5</ele>
        <time>2014-03-06T15:27:43Z</time>
      </trkpt>
      <trkpt lat="47.82369" lon="7.25687">
        <ele>258.3</ele>
        <time>2014-03-06T15:27:45Z</time>
      </trkpt>
      <trkpt lat="47.82373" lon="7.25699">
        <ele>258.7</ele>
        <time>2014-03-06T15:27:47Z</time>
      </trkpt>
      <trkpt lat="47.82377" lon="7.25711">
        <ele>258.6</ele>
        <time>2014-03-06T15:27:49Z</time>
      </trkpt>
      <trkpt lat="47.82381" lon="7.25723">
        <ele>259.2</ele>
        <time>2014-03-06T15:27:51Z</time>
      </trkpt>
      <trkpt lat="47.82386" lon="7.25736">
        <ele>259.3</ele>
        <time>2014-03-06T15:27:53Z</time>
      </trkpt>
      <trkpt lat="47.82391" lon="7.2575">
        <ele>258.8</ele>
        <time>2014-03-06T15:27:55Z</time>
      </trkpt>
      <trkpt lat="47.82398" lon="7.25764">
        <ele>258.2</ele>
        <time>2014-03-06T15:27:57Z</time>
      </trkpt>
      <trkpt lat="47.82405" lon="7.25777">
        <ele>257</ele>
        <time>2014-03-06T15:27:59Z</time>
      </trkpt>
      <trkpt lat="47.82412" lon="7.2579">
        <ele>257</ele>
        <time>2014-03-06T15:28:01Z</time>
      </trkpt>
      <trkpt lat="47.8242" lon="7.25803">
        <ele>257.3</ele>
        <time>2014-03-06T15:28:03Z</time>
      </trkpt>
      <trkpt lat="47.82427" lon="7.25816">
        <ele>258.2</ele>
        <time>2014-03-06T15:28:05Z</time>
      </trkpt>
      <trkpt lat="47.82433" lon="7.2583">
        <ele>259.1</ele>
        <time>2014-03-06T15:28:07Z</time>
      </trkpt>
      <trkpt lat="47.8244" lon="7.25844">
        <ele>258.4</ele>
        <time>2014-03-06T15:28:09Z</time>
      </trkpt>
      <trkpt lat="47.82446" lon="7.25858">
        <ele>258.7</ele>
        <time>2014-03-06T15:28:11Z</time>
      </trkpt>
      <trkpt lat="47.82451" lon="7.25872">
        <ele>258</ele>
        <time>2014-03-06T15:28:13Z</time>
      </trkpt>
      <trkpt lat="47.82457" lon="7.25886">
        <ele>257.6</ele>
        <time>2014-03-06T15:28:15Z</time>
      </trkpt>
      <trkpt lat="47.82462" lon="7.259">
        <ele>258.6</ele>
        <time>2014-03-06T15:28:17Z</time>
      </trkpt>
      <trkpt lat="47.82467" lon="7.25914">
        <ele>258</ele>
        <time>2014-03-06T15:28:19Z</time>
      </trkpt>
      <trkpt lat="47.82473" lon="7.25928">
        <ele>257.7</ele>
        <time>2014-03-06T15:28:21Z</time>
      </trkpt>
      <trkpt lat="47.82478" lon="7.25941">
        <ele>257.7</ele>
        <time>2014-03-06T15:28:23Z</time>
      </trkpt>
      <trkpt lat="47.82482" lon="7.25954">
        <ele>256.9</ele>
        <time>2014-03-06T15:28:25Z</time>
      </trkpt>
      <trkpt lat="47.82486" lon="7.25967">
        <ele>256.9</ele>
        <time>2014-03-06T15:28:27Z</time>
      </trkpt>
      <trkpt lat="47.82489" lon="7.25981">
        <ele>256.7</ele>
        <time>2014-03-06T15:28:29Z</time>
      </trkpt>
      <trkpt lat="47.82494" lon="7.25995">
        <ele>256.8</ele>
        <time>2014-03-06T15:28:31Z</time>
      </trkpt>
      <trkpt lat="47.82497" lon="7.2601">
        <ele>257.3</ele>
        <time>2014-03-06T15:28:33Z</time>
      </trkpt>
      <trkpt lat="47.82501" lon="7.26025">
        <ele>257.7</ele>
        <time>2014-03-06T15:28:35Z</time>
      </trkpt>
      <trkpt lat="47.82506" lon="7.26039">
        <ele>258.2</ele>
        <time>2014-03-06T15:28:37Z</time>
      </trkpt>
      <trkpt lat="47.8251" lon="7.26053">
        <ele>258.6</ele>
        <time>2014-03-06T15:28:39Z</time>
      </trkpt>
      <trkpt lat="47.82515" lon="7.26065">
        <ele>257.3</ele>
        <time>2014-03-06T15:28:41Z</time>
      </trkpt>
      <trkpt lat="47.8252" lon="7.26078">
        <ele>257</ele>
        <time>2014-03-06T15:28:43Z</time>
      </trkpt>
      <trkpt lat="47.82525" lon="7.26089">
        <ele>257.3</ele>
        <time>2014-03-06T15:28:45Z</time>
      </trkpt>
      <trkpt lat="47.82529" lon="7.26101">
        <ele>256.4</ele>
        <time>2014-03-06T15:28:47Z</time>
      </trkpt>
      <trkpt lat="47.82534" lon="7.26112">
        <ele>256.6</ele>
        <time>2014-03-06T15:28:49Z</time>
      </trkpt>
      <trkpt lat="47.82539" lon="7.26123">
        <ele>256.4</ele>
        <time>2014-03-06T15:28:51Z</time>
      </trkpt>
      <trkpt lat="47.82544" lon="7.26133">
        <ele>256.8</ele>
        <time>2014-03-06T15:28:53Z</time>
      </trkpt>
      <trkpt lat="47.82548" lon="7.26144">
        <ele>257.6</ele>
        <time>2014-03-06T15:28:55Z</time>
      </trkpt>
      <trkpt lat="47.82553" lon="7.26154">
        <ele>257.6</ele>
        <time>2014-03-06T15:28:57Z</time>
      </trkpt>
      <trkpt lat="47.82558" lon="7.26164">
        <ele>257.5</ele>
        <time>2014-03-06T15:28:59Z</time>
      </trkpt>
      <trkpt lat="47.82562" lon="7.26174">
        <ele>256.7</ele>
        <time>2014-03-06T15:29:01Z</time>
      </trkpt>
      <trkpt lat="47.82567" lon="7.26184">
        <ele>256.6</ele>
        <time>2014-03-06T15:29:03Z</time>
      </trkpt>
      <trkpt lat="47.82571" lon="7.26194">
        <ele>256.5</ele>
        <time>2014-03-06T15:29:05Z</time>
      </trkpt>
      <trkpt lat="47.82576" lon="7.26203">
        <ele>256.8</ele>
        <time>2014-03-06T15:29:07Z</time>
      </trkpt>
      <trkpt lat="47.8258" lon="7.26213">
        <ele>256.7</ele>
        <time>2014-03-06T15:29:09Z</time>
      </trkpt>
      <trkpt lat="47.82585" lon="7.26223">
        <ele>256.9</ele>
        <time>2014-03-06T15:29:11Z</time>
      </trkpt>
      <trkpt lat="47.8259" lon="7.26234">
        <ele>255.8</ele>
        <time>2014-03-06T15:29:13Z</time>
      </trkpt>
      <trkpt lat="47.82595" lon="7.26244">
        <ele>256.2</ele>
        <time>2014-03-06T15:29:15Z</time>
      </trkpt>
      <trkpt lat="47.826" lon="7.26253">
        <ele>256.2</ele>
        <time>2014-03-06T15:29:17Z</time>
      </trkpt>
      <trkpt lat="47.82605" lon="7.2626">
        <ele>255.7</ele>
        <time>2014-03-06T15:29:19Z</time>
      </trkpt>
      <trkpt lat="47.82613" lon="7.26257">
        <ele>255.1</ele>
        <time>2014-03-06T15:29:21Z</time>
      </trkpt>
      <trkpt lat="47.82621" lon="7.26251">
        <ele>255.7</ele>
        <time>2014-03-06T15:29:23Z</time>
      </trkpt>
      <trkpt lat="47.82628" lon="7.26245">
        <ele>255.2</ele>
        <time>2014-03-06T15:29:25Z</time>
      </trkpt>
      <trkpt lat="47.82635" lon="7.26246">
        <ele>255.3</ele>
        <time>2014-03-06T15:29:27Z</time>
      </trkpt>
      <trkpt lat="47.82642" lon="7.26253">
        <ele>255.4</ele>
        <time>2014-03-06T15:29:29Z</time>
      </trkpt>
      <trkpt lat="47.82649" lon="7.26261">
        <ele>254.6</ele>
        <time>2014-03-06T15:29:31Z</time>
      </trkpt>
      <trkpt lat="47.82657" lon="7.26269">
        <ele>254.9</ele>
        <time>2014-03-06T15:29:33Z</time>
      </trkpt>
      <trkpt lat="47.82664" lon="7.26278">
        <ele>254.7</ele>
        <time>2014-03-06T15:29:35Z</time>
      </trkpt>
      <trkpt lat="47.82671" lon="7.26286">
        <ele>254.6</ele>
        <time>2014-03-06T15:29:37Z</time>
      </trkpt>
      <trkpt lat="47.82679" lon="7.26295">
        <ele>254.7</ele>
        <time>2014-03-06T15:29:39Z</time>
      </trkpt>
      <trkpt lat="47.82686" lon="7.26304">
        <ele>255</ele>
        <time>2014-03-06T15:29:41Z</time>
      </trkpt>
      <trkpt lat="47.82694" lon="7.26312">
        <ele>255.8</ele>
        <time>2014-03-06T15:29:43Z</time>
      </trkpt>
      <trkpt lat="47.82701" lon="7.26321">
        <ele>254.2</ele>
        <time>2014-03-06T15:29:45Z</time>
      </trkpt>
      <trkpt lat="47.82708" lon="7.2633">
        <ele>254.9</ele>
        <time>2014-03-06T15:29:47Z</time>
      </trkpt>
      <trkpt lat="47.82715" lon="7.26338">
        <ele>255.1</ele>
        <time>2014-03-06T15:29:49Z</time>
      </trkpt>
      <trkpt lat="47.82723" lon="7.26346">
        <ele>256.3</ele>
        <time>2014-03-06T15:29:51Z</time>
      </trkpt>
      <trkpt lat="47.82727" lon="7.26357">
        <ele>256.1</ele>
        <time>2014-03-06T15:29:53Z</time>
      </trkpt>
      <trkpt lat="47.82729" lon="7.26367">
        <ele>256.4</ele>
        <time>2014-03-06T15:29:55Z</time>
      </trkpt>
      <trkpt lat="47.82735" lon="7.26373">
        <ele>254.7</ele>
        <time>2014-03-06T15:29:57Z</time>
      </trkpt>
      <trkpt lat="47.82742" lon="7.26376">
        <ele>255.3</ele>
        <time>2014-03-06T15:29:59Z</time>
      </trkpt>
      <trkpt lat="47.8275" lon="7.26379">
        <ele>255.2</ele>
        <time>2014-03-06T15:30:01Z</time>
      </trkpt>
      <trkpt lat="47.82757" lon="7.26382">
        <ele>255.3</ele>
        <time>2014-03-06T15:30:03Z</time>
      </trkpt>
      <trkpt lat="47.82763" lon="7.26385">
        <ele>256.4</ele>
        <time>2014-03-06T15:30:05Z</time>
      </trkpt>
      <trkpt lat="47.82766" lon="7.26392">
        <ele>254.9</ele>
        <time>2014-03-06T15:30:07Z</time>
      </trkpt>
      <trkpt lat="47.82765" lon="7.26401">
        <ele>255.2</ele>
        <time>2014-03-06T15:30:09Z</time>
      </trkpt>
      <trkpt lat="47.82763" lon="7.2641">
        <ele>254.4</ele>
        <time>2014-03-06T15:30:11Z</time>
      </trkpt>
      <trkpt lat="47.82761" lon="7.2642">
        <ele>254.9</ele>
        <time>2014-03-06T15:30:13Z</time>
      </trkpt>
      <trkpt lat="47.82759" lon="7.26431">
        <ele>254.8</ele>
        <time>2014-03-06T15:30:15Z</time>
      </trkpt>
      <trkpt lat="47.82757" lon="7.26442">
        <ele>254.6</ele>
        <time>2014-03-06T15:30:17Z</time>
      </trkpt>
      <trkpt lat="47.82756" lon="7.26452">
        <ele>254.3</ele>
        <time>2014-03-06T15:30:19Z</time>
      </trkpt>
      <trkpt lat="47.82755" lon="7.26461">
        <ele>254.8</ele>
        <time>2014-03-06T15:30:21Z</time>
      </trkpt>
      <trkpt lat="47.82754" lon="7.26469">
        <ele>254.6</ele>
        <time>2014-03-06T15:30:23Z</time>
      </trkpt>
      <trkpt lat="47.82753" lon="7.26476">
        <ele>255.2</ele>
        <time>2014-03-06T15:30:25Z</time>
      </trkpt>
      <trkpt lat="47.82754" lon="7.2648">
        <ele>255.5</ele>
        <time>2014-03-06T15:30:27Z</time>
      </trkpt>
      <trkpt lat="47.82754" lon="7.26483">
        <ele>255.8</ele>
        <time>2014-03-06T15:30:29Z</time>
      </trkpt>
      <trkpt lat="47.82753" lon="7.26486">
        <ele>255.6</ele>
        <time>2014-03-06T15:30:31Z</time>
      </trkpt>
      <trkpt lat="47.82754" lon="7.26491">
        <ele>255.3</ele>
        <time>2014-03-06T15:30:33Z</time>
      </trkpt>
      <trkpt lat="47.82755" lon="7.26501">
        <ele>254</ele>
        <time>2014-03-06T15:30:35Z</time>
      </trkpt>
      <trkpt lat="47.82758" lon="7.26514">
        <ele>254</ele>
        <time>2014-03-06T15:30:37Z</time>
      </trkpt>
      <trkpt lat="47.8276" lon="7.26528">
        <ele>254.3</ele>
        <time>2014-03-06T15:30:41Z</time>
      </trkpt>
      <trkpt lat="47.82761" lon="7.26534">
        <ele>253.9</ele>
        <time>2014-03-06T15:30:43Z</time>
      </trkpt>
      <trkpt lat="47.82761" lon="7.26541">
        <ele>254.3</ele>
        <time>2014-03-06T15:30:45Z</time>
      </trkpt>
      <trkpt lat="47.82762" lon="7.26549">
        <ele>254.3</ele>
        <time>2014-03-06T15:30:47Z</time>
      </trkpt>
      <trkpt lat="47.82762" lon="7.26558">
        <ele>254.2</ele>
        <time>2014-03-06T15:30:49Z</time>
      </trkpt>
      <trkpt lat="47.82763" lon="7.26567">
        <ele>254</ele>
        <time>2014-03-06T15:30:51Z</time>
      </trkpt>
      <trkpt lat="47.82764" lon="7.26575">
        <ele>254.4</ele>
        <time>2014-03-06T15:30:53Z</time>
      </trkpt>
      <trkpt lat="47.82767" lon="7.26582">
        <ele>253.9</ele>
        <time>2014-03-06T15:30:55Z</time>
      </trkpt>
      <trkpt lat="47.82769" lon="7.26589">
        <ele>253.9</ele>
        <time>2014-03-06T15:30:57Z</time>
      </trkpt>
      <trkpt lat="47.8277" lon="7.26597">
        <ele>254.5</ele>
        <time>2014-03-06T15:30:59Z</time>
      </trkpt>
      <trkpt lat="47.82769" lon="7.26604">
        <ele>254.7</ele>
        <time>2014-03-06T15:31:01Z</time>
      </trkpt>
      <trkpt lat="47.82764" lon="7.2661">
        <ele>256.3</ele>
        <time>2014-03-06T15:31:03Z</time>
      </trkpt>
      <trkpt lat="47.82762" lon="7.26619">
        <ele>255.4</ele>
        <time>2014-03-06T15:31:05Z</time>
      </trkpt>
      <trkpt lat="47.82764" lon="7.26642">
        <ele>255</ele>
        <time>2014-03-06T15:31:09Z</time>
      </trkpt>
      <trkpt lat="47.82764" lon="7.26655">
        <ele>254.4</ele>
        <time>2014-03-06T15:31:11Z</time>
      </trkpt>
      <trkpt lat="47.82766" lon="7.26669">
        <ele>255.7</ele>
        <time>2014-03-06T15:31:13Z</time>
      </trkpt>
      <trkpt lat="47.82767" lon="7.26684">
        <ele>254.5</ele>
        <time>2014-03-06T15:31:15Z</time>
      </trkpt>
      <trkpt lat="47.82768" lon="7.26699">
        <ele>255.8</ele>
        <time>2014-03-06T15:31:17Z</time>
      </trkpt>
      <trkpt lat="47.8277" lon="7.26714">
        <ele>255.1</ele>
        <time>2014-03-06T15:31:19Z</time>
      </trkpt>
      <trkpt lat="47.8277" lon="7.26728">
        <ele>253.2</ele>
        <time>2014-03-06T15:31:21Z</time>
      </trkpt>
      <trkpt lat="47.82769" lon="7.26741">
        <ele>253.5</ele>
        <time>2014-03-06T15:31:23Z</time>
      </trkpt>
      <trkpt lat="47.82773" lon="7.26765">
        <ele>252.4</ele>
        <time>2014-03-06T15:31:27Z</time>
      </trkpt>
      <trkpt lat="47.82779" lon="7.26775">
        <ele>253.2</ele>
        <time>2014-03-06T15:31:29Z</time>
      </trkpt>
      <trkpt lat="47.82786" lon="7.26784">
        <ele>253.6</ele>
        <time>2014-03-06T15:31:31Z</time>
      </trkpt>
      <trkpt lat="47.82794" lon="7.2679">
        <ele>253.1</ele>
        <time>2014-03-06T15:31:33Z</time>
      </trkpt>
      <trkpt lat="47.82802" lon="7.26792">
        <ele>251.5</ele>
        <time>2014-03-06T15:31:35Z</time>
      </trkpt>
      <trkpt lat="47.82811" lon="7.26793">
        <ele>253.4</ele>
        <time>2014-03-06T15:31:37Z</time>
      </trkpt>
      <trkpt lat="47.8282" lon="7.26794">
        <ele>253.8</ele>
        <time>2014-03-06T15:31:39Z</time>
      </trkpt>
      <trkpt lat="47.82829" lon="7.26795">
        <ele>253.5</ele>
        <time>2014-03-06T15:31:41Z</time>
      </trkpt>
      <trkpt lat="47.82839" lon="7.26796">
        <ele>252.7</ele>
        <time>2014-03-06T15:31:43Z</time>
      </trkpt>
      <trkpt lat="47.82847" lon="7.26797">
        <ele>252.8</ele>
        <time>2014-03-06T15:31:45Z</time>
      </trkpt>
      <trkpt lat="47.82854" lon="7.26797">
        <ele>252.1</ele>
        <time>2014-03-06T15:31:47Z</time>
      </trkpt>
      <trkpt lat="47.8286" lon="7.26799">
        <ele>251.9</ele>
        <time>2014-03-06T15:31:49Z</time>
      </trkpt>
      <trkpt lat="47.82863" lon="7.26804">
        <ele>252.4</ele>
        <time>2014-03-06T15:31:51Z</time>
      </trkpt>
      <trkpt lat="47.82865" lon="7.26812">
        <ele>252</ele>
        <time>2014-03-06T15:31:53Z</time>
      </trkpt>
      <trkpt lat="47.82865" lon="7.26823">
        <ele>253</ele>
        <time>2014-03-06T15:31:55Z</time>
      </trkpt>
      <trkpt lat="47.82865" lon="7.26886">
        <ele>252.1</ele>
        <time>2014-03-06T15:32:05Z</time>
      </trkpt>
      <trkpt lat="47.82864" lon="7.26899">
        <ele>251.7</ele>
        <time>2014-03-06T15:32:07Z</time>
      </trkpt>
      <trkpt lat="47.82863" lon="7.26913">
        <ele>252.5</ele>
        <time>2014-03-06T15:32:09Z</time>
      </trkpt>
      <trkpt lat="47.82861" lon="7.26941">
        <ele>252.8</ele>
        <time>2014-03-06T15:32:13Z</time>
      </trkpt>
      <trkpt lat="47.82859" lon="7.26953">
        <ele>252.7</ele>
        <time>2014-03-06T15:32:15Z</time>
      </trkpt>
      <trkpt lat="47.82856" lon="7.26965">
        <ele>252.8</ele>
        <time>2014-03-06T15:32:17Z</time>
      </trkpt>
      <trkpt lat="47.82854" lon="7.26976">
        <ele>253.4</ele>
        <time>2014-03-06T15:32:19Z</time>
      </trkpt>
      <trkpt lat="47.82855" lon="7.26988">
        <ele>254</ele>
        <time>2014-03-06T15:32:21Z</time>
      </trkpt>
      <trkpt lat="47.82857" lon="7.26999">
        <ele>252.6</ele>
        <time>2014-03-06T15:32:23Z</time>
      </trkpt>
      <trkpt lat="47.8286" lon="7.27011">
        <ele>252.9</ele>
        <time>2014-03-06T15:32:25Z</time>
      </trkpt>
      <trkpt lat="47.82862" lon="7.27023">
        <ele>253.4</ele>
        <time>2014-03-06T15:32:27Z</time>
      </trkpt>
      <trkpt lat="47.82865" lon="7.27036">
        <ele>252.2</ele>
        <time>2014-03-06T15:32:29Z</time>
      </trkpt>
      <trkpt lat="47.82868" lon="7.27049">
        <ele>252.3</ele>
        <time>2014-03-06T15:32:31Z</time>
      </trkpt>
      <trkpt lat="47.82869" lon="7.27063">
        <ele>252.5</ele>
        <time>2014-03-06T15:32:33Z</time>
      </trkpt>
      <trkpt lat="47.82869" lon="7.27077">
        <ele>253.6</ele>
        <time>2014-03-06T15:32:35Z</time>
      </trkpt>
      <trkpt lat="47.82866" lon="7.27092">
        <ele>252.4</ele>
        <time>2014-03-06T15:32:37Z</time>
      </trkpt>
      <trkpt lat="47.82864" lon="7.27108">
        <ele>251.2</ele>
        <time>2014-03-06T15:32:39Z</time>
      </trkpt>
      <trkpt lat="47.82861" lon="7.27123">
        <ele>250.9</ele>
        <time>2014-03-06T15:32:41Z</time>
      </trkpt>
      <trkpt lat="47.82859" lon="7.27138">
        <ele>250.1</ele>
        <time>2014-03-06T15:32:43Z</time>
      </trkpt>
      <trkpt lat="47.82858" lon="7.27154">
        <ele>250.4</ele>
        <time>2014-03-06T15:32:45Z</time>
      </trkpt>
      <trkpt lat="47.82856" lon="7.2717">
        <ele>250.4</ele>
        <time>2014-03-06T15:32:47Z</time>
      </trkpt>
      <trkpt lat="47.82855" lon="7.27187">
        <ele>251.6</ele>
        <time>2014-03-06T15:32:49Z</time>
      </trkpt>
      <trkpt lat="47.82854" lon="7.27203">
        <ele>251.8</ele>
        <time>2014-03-06T15:32:51Z</time>
      </trkpt>
      <trkpt lat="47.82853" lon="7.27218">
        <ele>251.2</ele>
        <time>2014-03-06T15:32:53Z</time>
      </trkpt>
      <trkpt lat="47.82855" lon="7.27232">
        <ele>251.5</ele>
        <time>2014-03-06T15:32:55Z</time>
      </trkpt>
      <trkpt lat="47.82862" lon="7.27241">
        <ele>252.6</ele>
        <time>2014-03-06T15:32:57Z</time>
      </trkpt>
      <trkpt lat="47.82871" lon="7.27247">
        <ele>253</ele>
        <time>2014-03-06T15:32:59Z</time>
      </trkpt>
      <trkpt lat="47.82881" lon="7.27253">
        <ele>252.9</ele>
        <time>2014-03-06T15:33:01Z</time>
      </trkpt>
      <trkpt lat="47.82891" lon="7.2726">
        <ele>251.2</ele>
        <time>2014-03-06T15:33:03Z</time>
      </trkpt>
      <trkpt lat="47.82901" lon="7.27267">
        <ele>251.5</ele>
        <time>2014-03-06T15:33:05Z</time>
      </trkpt>
      <trkpt lat="47.82912" lon="7.27273">
        <ele>250.4</ele>
        <time>2014-03-06T15:33:07Z</time>
      </trkpt>
      <trkpt lat="47.82921" lon="7.27279">
        <ele>251.1</ele>
        <time>2014-03-06T15:33:09Z</time>
      </trkpt>
      <trkpt lat="47.8293" lon="7.27283">
        <ele>251.5</ele>
        <time>2014-03-06T15:33:11Z</time>
      </trkpt>
      <trkpt lat="47.82939" lon="7.27288">
        <ele>250.5</ele>
        <time>2014-03-06T15:33:13Z</time>
      </trkpt>
      <trkpt lat="47.82949" lon="7.27292">
        <ele>251.2</ele>
        <time>2014-03-06T15:33:15Z</time>
      </trkpt>
      <trkpt lat="47.8296" lon="7.27297">
        <ele>250.4</ele>
        <time>2014-03-06T15:33:17Z</time>
      </trkpt>
      <trkpt lat="47.82972" lon="7.27302">
        <ele>249.6</ele>
        <time>2014-03-06T15:33:19Z</time>
      </trkpt>
      <trkpt lat="47.82985" lon="7.27307">
        <ele>249.2</ele>
        <time>2014-03-06T15:33:21Z</time>
      </trkpt>
      <trkpt lat="47.82997" lon="7.27311">
        <ele>248.8</ele>
        <time>2014-03-06T15:33:23Z</time>
      </trkpt>
      <trkpt lat="47.83009" lon="7.27314">
        <ele>248.5</ele>
        <time>2014-03-06T15:33:25Z</time>
      </trkpt>
      <trkpt lat="47.83019" lon="7.27318">
        <ele>249.2</ele>
        <time>2014-03-06T15:33:27Z</time>
      </trkpt>
      <trkpt lat="47.83029" lon="7.27321">
        <ele>249.9</ele>
        <time>2014-03-06T15:33:29Z</time>
      </trkpt>
      <trkpt lat="47.83039" lon="7.27324">
        <ele>249.6</ele>
        <time>2014-03-06T15:33:31Z</time>
      </trkpt>
      <trkpt lat="47.83047" lon="7.27327">
        <ele>250.1</ele>
        <time>2014-03-06T15:33:33Z</time>
      </trkpt>
      <trkpt lat="47.83055" lon="7.27328">
        <ele>249.5</ele>
        <time>2014-03-06T15:33:35Z</time>
      </trkpt>
      <trkpt lat="47.83063" lon="7.27331">
        <ele>250.5</ele>
        <time>2014-03-06T15:33:37Z</time>
      </trkpt>
      <trkpt lat="47.83072" lon="7.27334">
        <ele>250.5</ele>
        <time>2014-03-06T15:33:39Z</time>
      </trkpt>
      <trkpt lat="47.83082" lon="7.27337">
        <ele>249.7</ele>
        <time>2014-03-06T15:33:41Z</time>
      </trkpt>
      <trkpt lat="47.83094" lon="7.2734">
        <ele>250.5</ele>
        <time>2014-03-06T15:33:43Z</time>
      </trkpt>
      <trkpt lat="47.83106" lon="7.27342">
        <ele>248.7</ele>
        <time>2014-03-06T15:33:45Z</time>
      </trkpt>
      <trkpt lat="47.83118" lon="7.27345">
        <ele>248.8</ele>
        <time>2014-03-06T15:33:47Z</time>
      </trkpt>
      <trkpt lat="47.8313" lon="7.27347">
        <ele>247</ele>
        <time>2014-03-06T15:33:49Z</time>
      </trkpt>
      <trkpt lat="47.8314" lon="7.27349">
        <ele>248</ele>
        <time>2014-03-06T15:33:51Z</time>
      </trkpt>
      <trkpt lat="47.83151" lon="7.27352">
        <ele>248</ele>
        <time>2014-03-06T15:33:53Z</time>
      </trkpt>
      <trkpt lat="47.83162" lon="7.27355">
        <ele>247.3</ele>
        <time>2014-03-06T15:33:55Z</time>
      </trkpt>
      <trkpt lat="47.83172" lon="7.27358">
        <ele>248</ele>
        <time>2014-03-06T15:33:57Z</time>
      </trkpt>
      <trkpt lat="47.83183" lon="7.27361">
        <ele>247.5</ele>
        <time>2014-03-06T15:33:59Z</time>
      </trkpt>
      <trkpt lat="47.83193" lon="7.27365">
        <ele>248.2</ele>
        <time>2014-03-06T15:34:01Z</time>
      </trkpt>
      <trkpt lat="47.83203" lon="7.27369">
        <ele>249.8</ele>
        <time>2014-03-06T15:34:03Z</time>
      </trkpt>
      <trkpt lat="47.83212" lon="7.27375">
        <ele>250</ele>
        <time>2014-03-06T15:34:05Z</time>
      </trkpt>
      <trkpt lat="47.83221" lon="7.27384">
        <ele>248</ele>
        <time>2014-03-06T15:34:07Z</time>
      </trkpt>
      <trkpt lat="47.83231" lon="7.27393">
        <ele>247.1</ele>
        <time>2014-03-06T15:34:09Z</time>
      </trkpt>
      <trkpt lat="47.83241" lon="7.27403">
        <ele>246.1</ele>
        <time>2014-03-06T15:34:11Z</time>
      </trkpt>
      <trkpt lat="47.83252" lon="7.27411">
        <ele>246.4</ele>
        <time>2014-03-06T15:34:13Z</time>
      </trkpt>
      <trkpt lat="47.83265" lon="7.27417">
        <ele>245.6</ele>
        <time>2014-03-06T15:34:15Z</time>
      </trkpt>
      <trkpt lat="47.83278" lon="7.2742">
        <ele>246.1</ele>
        <time>2014-03-06T15:34:17Z</time>
      </trkpt>
      <trkpt lat="47.83291" lon="7.27422">
        <ele>246.6</ele>
        <time>2014-03-06T15:34:19Z</time>
      </trkpt>
      <trkpt lat="47.83304" lon="7.27422">
        <ele>245.9</ele>
        <time>2014-03-06T15:34:21Z</time>
      </trkpt>
      <trkpt lat="47.83316" lon="7.27423">
        <ele>244.5</ele>
        <time>2014-03-06T15:34:23Z</time>
      </trkpt>
      <trkpt lat="47.83328" lon="7.27423">
        <ele>244.9</ele>
        <time>2014-03-06T15:34:25Z</time>
      </trkpt>
      <trkpt lat="47.83341" lon="7.27425">
        <ele>243.4</ele>
        <time>2014-03-06T15:34:27Z</time>
      </trkpt>
      <trkpt lat="47.83352" lon="7.27429">
        <ele>243.7</ele>
        <time>2014-03-06T15:34:29Z</time>
      </trkpt>
      <trkpt lat="47.83364" lon="7.27433">
        <ele>244.8</ele>
        <time>2014-03-06T15:34:31Z</time>
      </trkpt>
      <trkpt lat="47.83375" lon="7.27436">
        <ele>246</ele>
        <time>2014-03-06T15:34:33Z</time>
      </trkpt>
      <trkpt lat="47.83385" lon="7.2744">
        <ele>245.7</ele>
        <time>2014-03-06T15:34:35Z</time>
      </trkpt>
      <trkpt lat="47.83395" lon="7.27443">
        <ele>245</ele>
        <time>2014-03-06T15:34:37Z</time>
      </trkpt>
      <trkpt lat="47.83406" lon="7.27447">
        <ele>243.3</ele>
        <time>2014-03-06T15:34:39Z</time>
      </trkpt>
      <trkpt lat="47.83417" lon="7.27451">
        <ele>243.4</ele>
        <time>2014-03-06T15:34:41Z</time>
      </trkpt>
      <trkpt lat="47.83427" lon="7.27457">
        <ele>244</ele>
        <time>2014-03-06T15:34:43Z</time>
      </trkpt>
      <trkpt lat="47.83437" lon="7.27465">
        <ele>243.8</ele>
        <time>2014-03-06T15:34:45Z</time>
      </trkpt>
      <trkpt lat="47.83444" lon="7.27476">
        <ele>244.7</ele>
        <time>2014-03-06T15:34:47Z</time>
      </trkpt>
      <trkpt lat="47.83449" lon="7.27489">
        <ele>245.6</ele>
        <time>2014-03-06T15:34:49Z</time>
      </trkpt>
      <trkpt lat="47.8345" lon="7.27503">
        <ele>245.9</ele>
        <time>2014-03-06T15:34:51Z</time>
      </trkpt>
      <trkpt lat="47.8345" lon="7.27533">
        <ele>246.1</ele>
        <time>2014-03-06T15:34:55Z</time>
      </trkpt>
      <trkpt lat="47.83453" lon="7.27547">
        <ele>245.1</ele>
        <time>2014-03-06T15:34:57Z</time>
      </trkpt>
      <trkpt lat="47.83455" lon="7.27558">
        <ele>243.9</ele>
        <time>2014-03-06T15:34:59Z</time>
      </trkpt>
      <trkpt lat="47.83459" lon="7.2757">
        <ele>244.1</ele>
        <time>2014-03-06T15:35:01Z</time>
      </trkpt>
      <trkpt lat="47.83464" lon="7.2758">
        <ele>244.6</ele>
        <time>2014-03-06T15:35:03Z</time>
      </trkpt>
      <trkpt lat="47.83469" lon="7.27589">
        <ele>244.8</ele>
        <time>2014-03-06T15:35:05Z</time>
      </trkpt>
      <trkpt lat="47.83476" lon="7.27598">
        <ele>245.3</ele>
        <time>2014-03-06T15:35:07Z</time>
      </trkpt>
      <trkpt lat="47.83483" lon="7.27606">
        <ele>245.3</ele>
        <time>2014-03-06T15:35:09Z</time>
      </trkpt>
      <trkpt lat="47.83489" lon="7.27615">
        <ele>245.6</ele>
        <time>2014-03-06T15:35:11Z</time>
      </trkpt>
      <trkpt lat="47.83494" lon="7.27624">
        <ele>244.5</ele>
        <time>2014-03-06T15:35:13Z</time>
      </trkpt>
      <trkpt lat="47.835" lon="7.27633">
        <ele>244.5</ele>
        <time>2014-03-06T15:35:15Z</time>
      </trkpt>
      <trkpt lat="47.83506" lon="7.27643">
        <ele>244.9</ele>
        <time>2014-03-06T15:35:17Z</time>
      </trkpt>
      <trkpt lat="47.83513" lon="7.27652">
        <ele>244.5</ele>
        <time>2014-03-06T15:35:19Z</time>
      </trkpt>
      <trkpt lat="47.83521" lon="7.27659">
        <ele>244.8</ele>
        <time>2014-03-06T15:35:21Z</time>
      </trkpt>
      <trkpt lat="47.83528" lon="7.27665">
        <ele>244.6</ele>
        <time>2014-03-06T15:35:23Z</time>
      </trkpt>
      <trkpt lat="47.83535" lon="7.27669">
        <ele>245.2</ele>
        <time>2014-03-06T15:35:25Z</time>
      </trkpt>
      <trkpt lat="47.83543" lon="7.27673">
        <ele>245.7</ele>
        <time>2014-03-06T15:35:26Z</time>
      </trkpt>
      <trkpt lat="47.8355" lon="7.27677">
        <ele>245.1</ele>
        <time>2014-03-06T15:35:29Z</time>
      </trkpt>
      <trkpt lat="47.83557" lon="7.2768">
        <ele>245.1</ele>
        <time>2014-03-06T15:35:31Z</time>
      </trkpt>
      <trkpt lat="47.83564" lon="7.27685">
        <ele>245.8</ele>
        <time>2014-03-06T15:35:33Z</time>
      </trkpt>
      <trkpt lat="47.83571" lon="7.27689">
        <ele>245.9</ele>
        <time>2014-03-06T15:35:35Z</time>
      </trkpt>
      <trkpt lat="47.83579" lon="7.27693">
        <ele>245.4</ele>
        <time>2014-03-06T15:35:37Z</time>
      </trkpt>
      <trkpt lat="47.83586" lon="7.27697">
        <ele>245.9</ele>
        <time>2014-03-06T15:35:39Z</time>
      </trkpt>
      <trkpt lat="47.83593" lon="7.277">
        <ele>245.7</ele>
        <time>2014-03-06T15:35:41Z</time>
      </trkpt>
      <trkpt lat="47.836" lon="7.27704">
        <ele>245.8</ele>
        <time>2014-03-06T15:35:43Z</time>
      </trkpt>
      <trkpt lat="47.83606" lon="7.27707">
        <ele>245.8</ele>
        <time>2014-03-06T15:35:45Z</time>
      </trkpt>
      <trkpt lat="47.83613" lon="7.27711">
        <ele>246.6</ele>
        <time>2014-03-06T15:35:47Z</time>
      </trkpt>
      <trkpt lat="47.8362" lon="7.27714">
        <ele>246.9</ele>
        <time>2014-03-06T15:35:49Z</time>
      </trkpt>
      <trkpt lat="47.83627" lon="7.27718">
        <ele>247.1</ele>
        <time>2014-03-06T15:35:51Z</time>
      </trkpt>
      <trkpt lat="47.83634" lon="7.27722">
        <ele>246.1</ele>
        <time>2014-03-06T15:35:53Z</time>
      </trkpt>
      <trkpt lat="47.83641" lon="7.27727">
        <ele>246.8</ele>
        <time>2014-03-06T15:35:55Z</time>
      </trkpt>
      <trkpt lat="47.83647" lon="7.27732">
        <ele>246.8</ele>
        <time>2014-03-06T15:35:57Z</time>
      </trkpt>
      <trkpt lat="47.83652" lon="7.27737">
        <ele>246.8</ele>
        <time>2014-03-06T15:35:59Z</time>
      </trkpt>
      <trkpt lat="47.83658" lon="7.27744">
        <ele>246.9</ele>
        <time>2014-03-06T15:36:01Z</time>
      </trkpt>
      <trkpt lat="47.83664" lon="7.27751">
        <ele>245.9</ele>
        <time>2014-03-06T15:36:03Z</time>
      </trkpt>
      <trkpt lat="47.83671" lon="7.27758">
        <ele>245.8</ele>
        <time>2014-03-06T15:36:05Z</time>
      </trkpt>
      <trkpt lat="47.83677" lon="7.27767">
        <ele>246.5</ele>
        <time>2014-03-06T15:36:07Z</time>
      </trkpt>
      <trkpt lat="47.83684" lon="7.27775">
        <ele>245.8</ele>
        <time>2014-03-06T15:36:09Z</time>
      </trkpt>
      <trkpt lat="47.83691" lon="7.27785">
        <ele>245.1</ele>
        <time>2014-03-06T15:36:11Z</time>
      </trkpt>
      <trkpt lat="47.83697" lon="7.27794">
        <ele>246</ele>
        <time>2014-03-06T15:36:13Z</time>
      </trkpt>
      <trkpt lat="47.83703" lon="7.27803">
        <ele>246.2</ele>
        <time>2014-03-06T15:36:15Z</time>
      </trkpt>
      <trkpt lat="47.83709" lon="7.27812">
        <ele>246.3</ele>
        <time>2014-03-06T15:36:17Z</time>
      </trkpt>
      <trkpt lat="47.83714" lon="7.27822">
        <ele>246.3</ele>
        <time>2014-03-06T15:36:19Z</time>
      </trkpt>
      <trkpt lat="47.83719" lon="7.27832">
        <ele>246.2</ele>
        <time>2014-03-06T15:36:21Z</time>
      </trkpt>
      <trkpt lat="47.83725" lon="7.27842">
        <ele>245.7</ele>
        <time>2014-03-06T15:36:23Z</time>
      </trkpt>
      <trkpt lat="47.83729" lon="7.27853">
        <ele>245.4</ele>
        <time>2014-03-06T15:36:25Z</time>
      </trkpt>
      <trkpt lat="47.83734" lon="7.27863">
        <ele>245.5</ele>
        <time>2014-03-06T15:36:27Z</time>
      </trkpt>
      <trkpt lat="47.83739" lon="7.27873">
        <ele>245.2</ele>
        <time>2014-03-06T15:36:29Z</time>
      </trkpt>
      <trkpt lat="47.83744" lon="7.27884">
        <ele>244.5</ele>
        <time>2014-03-06T15:36:31Z</time>
      </trkpt>
      <trkpt lat="47.83749" lon="7.27896">
        <ele>245.2</ele>
        <time>2014-03-06T15:36:33Z</time>
      </trkpt>
      <trkpt lat="47.83753" lon="7.27908">
        <ele>244.7</ele>
        <time>2014-03-06T15:36:35Z</time>
      </trkpt>
      <trkpt lat="47.83758" lon="7.27919">
        <ele>245.7</ele>
        <time>2014-03-06T15:36:37Z</time>
      </trkpt>
      <trkpt lat="47.83762" lon="7.27929">
        <ele>246.1</ele>
        <time>2014-03-06T15:36:39Z</time>
      </trkpt>
      <trkpt lat="47.83766" lon="7.2794">
        <ele>245.7</ele>
        <time>2014-03-06T15:36:41Z</time>
      </trkpt>
      <trkpt lat="47.83769" lon="7.2795">
        <ele>245.8</ele>
        <time>2014-03-06T15:36:43Z</time>
      </trkpt>
      <trkpt lat="47.83773" lon="7.27959">
        <ele>245.3</ele>
        <time>2014-03-06T15:36:45Z</time>
      </trkpt>
      <trkpt lat="47.83776" lon="7.27969">
        <ele>245.5</ele>
        <time>2014-03-06T15:36:47Z</time>
      </trkpt>
      <trkpt lat="47.83779" lon="7.27978">
        <ele>245.6</ele>
        <time>2014-03-06T15:36:49Z</time>
      </trkpt>
      <trkpt lat="47.83782" lon="7.27987">
        <ele>244.7</ele>
        <time>2014-03-06T15:36:51Z</time>
      </trkpt>
      <trkpt lat="47.83785" lon="7.27996">
        <ele>244.6</ele>
        <time>2014-03-06T15:36:53Z</time>
      </trkpt>
      <trkpt lat="47.83789" lon="7.28005">
        <ele>244.5</ele>
        <time>2014-03-06T15:36:55Z</time>
      </trkpt>
      <trkpt lat="47.83792" lon="7.28015">
        <ele>244.5</ele>
        <time>2014-03-06T15:36:57Z</time>
      </trkpt>
      <trkpt lat="47.83796" lon="7.28026">
        <ele>244.3</ele>
        <time>2014-03-06T15:36:59Z</time>
      </trkpt>
      <trkpt lat="47.83799" lon="7.28039">
        <ele>244.9</ele>
        <time>2014-03-06T15:37:01Z</time>
      </trkpt>
      <trkpt lat="47.83803" lon="7.28051">
        <ele>245.3</ele>
        <time>2014-03-06T15:37:03Z</time>
      </trkpt>
      <trkpt lat="47.83807" lon="7.28062">
        <ele>245.1</ele>
        <time>2014-03-06T15:37:05Z</time>
      </trkpt>
      <trkpt lat="47.8381" lon="7.28073">
        <ele>243.8</ele>
        <time>2014-03-06T15:37:07Z</time>
      </trkpt>
      <trkpt lat="47.83814" lon="7.28083">
        <ele>244.1</ele>
        <time>2014-03-06T15:37:09Z</time>
      </trkpt>
      <trkpt lat="47.83817" lon="7.28093">
        <ele>243.9</ele>
        <time>2014-03-06T15:37:11Z</time>
      </trkpt>
      <trkpt lat="47.8382" lon="7.28104">
        <ele>243.9</ele>
        <time>2014-03-06T15:37:13Z</time>
      </trkpt>
      <trkpt lat="47.83824" lon="7.28116">
        <ele>243.1</ele>
        <time>2014-03-06T15:37:15Z</time>
      </trkpt>
      <trkpt lat="47.83828" lon="7.28129">
        <ele>243.3</ele>
        <time>2014-03-06T15:37:17Z</time>
      </trkpt>
      <trkpt lat="47.83831" lon="7.28142">
        <ele>243.5</ele>
        <time>2014-03-06T15:37:19Z</time>
      </trkpt>
      <trkpt lat="47.83835" lon="7.28156">
        <ele>244.1</ele>
        <time>2014-03-06T15:37:21Z</time>
      </trkpt>
      <trkpt lat="47.8384" lon="7.28169">
        <ele>243.9</ele>
        <time>2014-03-06T15:37:23Z</time>
      </trkpt>
      <trkpt lat="47.83845" lon="7.28182">
        <ele>243.2</ele>
        <time>2014-03-06T15:37:25Z</time>
      </trkpt>
      <trkpt lat="47.8385" lon="7.28195">
        <ele>243</ele>
        <time>2014-03-06T15:37:27Z</time>
      </trkpt>
      <trkpt lat="47.83855" lon="7.28207">
        <ele>243.5</ele>
        <time>2014-03-06T15:37:29Z</time>
      </trkpt>
      <trkpt lat="47.83861" lon="7.28219">
        <ele>243.2</ele>
        <time>2014-03-06T15:37:31Z</time>
      </trkpt>
      <trkpt lat="47.83867" lon="7.2823">
        <ele>243.7</ele>
        <time>2014-03-06T15:37:33Z</time>
      </trkpt>
      <trkpt lat="47.83873" lon="7.28241">
        <ele>244</ele>
        <time>2014-03-06T15:37:35Z</time>
      </trkpt>
      <trkpt lat="47.8388" lon="7.28252">
        <ele>244.1</ele>
        <time>2014-03-06T15:37:37Z</time>
      </trkpt>
      <trkpt lat="47.83887" lon="7.28263">
        <ele>242.5</ele>
        <time>2014-03-06T15:37:39Z</time>
      </trkpt>
      <trkpt lat="47.83894" lon="7.28273">
        <ele>243.1</ele>
        <time>2014-03-06T15:37:41Z</time>
      </trkpt>
      <trkpt lat="47.83902" lon="7.28283">
        <ele>243.7</ele>
        <time>2014-03-06T15:37:43Z</time>
      </trkpt>
      <trkpt lat="47.8391" lon="7.28293">
        <ele>244</ele>
        <time>2014-03-06T15:37:45Z</time>
      </trkpt>
      <trkpt lat="47.83917" lon="7.28302">
        <ele>243.8</ele>
        <time>2014-03-06T15:37:47Z</time>
      </trkpt>
      <trkpt lat="47.83923" lon="7.2831">
        <ele>244.7</ele>
        <time>2014-03-06T15:37:49Z</time>
      </trkpt>
      <trkpt lat="47.8393" lon="7.2832">
        <ele>244.1</ele>
        <time>2014-03-06T15:37:51Z</time>
      </trkpt>
      <trkpt lat="47.83937" lon="7.28329">
        <ele>243.6</ele>
        <time>2014-03-06T15:37:53Z</time>
      </trkpt>
      <trkpt lat="47.83944" lon="7.28339">
        <ele>244.1</ele>
        <time>2014-03-06T15:37:55Z</time>
      </trkpt>
      <trkpt lat="47.83952" lon="7.28347">
        <ele>243.4</ele>
        <time>2014-03-06T15:37:57Z</time>
      </trkpt>
      <trkpt lat="47.83959" lon="7.28354">
        <ele>243.1</ele>
        <time>2014-03-06T15:37:59Z</time>
      </trkpt>
      <trkpt lat="47.83966" lon="7.2836">
        <ele>244.2</ele>
        <time>2014-03-06T15:38:01Z</time>
      </trkpt>
      <trkpt lat="47.83973" lon="7.28366">
        <ele>244.2</ele>
        <time>2014-03-06T15:38:03Z</time>
      </trkpt>
      <trkpt lat="47.83979" lon="7.28372">
        <ele>243.5</ele>
        <time>2014-03-06T15:38:05Z</time>
      </trkpt>
      <trkpt lat="47.83987" lon="7.28378">
        <ele>243.5</ele>
        <time>2014-03-06T15:38:07Z</time>
      </trkpt>
      <trkpt lat="47.83995" lon="7.28383">
        <ele>244.2</ele>
        <time>2014-03-06T15:38:09Z</time>
      </trkpt>
      <trkpt lat="47.84003" lon="7.28389">
        <ele>242.5</ele>
        <time>2014-03-06T15:38:11Z</time>
      </trkpt>
      <trkpt lat="47.84012" lon="7.28394">
        <ele>243.9</ele>
        <time>2014-03-06T15:38:13Z</time>
      </trkpt>
      <trkpt lat="47.84021" lon="7.28399">
        <ele>243.3</ele>
        <time>2014-03-06T15:38:15Z</time>
      </trkpt>
      <trkpt lat="47.8403" lon="7.28403">
        <ele>243.8</ele>
        <time>2014-03-06T15:38:17Z</time>
      </trkpt>
      <trkpt lat="47.8404" lon="7.28407">
        <ele>242.4</ele>
        <time>2014-03-06T15:38:19Z</time>
      </trkpt>
      <trkpt lat="47.8405" lon="7.2841">
        <ele>243.2</ele>
        <time>2014-03-06T15:38:21Z</time>
      </trkpt>
      <trkpt lat="47.8406" lon="7.28413">
        <ele>243.5</ele>
        <time>2014-03-06T15:38:23Z</time>
      </trkpt>
      <trkpt lat="47.84069" lon="7.28416">
        <ele>243.8</ele>
        <time>2014-03-06T15:38:25Z</time>
      </trkpt>
      <trkpt lat="47.84077" lon="7.28419">
        <ele>244</ele>
        <time>2014-03-06T15:38:27Z</time>
      </trkpt>
      <trkpt lat="47.84085" lon="7.28423">
        <ele>244.2</ele>
        <time>2014-03-06T15:38:29Z</time>
      </trkpt>
      <trkpt lat="47.84094" lon="7.28426">
        <ele>243.2</ele>
        <time>2014-03-06T15:38:31Z</time>
      </trkpt>
      <trkpt lat="47.84102" lon="7.2843">
        <ele>242.3</ele>
        <time>2014-03-06T15:38:33Z</time>
      </trkpt>
      <trkpt lat="47.84111" lon="7.28435">
        <ele>242.8</ele>
        <time>2014-03-06T15:38:35Z</time>
      </trkpt>
      <trkpt lat="47.8412" lon="7.2844">
        <ele>242.3</ele>
        <time>2014-03-06T15:38:37Z</time>
      </trkpt>
      <trkpt lat="47.84129" lon="7.28445">
        <ele>242.8</ele>
        <time>2014-03-06T15:38:39Z</time>
      </trkpt>
      <trkpt lat="47.84139" lon="7.2845">
        <ele>242.2</ele>
        <time>2014-03-06T15:38:41Z</time>
      </trkpt>
      <trkpt lat="47.84148" lon="7.28455">
        <ele>242.4</ele>
        <time>2014-03-06T15:38:43Z</time>
      </trkpt>
      <trkpt lat="47.84156" lon="7.2846">
        <ele>243.1</ele>
        <time>2014-03-06T15:38:45Z</time>
      </trkpt>
      <trkpt lat="47.84165" lon="7.28464">
        <ele>242.2</ele>
        <time>2014-03-06T15:38:47Z</time>
      </trkpt>
      <trkpt lat="47.84173" lon="7.28469">
        <ele>242.7</ele>
        <time>2014-03-06T15:38:49Z</time>
      </trkpt>
      <trkpt lat="47.84182" lon="7.28474">
        <ele>244.2</ele>
        <time>2014-03-06T15:38:51Z</time>
      </trkpt>
      <trkpt lat="47.84191" lon="7.2848">
        <ele>243.3</ele>
        <time>2014-03-06T15:38:53Z</time>
      </trkpt>
      <trkpt lat="47.84201" lon="7.28486">
        <ele>243.6</ele>
        <time>2014-03-06T15:38:55Z</time>
      </trkpt>
      <trkpt lat="47.8421" lon="7.2849">
        <ele>243</ele>
        <time>2014-03-06T15:38:57Z</time>
      </trkpt>
      <trkpt lat="47.84217" lon="7.28495">
        <ele>243.4</ele>
        <time>2014-03-06T15:38:59Z</time>
      </trkpt>
      <trkpt lat="47.84223" lon="7.28499">
        <ele>243.5</ele>
        <time>2014-03-06T15:39:01Z</time>
      </trkpt>
      <trkpt lat="47.8423" lon="7.28503">
        <ele>243.9</ele>
        <time>2014-03-06T15:39:03Z</time>
      </trkpt>
      <trkpt lat="47.84237" lon="7.28507">
        <ele>244.2</ele>
        <time>2014-03-06T15:39:05Z</time>
      </trkpt>
      <trkpt lat="47.84245" lon="7.28512">
        <ele>244.3</ele>
        <time>2014-03-06T15:39:07Z</time>
      </trkpt>
      <trkpt lat="47.84252" lon="7.28516">
        <ele>244.2</ele>
        <time>2014-03-06T15:39:09Z</time>
      </trkpt>
      <trkpt lat="47.8426" lon="7.28521">
        <ele>243.5</ele>
        <time>2014-03-06T15:39:11Z</time>
      </trkpt>
      <trkpt lat="47.84268" lon="7.28527">
        <ele>243.5</ele>
        <time>2014-03-06T15:39:13Z</time>
      </trkpt>
      <trkpt lat="47.84277" lon="7.28533">
        <ele>243.6</ele>
        <time>2014-03-06T15:39:15Z</time>
      </trkpt>
      <trkpt lat="47.84285" lon="7.2854">
        <ele>243.3</ele>
        <time>2014-03-06T15:39:17Z</time>
      </trkpt>
      <trkpt lat="47.84292" lon="7.28548">
        <ele>242.9</ele>
        <time>2014-03-06T15:39:19Z</time>
      </trkpt>
      <trkpt lat="47.84299" lon="7.28555">
        <ele>243.2</ele>
        <time>2014-03-06T15:39:21Z</time>
      </trkpt>
      <trkpt lat="47.84306" lon="7.28562">
        <ele>243.5</ele>
        <time>2014-03-06T15:39:23Z</time>
      </trkpt>
      <trkpt lat="47.84311" lon="7.2857">
        <ele>243.3</ele>
        <time>2014-03-06T15:39:25Z</time>
      </trkpt>
      <trkpt lat="47.84315" lon="7.28575">
        <ele>243.3</ele>
        <time>2014-03-06T15:39:27Z</time>
      </trkpt>
      <trkpt lat="47.84318" lon="7.28579">
        <ele>244.2</ele>
        <time>2014-03-06T15:39:29Z</time>
      </trkpt>
      <trkpt lat="47.8432" lon="7.28582">
        <ele>243.9</ele>
        <time>2014-03-06T15:39:31Z</time>
      </trkpt>
      <trkpt lat="47.84324" lon="7.28584">
        <ele>244.3</ele>
        <time>2014-03-06T15:39:39Z</time>
      </trkpt>
      <trkpt lat="47.84326" lon="7.28585">
        <ele>244.2</ele>
        <time>2014-03-06T15:39:41Z</time>
      </trkpt>
      <trkpt lat="47.84331" lon="7.28585">
        <ele>244.5</ele>
        <time>2014-03-06T15:39:43Z</time>
      </trkpt>
      <trkpt lat="47.84337" lon="7.28584">
        <ele>243.9</ele>
        <time>2014-03-06T15:39:45Z</time>
      </trkpt>
      <trkpt lat="47.84343" lon="7.28588">
        <ele>243.6</ele>
        <time>2014-03-06T15:39:47Z</time>
      </trkpt>
      <trkpt lat="47.84349" lon="7.28595">
        <ele>243.5</ele>
        <time>2014-03-06T15:39:49Z</time>
      </trkpt>
      <trkpt lat="47.84355" lon="7.28601">
        <ele>243.1</ele>
        <time>2014-03-06T15:39:51Z</time>
      </trkpt>
      <trkpt lat="47.84362" lon="7.28607">
        <ele>242.9</ele>
        <time>2014-03-06T15:39:53Z</time>
      </trkpt>
      <trkpt lat="47.84369" lon="7.28614">
        <ele>243.8</ele>
        <time>2014-03-06T15:39:55Z</time>
      </trkpt>
      <trkpt lat="47.84375" lon="7.2862">
        <ele>243.7</ele>
        <time>2014-03-06T15:39:57Z</time>
      </trkpt>
      <trkpt lat="47.84382" lon="7.28627">
        <ele>243.2</ele>
        <time>2014-03-06T15:39:59Z</time>
      </trkpt>
      <trkpt lat="47.84389" lon="7.28634">
        <ele>243.1</ele>
        <time>2014-03-06T15:40:01Z</time>
      </trkpt>
      <trkpt lat="47.84396" lon="7.28642">
        <ele>243.5</ele>
        <time>2014-03-06T15:40:03Z</time>
      </trkpt>
      <trkpt lat="47.84403" lon="7.2865">
        <ele>243</ele>
        <time>2014-03-06T15:40:05Z</time>
      </trkpt>
      <trkpt lat="47.84406" lon="7.2866">
        <ele>242.8</ele>
        <time>2014-03-06T15:40:07Z</time>
      </trkpt>
      <trkpt lat="47.84406" lon="7.28671">
        <ele>241.8</ele>
        <time>2014-03-06T15:40:09Z</time>
      </trkpt>
      <trkpt lat="47.844" lon="7.2868">
        <ele>242</ele>
        <time>2014-03-06T15:40:11Z</time>
      </trkpt>
      <trkpt lat="47.84395" lon="7.28689">
        <ele>242</ele>
        <time>2014-03-06T15:40:13Z</time>
      </trkpt>
      <trkpt lat="47.84389" lon="7.28698">
        <ele>241.8</ele>
        <time>2014-03-06T15:40:15Z</time>
      </trkpt>
      <trkpt lat="47.84382" lon="7.28707">
        <ele>243.1</ele>
        <time>2014-03-06T15:40:17Z</time>
      </trkpt>
      <trkpt lat="47.84375" lon="7.28716">
        <ele>242.9</ele>
        <time>2014-03-06T15:40:19Z</time>
      </trkpt>
      <trkpt lat="47.84368" lon="7.28726">
        <ele>243.2</ele>
        <time>2014-03-06T15:40:21Z</time>
      </trkpt>
      <trkpt lat="47.84362" lon="7.28736">
        <ele>242.9</ele>
        <time>2014-03-06T15:40:23Z</time>
      </trkpt>
      <trkpt lat="47.84355" lon="7.28745">
        <ele>243.3</ele>
        <time>2014-03-06T15:40:25Z</time>
      </trkpt>
      <trkpt lat="47.84348" lon="7.28753">
        <ele>243</ele>
        <time>2014-03-06T15:40:27Z</time>
      </trkpt>
      <trkpt lat="47.8434" lon="7.28758">
        <ele>242.2</ele>
        <time>2014-03-06T15:40:29Z</time>
      </trkpt>
      <trkpt lat="47.84331" lon="7.28762">
        <ele>242.5</ele>
        <time>2014-03-06T15:40:31Z</time>
      </trkpt>
      <trkpt lat="47.84322" lon="7.28772">
        <ele>243</ele>
        <time>2014-03-06T15:40:33Z</time>
      </trkpt>
      <trkpt lat="47.84316" lon="7.28784">
        <ele>243</ele>
        <time>2014-03-06T15:40:35Z</time>
      </trkpt>
      <trkpt lat="47.84309" lon="7.28795">
        <ele>242.6</ele>
        <time>2014-03-06T15:40:37Z</time>
      </trkpt>
      <trkpt lat="47.84302" lon="7.28808">
        <ele>242.6</ele>
        <time>2014-03-06T15:40:39Z</time>
      </trkpt>
      <trkpt lat="47.84295" lon="7.28821">
        <ele>242.4</ele>
        <time>2014-03-06T15:40:41Z</time>
      </trkpt>
      <trkpt lat="47.84287" lon="7.28834">
        <ele>240.6</ele>
        <time>2014-03-06T15:40:43Z</time>
      </trkpt>
      <trkpt lat="47.8428" lon="7.28848">
        <ele>240.9</ele>
        <time>2014-03-06T15:40:45Z</time>
      </trkpt>
      <trkpt lat="47.84274" lon="7.28863">
        <ele>241.3</ele>
        <time>2014-03-06T15:40:47Z</time>
      </trkpt>
      <trkpt lat="47.84269" lon="7.28877">
        <ele>241.8</ele>
        <time>2014-03-06T15:40:49Z</time>
      </trkpt>
      <trkpt lat="47.84264" lon="7.2889">
        <ele>241.8</ele>
        <time>2014-03-06T15:40:51Z</time>
      </trkpt>
      <trkpt lat="47.84259" lon="7.28904">
        <ele>241.8</ele>
        <time>2014-03-06T15:40:53Z</time>
      </trkpt>
      <trkpt lat="47.84255" lon="7.28918">
        <ele>242.1</ele>
        <time>2014-03-06T15:40:55Z</time>
      </trkpt>
      <trkpt lat="47.84251" lon="7.28935">
        <ele>242.5</ele>
        <time>2014-03-06T15:40:57Z</time>
      </trkpt>
      <trkpt lat="47.84248" lon="7.28952">
        <ele>242.6</ele>
        <time>2014-03-06T15:40:59Z</time>
      </trkpt>
      <trkpt lat="47.84246" lon="7.28971">
        <ele>241.2</ele>
        <time>2014-03-06T15:41:01Z</time>
      </trkpt>
      <trkpt lat="47.84243" lon="7.2899">
        <ele>241.4</ele>
        <time>2014-03-06T15:41:03Z</time>
      </trkpt>
      <trkpt lat="47.84241" lon="7.29009">
        <ele>240.3</ele>
        <time>2014-03-06T15:41:05Z</time>
      </trkpt>
      <trkpt lat="47.8424" lon="7.2903">
        <ele>239.7</ele>
        <time>2014-03-06T15:41:07Z</time>
      </trkpt>
      <trkpt lat="47.84238" lon="7.2905">
        <ele>241.1</ele>
        <time>2014-03-06T15:41:09Z</time>
      </trkpt>
      <trkpt lat="47.84238" lon="7.29088">
        <ele>242</ele>
        <time>2014-03-06T15:41:13Z</time>
      </trkpt>
      <trkpt lat="47.84239" lon="7.29107">
        <ele>241.5</ele>
        <time>2014-03-06T15:41:15Z</time>
      </trkpt>
      <trkpt lat="47.8424" lon="7.29126">
        <ele>242.7</ele>
        <time>2014-03-06T15:41:17Z</time>
      </trkpt>
      <trkpt lat="47.84242" lon="7.29145">
        <ele>241.6</ele>
        <time>2014-03-06T15:41:19Z</time>
      </trkpt>
      <trkpt lat="47.84243" lon="7.29164">
        <ele>240.9</ele>
        <time>2014-03-06T15:41:21Z</time>
      </trkpt>
      <trkpt lat="47.84246" lon="7.29183">
        <ele>240.4</ele>
        <time>2014-03-06T15:41:23Z</time>
      </trkpt>
      <trkpt lat="47.84248" lon="7.29202">
        <ele>240.2</ele>
        <time>2014-03-06T15:41:25Z</time>
      </trkpt>
      <trkpt lat="47.84252" lon="7.2922">
        <ele>240.3</ele>
        <time>2014-03-06T15:41:27Z</time>
      </trkpt>
      <trkpt lat="47.84256" lon="7.29236">
        <ele>238.8</ele>
        <time>2014-03-06T15:41:29Z</time>
      </trkpt>
      <trkpt lat="47.8426" lon="7.29253">
        <ele>239.2</ele>
        <time>2014-03-06T15:41:31Z</time>
      </trkpt>
      <trkpt lat="47.84265" lon="7.29268">
        <ele>238.7</ele>
        <time>2014-03-06T15:41:33Z</time>
      </trkpt>
      <trkpt lat="47.8427" lon="7.29282">
        <ele>238.5</ele>
        <time>2014-03-06T15:41:35Z</time>
      </trkpt>
      <trkpt lat="47.84275" lon="7.29295">
        <ele>237.6</ele>
        <time>2014-03-06T15:41:37Z</time>
      </trkpt>
      <trkpt lat="47.8428" lon="7.29309">
        <ele>238.1</ele>
        <time>2014-03-06T15:41:39Z</time>
      </trkpt>
      <trkpt lat="47.84285" lon="7.29322">
        <ele>238.5</ele>
        <time>2014-03-06T15:41:41Z</time>
      </trkpt>
      <trkpt lat="47.84289" lon="7.29335">
        <ele>238.6</ele>
        <time>2014-03-06T15:41:43Z</time>
      </trkpt>
      <trkpt lat="47.84294" lon="7.29347">
        <ele>238.4</ele>
        <time>2014-03-06T15:41:45Z</time>
      </trkpt>
      <trkpt lat="47.84298" lon="7.29358">
        <ele>238.9</ele>
        <time>2014-03-06T15:41:47Z</time>
      </trkpt>
      <trkpt lat="47.84303" lon="7.29369">
        <ele>239.5</ele>
        <time>2014-03-06T15:41:49Z</time>
      </trkpt>
      <trkpt lat="47.84304" lon="7.29379">
        <ele>239.5</ele>
        <time>2014-03-06T15:41:51Z</time>
      </trkpt>
      <trkpt lat="47.84302" lon="7.29384">
        <ele>238.1</ele>
        <time>2014-03-06T15:41:53Z</time>
      </trkpt>
      <trkpt lat="47.84299" lon="7.29388">
        <ele>237.5</ele>
        <time>2014-03-06T15:41:55Z</time>
      </trkpt>
      <trkpt lat="47.84295" lon="7.29392">
        <ele>237</ele>
        <time>2014-03-06T15:41:57Z</time>
      </trkpt>
      <trkpt lat="47.8429" lon="7.29396">
        <ele>236.9</ele>
        <time>2014-03-06T15:41:59Z</time>
      </trkpt>
      <trkpt lat="47.84283" lon="7.294">
        <ele>236.6</ele>
        <time>2014-03-06T15:42:01Z</time>
      </trkpt>
      <trkpt lat="47.84277" lon="7.29404">
        <ele>236.2</ele>
        <time>2014-03-06T15:42:03Z</time>
      </trkpt>
      <trkpt lat="47.84269" lon="7.29408">
        <ele>236.4</ele>
        <time>2014-03-06T15:42:05Z</time>
      </trkpt>
      <trkpt lat="47.84259" lon="7.29413">
        <ele>236.1</ele>
        <time>2014-03-06T15:42:07Z</time>
      </trkpt>
      <trkpt lat="47.84251" lon="7.29418">
        <ele>236.3</ele>
        <time>2014-03-06T15:42:09Z</time>
      </trkpt>
      <trkpt lat="47.84242" lon="7.29423">
        <ele>236.4</ele>
        <time>2014-03-06T15:42:11Z</time>
      </trkpt>
      <trkpt lat="47.84232" lon="7.2943">
        <ele>235.9</ele>
        <time>2014-03-06T15:42:13Z</time>
      </trkpt>
      <trkpt lat="47.84223" lon="7.29436">
        <ele>236.5</ele>
        <time>2014-03-06T15:42:15Z</time>
      </trkpt>
      <trkpt lat="47.84213" lon="7.29443">
        <ele>236.8</ele>
        <time>2014-03-06T15:42:17Z</time>
      </trkpt>
      <trkpt lat="47.84203" lon="7.2945">
        <ele>237.8</ele>
        <time>2014-03-06T15:42:19Z</time>
      </trkpt>
      <trkpt lat="47.84193" lon="7.29456">
        <ele>237.9</ele>
        <time>2014-03-06T15:42:21Z</time>
      </trkpt>
      <trkpt lat="47.84184" lon="7.29462">
        <ele>238.1</ele>
        <time>2014-03-06T15:42:23Z</time>
      </trkpt>
      <trkpt lat="47.84174" lon="7.29461">
        <ele>237.3</ele>
        <time>2014-03-06T15:42:25Z</time>
      </trkpt>
      <trkpt lat="47.84166" lon="7.29455">
        <ele>237.1</ele>
        <time>2014-03-06T15:42:27Z</time>
      </trkpt>
      <trkpt lat="47.84158" lon="7.29458">
        <ele>236.9</ele>
        <time>2014-03-06T15:42:29Z</time>
      </trkpt>
      <trkpt lat="47.84152" lon="7.29467">
        <ele>237.1</ele>
        <time>2014-03-06T15:42:31Z</time>
      </trkpt>
      <trkpt lat="47.84146" lon="7.29479">
        <ele>237</ele>
        <time>2014-03-06T15:42:33Z</time>
      </trkpt>
      <trkpt lat="47.8414" lon="7.29491">
        <ele>237.1</ele>
        <time>2014-03-06T15:42:35Z</time>
      </trkpt>
      <trkpt lat="47.84135" lon="7.29503">
        <ele>238</ele>
        <time>2014-03-06T15:42:37Z</time>
      </trkpt>
      <trkpt lat="47.8413" lon="7.29516">
        <ele>236.5</ele>
        <time>2014-03-06T15:42:39Z</time>
      </trkpt>
      <trkpt lat="47.84124" lon="7.29529">
        <ele>237.4</ele>
        <time>2014-03-06T15:42:41Z</time>
      </trkpt>
      <trkpt lat="47.84117" lon="7.29542">
        <ele>237.2</ele>
        <time>2014-03-06T15:42:43Z</time>
      </trkpt>
      <trkpt lat="47.8411" lon="7.29555">
        <ele>236.4</ele>
        <time>2014-03-06T15:42:45Z</time>
      </trkpt>
      <trkpt lat="47.84103" lon="7.29567">
        <ele>236.4</ele>
        <time>2014-03-06T15:42:46Z</time>
      </trkpt>
      <trkpt lat="47.84095" lon="7.2958">
        <ele>236.9</ele>
        <time>2014-03-06T15:42:49Z</time>
      </trkpt>
      <trkpt lat="47.84088" lon="7.29592">
        <ele>236.7</ele>
        <time>2014-03-06T15:42:51Z</time>
      </trkpt>
      <trkpt lat="47.84082" lon="7.29602">
        <ele>237.5</ele>
        <time>2014-03-06T15:42:53Z</time>
      </trkpt>
      <trkpt lat="47.84076" lon="7.29613">
        <ele>237.5</ele>
        <time>2014-03-06T15:42:55Z</time>
      </trkpt>
      <trkpt lat="47.84071" lon="7.29623">
        <ele>238</ele>
        <time>2014-03-06T15:42:57Z</time>
      </trkpt>
      <trkpt lat="47.84065" lon="7.29633">
        <ele>237.9</ele>
        <time>2014-03-06T15:42:59Z</time>
      </trkpt>
      <trkpt lat="47.8406" lon="7.29644">
        <ele>237.4</ele>
        <time>2014-03-06T15:43:01Z</time>
      </trkpt>
      <trkpt lat="47.84054" lon="7.29655">
        <ele>237.8</ele>
        <time>2014-03-06T15:43:03Z</time>
      </trkpt>
      <trkpt lat="47.84048" lon="7.29667">
        <ele>238.2</ele>
        <time>2014-03-06T15:43:05Z</time>
      </trkpt>
      <trkpt lat="47.84042" lon="7.29678">
        <ele>238.3</ele>
        <time>2014-03-06T15:43:07Z</time>
      </trkpt>
      <trkpt lat="47.84037" lon="7.29689">
        <ele>238.2</ele>
        <time>2014-03-06T15:43:09Z</time>
      </trkpt>
      <trkpt lat="47.84032" lon="7.29699">
        <ele>238.3</ele>
        <time>2014-03-06T15:43:11Z</time>
      </trkpt>
      <trkpt lat="47.84027" lon="7.29709">
        <ele>238.8</ele>
        <time>2014-03-06T15:43:13Z</time>
      </trkpt>
      <trkpt lat="47.84021" lon="7.29719">
        <ele>238.9</ele>
        <time>2014-03-06T15:43:15Z</time>
      </trkpt>
      <trkpt lat="47.84016" lon="7.29729">
        <ele>238.9</ele>
        <time>2014-03-06T15:43:17Z</time>
      </trkpt>
      <trkpt lat="47.84014" lon="7.29738">
        <ele>239.2</ele>
        <time>2014-03-06T15:43:19Z</time>
      </trkpt>
      <trkpt lat="47.84017" lon="7.29746">
        <ele>239.5</ele>
        <time>2014-03-06T15:43:21Z</time>
      </trkpt>
      <trkpt lat="47.84023" lon="7.2975">
        <ele>239.2</ele>
        <time>2014-03-06T15:43:23Z</time>
      </trkpt>
      <trkpt lat="47.84029" lon="7.29754">
        <ele>239.2</ele>
        <time>2014-03-06T15:43:25Z</time>
      </trkpt>
      <trkpt lat="47.84036" lon="7.29759">
        <ele>240.3</ele>
        <time>2014-03-06T15:43:27Z</time>
      </trkpt>
      <trkpt lat="47.84044" lon="7.29763">
        <ele>239</ele>
        <time>2014-03-06T15:43:29Z</time>
      </trkpt>
      <trkpt lat="47.84052" lon="7.29767">
        <ele>238.6</ele>
        <time>2014-03-06T15:43:31Z</time>
      </trkpt>
      <trkpt lat="47.8406" lon="7.29771">
        <ele>238</ele>
        <time>2014-03-06T15:43:33Z</time>
      </trkpt>
      <trkpt lat="47.84069" lon="7.29776">
        <ele>238.2</ele>
        <time>2014-03-06T15:43:35Z</time>
      </trkpt>
      <trkpt lat="47.84078" lon="7.2978">
        <ele>238.9</ele>
        <time>2014-03-06T15:43:37Z</time>
      </trkpt>
      <trkpt lat="47.84086" lon="7.29784">
        <ele>238.9</ele>
        <time>2014-03-06T15:43:39Z</time>
      </trkpt>
      <trkpt lat="47.84095" lon="7.29789">
        <ele>238.6</ele>
        <time>2014-03-06T15:43:41Z</time>
      </trkpt>
      <trkpt lat="47.84103" lon="7.29795">
        <ele>237.9</ele>
        <time>2014-03-06T15:43:43Z</time>
      </trkpt>
      <trkpt lat="47.84111" lon="7.29801">
        <ele>238.9</ele>
        <time>2014-03-06T15:43:45Z</time>
      </trkpt>
      <trkpt lat="47.84119" lon="7.29808">
        <ele>237.3</ele>
        <time>2014-03-06T15:43:47Z</time>
      </trkpt>
      <trkpt lat="47.84128" lon="7.29816">
        <ele>237</ele>
        <time>2014-03-06T15:43:49Z</time>
      </trkpt>
      <trkpt lat="47.84135" lon="7.29824">
        <ele>237.1</ele>
        <time>2014-03-06T15:43:51Z</time>
      </trkpt>
      <trkpt lat="47.84143" lon="7.29832">
        <ele>238</ele>
        <time>2014-03-06T15:43:53Z</time>
      </trkpt>
      <trkpt lat="47.8415" lon="7.29839">
        <ele>237.8</ele>
        <time>2014-03-06T15:43:55Z</time>
      </trkpt>
      <trkpt lat="47.84156" lon="7.29848">
        <ele>237.8</ele>
        <time>2014-03-06T15:43:57Z</time>
      </trkpt>
      <trkpt lat="47.84156" lon="7.29858">
        <ele>237.5</ele>
        <time>2014-03-06T15:43:59Z</time>
      </trkpt>
      <trkpt lat="47.84153" lon="7.29867">
        <ele>238</ele>
        <time>2014-03-06T15:44:01Z</time>
      </trkpt>
      <trkpt lat="47.84149" lon="7.29877">
        <ele>238.1</ele>
        <time>2014-03-06T15:44:03Z</time>
      </trkpt>
      <trkpt lat="47.84144" lon="7.29887">
        <ele>238.3</ele>
        <time>2014-03-06T15:44:05Z</time>
      </trkpt>
      <trkpt lat="47.8414" lon="7.29898">
        <ele>237.7</ele>
        <time>2014-03-06T15:44:07Z</time>
      </trkpt>
      <trkpt lat="47.84135" lon="7.29909">
        <ele>237.5</ele>
        <time>2014-03-06T15:44:09Z</time>
      </trkpt>
      <trkpt lat="47.84131" lon="7.2992">
        <ele>237.7</ele>
        <time>2014-03-06T15:44:11Z</time>
      </trkpt>
      <trkpt lat="47.84126" lon="7.29932">
        <ele>236.9</ele>
        <time>2014-03-06T15:44:13Z</time>
      </trkpt>
      <trkpt lat="47.84121" lon="7.29943">
        <ele>238</ele>
        <time>2014-03-06T15:44:15Z</time>
      </trkpt>
      <trkpt lat="47.84116" lon="7.29954">
        <ele>238.1</ele>
        <time>2014-03-06T15:44:17Z</time>
      </trkpt>
      <trkpt lat="47.84112" lon="7.29963">
        <ele>237.9</ele>
        <time>2014-03-06T15:44:19Z</time>
      </trkpt>
      <trkpt lat="47.84108" lon="7.29972">
        <ele>238</ele>
        <time>2014-03-06T15:44:21Z</time>
      </trkpt>
      <trkpt lat="47.84105" lon="7.29981">
        <ele>238.2</ele>
        <time>2014-03-06T15:44:23Z</time>
      </trkpt>
      <trkpt lat="47.84101" lon="7.29989">
        <ele>238.2</ele>
        <time>2014-03-06T15:44:25Z</time>
      </trkpt>
      <trkpt lat="47.84097" lon="7.29999">
        <ele>239</ele>
        <time>2014-03-06T15:44:27Z</time>
      </trkpt>
      <trkpt lat="47.84093" lon="7.30009">
        <ele>238.9</ele>
        <time>2014-03-06T15:44:29Z</time>
      </trkpt>
      <trkpt lat="47.84089" lon="7.3002">
        <ele>238.9</ele>
        <time>2014-03-06T15:44:31Z</time>
      </trkpt>
      <trkpt lat="47.84084" lon="7.30031">
        <ele>238.9</ele>
        <time>2014-03-06T15:44:33Z</time>
      </trkpt>
      <trkpt lat="47.84079" lon="7.30043">
        <ele>239.1</ele>
        <time>2014-03-06T15:44:35Z</time>
      </trkpt>
      <trkpt lat="47.84074" lon="7.30055">
        <ele>238.8</ele>
        <time>2014-03-06T15:44:37Z</time>
      </trkpt>
      <trkpt lat="47.84069" lon="7.30067">
        <ele>238.2</ele>
        <time>2014-03-06T15:44:39Z</time>
      </trkpt>
      <trkpt lat="47.84063" lon="7.30079">
        <ele>238.4</ele>
        <time>2014-03-06T15:44:41Z</time>
      </trkpt>
      <trkpt lat="47.84058" lon="7.30091">
        <ele>238.9</ele>
        <time>2014-03-06T15:44:43Z</time>
      </trkpt>
      <trkpt lat="47.84054" lon="7.30103">
        <ele>238.4</ele>
        <time>2014-03-06T15:44:45Z</time>
      </trkpt>
      <trkpt lat="47.84049" lon="7.30113">
        <ele>239.5</ele>
        <time>2014-03-06T15:44:47Z</time>
      </trkpt>
      <trkpt lat="47.84045" lon="7.30124">
        <ele>238.4</ele>
        <time>2014-03-06T15:44:49Z</time>
      </trkpt>
      <trkpt lat="47.84041" lon="7.30135">
        <ele>238.9</ele>
        <time>2014-03-06T15:44:51Z</time>
      </trkpt>
      <trkpt lat="47.84036" lon="7.30146">
        <ele>238.5</ele>
        <time>2014-03-06T15:44:53Z</time>
      </trkpt>
      <trkpt lat="47.84031" lon="7.30158">
        <ele>238.8</ele>
        <time>2014-03-06T15:44:55Z</time>
      </trkpt>
      <trkpt lat="47.84027" lon="7.30168">
        <ele>238.8</ele>
        <time>2014-03-06T15:44:57Z</time>
      </trkpt>
      <trkpt lat="47.84021" lon="7.30178">
        <ele>239.1</ele>
        <time>2014-03-06T15:44:59Z</time>
      </trkpt>
      <trkpt lat="47.84013" lon="7.30183">
        <ele>238.4</ele>
        <time>2014-03-06T15:45:01Z</time>
      </trkpt>
      <trkpt lat="47.84003" lon="7.30181">
        <ele>238.4</ele>
        <time>2014-03-06T15:45:03Z</time>
      </trkpt>
      <trkpt lat="47.83995" lon="7.30175">
        <ele>238.6</ele>
        <time>2014-03-06T15:45:05Z</time>
      </trkpt>
      <trkpt lat="47.83987" lon="7.30166">
        <ele>239.1</ele>
        <time>2014-03-06T15:45:07Z</time>
      </trkpt>
      <trkpt lat="47.83979" lon="7.30158">
        <ele>238.7</ele>
        <time>2014-03-06T15:45:09Z</time>
      </trkpt>
      <trkpt lat="47.8397" lon="7.30152">
        <ele>238.7</ele>
        <time>2014-03-06T15:45:11Z</time>
      </trkpt>
      <trkpt lat="47.83963" lon="7.30145">
        <ele>238.6</ele>
        <time>2014-03-06T15:45:13Z</time>
      </trkpt>
      <trkpt lat="47.83954" lon="7.30138">
        <ele>238.7</ele>
        <time>2014-03-06T15:45:15Z</time>
      </trkpt>
      <trkpt lat="47.83945" lon="7.30131">
        <ele>239</ele>
        <time>2014-03-06T15:45:17Z</time>
      </trkpt>
      <trkpt lat="47.83936" lon="7.30123">
        <ele>239.5</ele>
        <time>2014-03-06T15:45:19Z</time>
      </trkpt>
      <trkpt lat="47.83927" lon="7.30114">
        <ele>239.2</ele>
        <time>2014-03-06T15:45:21Z</time>
      </trkpt>
      <trkpt lat="47.83918" lon="7.30107">
        <ele>239.5</ele>
        <time>2014-03-06T15:45:23Z</time>
      </trkpt>
      <trkpt lat="47.8391" lon="7.30099">
        <ele>238.9</ele>
        <time>2014-03-06T15:45:25Z</time>
      </trkpt>
      <trkpt lat="47.83902" lon="7.30091">
        <ele>239.4</ele>
        <time>2014-03-06T15:45:27Z</time>
      </trkpt>
      <trkpt lat="47.83894" lon="7.30086">
        <ele>238.9</ele>
        <time>2014-03-06T15:45:29Z</time>
      </trkpt>
      <trkpt lat="47.83887" lon="7.30089">
        <ele>239.4</ele>
        <time>2014-03-06T15:45:31Z</time>
      </trkpt>
      <trkpt lat="47.83884" lon="7.30098">
        <ele>238.6</ele>
        <time>2014-03-06T15:45:33Z</time>
      </trkpt>
      <trkpt lat="47.83882" lon="7.3011">
        <ele>238.4</ele>
        <time>2014-03-06T15:45:35Z</time>
      </trkpt>
      <trkpt lat="47.83883" lon="7.30136">
        <ele>239.4</ele>
        <time>2014-03-06T15:45:39Z</time>
      </trkpt>
      <trkpt lat="47.8388" lon="7.3016">
        <ele>238.9</ele>
        <time>2014-03-06T15:45:43Z</time>
      </trkpt>
      <trkpt lat="47.83872" lon="7.30164">
        <ele>239</ele>
        <time>2014-03-06T15:45:45Z</time>
      </trkpt>
      <trkpt lat="47.83863" lon="7.30165">
        <ele>239.2</ele>
        <time>2014-03-06T15:45:47Z</time>
      </trkpt>
      <trkpt lat="47.83853" lon="7.30166">
        <ele>239.3</ele>
        <time>2014-03-06T15:45:49Z</time>
      </trkpt>
      <trkpt lat="47.83843" lon="7.30167">
        <ele>238.5</ele>
        <time>2014-03-06T15:45:51Z</time>
      </trkpt>
      <trkpt lat="47.83832" lon="7.30168">
        <ele>239.8</ele>
        <time>2014-03-06T15:45:53Z</time>
      </trkpt>
      <trkpt lat="47.83811" lon="7.30165">
        <ele>238.6</ele>
        <time>2014-03-06T15:45:57Z</time>
      </trkpt>
      <trkpt lat="47.83801" lon="7.30162">
        <ele>240.2</ele>
        <time>2014-03-06T15:45:59Z</time>
      </trkpt>
      <trkpt lat="47.83789" lon="7.30157">
        <ele>239</ele>
        <time>2014-03-06T15:46:01Z</time>
      </trkpt>
      <trkpt lat="47.83778" lon="7.30151">
        <ele>238</ele>
        <time>2014-03-06T15:46:03Z</time>
      </trkpt>
      <trkpt lat="47.83767" lon="7.30146">
        <ele>239.1</ele>
        <time>2014-03-06T15:46:05Z</time>
      </trkpt>
      <trkpt lat="47.83757" lon="7.3014">
        <ele>238.8</ele>
        <time>2014-03-06T15:46:07Z</time>
      </trkpt>
      <trkpt lat="47.83748" lon="7.30136">
        <ele>239.9</ele>
        <time>2014-03-06T15:46:08Z</time>
      </trkpt>
      <trkpt lat="47.83738" lon="7.30131">
        <ele>238.4</ele>
        <time>2014-03-06T15:46:11Z</time>
      </trkpt>
      <trkpt lat="47.83728" lon="7.30126">
        <ele>238.5</ele>
        <time>2014-03-06T15:46:13Z</time>
      </trkpt>
      <trkpt lat="47.83718" lon="7.30121">
        <ele>239.4</ele>
        <time>2014-03-06T15:46:15Z</time>
      </trkpt>
      <trkpt lat="47.83707" lon="7.30119">
        <ele>239.1</ele>
        <time>2014-03-06T15:46:17Z</time>
      </trkpt>
      <trkpt lat="47.83695" lon="7.3012">
        <ele>240</ele>
        <time>2014-03-06T15:46:19Z</time>
      </trkpt>
      <trkpt lat="47.83684" lon="7.30121">
        <ele>240.1</ele>
        <time>2014-03-06T15:46:21Z</time>
      </trkpt>
      <trkpt lat="47.83672" lon="7.30122">
        <ele>239.9</ele>
        <time>2014-03-06T15:46:23Z</time>
      </trkpt>
      <trkpt lat="47.83661" lon="7.30123">
        <ele>240.2</ele>
        <time>2014-03-06T15:46:25Z</time>
      </trkpt>
      <trkpt lat="47.83649" lon="7.30124">
        <ele>239.7</ele>
        <time>2014-03-06T15:46:27Z</time>
      </trkpt>
      <trkpt lat="47.83638" lon="7.30125">
        <ele>240.3</ele>
        <time>2014-03-06T15:46:29Z</time>
      </trkpt>
      <trkpt lat="47.83627" lon="7.30126">
        <ele>240.8</ele>
        <time>2014-03-06T15:46:31Z</time>
      </trkpt>
      <trkpt lat="47.83617" lon="7.30126">
        <ele>239.4</ele>
        <time>2014-03-06T15:46:33Z</time>
      </trkpt>
      <trkpt lat="47.83608" lon="7.30126">
        <ele>239.6</ele>
        <time>2014-03-06T15:46:35Z</time>
      </trkpt>
      <trkpt lat="47.83599" lon="7.30127">
        <ele>239.4</ele>
        <time>2014-03-06T15:46:37Z</time>
      </trkpt>
      <trkpt lat="47.8359" lon="7.30128">
        <ele>239.3</ele>
        <time>2014-03-06T15:46:39Z</time>
      </trkpt>
      <trkpt lat="47.83583" lon="7.30128">
        <ele>239.8</ele>
        <time>2014-03-06T15:46:41Z</time>
      </trkpt>
      <trkpt lat="47.83577" lon="7.30131">
        <ele>240</ele>
        <time>2014-03-06T15:46:43Z</time>
      </trkpt>
      <trkpt lat="47.83574" lon="7.3014">
        <ele>240.4</ele>
        <time>2014-03-06T15:46:45Z</time>
      </trkpt>
      <trkpt lat="47.83571" lon="7.3015">
        <ele>239.3</ele>
        <time>2014-03-06T15:46:47Z</time>
      </trkpt>
      <trkpt lat="47.83567" lon="7.3016">
        <ele>239</ele>
        <time>2014-03-06T15:46:49Z</time>
      </trkpt>
      <trkpt lat="47.83564" lon="7.30171">
        <ele>238.7</ele>
        <time>2014-03-06T15:46:51Z</time>
      </trkpt>
      <trkpt lat="47.8356" lon="7.30182">
        <ele>239.5</ele>
        <time>2014-03-06T15:46:53Z</time>
      </trkpt>
      <trkpt lat="47.83555" lon="7.30192">
        <ele>240.9</ele>
        <time>2014-03-06T15:46:55Z</time>
      </trkpt>
      <trkpt lat="47.83547" lon="7.30199">
        <ele>241.1</ele>
        <time>2014-03-06T15:46:57Z</time>
      </trkpt>
      <trkpt lat="47.83539" lon="7.30205">
        <ele>240.7</ele>
        <time>2014-03-06T15:46:59Z</time>
      </trkpt>
      <trkpt lat="47.83531" lon="7.30213">
        <ele>239.4</ele>
        <time>2014-03-06T15:47:01Z</time>
      </trkpt>
      <trkpt lat="47.83523" lon="7.3022">
        <ele>239.8</ele>
        <time>2014-03-06T15:47:03Z</time>
      </trkpt>
      <trkpt lat="47.83515" lon="7.30227">
        <ele>240.3</ele>
        <time>2014-03-06T15:47:05Z</time>
      </trkpt>
      <trkpt lat="47.83508" lon="7.30233">
        <ele>239.6</ele>
        <time>2014-03-06T15:47:07Z</time>
      </trkpt>
      <trkpt lat="47.83502" lon="7.30239">
        <ele>238.8</ele>
        <time>2014-03-06T15:47:09Z</time>
      </trkpt>
      <trkpt lat="47.83496" lon="7.30244">
        <ele>238.9</ele>
        <time>2014-03-06T15:47:11Z</time>
      </trkpt>
      <trkpt lat="47.83491" lon="7.30248">
        <ele>240</ele>
        <time>2014-03-06T15:47:13Z</time>
      </trkpt>
      <trkpt lat="47.83488" lon="7.30251">
        <ele>240.2</ele>
        <time>2014-03-06T15:47:15Z</time>
      </trkpt>
      <trkpt lat="47.83486" lon="7.30253">
        <ele>240</ele>
        <time>2014-03-06T15:47:17Z</time>
      </trkpt>
      <trkpt lat="47.8348" lon="7.30256">
        <ele>240.6</ele>
        <time>2014-03-06T15:47:33Z</time>
      </trkpt>
      <trkpt lat="47.83475" lon="7.30258">
        <ele>240.5</ele>
        <time>2014-03-06T15:47:35Z</time>
      </trkpt>
      <trkpt lat="47.8347" lon="7.30262">
        <ele>241.5</ele>
        <time>2014-03-06T15:47:37Z</time>
      </trkpt>
      <trkpt lat="47.83468" lon="7.30271">
        <ele>241.7</ele>
        <time>2014-03-06T15:47:39Z</time>
      </trkpt>
      <trkpt lat="47.83464" lon="7.30281">
        <ele>240.6</ele>
        <time>2014-03-06T15:47:41Z</time>
      </trkpt>
      <trkpt lat="47.83461" lon="7.30291">
        <ele>240.6</ele>
        <time>2014-03-06T15:47:43Z</time>
      </trkpt>
      <trkpt lat="47.83457" lon="7.30302">
        <ele>241.1</ele>
        <time>2014-03-06T15:47:45Z</time>
      </trkpt>
      <trkpt lat="47.83453" lon="7.30314">
        <ele>240.9</ele>
        <time>2014-03-06T15:47:47Z</time>
      </trkpt>
      <trkpt lat="47.83448" lon="7.30326">
        <ele>240.7</ele>
        <time>2014-03-06T15:47:49Z</time>
      </trkpt>
      <trkpt lat="47.83443" lon="7.3034">
        <ele>240</ele>
        <time>2014-03-06T15:47:51Z</time>
      </trkpt>
      <trkpt lat="47.83438" lon="7.30354">
        <ele>241</ele>
        <time>2014-03-06T15:47:53Z</time>
      </trkpt>
      <trkpt lat="47.83433" lon="7.30367">
        <ele>240.2</ele>
        <time>2014-03-06T15:47:55Z</time>
      </trkpt>
      <trkpt lat="47.83429" lon="7.30378">
        <ele>240.9</ele>
        <time>2014-03-06T15:47:57Z</time>
      </trkpt>
      <trkpt lat="47.83423" lon="7.30389">
        <ele>240.8</ele>
        <time>2014-03-06T15:47:59Z</time>
      </trkpt>
      <trkpt lat="47.83418" lon="7.30402">
        <ele>240.3</ele>
        <time>2014-03-06T15:48:01Z</time>
      </trkpt>
      <trkpt lat="47.83413" lon="7.30415">
        <ele>240.5</ele>
        <time>2014-03-06T15:48:03Z</time>
      </trkpt>
      <trkpt lat="47.83408" lon="7.30429">
        <ele>240.4</ele>
        <time>2014-03-06T15:48:05Z</time>
      </trkpt>
      <trkpt lat="47.83404" lon="7.30444">
        <ele>241.4</ele>
        <time>2014-03-06T15:48:07Z</time>
      </trkpt>
      <trkpt lat="47.83399" lon="7.30458">
        <ele>240.6</ele>
        <time>2014-03-06T15:48:09Z</time>
      </trkpt>
      <trkpt lat="47.83395" lon="7.30472">
        <ele>240.2</ele>
        <time>2014-03-06T15:48:11Z</time>
      </trkpt>
      <trkpt lat="47.8339" lon="7.30484">
        <ele>240.6</ele>
        <time>2014-03-06T15:48:13Z</time>
      </trkpt>
      <trkpt lat="47.83386" lon="7.30496">
        <ele>240.5</ele>
        <time>2014-03-06T15:48:15Z</time>
      </trkpt>
      <trkpt lat="47.83381" lon="7.30509">
        <ele>240.4</ele>
        <time>2014-03-06T15:48:17Z</time>
      </trkpt>
      <trkpt lat="47.83376" lon="7.30522">
        <ele>240.3</ele>
        <time>2014-03-06T15:48:19Z</time>
      </trkpt>
      <trkpt lat="47.83371" lon="7.30536">
        <ele>240.8</ele>
        <time>2014-03-06T15:48:21Z</time>
      </trkpt>
      <trkpt lat="47.83365" lon="7.3055">
        <ele>241.7</ele>
        <time>2014-03-06T15:48:23Z</time>
      </trkpt>
      <trkpt lat="47.8336" lon="7.30564">
        <ele>241.5</ele>
        <time>2014-03-06T15:48:25Z</time>
      </trkpt>
      <trkpt lat="47.83356" lon="7.30576">
        <ele>240.6</ele>
        <time>2014-03-06T15:48:27Z</time>
      </trkpt>
      <trkpt lat="47.83352" lon="7.30588">
        <ele>241.1</ele>
        <time>2014-03-06T15:48:29Z</time>
      </trkpt>
      <trkpt lat="47.83347" lon="7.30601">
        <ele>240.9</ele>
        <time>2014-03-06T15:48:31Z</time>
      </trkpt>
      <trkpt lat="47.83342" lon="7.30614">
        <ele>241.4</ele>
        <time>2014-03-06T15:48:33Z</time>
      </trkpt>
      <trkpt lat="47.83337" lon="7.30628">
        <ele>240</ele>
        <time>2014-03-06T15:48:35Z</time>
      </trkpt>
      <trkpt lat="47.83332" lon="7.30642">
        <ele>239.1</ele>
        <time>2014-03-06T15:48:37Z</time>
      </trkpt>
      <trkpt lat="47.83326" lon="7.30656">
        <ele>238.8</ele>
        <time>2014-03-06T15:48:39Z</time>
      </trkpt>
      <trkpt lat="47.83321" lon="7.3067">
        <ele>239.5</ele>
        <time>2014-03-06T15:48:41Z</time>
      </trkpt>
      <trkpt lat="47.83316" lon="7.30683">
        <ele>239.6</ele>
        <time>2014-03-06T15:48:43Z</time>
      </trkpt>
      <trkpt lat="47.83311" lon="7.30696">
        <ele>240.7</ele>
        <time>2014-03-06T15:48:45Z</time>
      </trkpt>
      <trkpt lat="47.83306" lon="7.30708">
        <ele>240.3</ele>
        <time>2014-03-06T15:48:47Z</time>
      </trkpt>
      <trkpt lat="47.83302" lon="7.3072">
        <ele>240.4</ele>
        <time>2014-03-06T15:48:49Z</time>
      </trkpt>
      <trkpt lat="47.83295" lon="7.30729">
        <ele>240.4</ele>
        <time>2014-03-06T15:48:51Z</time>
      </trkpt>
      <trkpt lat="47.83288" lon="7.30737">
        <ele>239.9</ele>
        <time>2014-03-06T15:48:53Z</time>
      </trkpt>
      <trkpt lat="47.8328" lon="7.30747">
        <ele>239.8</ele>
        <time>2014-03-06T15:48:55Z</time>
      </trkpt>
      <trkpt lat="47.83273" lon="7.30759">
        <ele>240.8</ele>
        <time>2014-03-06T15:48:57Z</time>
      </trkpt>
      <trkpt lat="47.83265" lon="7.30773">
        <ele>239.6</ele>
        <time>2014-03-06T15:48:59Z</time>
      </trkpt>
      <trkpt lat="47.83258" lon="7.30788">
        <ele>240.6</ele>
        <time>2014-03-06T15:49:01Z</time>
      </trkpt>
      <trkpt lat="47.83251" lon="7.30802">
        <ele>238.9</ele>
        <time>2014-03-06T15:49:03Z</time>
      </trkpt>
      <trkpt lat="47.83246" lon="7.30816">
        <ele>238.8</ele>
        <time>2014-03-06T15:49:05Z</time>
      </trkpt>
      <trkpt lat="47.8324" lon="7.30827">
        <ele>239</ele>
        <time>2014-03-06T15:49:07Z</time>
      </trkpt>
      <trkpt lat="47.83232" lon="7.30836">
        <ele>239.9</ele>
        <time>2014-03-06T15:49:09Z</time>
      </trkpt>
      <trkpt lat="47.83224" lon="7.30845">
        <ele>238.9</ele>
        <time>2014-03-06T15:49:11Z</time>
      </trkpt>
      <trkpt lat="47.83215" lon="7.30855">
        <ele>239.2</ele>
        <time>2014-03-06T15:49:13Z</time>
      </trkpt>
      <trkpt lat="47.83206" lon="7.30865">
        <ele>238.9</ele>
        <time>2014-03-06T15:49:15Z</time>
      </trkpt>
      <trkpt lat="47.83197" lon="7.30875">
        <ele>238.9</ele>
        <time>2014-03-06T15:49:17Z</time>
      </trkpt>
      <trkpt lat="47.83188" lon="7.30887">
        <ele>238.7</ele>
        <time>2014-03-06T15:49:19Z</time>
      </trkpt>
      <trkpt lat="47.83179" lon="7.30899">
        <ele>238.6</ele>
        <time>2014-03-06T15:49:21Z</time>
      </trkpt>
      <trkpt lat="47.83171" lon="7.30912">
        <ele>240.1</ele>
        <time>2014-03-06T15:49:23Z</time>
      </trkpt>
      <trkpt lat="47.83164" lon="7.30927">
        <ele>240.2</ele>
        <time>2014-03-06T15:49:25Z</time>
      </trkpt>
      <trkpt lat="47.83156" lon="7.30943">
        <ele>238.6</ele>
        <time>2014-03-06T15:49:27Z</time>
      </trkpt>
      <trkpt lat="47.83151" lon="7.30961">
        <ele>239.3</ele>
        <time>2014-03-06T15:49:29Z</time>
      </trkpt>
      <trkpt lat="47.83146" lon="7.30979">
        <ele>238.5</ele>
        <time>2014-03-06T15:49:31Z</time>
      </trkpt>
      <trkpt lat="47.83142" lon="7.30998">
        <ele>237.8</ele>
        <time>2014-03-06T15:49:33Z</time>
      </trkpt>
      <trkpt lat="47.83139" lon="7.31017">
        <ele>237.9</ele>
        <time>2014-03-06T15:49:35Z</time>
      </trkpt>
      <trkpt lat="47.83136" lon="7.31036">
        <ele>236.2</ele>
        <time>2014-03-06T15:49:37Z</time>
      </trkpt>
      <trkpt lat="47.83133" lon="7.31055">
        <ele>236.6</ele>
        <time>2014-03-06T15:49:39Z</time>
      </trkpt>
      <trkpt lat="47.8313" lon="7.31073">
        <ele>237.1</ele>
        <time>2014-03-06T15:49:41Z</time>
      </trkpt>
      <trkpt lat="47.83127" lon="7.31092">
        <ele>236.8</ele>
        <time>2014-03-06T15:49:43Z</time>
      </trkpt>
      <trkpt lat="47.83124" lon="7.31111">
        <ele>236.2</ele>
        <time>2014-03-06T15:49:45Z</time>
      </trkpt>
      <trkpt lat="47.83122" lon="7.3113">
        <ele>237.9</ele>
        <time>2014-03-06T15:49:47Z</time>
      </trkpt>
      <trkpt lat="47.83118" lon="7.31149">
        <ele>236.5</ele>
        <time>2014-03-06T15:49:49Z</time>
      </trkpt>
      <trkpt lat="47.83115" lon="7.31169">
        <ele>236.7</ele>
        <time>2014-03-06T15:49:51Z</time>
      </trkpt>
      <trkpt lat="47.83112" lon="7.31188">
        <ele>235.3</ele>
        <time>2014-03-06T15:49:53Z</time>
      </trkpt>
      <trkpt lat="47.83109" lon="7.31206">
        <ele>236.5</ele>
        <time>2014-03-06T15:49:55Z</time>
      </trkpt>
      <trkpt lat="47.83107" lon="7.31224">
        <ele>235.9</ele>
        <time>2014-03-06T15:49:57Z</time>
      </trkpt>
      <trkpt lat="47.83104" lon="7.3124">
        <ele>236.6</ele>
        <time>2014-03-06T15:49:59Z</time>
      </trkpt>
      <trkpt lat="47.83101" lon="7.31255">
        <ele>236.7</ele>
        <time>2014-03-06T15:50:01Z</time>
      </trkpt>
      <trkpt lat="47.83098" lon="7.3127">
        <ele>237.5</ele>
        <time>2014-03-06T15:50:03Z</time>
      </trkpt>
      <trkpt lat="47.83096" lon="7.31284">
        <ele>235.8</ele>
        <time>2014-03-06T15:50:05Z</time>
      </trkpt>
      <trkpt lat="47.83094" lon="7.31299">
        <ele>236</ele>
        <time>2014-03-06T15:50:07Z</time>
      </trkpt>
      <trkpt lat="47.83091" lon="7.31313">
        <ele>235.6</ele>
        <time>2014-03-06T15:50:09Z</time>
      </trkpt>
      <trkpt lat="47.8309" lon="7.31327">
        <ele>235.6</ele>
        <time>2014-03-06T15:50:11Z</time>
      </trkpt>
      <trkpt lat="47.83089" lon="7.31341">
        <ele>236.5</ele>
        <time>2014-03-06T15:50:13Z</time>
      </trkpt>
      <trkpt lat="47.83087" lon="7.31356">
        <ele>237.3</ele>
        <time>2014-03-06T15:50:15Z</time>
      </trkpt>
      <trkpt lat="47.83087" lon="7.31371">
        <ele>237.3</ele>
        <time>2014-03-06T15:50:17Z</time>
      </trkpt>
      <trkpt lat="47.83086" lon="7.31387">
        <ele>238.3</ele>
        <time>2014-03-06T15:50:19Z</time>
      </trkpt>
      <trkpt lat="47.83086" lon="7.3149">
        <ele>237.1</ele>
        <time>2014-03-06T15:50:33Z</time>
      </trkpt>
      <trkpt lat="47.83087" lon="7.31519">
        <ele>236.3</ele>
        <time>2014-03-06T15:50:37Z</time>
      </trkpt>
      <trkpt lat="47.83087" lon="7.3155">
        <ele>236.6</ele>
        <time>2014-03-06T15:50:41Z</time>
      </trkpt>
      <trkpt lat="47.83088" lon="7.31629">
        <ele>236.7</ele>
        <time>2014-03-06T15:50:51Z</time>
      </trkpt>
      <trkpt lat="47.83088" lon="7.31645">
        <ele>235.7</ele>
        <time>2014-03-06T15:50:53Z</time>
      </trkpt>
      <trkpt lat="47.83088" lon="7.3166">
        <ele>235.7</ele>
        <time>2014-03-06T15:50:55Z</time>
      </trkpt>
      <trkpt lat="47.83089" lon="7.31724">
        <ele>235.2</ele>
        <time>2014-03-06T15:51:03Z</time>
      </trkpt>
      <trkpt lat="47.83089" lon="7.3176">
        <ele>234</ele>
        <time>2014-03-06T15:51:07Z</time>
      </trkpt>
      <trkpt lat="47.83089" lon="7.31796">
        <ele>232.1</ele>
        <time>2014-03-06T15:51:11Z</time>
      </trkpt>
      <trkpt lat="47.8309" lon="7.31813">
        <ele>232.2</ele>
        <time>2014-03-06T15:51:13Z</time>
      </trkpt>
      <trkpt lat="47.8309" lon="7.3183">
        <ele>232.6</ele>
        <time>2014-03-06T15:51:15Z</time>
      </trkpt>
      <trkpt lat="47.8309" lon="7.31863">
        <ele>233.7</ele>
        <time>2014-03-06T15:51:19Z</time>
      </trkpt>
      <trkpt lat="47.8309" lon="7.31915">
        <ele>234.4</ele>
        <time>2014-03-06T15:51:25Z</time>
      </trkpt>
      <trkpt lat="47.83091" lon="7.31968">
        <ele>234.3</ele>
        <time>2014-03-06T15:51:31Z</time>
      </trkpt>
      <trkpt lat="47.83092" lon="7.31983">
        <ele>234.2</ele>
        <time>2014-03-06T15:51:33Z</time>
      </trkpt>
      <trkpt lat="47.83093" lon="7.31998">
        <ele>233.6</ele>
        <time>2014-03-06T15:51:35Z</time>
      </trkpt>
      <trkpt lat="47.83093" lon="7.32011">
        <ele>233</ele>
        <time>2014-03-06T15:51:37Z</time>
      </trkpt>
      <trkpt lat="47.83093" lon="7.32037">
        <ele>232.7</ele>
        <time>2014-03-06T15:51:41Z</time>
      </trkpt>
      <trkpt lat="47.83093" lon="7.32048">
        <ele>232.6</ele>
        <time>2014-03-06T15:51:43Z</time>
      </trkpt>
      <trkpt lat="47.83092" lon="7.32062">
        <ele>232.9</ele>
        <time>2014-03-06T15:51:45Z</time>
      </trkpt>
      <trkpt lat="47.83093" lon="7.32123">
        <ele>234.5</ele>
        <time>2014-03-06T15:51:53Z</time>
      </trkpt>
      <trkpt lat="47.83093" lon="7.32172">
        <ele>234.2</ele>
        <time>2014-03-06T15:51:59Z</time>
      </trkpt>
      <trkpt lat="47.83093" lon="7.32214">
        <ele>234.4</ele>
        <time>2014-03-06T15:52:05Z</time>
      </trkpt>
      <trkpt lat="47.83094" lon="7.32242">
        <ele>234.7</ele>
        <time>2014-03-06T15:52:09Z</time>
      </trkpt>
      <trkpt lat="47.83093" lon="7.32256">
        <ele>235.3</ele>
        <time>2014-03-06T15:52:11Z</time>
      </trkpt>
      <trkpt lat="47.83094" lon="7.32271">
        <ele>235</ele>
        <time>2014-03-06T15:52:13Z</time>
      </trkpt>
      <trkpt lat="47.83093" lon="7.32425">
        <ele>234.1</ele>
        <time>2014-03-06T15:52:35Z</time>
      </trkpt>
      <trkpt lat="47.83094" lon="7.3244">
        <ele>234.5</ele>
        <time>2014-03-06T15:52:37Z</time>
      </trkpt>
      <trkpt lat="47.83093" lon="7.32455">
        <ele>233.4</ele>
        <time>2014-03-06T15:52:39Z</time>
      </trkpt>
      <trkpt lat="47.83094" lon="7.32471">
        <ele>232.6</ele>
        <time>2014-03-06T15:52:41Z</time>
      </trkpt>
      <trkpt lat="47.83094" lon="7.32557">
        <ele>233.9</ele>
        <time>2014-03-06T15:52:53Z</time>
      </trkpt>
      <trkpt lat="47.83094" lon="7.32585">
        <ele>234.2</ele>
        <time>2014-03-06T15:52:57Z</time>
      </trkpt>
      <trkpt lat="47.83093" lon="7.32599">
        <ele>233.6</ele>
        <time>2014-03-06T15:52:59Z</time>
      </trkpt>
      <trkpt lat="47.83091" lon="7.32612">
        <ele>233.1</ele>
        <time>2014-03-06T15:53:01Z</time>
      </trkpt>
      <trkpt lat="47.83088" lon="7.32625">
        <ele>234.1</ele>
        <time>2014-03-06T15:53:03Z</time>
      </trkpt>
      <trkpt lat="47.83085" lon="7.32638">
        <ele>234</ele>
        <time>2014-03-06T15:53:05Z</time>
      </trkpt>
      <trkpt lat="47.8308" lon="7.32649">
        <ele>234.2</ele>
        <time>2014-03-06T15:53:07Z</time>
      </trkpt>
      <trkpt lat="47.83075" lon="7.3266">
        <ele>234</ele>
        <time>2014-03-06T15:53:09Z</time>
      </trkpt>
      <trkpt lat="47.8307" lon="7.3267">
        <ele>234.6</ele>
        <time>2014-03-06T15:53:11Z</time>
      </trkpt>
      <trkpt lat="47.83065" lon="7.32678">
        <ele>234.9</ele>
        <time>2014-03-06T15:53:13Z</time>
      </trkpt>
      <trkpt lat="47.83059" lon="7.32687">
        <ele>234.6</ele>
        <time>2014-03-06T15:53:15Z</time>
      </trkpt>
      <trkpt lat="47.83054" lon="7.32696">
        <ele>235</ele>
        <time>2014-03-06T15:53:17Z</time>
      </trkpt>
      <trkpt lat="47.83049" lon="7.32704">
        <ele>234.8</ele>
        <time>2014-03-06T15:53:19Z</time>
      </trkpt>
      <trkpt lat="47.83044" lon="7.32713">
        <ele>235</ele>
        <time>2014-03-06T15:53:21Z</time>
      </trkpt>
      <trkpt lat="47.83038" lon="7.32722">
        <ele>235.3</ele>
        <time>2014-03-06T15:53:23Z</time>
      </trkpt>
      <trkpt lat="47.83033" lon="7.3273">
        <ele>235.4</ele>
        <time>2014-03-06T15:53:25Z</time>
      </trkpt>
      <trkpt lat="47.83028" lon="7.32738">
        <ele>235.9</ele>
        <time>2014-03-06T15:53:27Z</time>
      </trkpt>
      <trkpt lat="47.83024" lon="7.32746">
        <ele>236.1</ele>
        <time>2014-03-06T15:53:29Z</time>
      </trkpt>
      <trkpt lat="47.83019" lon="7.32753">
        <ele>235.4</ele>
        <time>2014-03-06T15:53:31Z</time>
      </trkpt>
      <trkpt lat="47.83014" lon="7.32761">
        <ele>235.5</ele>
        <time>2014-03-06T15:53:33Z</time>
      </trkpt>
      <trkpt lat="47.83009" lon="7.32769">
        <ele>235.6</ele>
        <time>2014-03-06T15:53:35Z</time>
      </trkpt>
      <trkpt lat="47.83003" lon="7.32778">
        <ele>236.6</ele>
        <time>2014-03-06T15:53:37Z</time>
      </trkpt>
      <trkpt lat="47.82996" lon="7.32787">
        <ele>236.6</ele>
        <time>2014-03-06T15:53:39Z</time>
      </trkpt>
      <trkpt lat="47.8299" lon="7.32797">
        <ele>236.3</ele>
        <time>2014-03-06T15:53:41Z</time>
      </trkpt>
      <trkpt lat="47.82983" lon="7.32807">
        <ele>236.2</ele>
        <time>2014-03-06T15:53:43Z</time>
      </trkpt>
      <trkpt lat="47.82977" lon="7.32816">
        <ele>236.2</ele>
        <time>2014-03-06T15:53:45Z</time>
      </trkpt>
      <trkpt lat="47.8297" lon="7.32825">
        <ele>236</ele>
        <time>2014-03-06T15:53:47Z</time>
      </trkpt>
      <trkpt lat="47.82964" lon="7.32834">
        <ele>236</ele>
        <time>2014-03-06T15:53:49Z</time>
      </trkpt>
      <trkpt lat="47.82958" lon="7.32843">
        <ele>235.3</ele>
        <time>2014-03-06T15:53:51Z</time>
      </trkpt>
      <trkpt lat="47.82951" lon="7.32853">
        <ele>234.5</ele>
        <time>2014-03-06T15:53:53Z</time>
      </trkpt>
      <trkpt lat="47.82945" lon="7.32863">
        <ele>235</ele>
        <time>2014-03-06T15:53:55Z</time>
      </trkpt>
      <trkpt lat="47.82938" lon="7.32874">
        <ele>235.9</ele>
        <time>2014-03-06T15:53:57Z</time>
      </trkpt>
      <trkpt lat="47.8293" lon="7.32885">
        <ele>235.7</ele>
        <time>2014-03-06T15:53:59Z</time>
      </trkpt>
      <trkpt lat="47.82924" lon="7.32895">
        <ele>235.5</ele>
        <time>2014-03-06T15:54:01Z</time>
      </trkpt>
      <trkpt lat="47.82917" lon="7.32905">
        <ele>235.2</ele>
        <time>2014-03-06T15:54:03Z</time>
      </trkpt>
      <trkpt lat="47.82912" lon="7.32915">
        <ele>235.6</ele>
        <time>2014-03-06T15:54:05Z</time>
      </trkpt>
      <trkpt lat="47.82907" lon="7.32925">
        <ele>235.1</ele>
        <time>2014-03-06T15:54:07Z</time>
      </trkpt>
      <trkpt lat="47.82902" lon="7.32937">
        <ele>234.8</ele>
        <time>2014-03-06T15:54:09Z</time>
      </trkpt>
      <trkpt lat="47.82898" lon="7.32949">
        <ele>235.6</ele>
        <time>2014-03-06T15:54:11Z</time>
      </trkpt>
      <trkpt lat="47.82894" lon="7.32962">
        <ele>236.1</ele>
        <time>2014-03-06T15:54:13Z</time>
      </trkpt>
      <trkpt lat="47.82891" lon="7.32976">
        <ele>236.2</ele>
        <time>2014-03-06T15:54:15Z</time>
      </trkpt>
      <trkpt lat="47.82888" lon="7.32991">
        <ele>235.2</ele>
        <time>2014-03-06T15:54:17Z</time>
      </trkpt>
      <trkpt lat="47.82885" lon="7.33006">
        <ele>234.7</ele>
        <time>2014-03-06T15:54:19Z</time>
      </trkpt>
      <trkpt lat="47.82882" lon="7.33021">
        <ele>234.2</ele>
        <time>2014-03-06T15:54:21Z</time>
      </trkpt>
      <trkpt lat="47.82879" lon="7.33037">
        <ele>234.8</ele>
        <time>2014-03-06T15:54:23Z</time>
      </trkpt>
      <trkpt lat="47.82875" lon="7.33052">
        <ele>235.3</ele>
        <time>2014-03-06T15:54:25Z</time>
      </trkpt>
      <trkpt lat="47.82872" lon="7.33066">
        <ele>234.9</ele>
        <time>2014-03-06T15:54:27Z</time>
      </trkpt>
      <trkpt lat="47.82869" lon="7.3308">
        <ele>234</ele>
        <time>2014-03-06T15:54:29Z</time>
      </trkpt>
      <trkpt lat="47.82866" lon="7.33094">
        <ele>234.6</ele>
        <time>2014-03-06T15:54:31Z</time>
      </trkpt>
      <trkpt lat="47.8286" lon="7.33105">
        <ele>234.2</ele>
        <time>2014-03-06T15:54:33Z</time>
      </trkpt>
      <trkpt lat="47.82851" lon="7.33111">
        <ele>234.3</ele>
        <time>2014-03-06T15:54:35Z</time>
      </trkpt>
      <trkpt lat="47.82843" lon="7.3312">
        <ele>235.4</ele>
        <time>2014-03-06T15:54:37Z</time>
      </trkpt>
      <trkpt lat="47.82834" lon="7.3313">
        <ele>234.8</ele>
        <time>2014-03-06T15:54:39Z</time>
      </trkpt>
      <trkpt lat="47.82826" lon="7.33143">
        <ele>234.9</ele>
        <time>2014-03-06T15:54:41Z</time>
      </trkpt>
      <trkpt lat="47.82817" lon="7.33153">
        <ele>234.5</ele>
        <time>2014-03-06T15:54:43Z</time>
      </trkpt>
      <trkpt lat="47.82806" lon="7.33156">
        <ele>234.2</ele>
        <time>2014-03-06T15:54:45Z</time>
      </trkpt>
      <trkpt lat="47.82794" lon="7.33155">
        <ele>234.7</ele>
        <time>2014-03-06T15:54:47Z</time>
      </trkpt>
      <trkpt lat="47.82784" lon="7.33154">
        <ele>235</ele>
        <time>2014-03-06T15:54:49Z</time>
      </trkpt>
      <trkpt lat="47.82772" lon="7.33154">
        <ele>234.5</ele>
        <time>2014-03-06T15:54:51Z</time>
      </trkpt>
      <trkpt lat="47.8276" lon="7.33153">
        <ele>235.8</ele>
        <time>2014-03-06T15:54:53Z</time>
      </trkpt>
      <trkpt lat="47.82747" lon="7.33152">
        <ele>235.9</ele>
        <time>2014-03-06T15:54:55Z</time>
      </trkpt>
      <trkpt lat="47.82735" lon="7.33151">
        <ele>234.3</ele>
        <time>2014-03-06T15:54:57Z</time>
      </trkpt>
      <trkpt lat="47.82721" lon="7.33149">
        <ele>234.1</ele>
        <time>2014-03-06T15:54:59Z</time>
      </trkpt>
      <trkpt lat="47.82709" lon="7.33148">
        <ele>235.1</ele>
        <time>2014-03-06T15:55:01Z</time>
      </trkpt>
      <trkpt lat="47.82697" lon="7.33147">
        <ele>234.8</ele>
        <time>2014-03-06T15:55:03Z</time>
      </trkpt>
      <trkpt lat="47.82685" lon="7.33146">
        <ele>234.6</ele>
        <time>2014-03-06T15:55:05Z</time>
      </trkpt>
      <trkpt lat="47.82673" lon="7.33145">
        <ele>234.4</ele>
        <time>2014-03-06T15:55:07Z</time>
      </trkpt>
      <trkpt lat="47.82662" lon="7.33145">
        <ele>234.4</ele>
        <time>2014-03-06T15:55:09Z</time>
      </trkpt>
      <trkpt lat="47.82652" lon="7.33146">
        <ele>233.9</ele>
        <time>2014-03-06T15:55:11Z</time>
      </trkpt>
      <trkpt lat="47.82642" lon="7.33147">
        <ele>233.9</ele>
        <time>2014-03-06T15:55:13Z</time>
      </trkpt>
      <trkpt lat="47.82633" lon="7.33152">
        <ele>233.9</ele>
        <time>2014-03-06T15:55:15Z</time>
      </trkpt>
      <trkpt lat="47.82629" lon="7.33163">
        <ele>232.9</ele>
        <time>2014-03-06T15:55:17Z</time>
      </trkpt>
      <trkpt lat="47.82628" lon="7.33175">
        <ele>233.8</ele>
        <time>2014-03-06T15:55:19Z</time>
      </trkpt>
      <trkpt lat="47.82628" lon="7.33187">
        <ele>233.6</ele>
        <time>2014-03-06T15:55:21Z</time>
      </trkpt>
      <trkpt lat="47.82627" lon="7.33215">
        <ele>233.6</ele>
        <time>2014-03-06T15:55:25Z</time>
      </trkpt>
      <trkpt lat="47.82626" lon="7.3323">
        <ele>234.2</ele>
        <time>2014-03-06T15:55:27Z</time>
      </trkpt>
      <trkpt lat="47.82622" lon="7.3324">
        <ele>233.7</ele>
        <time>2014-03-06T15:55:29Z</time>
      </trkpt>
      <trkpt lat="47.82615" lon="7.33242">
        <ele>232.8</ele>
        <time>2014-03-06T15:55:31Z</time>
      </trkpt>
      <trkpt lat="47.82606" lon="7.33242">
        <ele>231.9</ele>
        <time>2014-03-06T15:55:33Z</time>
      </trkpt>
      <trkpt lat="47.82596" lon="7.33241">
        <ele>233.1</ele>
        <time>2014-03-06T15:55:35Z</time>
      </trkpt>
      <trkpt lat="47.82586" lon="7.3324">
        <ele>233.6</ele>
        <time>2014-03-06T15:55:37Z</time>
      </trkpt>
      <trkpt lat="47.82576" lon="7.33239">
        <ele>233</ele>
        <time>2014-03-06T15:55:39Z</time>
      </trkpt>
      <trkpt lat="47.82565" lon="7.33237">
        <ele>233.2</ele>
        <time>2014-03-06T15:55:41Z</time>
      </trkpt>
      <trkpt lat="47.82554" lon="7.33237">
        <ele>234.2</ele>
        <time>2014-03-06T15:55:43Z</time>
      </trkpt>
      <trkpt lat="47.82544" lon="7.33236">
        <ele>235</ele>
        <time>2014-03-06T15:55:45Z</time>
      </trkpt>
      <trkpt lat="47.82534" lon="7.33236">
        <ele>236.1</ele>
        <time>2014-03-06T15:55:47Z</time>
      </trkpt>
      <trkpt lat="47.82524" lon="7.33236">
        <ele>235.6</ele>
        <time>2014-03-06T15:55:49Z</time>
      </trkpt>
      <trkpt lat="47.82514" lon="7.33235">
        <ele>235.2</ele>
        <time>2014-03-06T15:55:51Z</time>
      </trkpt>
      <trkpt lat="47.82505" lon="7.33234">
        <ele>235.4</ele>
        <time>2014-03-06T15:55:53Z</time>
      </trkpt>
      <trkpt lat="47.82495" lon="7.33234">
        <ele>234.3</ele>
        <time>2014-03-06T15:55:55Z</time>
      </trkpt>
      <trkpt lat="47.82485" lon="7.33236">
        <ele>234.5</ele>
        <time>2014-03-06T15:55:57Z</time>
      </trkpt>
      <trkpt lat="47.82476" lon="7.33242">
        <ele>234.5</ele>
        <time>2014-03-06T15:55:59Z</time>
      </trkpt>
      <trkpt lat="47.8247" lon="7.33253">
        <ele>234.7</ele>
        <time>2014-03-06T15:56:01Z</time>
      </trkpt>
      <trkpt lat="47.82467" lon="7.33266">
        <ele>235.2</ele>
        <time>2014-03-06T15:56:03Z</time>
      </trkpt>
      <trkpt lat="47.82463" lon="7.33277">
        <ele>235.5</ele>
        <time>2014-03-06T15:56:05Z</time>
      </trkpt>
      <trkpt lat="47.82455" lon="7.33281">
        <ele>234.7</ele>
        <time>2014-03-06T15:56:07Z</time>
      </trkpt>
      <trkpt lat="47.82445" lon="7.33281">
        <ele>235.4</ele>
        <time>2014-03-06T15:56:09Z</time>
      </trkpt>
      <trkpt lat="47.82435" lon="7.3328">
        <ele>236</ele>
        <time>2014-03-06T15:56:11Z</time>
      </trkpt>
      <trkpt lat="47.82424" lon="7.33279">
        <ele>235.6</ele>
        <time>2014-03-06T15:56:13Z</time>
      </trkpt>
      <trkpt lat="47.82413" lon="7.33278">
        <ele>235</ele>
        <time>2014-03-06T15:56:15Z</time>
      </trkpt>
      <trkpt lat="47.82402" lon="7.33277">
        <ele>233.8</ele>
        <time>2014-03-06T15:56:17Z</time>
      </trkpt>
      <trkpt lat="47.82392" lon="7.33277">
        <ele>234.8</ele>
        <time>2014-03-06T15:56:19Z</time>
      </trkpt>
      <trkpt lat="47.82382" lon="7.33276">
        <ele>234.7</ele>
        <time>2014-03-06T15:56:21Z</time>
      </trkpt>
      <trkpt lat="47.82373" lon="7.33276">
        <ele>234.9</ele>
        <time>2014-03-06T15:56:23Z</time>
      </trkpt>
      <trkpt lat="47.82364" lon="7.33275">
        <ele>234.5</ele>
        <time>2014-03-06T15:56:25Z</time>
      </trkpt>
      <trkpt lat="47.82357" lon="7.33274">
        <ele>235.2</ele>
        <time>2014-03-06T15:56:27Z</time>
      </trkpt>
      <trkpt lat="47.82354" lon="7.33274">
        <ele>234.9</ele>
        <time>2014-03-06T15:56:29Z</time>
      </trkpt>
      <trkpt lat="47.82351" lon="7.33274">
        <ele>234.6</ele>
        <time>2014-03-06T15:56:31Z</time>
      </trkpt>
      <trkpt lat="47.82348" lon="7.33273">
        <ele>234.9</ele>
        <time>2014-03-06T15:56:35Z</time>
      </trkpt>
      <trkpt lat="47.82344" lon="7.33272">
        <ele>234.9</ele>
        <time>2014-03-06T15:56:37Z</time>
      </trkpt>
      <trkpt lat="47.82338" lon="7.33272">
        <ele>235.3</ele>
        <time>2014-03-06T15:56:39Z</time>
      </trkpt>
      <trkpt lat="47.8233" lon="7.33272">
        <ele>234.6</ele>
        <time>2014-03-06T15:56:41Z</time>
      </trkpt>
      <trkpt lat="47.82322" lon="7.33271">
        <ele>234.8</ele>
        <time>2014-03-06T15:56:43Z</time>
      </trkpt>
      <trkpt lat="47.82313" lon="7.3327">
        <ele>234.9</ele>
        <time>2014-03-06T15:56:45Z</time>
      </trkpt>
      <trkpt lat="47.82304" lon="7.3327">
        <ele>235</ele>
        <time>2014-03-06T15:56:47Z</time>
      </trkpt>
      <trkpt lat="47.82294" lon="7.33269">
        <ele>235</ele>
        <time>2014-03-06T15:56:49Z</time>
      </trkpt>
      <trkpt lat="47.82284" lon="7.33269">
        <ele>234.7</ele>
        <time>2014-03-06T15:56:51Z</time>
      </trkpt>
      <trkpt lat="47.82274" lon="7.33268">
        <ele>235.1</ele>
        <time>2014-03-06T15:56:53Z</time>
      </trkpt>
      <trkpt lat="47.82262" lon="7.33268">
        <ele>235.4</ele>
        <time>2014-03-06T15:56:55Z</time>
      </trkpt>
      <trkpt lat="47.82251" lon="7.33267">
        <ele>235.3</ele>
        <time>2014-03-06T15:56:57Z</time>
      </trkpt>
      <trkpt lat="47.82241" lon="7.33265">
        <ele>235.4</ele>
        <time>2014-03-06T15:56:59Z</time>
      </trkpt>
      <trkpt lat="47.82231" lon="7.33263">
        <ele>235.1</ele>
        <time>2014-03-06T15:57:01Z</time>
      </trkpt>
      <trkpt lat="47.82221" lon="7.33262">
        <ele>234.5</ele>
        <time>2014-03-06T15:57:03Z</time>
      </trkpt>
      <trkpt lat="47.8221" lon="7.33262">
        <ele>234.5</ele>
        <time>2014-03-06T15:57:05Z</time>
      </trkpt>
      <trkpt lat="47.822" lon="7.33262">
        <ele>234.3</ele>
        <time>2014-03-06T15:57:07Z</time>
      </trkpt>
      <trkpt lat="47.82188" lon="7.33261">
        <ele>233.7</ele>
        <time>2014-03-06T15:57:09Z</time>
      </trkpt>
      <trkpt lat="47.82177" lon="7.33259">
        <ele>234.5</ele>
        <time>2014-03-06T15:57:11Z</time>
      </trkpt>
      <trkpt lat="47.82166" lon="7.33258">
        <ele>233.7</ele>
        <time>2014-03-06T15:57:13Z</time>
      </trkpt>
      <trkpt lat="47.82155" lon="7.33256">
        <ele>234</ele>
        <time>2014-03-06T15:57:15Z</time>
      </trkpt>
      <trkpt lat="47.82144" lon="7.33254">
        <ele>234</ele>
        <time>2014-03-06T15:57:17Z</time>
      </trkpt>
      <trkpt lat="47.82134" lon="7.33253">
        <ele>234.1</ele>
        <time>2014-03-06T15:57:19Z</time>
      </trkpt>
      <trkpt lat="47.82124" lon="7.33252">
        <ele>233.7</ele>
        <time>2014-03-06T15:57:21Z</time>
      </trkpt>
      <trkpt lat="47.82115" lon="7.33252">
        <ele>233.7</ele>
        <time>2014-03-06T15:57:23Z</time>
      </trkpt>
      <trkpt lat="47.82106" lon="7.33251">
        <ele>233.5</ele>
        <time>2014-03-06T15:57:25Z</time>
      </trkpt>
      <trkpt lat="47.82096" lon="7.3325">
        <ele>233.4</ele>
        <time>2014-03-06T15:57:27Z</time>
      </trkpt>
      <trkpt lat="47.82085" lon="7.33249">
        <ele>233</ele>
        <time>2014-03-06T15:57:29Z</time>
      </trkpt>
      <trkpt lat="47.82074" lon="7.33249">
        <ele>233.6</ele>
        <time>2014-03-06T15:57:31Z</time>
      </trkpt>
      <trkpt lat="47.82063" lon="7.33248">
        <ele>234.2</ele>
        <time>2014-03-06T15:57:33Z</time>
      </trkpt>
      <trkpt lat="47.82052" lon="7.33248">
        <ele>234.7</ele>
        <time>2014-03-06T15:57:35Z</time>
      </trkpt>
      <trkpt lat="47.8204" lon="7.33248">
        <ele>234.7</ele>
        <time>2014-03-06T15:57:37Z</time>
      </trkpt>
      <trkpt lat="47.8203" lon="7.33247">
        <ele>234.4</ele>
        <time>2014-03-06T15:57:39Z</time>
      </trkpt>
      <trkpt lat="47.8202" lon="7.33245">
        <ele>233.9</ele>
        <time>2014-03-06T15:57:41Z</time>
      </trkpt>
      <trkpt lat="47.82011" lon="7.33244">
        <ele>234.7</ele>
        <time>2014-03-06T15:57:43Z</time>
      </trkpt>
      <trkpt lat="47.82" lon="7.33243">
        <ele>234.3</ele>
        <time>2014-03-06T15:57:45Z</time>
      </trkpt>
      <trkpt lat="47.8199" lon="7.33242">
        <ele>234</ele>
        <time>2014-03-06T15:57:47Z</time>
      </trkpt>
      <trkpt lat="47.81979" lon="7.33241">
        <ele>234.2</ele>
        <time>2014-03-06T15:57:49Z</time>
      </trkpt>
      <trkpt lat="47.8197" lon="7.33241">
        <ele>234</ele>
        <time>2014-03-06T15:57:51Z</time>
      </trkpt>
      <trkpt lat="47.8196" lon="7.3324">
        <ele>234.3</ele>
        <time>2014-03-06T15:57:53Z</time>
      </trkpt>
      <trkpt lat="47.81952" lon="7.33239">
        <ele>234.6</ele>
        <time>2014-03-06T15:57:55Z</time>
      </trkpt>
      <trkpt lat="47.81946" lon="7.33241">
        <ele>234.5</ele>
        <time>2014-03-06T15:57:57Z</time>
      </trkpt>
      <trkpt lat="47.81942" lon="7.33249">
        <ele>235</ele>
        <time>2014-03-06T15:57:59Z</time>
      </trkpt>
      <trkpt lat="47.81941" lon="7.3326">
        <ele>234.6</ele>
        <time>2014-03-06T15:58:01Z</time>
      </trkpt>
      <trkpt lat="47.81941" lon="7.33274">
        <ele>234.7</ele>
        <time>2014-03-06T15:58:03Z</time>
      </trkpt>
      <trkpt lat="47.8194" lon="7.33288">
        <ele>234.7</ele>
        <time>2014-03-06T15:58:05Z</time>
      </trkpt>
      <trkpt lat="47.8194" lon="7.33303">
        <ele>234.7</ele>
        <time>2014-03-06T15:58:07Z</time>
      </trkpt>
      <trkpt lat="47.8194" lon="7.33349">
        <ele>234.9</ele>
        <time>2014-03-06T15:58:13Z</time>
      </trkpt>
      <trkpt lat="47.8194" lon="7.33363">
        <ele>234.9</ele>
        <time>2014-03-06T15:58:15Z</time>
      </trkpt>
      <trkpt lat="47.81939" lon="7.33376">
        <ele>234.9</ele>
        <time>2014-03-06T15:58:17Z</time>
      </trkpt>
      <trkpt lat="47.81939" lon="7.33389">
        <ele>234.9</ele>
        <time>2014-03-06T15:58:19Z</time>
      </trkpt>
      <trkpt lat="47.81937" lon="7.33401">
        <ele>234.5</ele>
        <time>2014-03-06T15:58:21Z</time>
      </trkpt>
      <trkpt lat="47.81935" lon="7.33408">
        <ele>234.5</ele>
        <time>2014-03-06T15:58:23Z</time>
      </trkpt>
      <trkpt lat="47.81931" lon="7.33411">
        <ele>234.3</ele>
        <time>2014-03-06T15:58:25Z</time>
      </trkpt>
      <trkpt lat="47.81925" lon="7.33411">
        <ele>234.2</ele>
        <time>2014-03-06T15:58:27Z</time>
      </trkpt>
      <trkpt lat="47.81919" lon="7.3341">
        <ele>233.9</ele>
        <time>2014-03-06T15:58:29Z</time>
      </trkpt>
      <trkpt lat="47.81912" lon="7.3341">
        <ele>234.3</ele>
        <time>2014-03-06T15:58:31Z</time>
      </trkpt>
      <trkpt lat="47.81904" lon="7.33409">
        <ele>234.6</ele>
        <time>2014-03-06T15:58:33Z</time>
      </trkpt>
      <trkpt lat="47.81895" lon="7.33408">
        <ele>234.3</ele>
        <time>2014-03-06T15:58:35Z</time>
      </trkpt>
      <trkpt lat="47.81886" lon="7.33407">
        <ele>234.6</ele>
        <time>2014-03-06T15:58:37Z</time>
      </trkpt>
      <trkpt lat="47.81877" lon="7.33407">
        <ele>234</ele>
        <time>2014-03-06T15:58:39Z</time>
      </trkpt>
      <trkpt lat="47.81867" lon="7.33406">
        <ele>234.2</ele>
        <time>2014-03-06T15:58:41Z</time>
      </trkpt>
      <trkpt lat="47.81857" lon="7.33406">
        <ele>233.7</ele>
        <time>2014-03-06T15:58:43Z</time>
      </trkpt>
      <trkpt lat="47.81847" lon="7.33405">
        <ele>233.9</ele>
        <time>2014-03-06T15:58:45Z</time>
      </trkpt>
      <trkpt lat="47.81837" lon="7.33404">
        <ele>233.8</ele>
        <time>2014-03-06T15:58:47Z</time>
      </trkpt>
      <trkpt lat="47.81828" lon="7.33403">
        <ele>234.1</ele>
        <time>2014-03-06T15:58:49Z</time>
      </trkpt>
      <trkpt lat="47.81819" lon="7.33402">
        <ele>234.2</ele>
        <time>2014-03-06T15:58:51Z</time>
      </trkpt>
      <trkpt lat="47.8181" lon="7.33402">
        <ele>232.9</ele>
        <time>2014-03-06T15:58:53Z</time>
      </trkpt>
      <trkpt lat="47.81801" lon="7.33401">
        <ele>235.1</ele>
        <time>2014-03-06T15:58:55Z</time>
      </trkpt>
      <trkpt lat="47.81791" lon="7.33401">
        <ele>235.4</ele>
        <time>2014-03-06T15:58:57Z</time>
      </trkpt>
      <trkpt lat="47.81781" lon="7.334">
        <ele>235.6</ele>
        <time>2014-03-06T15:58:59Z</time>
      </trkpt>
      <trkpt lat="47.8177" lon="7.33399">
        <ele>236.5</ele>
        <time>2014-03-06T15:59:01Z</time>
      </trkpt>
      <trkpt lat="47.8176" lon="7.33397">
        <ele>235.9</ele>
        <time>2014-03-06T15:59:03Z</time>
      </trkpt>
      <trkpt lat="47.81749" lon="7.33396">
        <ele>236.3</ele>
        <time>2014-03-06T15:59:05Z</time>
      </trkpt>
      <trkpt lat="47.81739" lon="7.33396">
        <ele>235.3</ele>
        <time>2014-03-06T15:59:07Z</time>
      </trkpt>
      <trkpt lat="47.81728" lon="7.33395">
        <ele>237.2</ele>
        <time>2014-03-06T15:59:09Z</time>
      </trkpt>
      <trkpt lat="47.81718" lon="7.33394">
        <ele>236.8</ele>
        <time>2014-03-06T15:59:11Z</time>
      </trkpt>
      <trkpt lat="47.81708" lon="7.33393">
        <ele>236.4</ele>
        <time>2014-03-06T15:59:13Z</time>
      </trkpt>
      <trkpt lat="47.81698" lon="7.33393">
        <ele>235.4</ele>
        <time>2014-03-06T15:59:15Z</time>
      </trkpt>
      <trkpt lat="47.81689" lon="7.33392">
        <ele>234.8</ele>
        <time>2014-03-06T15:59:17Z</time>
      </trkpt>
      <trkpt lat="47.8168" lon="7.33392">
        <ele>234.1</ele>
        <time>2014-03-06T15:59:19Z</time>
      </trkpt>
      <trkpt lat="47.81671" lon="7.33391">
        <ele>234.5</ele>
        <time>2014-03-06T15:59:21Z</time>
      </trkpt>
      <trkpt lat="47.81661" lon="7.3339">
        <ele>234.4</ele>
        <time>2014-03-06T15:59:23Z</time>
      </trkpt>
      <trkpt lat="47.81652" lon="7.33389">
        <ele>235.1</ele>
        <time>2014-03-06T15:59:25Z</time>
      </trkpt>
      <trkpt lat="47.81642" lon="7.33389">
        <ele>235.9</ele>
        <time>2014-03-06T15:59:27Z</time>
      </trkpt>
      <trkpt lat="47.81632" lon="7.33388">
        <ele>234.9</ele>
        <time>2014-03-06T15:59:29Z</time>
      </trkpt>
      <trkpt lat="47.81622" lon="7.33387">
        <ele>236.8</ele>
        <time>2014-03-06T15:59:31Z</time>
      </trkpt>
      <trkpt lat="47.81613" lon="7.33387">
        <ele>236.3</ele>
        <time>2014-03-06T15:59:33Z</time>
      </trkpt>
      <trkpt lat="47.81605" lon="7.33386">
        <ele>236.8</ele>
        <time>2014-03-06T15:59:35Z</time>
      </trkpt>
      <trkpt lat="47.81597" lon="7.33385">
        <ele>236.7</ele>
        <time>2014-03-06T15:59:37Z</time>
      </trkpt>
      <trkpt lat="47.8159" lon="7.33384">
        <ele>236.2</ele>
        <time>2014-03-06T15:59:39Z</time>
      </trkpt>
      <trkpt lat="47.81583" lon="7.33384">
        <ele>236.3</ele>
        <time>2014-03-06T15:59:41Z</time>
      </trkpt>
      <trkpt lat="47.81575" lon="7.33383">
        <ele>235.6</ele>
        <time>2014-03-06T15:59:43Z</time>
      </trkpt>
      <trkpt lat="47.81566" lon="7.33383">
        <ele>235.3</ele>
        <time>2014-03-06T15:59:45Z</time>
      </trkpt>
      <trkpt lat="47.81558" lon="7.33382">
        <ele>236</ele>
        <time>2014-03-06T15:59:47Z</time>
      </trkpt>
      <trkpt lat="47.81548" lon="7.33381">
        <ele>235.3</ele>
        <time>2014-03-06T15:59:49Z</time>
      </trkpt>
      <trkpt lat="47.81538" lon="7.3338">
        <ele>236.3</ele>
        <time>2014-03-06T15:59:51Z</time>
      </trkpt>
      <trkpt lat="47.81529" lon="7.3338">
        <ele>236.1</ele>
        <time>2014-03-06T15:59:53Z</time>
      </trkpt>
      <trkpt lat="47.81519" lon="7.33379">
        <ele>236.7</ele>
        <time>2014-03-06T15:59:55Z</time>
      </trkpt>
      <trkpt lat="47.81509" lon="7.33378">
        <ele>236.5</ele>
        <time>2014-03-06T15:59:57Z</time>
      </trkpt>
      <trkpt lat="47.81498" lon="7.33378">
        <ele>235.8</ele>
        <time>2014-03-06T15:59:59Z</time>
      </trkpt>
      <trkpt lat="47.81488" lon="7.33376">
        <ele>235.7</ele>
        <time>2014-03-06T16:00:01Z</time>
      </trkpt>
      <trkpt lat="47.81479" lon="7.33376">
        <ele>236.3</ele>
        <time>2014-03-06T16:00:02Z</time>
      </trkpt>
      <trkpt lat="47.81469" lon="7.33375">
        <ele>236.5</ele>
        <time>2014-03-06T16:00:05Z</time>
      </trkpt>
      <trkpt lat="47.8146" lon="7.33374">
        <ele>236.5</ele>
        <time>2014-03-06T16:00:07Z</time>
      </trkpt>
      <trkpt lat="47.8145" lon="7.33373">
        <ele>237.3</ele>
        <time>2014-03-06T16:00:09Z</time>
      </trkpt>
      <trkpt lat="47.8144" lon="7.33372">
        <ele>237.1</ele>
        <time>2014-03-06T16:00:11Z</time>
      </trkpt>
      <trkpt lat="47.81432" lon="7.33373">
        <ele>237.1</ele>
        <time>2014-03-06T16:00:13Z</time>
      </trkpt>
      <trkpt lat="47.81425" lon="7.33371">
        <ele>237</ele>
        <time>2014-03-06T16:00:15Z</time>
      </trkpt>
      <trkpt lat="47.81418" lon="7.33366">
        <ele>237.6</ele>
        <time>2014-03-06T16:00:17Z</time>
      </trkpt>
      <trkpt lat="47.81413" lon="7.33356">
        <ele>236.2</ele>
        <time>2014-03-06T16:00:19Z</time>
      </trkpt>
      <trkpt lat="47.81409" lon="7.33344">
        <ele>236.1</ele>
        <time>2014-03-06T16:00:21Z</time>
      </trkpt>
      <trkpt lat="47.81405" lon="7.33331">
        <ele>237.3</ele>
        <time>2014-03-06T16:00:23Z</time>
      </trkpt>
      <trkpt lat="47.81403" lon="7.33317">
        <ele>236.6</ele>
        <time>2014-03-06T16:00:25Z</time>
      </trkpt>
      <trkpt lat="47.81403" lon="7.33304">
        <ele>236.4</ele>
        <time>2014-03-06T16:00:27Z</time>
      </trkpt>
      <trkpt lat="47.814" lon="7.33294">
        <ele>236.5</ele>
        <time>2014-03-06T16:00:29Z</time>
      </trkpt>
      <trkpt lat="47.81394" lon="7.3329">
        <ele>236.4</ele>
        <time>2014-03-06T16:00:31Z</time>
      </trkpt>
      <trkpt lat="47.81391" lon="7.33297">
        <ele>236.6</ele>
        <time>2014-03-06T16:00:33Z</time>
      </trkpt>
      <trkpt lat="47.8139" lon="7.33307">
        <ele>236.6</ele>
        <time>2014-03-06T16:00:35Z</time>
      </trkpt>
      <trkpt lat="47.81388" lon="7.33317">
        <ele>237.3</ele>
        <time>2014-03-06T16:00:37Z</time>
      </trkpt>
      <trkpt lat="47.81383" lon="7.33325">
        <ele>235.6</ele>
        <time>2014-03-06T16:00:39Z</time>
      </trkpt>
      <trkpt lat="47.81375" lon="7.33329">
        <ele>236.4</ele>
        <time>2014-03-06T16:00:41Z</time>
      </trkpt>
      <trkpt lat="47.81365" lon="7.3333">
        <ele>235.3</ele>
        <time>2014-03-06T16:00:43Z</time>
      </trkpt>
      <trkpt lat="47.81357" lon="7.33334">
        <ele>235</ele>
        <time>2014-03-06T16:00:45Z</time>
      </trkpt>
      <trkpt lat="47.81353" lon="7.33338">
        <ele>235.4</ele>
        <time>2014-03-06T16:00:47Z</time>
      </trkpt>
    </trkseg>
  </trk>
</gpx>